<?xml version="1.0" encoding="UTF-8" standalone="no" ?>
<gpx xmlns="http://www.topografix.com/GPX/1/1" xmlns:xsi="http://www.w3.org/2001/XMLSchema-instance" xsi:schemaLocation="http://www.topografix.com/GPX/1/1 http://www.topografix.com/GPX/1/1/gpx.xsd" version="1.1" creator="VisuGPX - https://www.visugpx.com">
  <metadata>
    <name>Arbas c'est de la folie!!!! | Vélo | Strava</name>
  </metadata>
  <trk>
    <name><![CDATA[Arbas c'est de la folie!!!! | Vélo | Strava]]></name>
    <trkseg>
      <trkpt lat="42.99572" lon="0.90792">
        <ele>409.9</ele>
        <time>2021-10-14T10:00:47.000Z</time>
      </trkpt>
      <trkpt lat="42.99579" lon="0.90799">
        <ele>409.7</ele>
        <time>2021-10-14T10:00:49.000Z</time>
      </trkpt>
      <trkpt lat="42.99583" lon="0.908">
        <ele>409.7</ele>
        <time>2021-10-14T10:00:50.000Z</time>
      </trkpt>
      <trkpt lat="42.99592" lon="0.908">
        <ele>409.7</ele>
        <time>2021-10-14T10:00:52.000Z</time>
      </trkpt>
      <trkpt lat="42.99596" lon="0.90802">
        <ele>409.7</ele>
        <time>2021-10-14T10:00:54.000Z</time>
      </trkpt>
      <trkpt lat="42.99598" lon="0.90806">
        <ele>409.8</ele>
        <time>2021-10-14T10:00:55.000Z</time>
      </trkpt>
      <trkpt lat="42.99597" lon="0.90815">
        <ele>409.8</ele>
        <time>2021-10-14T10:00:57.000Z</time>
      </trkpt>
      <trkpt lat="42.99598" lon="0.9082">
        <ele>409.8</ele>
        <time>2021-10-14T10:00:58.000Z</time>
      </trkpt>
      <trkpt lat="42.99598" lon="0.90825">
        <ele>409.9</ele>
        <time>2021-10-14T10:00:59.000Z</time>
      </trkpt>
      <trkpt lat="42.99598" lon="0.9083">
        <ele>409.9</ele>
        <time>2021-10-14T10:01:00.000Z</time>
      </trkpt>
      <trkpt lat="42.99598" lon="0.90842">
        <ele>409.9</ele>
        <time>2021-10-14T10:01:02.000Z</time>
      </trkpt>
      <trkpt lat="42.99597" lon="0.90856">
        <ele>409.9</ele>
        <time>2021-10-14T10:01:04.000Z</time>
      </trkpt>
      <trkpt lat="42.99596" lon="0.90863">
        <ele>410</ele>
        <time>2021-10-14T10:01:05.000Z</time>
      </trkpt>
      <trkpt lat="42.99596" lon="0.90868">
        <ele>410</ele>
        <time>2021-10-14T10:01:06.000Z</time>
      </trkpt>
      <trkpt lat="42.99594" lon="0.9088">
        <ele>410.1</ele>
        <time>2021-10-14T10:01:08.000Z</time>
      </trkpt>
      <trkpt lat="42.99593" lon="0.90892">
        <ele>410.2</ele>
        <time>2021-10-14T10:01:10.000Z</time>
      </trkpt>
      <trkpt lat="42.99592" lon="0.90897">
        <ele>410.2</ele>
        <time>2021-10-14T10:01:11.000Z</time>
      </trkpt>
      <trkpt lat="42.99592" lon="0.90903">
        <ele>410.2</ele>
        <time>2021-10-14T10:01:12.000Z</time>
      </trkpt>
      <trkpt lat="42.99592" lon="0.90908">
        <ele>410.3</ele>
        <time>2021-10-14T10:01:13.000Z</time>
      </trkpt>
      <trkpt lat="42.99592" lon="0.90917">
        <ele>410.4</ele>
        <time>2021-10-14T10:01:15.000Z</time>
      </trkpt>
      <trkpt lat="42.99592" lon="0.90923">
        <ele>410.4</ele>
        <time>2021-10-14T10:01:16.000Z</time>
      </trkpt>
      <trkpt lat="42.99593" lon="0.90928">
        <ele>410.5</ele>
        <time>2021-10-14T10:01:17.000Z</time>
      </trkpt>
      <trkpt lat="42.99595" lon="0.90936">
        <ele>410.5</ele>
        <time>2021-10-14T10:01:19.000Z</time>
      </trkpt>
      <trkpt lat="42.99596" lon="0.90944">
        <ele>410.6</ele>
        <time>2021-10-14T10:01:20.000Z</time>
      </trkpt>
      <trkpt lat="42.99598" lon="0.90953">
        <ele>410.6</ele>
        <time>2021-10-14T10:01:22.000Z</time>
      </trkpt>
      <trkpt lat="42.996" lon="0.90958">
        <ele>410.7</ele>
        <time>2021-10-14T10:01:23.000Z</time>
      </trkpt>
      <trkpt lat="42.99601" lon="0.90964">
        <ele>410.7</ele>
        <time>2021-10-14T10:01:24.000Z</time>
      </trkpt>
      <trkpt lat="42.99603" lon="0.90968">
        <ele>410.7</ele>
        <time>2021-10-14T10:01:25.000Z</time>
      </trkpt>
      <trkpt lat="42.99605" lon="0.90976">
        <ele>410.8</ele>
        <time>2021-10-14T10:01:27.000Z</time>
      </trkpt>
      <trkpt lat="42.99607" lon="0.90982">
        <ele>410.9</ele>
        <time>2021-10-14T10:01:28.000Z</time>
      </trkpt>
      <trkpt lat="42.9961" lon="0.9099">
        <ele>411</ele>
        <time>2021-10-14T10:01:30.000Z</time>
      </trkpt>
      <trkpt lat="42.99612" lon="0.90998">
        <ele>411.1</ele>
        <time>2021-10-14T10:01:32.000Z</time>
      </trkpt>
      <trkpt lat="42.99614" lon="0.91005">
        <ele>411.2</ele>
        <time>2021-10-14T10:01:33.000Z</time>
      </trkpt>
      <trkpt lat="42.99617" lon="0.91013">
        <ele>411.3</ele>
        <time>2021-10-14T10:01:35.000Z</time>
      </trkpt>
      <trkpt lat="42.99618" lon="0.91019">
        <ele>411.4</ele>
        <time>2021-10-14T10:01:36.000Z</time>
      </trkpt>
      <trkpt lat="42.9962" lon="0.91029">
        <ele>411.6</ele>
        <time>2021-10-14T10:01:38.000Z</time>
      </trkpt>
      <trkpt lat="42.99621" lon="0.91035">
        <ele>411.7</ele>
        <time>2021-10-14T10:01:39.000Z</time>
      </trkpt>
      <trkpt lat="42.99621" lon="0.9104">
        <ele>411.8</ele>
        <time>2021-10-14T10:01:40.000Z</time>
      </trkpt>
      <trkpt lat="42.99621" lon="0.91049">
        <ele>412</ele>
        <time>2021-10-14T10:01:42.000Z</time>
      </trkpt>
      <trkpt lat="42.99619" lon="0.91054">
        <ele>412.1</ele>
        <time>2021-10-14T10:01:43.000Z</time>
      </trkpt>
      <trkpt lat="42.99617" lon="0.91063">
        <ele>412.2</ele>
        <time>2021-10-14T10:01:45.000Z</time>
      </trkpt>
      <trkpt lat="42.99615" lon="0.91072">
        <ele>412.4</ele>
        <time>2021-10-14T10:01:47.000Z</time>
      </trkpt>
      <trkpt lat="42.99614" lon="0.91078">
        <ele>412.5</ele>
        <time>2021-10-14T10:01:48.000Z</time>
      </trkpt>
      <trkpt lat="42.99612" lon="0.91088">
        <ele>412.6</ele>
        <time>2021-10-14T10:01:50.000Z</time>
      </trkpt>
      <trkpt lat="42.9961" lon="0.91096">
        <ele>412.7</ele>
        <time>2021-10-14T10:01:52.000Z</time>
      </trkpt>
      <trkpt lat="42.99608" lon="0.91103">
        <ele>412.8</ele>
        <time>2021-10-14T10:01:53.000Z</time>
      </trkpt>
      <trkpt lat="42.99607" lon="0.91108">
        <ele>412.8</ele>
        <time>2021-10-14T10:01:54.000Z</time>
      </trkpt>
      <trkpt lat="42.99606" lon="0.91116">
        <ele>412.9</ele>
        <time>2021-10-14T10:01:56.000Z</time>
      </trkpt>
      <trkpt lat="42.99605" lon="0.91123">
        <ele>412.9</ele>
        <time>2021-10-14T10:01:57.000Z</time>
      </trkpt>
      <trkpt lat="42.99604" lon="0.91133">
        <ele>413</ele>
        <time>2021-10-14T10:01:59.000Z</time>
      </trkpt>
      <trkpt lat="42.99603" lon="0.91139">
        <ele>413.1</ele>
        <time>2021-10-14T10:02:00.000Z</time>
      </trkpt>
      <trkpt lat="42.99603" lon="0.91149">
        <ele>413.2</ele>
        <time>2021-10-14T10:02:02.000Z</time>
      </trkpt>
      <trkpt lat="42.99603" lon="0.91155">
        <ele>413.3</ele>
        <time>2021-10-14T10:02:03.000Z</time>
      </trkpt>
      <trkpt lat="42.99603" lon="0.91162">
        <ele>413.4</ele>
        <time>2021-10-14T10:02:04.000Z</time>
      </trkpt>
      <trkpt lat="42.99603" lon="0.9117">
        <ele>413.5</ele>
        <time>2021-10-14T10:02:06.000Z</time>
      </trkpt>
      <trkpt lat="42.99603" lon="0.91176">
        <ele>413.6</ele>
        <time>2021-10-14T10:02:07.000Z</time>
      </trkpt>
      <trkpt lat="42.99604" lon="0.91185">
        <ele>413.7</ele>
        <time>2021-10-14T10:02:09.000Z</time>
      </trkpt>
      <trkpt lat="42.99605" lon="0.91194">
        <ele>413.9</ele>
        <time>2021-10-14T10:02:11.000Z</time>
      </trkpt>
      <trkpt lat="42.99606" lon="0.912">
        <ele>414.1</ele>
        <time>2021-10-14T10:02:12.000Z</time>
      </trkpt>
      <trkpt lat="42.99607" lon="0.91205">
        <ele>414.2</ele>
        <time>2021-10-14T10:02:13.000Z</time>
      </trkpt>
      <trkpt lat="42.99608" lon="0.91211">
        <ele>414.3</ele>
        <time>2021-10-14T10:02:14.000Z</time>
      </trkpt>
      <trkpt lat="42.99609" lon="0.91217">
        <ele>414.4</ele>
        <time>2021-10-14T10:02:16.000Z</time>
      </trkpt>
      <trkpt lat="42.9961" lon="0.91225">
        <ele>414.6</ele>
        <time>2021-10-14T10:02:17.000Z</time>
      </trkpt>
      <trkpt lat="42.99611" lon="0.91229">
        <ele>414.7</ele>
        <time>2021-10-14T10:02:18.000Z</time>
      </trkpt>
      <trkpt lat="42.99613" lon="0.91237">
        <ele>414.9</ele>
        <time>2021-10-14T10:02:20.000Z</time>
      </trkpt>
      <trkpt lat="42.99616" lon="0.91243">
        <ele>415.1</ele>
        <time>2021-10-14T10:02:21.000Z</time>
      </trkpt>
      <trkpt lat="42.99619" lon="0.91252">
        <ele>415.3</ele>
        <time>2021-10-14T10:02:23.000Z</time>
      </trkpt>
      <trkpt lat="42.99622" lon="0.91259">
        <ele>415.5</ele>
        <time>2021-10-14T10:02:24.000Z</time>
      </trkpt>
      <trkpt lat="42.99625" lon="0.91265">
        <ele>415.6</ele>
        <time>2021-10-14T10:02:26.000Z</time>
      </trkpt>
      <trkpt lat="42.99629" lon="0.91272">
        <ele>415.8</ele>
        <time>2021-10-14T10:02:28.000Z</time>
      </trkpt>
      <trkpt lat="42.99633" lon="0.91278">
        <ele>416</ele>
        <time>2021-10-14T10:02:29.000Z</time>
      </trkpt>
      <trkpt lat="42.99636" lon="0.91282">
        <ele>416.2</ele>
        <time>2021-10-14T10:02:30.000Z</time>
      </trkpt>
      <trkpt lat="42.9964" lon="0.91288">
        <ele>416.4</ele>
        <time>2021-10-14T10:02:32.000Z</time>
      </trkpt>
      <trkpt lat="42.99643" lon="0.91294">
        <ele>416.6</ele>
        <time>2021-10-14T10:02:33.000Z</time>
      </trkpt>
      <trkpt lat="42.99645" lon="0.91299">
        <ele>416.7</ele>
        <time>2021-10-14T10:02:34.000Z</time>
      </trkpt>
      <trkpt lat="42.99647" lon="0.91303">
        <ele>416.9</ele>
        <time>2021-10-14T10:02:35.000Z</time>
      </trkpt>
      <trkpt lat="42.9965" lon="0.91311">
        <ele>417.1</ele>
        <time>2021-10-14T10:02:37.000Z</time>
      </trkpt>
      <trkpt lat="42.99652" lon="0.91318">
        <ele>417.4</ele>
        <time>2021-10-14T10:02:38.000Z</time>
      </trkpt>
      <trkpt lat="42.99654" lon="0.91325">
        <ele>417.6</ele>
        <time>2021-10-14T10:02:40.000Z</time>
      </trkpt>
      <trkpt lat="42.99655" lon="0.91328">
        <ele>417.7</ele>
        <time>2021-10-14T10:02:41.000Z</time>
      </trkpt>
      <trkpt lat="42.99654" lon="0.91326">
        <ele>417.8</ele>
        <time>2021-10-14T10:02:42.000Z</time>
      </trkpt>
      <trkpt lat="42.99657" lon="0.91341">
        <ele>418.2</ele>
        <time>2021-10-14T10:02:44.000Z</time>
      </trkpt>
      <trkpt lat="42.99659" lon="0.91352">
        <ele>418.6</ele>
        <time>2021-10-14T10:02:46.000Z</time>
      </trkpt>
      <trkpt lat="42.9966" lon="0.9136">
        <ele>418.9</ele>
        <time>2021-10-14T10:02:47.000Z</time>
      </trkpt>
      <trkpt lat="42.99661" lon="0.91365">
        <ele>419</ele>
        <time>2021-10-14T10:02:48.000Z</time>
      </trkpt>
      <trkpt lat="42.99662" lon="0.91372">
        <ele>419.3</ele>
        <time>2021-10-14T10:02:50.000Z</time>
      </trkpt>
      <trkpt lat="42.99663" lon="0.91379">
        <ele>419.5</ele>
        <time>2021-10-14T10:02:51.000Z</time>
      </trkpt>
      <trkpt lat="42.99664" lon="0.91384">
        <ele>419.6</ele>
        <time>2021-10-14T10:02:52.000Z</time>
      </trkpt>
      <trkpt lat="42.99667" lon="0.91393">
        <ele>419.9</ele>
        <time>2021-10-14T10:02:54.000Z</time>
      </trkpt>
      <trkpt lat="42.99669" lon="0.91402">
        <ele>420.2</ele>
        <time>2021-10-14T10:02:56.000Z</time>
      </trkpt>
      <trkpt lat="42.99671" lon="0.91408">
        <ele>420.4</ele>
        <time>2021-10-14T10:02:57.000Z</time>
      </trkpt>
      <trkpt lat="42.99672" lon="0.91413">
        <ele>420.5</ele>
        <time>2021-10-14T10:02:58.000Z</time>
      </trkpt>
      <trkpt lat="42.99674" lon="0.91422">
        <ele>420.7</ele>
        <time>2021-10-14T10:03:00.000Z</time>
      </trkpt>
      <trkpt lat="42.99674" lon="0.91429">
        <ele>420.9</ele>
        <time>2021-10-14T10:03:01.000Z</time>
      </trkpt>
      <trkpt lat="42.99676" lon="0.91439">
        <ele>421.1</ele>
        <time>2021-10-14T10:03:03.000Z</time>
      </trkpt>
      <trkpt lat="42.99678" lon="0.91447">
        <ele>421.3</ele>
        <time>2021-10-14T10:03:05.000Z</time>
      </trkpt>
      <trkpt lat="42.99679" lon="0.91453">
        <ele>421.5</ele>
        <time>2021-10-14T10:03:06.000Z</time>
      </trkpt>
      <trkpt lat="42.9968" lon="0.91457">
        <ele>421.6</ele>
        <time>2021-10-14T10:03:07.000Z</time>
      </trkpt>
      <trkpt lat="42.99682" lon="0.91466">
        <ele>421.8</ele>
        <time>2021-10-14T10:03:09.000Z</time>
      </trkpt>
      <trkpt lat="42.99684" lon="0.91475">
        <ele>422</ele>
        <time>2021-10-14T10:03:11.000Z</time>
      </trkpt>
      <trkpt lat="42.99686" lon="0.91482">
        <ele>422.2</ele>
        <time>2021-10-14T10:03:12.000Z</time>
      </trkpt>
      <trkpt lat="42.99687" lon="0.91487">
        <ele>422.3</ele>
        <time>2021-10-14T10:03:13.000Z</time>
      </trkpt>
      <trkpt lat="42.99688" lon="0.91493">
        <ele>422.4</ele>
        <time>2021-10-14T10:03:15.000Z</time>
      </trkpt>
      <trkpt lat="42.9969" lon="0.915">
        <ele>422.5</ele>
        <time>2021-10-14T10:03:16.000Z</time>
      </trkpt>
      <trkpt lat="42.99691" lon="0.91505">
        <ele>422.6</ele>
        <time>2021-10-14T10:03:17.000Z</time>
      </trkpt>
      <trkpt lat="42.99692" lon="0.91513">
        <ele>422.8</ele>
        <time>2021-10-14T10:03:19.000Z</time>
      </trkpt>
      <trkpt lat="42.99694" lon="0.91519">
        <ele>422.9</ele>
        <time>2021-10-14T10:03:20.000Z</time>
      </trkpt>
      <trkpt lat="42.99696" lon="0.91528">
        <ele>423.1</ele>
        <time>2021-10-14T10:03:22.000Z</time>
      </trkpt>
      <trkpt lat="42.99697" lon="0.91536">
        <ele>423.2</ele>
        <time>2021-10-14T10:03:24.000Z</time>
      </trkpt>
      <trkpt lat="42.99699" lon="0.91544">
        <ele>423.4</ele>
        <time>2021-10-14T10:03:25.000Z</time>
      </trkpt>
      <trkpt lat="42.99701" lon="0.91549">
        <ele>423.5</ele>
        <time>2021-10-14T10:03:26.000Z</time>
      </trkpt>
      <trkpt lat="42.99703" lon="0.91556">
        <ele>423.7</ele>
        <time>2021-10-14T10:03:28.000Z</time>
      </trkpt>
      <trkpt lat="42.99705" lon="0.91563">
        <ele>423.8</ele>
        <time>2021-10-14T10:03:29.000Z</time>
      </trkpt>
      <trkpt lat="42.99706" lon="0.91569">
        <ele>423.9</ele>
        <time>2021-10-14T10:03:30.000Z</time>
      </trkpt>
      <trkpt lat="42.99707" lon="0.91578">
        <ele>424.1</ele>
        <time>2021-10-14T10:03:32.000Z</time>
      </trkpt>
      <trkpt lat="42.99707" lon="0.91584">
        <ele>424.3</ele>
        <time>2021-10-14T10:03:33.000Z</time>
      </trkpt>
      <trkpt lat="42.99708" lon="0.91593">
        <ele>424.5</ele>
        <time>2021-10-14T10:03:35.000Z</time>
      </trkpt>
      <trkpt lat="42.99709" lon="0.91599">
        <ele>424.6</ele>
        <time>2021-10-14T10:03:36.000Z</time>
      </trkpt>
      <trkpt lat="42.99709" lon="0.91606">
        <ele>424.7</ele>
        <time>2021-10-14T10:03:38.000Z</time>
      </trkpt>
      <trkpt lat="42.99709" lon="0.91614">
        <ele>424.9</ele>
        <time>2021-10-14T10:03:39.000Z</time>
      </trkpt>
      <trkpt lat="42.99709" lon="0.91623">
        <ele>425.1</ele>
        <time>2021-10-14T10:03:41.000Z</time>
      </trkpt>
      <trkpt lat="42.99709" lon="0.9163">
        <ele>425.2</ele>
        <time>2021-10-14T10:03:42.000Z</time>
      </trkpt>
      <trkpt lat="42.99709" lon="0.9164">
        <ele>425.4</ele>
        <time>2021-10-14T10:03:44.000Z</time>
      </trkpt>
      <trkpt lat="42.99708" lon="0.91645">
        <ele>425.5</ele>
        <time>2021-10-14T10:03:45.000Z</time>
      </trkpt>
      <trkpt lat="42.99708" lon="0.9165">
        <ele>425.6</ele>
        <time>2021-10-14T10:03:46.000Z</time>
      </trkpt>
      <trkpt lat="42.99708" lon="0.91659">
        <ele>425.8</ele>
        <time>2021-10-14T10:03:48.000Z</time>
      </trkpt>
      <trkpt lat="42.99708" lon="0.91668">
        <ele>426</ele>
        <time>2021-10-14T10:03:50.000Z</time>
      </trkpt>
      <trkpt lat="42.99708" lon="0.91676">
        <ele>426.2</ele>
        <time>2021-10-14T10:03:51.000Z</time>
      </trkpt>
      <trkpt lat="42.99709" lon="0.91683">
        <ele>426.4</ele>
        <time>2021-10-14T10:03:52.000Z</time>
      </trkpt>
      <trkpt lat="42.9971" lon="0.91692">
        <ele>426.6</ele>
        <time>2021-10-14T10:03:54.000Z</time>
      </trkpt>
      <trkpt lat="42.99713" lon="0.91704">
        <ele>426.8</ele>
        <time>2021-10-14T10:03:56.000Z</time>
      </trkpt>
      <trkpt lat="42.99715" lon="0.91708">
        <ele>427</ele>
        <time>2021-10-14T10:03:57.000Z</time>
      </trkpt>
      <trkpt lat="42.99717" lon="0.91712">
        <ele>427.1</ele>
        <time>2021-10-14T10:03:58.000Z</time>
      </trkpt>
      <trkpt lat="42.9972" lon="0.91715">
        <ele>427.3</ele>
        <time>2021-10-14T10:03:59.000Z</time>
      </trkpt>
      <trkpt lat="42.99725" lon="0.91721">
        <ele>427.5</ele>
        <time>2021-10-14T10:04:01.000Z</time>
      </trkpt>
      <trkpt lat="42.99728" lon="0.91725">
        <ele>427.7</ele>
        <time>2021-10-14T10:04:02.000Z</time>
      </trkpt>
      <trkpt lat="42.99737" lon="0.91727">
        <ele>428.1</ele>
        <time>2021-10-14T10:04:04.000Z</time>
      </trkpt>
      <trkpt lat="42.99741" lon="0.91728">
        <ele>428.2</ele>
        <time>2021-10-14T10:04:05.000Z</time>
      </trkpt>
      <trkpt lat="42.99745" lon="0.91732">
        <ele>428.4</ele>
        <time>2021-10-14T10:04:06.000Z</time>
      </trkpt>
      <trkpt lat="42.9975" lon="0.91737">
        <ele>428.6</ele>
        <time>2021-10-14T10:04:08.000Z</time>
      </trkpt>
      <trkpt lat="42.99754" lon="0.9174">
        <ele>428.8</ele>
        <time>2021-10-14T10:04:09.000Z</time>
      </trkpt>
      <trkpt lat="42.99758" lon="0.91742">
        <ele>429</ele>
        <time>2021-10-14T10:04:10.000Z</time>
      </trkpt>
      <trkpt lat="42.99763" lon="0.91749">
        <ele>429.3</ele>
        <time>2021-10-14T10:04:12.000Z</time>
      </trkpt>
      <trkpt lat="42.99767" lon="0.91755">
        <ele>429.5</ele>
        <time>2021-10-14T10:04:13.000Z</time>
      </trkpt>
      <trkpt lat="42.99769" lon="0.9176">
        <ele>429.7</ele>
        <time>2021-10-14T10:04:14.000Z</time>
      </trkpt>
      <trkpt lat="42.99774" lon="0.91766">
        <ele>429.9</ele>
        <time>2021-10-14T10:04:16.000Z</time>
      </trkpt>
      <trkpt lat="42.99778" lon="0.91772">
        <ele>430.2</ele>
        <time>2021-10-14T10:04:17.000Z</time>
      </trkpt>
      <trkpt lat="42.99783" lon="0.91779">
        <ele>430.5</ele>
        <time>2021-10-14T10:04:19.000Z</time>
      </trkpt>
      <trkpt lat="42.99785" lon="0.91784">
        <ele>430.7</ele>
        <time>2021-10-14T10:04:20.000Z</time>
      </trkpt>
      <trkpt lat="42.99787" lon="0.91788">
        <ele>430.8</ele>
        <time>2021-10-14T10:04:21.000Z</time>
      </trkpt>
      <trkpt lat="42.99791" lon="0.91796">
        <ele>431.1</ele>
        <time>2021-10-14T10:04:23.000Z</time>
      </trkpt>
      <trkpt lat="42.99793" lon="0.91802">
        <ele>431.3</ele>
        <time>2021-10-14T10:04:24.000Z</time>
      </trkpt>
      <trkpt lat="42.99797" lon="0.9181">
        <ele>431.5</ele>
        <time>2021-10-14T10:04:26.000Z</time>
      </trkpt>
      <trkpt lat="42.998" lon="0.91817">
        <ele>431.8</ele>
        <time>2021-10-14T10:04:28.000Z</time>
      </trkpt>
      <trkpt lat="42.99803" lon="0.91823">
        <ele>432</ele>
        <time>2021-10-14T10:04:29.000Z</time>
      </trkpt>
      <trkpt lat="42.99806" lon="0.91831">
        <ele>432.4</ele>
        <time>2021-10-14T10:04:31.000Z</time>
      </trkpt>
      <trkpt lat="42.99808" lon="0.91838">
        <ele>432.7</ele>
        <time>2021-10-14T10:04:33.000Z</time>
      </trkpt>
      <trkpt lat="42.9981" lon="0.91845">
        <ele>433</ele>
        <time>2021-10-14T10:04:34.000Z</time>
      </trkpt>
      <trkpt lat="42.99812" lon="0.91849">
        <ele>433.2</ele>
        <time>2021-10-14T10:04:35.000Z</time>
      </trkpt>
      <trkpt lat="42.99815" lon="0.91857">
        <ele>433.7</ele>
        <time>2021-10-14T10:04:37.000Z</time>
      </trkpt>
      <trkpt lat="42.99816" lon="0.91861">
        <ele>433.9</ele>
        <time>2021-10-14T10:04:38.000Z</time>
      </trkpt>
      <trkpt lat="42.99818" lon="0.91868">
        <ele>434.4</ele>
        <time>2021-10-14T10:04:40.000Z</time>
      </trkpt>
      <trkpt lat="42.99819" lon="0.91874">
        <ele>434.8</ele>
        <time>2021-10-14T10:04:41.000Z</time>
      </trkpt>
      <trkpt lat="42.99821" lon="0.91881">
        <ele>435.2</ele>
        <time>2021-10-14T10:04:43.000Z</time>
      </trkpt>
      <trkpt lat="42.99822" lon="0.91885">
        <ele>435.5</ele>
        <time>2021-10-14T10:04:44.000Z</time>
      </trkpt>
      <trkpt lat="42.99824" lon="0.91891">
        <ele>435.9</ele>
        <time>2021-10-14T10:04:46.000Z</time>
      </trkpt>
      <trkpt lat="42.99825" lon="0.91896">
        <ele>436.3</ele>
        <time>2021-10-14T10:04:47.000Z</time>
      </trkpt>
      <trkpt lat="42.99826" lon="0.91904">
        <ele>436.8</ele>
        <time>2021-10-14T10:04:49.000Z</time>
      </trkpt>
      <trkpt lat="42.99827" lon="0.91909">
        <ele>437.2</ele>
        <time>2021-10-14T10:04:50.000Z</time>
      </trkpt>
      <trkpt lat="42.99828" lon="0.91914">
        <ele>437.6</ele>
        <time>2021-10-14T10:04:51.000Z</time>
      </trkpt>
      <trkpt lat="42.99829" lon="0.91918">
        <ele>437.9</ele>
        <time>2021-10-14T10:04:52.000Z</time>
      </trkpt>
      <trkpt lat="42.99829" lon="0.91925">
        <ele>438.5</ele>
        <time>2021-10-14T10:04:54.000Z</time>
      </trkpt>
      <trkpt lat="42.9983" lon="0.91931">
        <ele>438.9</ele>
        <time>2021-10-14T10:04:55.000Z</time>
      </trkpt>
      <trkpt lat="42.9983" lon="0.91936">
        <ele>439.3</ele>
        <time>2021-10-14T10:04:56.000Z</time>
      </trkpt>
      <trkpt lat="42.9983" lon="0.91937">
        <ele>439.4</ele>
        <time>2021-10-14T10:04:57.000Z</time>
      </trkpt>
      <trkpt lat="42.9983" lon="0.91945">
        <ele>440.1</ele>
        <time>2021-10-14T10:04:59.000Z</time>
      </trkpt>
      <trkpt lat="42.99829" lon="0.91951">
        <ele>440.5</ele>
        <time>2021-10-14T10:05:00.000Z</time>
      </trkpt>
      <trkpt lat="42.99829" lon="0.91959">
        <ele>441.2</ele>
        <time>2021-10-14T10:05:02.000Z</time>
      </trkpt>
      <trkpt lat="42.99828" lon="0.91966">
        <ele>441.7</ele>
        <time>2021-10-14T10:05:04.000Z</time>
      </trkpt>
      <trkpt lat="42.99828" lon="0.91972">
        <ele>442.1</ele>
        <time>2021-10-14T10:05:05.000Z</time>
      </trkpt>
      <trkpt lat="42.99827" lon="0.9198">
        <ele>442.6</ele>
        <time>2021-10-14T10:05:07.000Z</time>
      </trkpt>
      <trkpt lat="42.99826" lon="0.91987">
        <ele>443.1</ele>
        <time>2021-10-14T10:05:09.000Z</time>
      </trkpt>
      <trkpt lat="42.99824" lon="0.91993">
        <ele>443.5</ele>
        <time>2021-10-14T10:05:10.000Z</time>
      </trkpt>
      <trkpt lat="42.99823" lon="0.91997">
        <ele>443.7</ele>
        <time>2021-10-14T10:05:11.000Z</time>
      </trkpt>
      <trkpt lat="42.99822" lon="0.92002">
        <ele>444</ele>
        <time>2021-10-14T10:05:12.000Z</time>
      </trkpt>
      <trkpt lat="42.99821" lon="0.92006">
        <ele>444.2</ele>
        <time>2021-10-14T10:05:13.000Z</time>
      </trkpt>
      <trkpt lat="42.99819" lon="0.92011">
        <ele>444.5</ele>
        <time>2021-10-14T10:05:15.000Z</time>
      </trkpt>
      <trkpt lat="42.99818" lon="0.92014">
        <ele>444.7</ele>
        <time>2021-10-14T10:05:16.000Z</time>
      </trkpt>
      <trkpt lat="42.99816" lon="0.92019">
        <ele>445</ele>
        <time>2021-10-14T10:05:18.000Z</time>
      </trkpt>
      <trkpt lat="42.99814" lon="0.92023">
        <ele>445.2</ele>
        <time>2021-10-14T10:05:19.000Z</time>
      </trkpt>
      <trkpt lat="42.99812" lon="0.92029">
        <ele>445.5</ele>
        <time>2021-10-14T10:05:21.000Z</time>
      </trkpt>
      <trkpt lat="42.9981" lon="0.92034">
        <ele>445.8</ele>
        <time>2021-10-14T10:05:22.000Z</time>
      </trkpt>
      <trkpt lat="42.99808" lon="0.92041">
        <ele>446.1</ele>
        <time>2021-10-14T10:05:24.000Z</time>
      </trkpt>
      <trkpt lat="42.99806" lon="0.92046">
        <ele>446.2</ele>
        <time>2021-10-14T10:05:25.000Z</time>
      </trkpt>
      <trkpt lat="42.99803" lon="0.92053">
        <ele>446.4</ele>
        <time>2021-10-14T10:05:27.000Z</time>
      </trkpt>
      <trkpt lat="42.998" lon="0.92059">
        <ele>446.5</ele>
        <time>2021-10-14T10:05:28.000Z</time>
      </trkpt>
      <trkpt lat="42.99797" lon="0.92067">
        <ele>446.6</ele>
        <time>2021-10-14T10:05:30.000Z</time>
      </trkpt>
      <trkpt lat="42.99794" lon="0.92072">
        <ele>446.7</ele>
        <time>2021-10-14T10:05:31.000Z</time>
      </trkpt>
      <trkpt lat="42.9979" lon="0.92079">
        <ele>446.7</ele>
        <time>2021-10-14T10:05:33.000Z</time>
      </trkpt>
      <trkpt lat="42.99786" lon="0.92085">
        <ele>446.7</ele>
        <time>2021-10-14T10:05:35.000Z</time>
      </trkpt>
      <trkpt lat="42.99782" lon="0.92091">
        <ele>446.6</ele>
        <time>2021-10-14T10:05:36.000Z</time>
      </trkpt>
      <trkpt lat="42.99778" lon="0.92096">
        <ele>446.6</ele>
        <time>2021-10-14T10:05:37.000Z</time>
      </trkpt>
      <trkpt lat="42.99774" lon="0.92103">
        <ele>446.4</ele>
        <time>2021-10-14T10:05:38.000Z</time>
      </trkpt>
      <trkpt lat="42.99768" lon="0.92116">
        <ele>446.2</ele>
        <time>2021-10-14T10:05:40.000Z</time>
      </trkpt>
      <trkpt lat="42.99765" lon="0.92122">
        <ele>446</ele>
        <time>2021-10-14T10:05:41.000Z</time>
      </trkpt>
      <trkpt lat="42.99759" lon="0.92133">
        <ele>445.8</ele>
        <time>2021-10-14T10:05:43.000Z</time>
      </trkpt>
      <trkpt lat="42.99756" lon="0.92139">
        <ele>445.7</ele>
        <time>2021-10-14T10:05:44.000Z</time>
      </trkpt>
      <trkpt lat="42.99752" lon="0.92152">
        <ele>445.6</ele>
        <time>2021-10-14T10:05:46.000Z</time>
      </trkpt>
      <trkpt lat="42.99747" lon="0.92163">
        <ele>445.5</ele>
        <time>2021-10-14T10:05:48.000Z</time>
      </trkpt>
      <trkpt lat="42.99742" lon="0.92174">
        <ele>445.5</ele>
        <time>2021-10-14T10:05:50.000Z</time>
      </trkpt>
      <trkpt lat="42.9974" lon="0.9218">
        <ele>445.4</ele>
        <time>2021-10-14T10:05:51.000Z</time>
      </trkpt>
      <trkpt lat="42.99736" lon="0.92189">
        <ele>445.5</ele>
        <time>2021-10-14T10:05:53.000Z</time>
      </trkpt>
      <trkpt lat="42.99734" lon="0.92197">
        <ele>445.5</ele>
        <time>2021-10-14T10:05:55.000Z</time>
      </trkpt>
      <trkpt lat="42.99725" lon="0.92205">
        <ele>445.6</ele>
        <time>2021-10-14T10:05:57.000Z</time>
      </trkpt>
      <trkpt lat="42.99722" lon="0.92207">
        <ele>445.6</ele>
        <time>2021-10-14T10:05:58.000Z</time>
      </trkpt>
      <trkpt lat="42.9972" lon="0.92209">
        <ele>445.6</ele>
        <time>2021-10-14T10:05:59.000Z</time>
      </trkpt>
      <trkpt lat="42.99714" lon="0.92217">
        <ele>445.7</ele>
        <time>2021-10-14T10:06:01.000Z</time>
      </trkpt>
      <trkpt lat="42.9971" lon="0.92224">
        <ele>445.9</ele>
        <time>2021-10-14T10:06:02.000Z</time>
      </trkpt>
      <trkpt lat="42.99703" lon="0.92231">
        <ele>446</ele>
        <time>2021-10-14T10:06:04.000Z</time>
      </trkpt>
      <trkpt lat="42.99699" lon="0.92236">
        <ele>446.2</ele>
        <time>2021-10-14T10:06:05.000Z</time>
      </trkpt>
      <trkpt lat="42.99693" lon="0.92246">
        <ele>446.4</ele>
        <time>2021-10-14T10:06:07.000Z</time>
      </trkpt>
      <trkpt lat="42.99688" lon="0.92253">
        <ele>446.5</ele>
        <time>2021-10-14T10:06:09.000Z</time>
      </trkpt>
      <trkpt lat="42.99684" lon="0.92258">
        <ele>446.7</ele>
        <time>2021-10-14T10:06:10.000Z</time>
      </trkpt>
      <trkpt lat="42.99681" lon="0.92262">
        <ele>446.8</ele>
        <time>2021-10-14T10:06:11.000Z</time>
      </trkpt>
      <trkpt lat="42.99674" lon="0.92272">
        <ele>447</ele>
        <time>2021-10-14T10:06:13.000Z</time>
      </trkpt>
      <trkpt lat="42.99672" lon="0.92279">
        <ele>447.2</ele>
        <time>2021-10-14T10:06:15.000Z</time>
      </trkpt>
      <trkpt lat="42.99668" lon="0.92284">
        <ele>447.3</ele>
        <time>2021-10-14T10:06:16.000Z</time>
      </trkpt>
      <trkpt lat="42.99665" lon="0.92288">
        <ele>447.4</ele>
        <time>2021-10-14T10:06:17.000Z</time>
      </trkpt>
      <trkpt lat="42.99661" lon="0.92292">
        <ele>447.6</ele>
        <time>2021-10-14T10:06:18.000Z</time>
      </trkpt>
      <trkpt lat="42.99655" lon="0.92303">
        <ele>447.9</ele>
        <time>2021-10-14T10:06:20.000Z</time>
      </trkpt>
      <trkpt lat="42.99651" lon="0.92307">
        <ele>448</ele>
        <time>2021-10-14T10:06:21.000Z</time>
      </trkpt>
      <trkpt lat="42.99646" lon="0.92316">
        <ele>448.2</ele>
        <time>2021-10-14T10:06:23.000Z</time>
      </trkpt>
      <trkpt lat="42.99641" lon="0.9232">
        <ele>448.4</ele>
        <time>2021-10-14T10:06:24.000Z</time>
      </trkpt>
      <trkpt lat="42.99637" lon="0.92325">
        <ele>448.5</ele>
        <time>2021-10-14T10:06:25.000Z</time>
      </trkpt>
      <trkpt lat="42.99632" lon="0.92329">
        <ele>448.7</ele>
        <time>2021-10-14T10:06:27.000Z</time>
      </trkpt>
      <trkpt lat="42.99628" lon="0.92331">
        <ele>448.8</ele>
        <time>2021-10-14T10:06:28.000Z</time>
      </trkpt>
      <trkpt lat="42.99624" lon="0.92335">
        <ele>448.9</ele>
        <time>2021-10-14T10:06:29.000Z</time>
      </trkpt>
      <trkpt lat="42.99618" lon="0.9234">
        <ele>449</ele>
        <time>2021-10-14T10:06:31.000Z</time>
      </trkpt>
      <trkpt lat="42.99613" lon="0.92345">
        <ele>449.1</ele>
        <time>2021-10-14T10:06:33.000Z</time>
      </trkpt>
      <trkpt lat="42.99608" lon="0.9235">
        <ele>449.1</ele>
        <time>2021-10-14T10:06:34.000Z</time>
      </trkpt>
      <trkpt lat="42.99603" lon="0.92357">
        <ele>449.2</ele>
        <time>2021-10-14T10:06:35.000Z</time>
      </trkpt>
      <trkpt lat="42.99599" lon="0.92363">
        <ele>449.2</ele>
        <time>2021-10-14T10:06:37.000Z</time>
      </trkpt>
      <trkpt lat="42.99596" lon="0.92368">
        <ele>449.3</ele>
        <time>2021-10-14T10:06:38.000Z</time>
      </trkpt>
      <trkpt lat="42.99594" lon="0.92372">
        <ele>449.3</ele>
        <time>2021-10-14T10:06:39.000Z</time>
      </trkpt>
      <trkpt lat="42.9959" lon="0.92385">
        <ele>449.4</ele>
        <time>2021-10-14T10:06:41.000Z</time>
      </trkpt>
      <trkpt lat="42.9959" lon="0.92389">
        <ele>449.5</ele>
        <time>2021-10-14T10:06:42.000Z</time>
      </trkpt>
      <trkpt lat="42.99586" lon="0.92402">
        <ele>449.7</ele>
        <time>2021-10-14T10:06:44.000Z</time>
      </trkpt>
      <trkpt lat="42.99583" lon="0.92412">
        <ele>449.8</ele>
        <time>2021-10-14T10:06:46.000Z</time>
      </trkpt>
      <trkpt lat="42.99579" lon="0.92423">
        <ele>450.1</ele>
        <time>2021-10-14T10:06:48.000Z</time>
      </trkpt>
      <trkpt lat="42.99576" lon="0.92429">
        <ele>450.3</ele>
        <time>2021-10-14T10:06:49.000Z</time>
      </trkpt>
      <trkpt lat="42.99572" lon="0.92438">
        <ele>450.5</ele>
        <time>2021-10-14T10:06:51.000Z</time>
      </trkpt>
      <trkpt lat="42.99566" lon="0.92446">
        <ele>450.8</ele>
        <time>2021-10-14T10:06:53.000Z</time>
      </trkpt>
      <trkpt lat="42.99561" lon="0.92454">
        <ele>451.1</ele>
        <time>2021-10-14T10:06:55.000Z</time>
      </trkpt>
      <trkpt lat="42.99558" lon="0.92459">
        <ele>451.3</ele>
        <time>2021-10-14T10:06:56.000Z</time>
      </trkpt>
      <trkpt lat="42.99556" lon="0.92464">
        <ele>451.4</ele>
        <time>2021-10-14T10:06:57.000Z</time>
      </trkpt>
      <trkpt lat="42.99554" lon="0.92467">
        <ele>451.6</ele>
        <time>2021-10-14T10:06:58.000Z</time>
      </trkpt>
      <trkpt lat="42.99551" lon="0.92471">
        <ele>451.7</ele>
        <time>2021-10-14T10:06:59.000Z</time>
      </trkpt>
      <trkpt lat="42.99547" lon="0.92476">
        <ele>452</ele>
        <time>2021-10-14T10:07:01.000Z</time>
      </trkpt>
      <trkpt lat="42.99544" lon="0.92479">
        <ele>452.1</ele>
        <time>2021-10-14T10:07:02.000Z</time>
      </trkpt>
      <trkpt lat="42.99539" lon="0.92483">
        <ele>452.4</ele>
        <time>2021-10-14T10:07:04.000Z</time>
      </trkpt>
      <trkpt lat="42.99535" lon="0.92487">
        <ele>452.7</ele>
        <time>2021-10-14T10:07:05.000Z</time>
      </trkpt>
      <trkpt lat="42.9953" lon="0.92492">
        <ele>453.1</ele>
        <time>2021-10-14T10:07:07.000Z</time>
      </trkpt>
      <trkpt lat="42.99527" lon="0.92496">
        <ele>453.4</ele>
        <time>2021-10-14T10:07:08.000Z</time>
      </trkpt>
      <trkpt lat="42.99525" lon="0.92499">
        <ele>453.7</ele>
        <time>2021-10-14T10:07:09.000Z</time>
      </trkpt>
      <trkpt lat="42.9952" lon="0.92504">
        <ele>454.1</ele>
        <time>2021-10-14T10:07:11.000Z</time>
      </trkpt>
      <trkpt lat="42.99517" lon="0.92508">
        <ele>454.5</ele>
        <time>2021-10-14T10:07:12.000Z</time>
      </trkpt>
      <trkpt lat="42.99513" lon="0.92511">
        <ele>454.8</ele>
        <time>2021-10-14T10:07:14.000Z</time>
      </trkpt>
      <trkpt lat="42.9951" lon="0.92514">
        <ele>455.2</ele>
        <time>2021-10-14T10:07:15.000Z</time>
      </trkpt>
      <trkpt lat="42.99508" lon="0.92516">
        <ele>455.4</ele>
        <time>2021-10-14T10:07:16.000Z</time>
      </trkpt>
      <trkpt lat="42.99505" lon="0.9252">
        <ele>455.8</ele>
        <time>2021-10-14T10:07:18.000Z</time>
      </trkpt>
      <trkpt lat="42.99501" lon="0.92524">
        <ele>456.2</ele>
        <time>2021-10-14T10:07:19.000Z</time>
      </trkpt>
      <trkpt lat="42.99498" lon="0.92526">
        <ele>456.5</ele>
        <time>2021-10-14T10:07:20.000Z</time>
      </trkpt>
      <trkpt lat="42.99495" lon="0.92529">
        <ele>456.9</ele>
        <time>2021-10-14T10:07:21.000Z</time>
      </trkpt>
      <trkpt lat="42.99492" lon="0.92533">
        <ele>457.3</ele>
        <time>2021-10-14T10:07:23.000Z</time>
      </trkpt>
      <trkpt lat="42.99488" lon="0.92538">
        <ele>457.8</ele>
        <time>2021-10-14T10:07:25.000Z</time>
      </trkpt>
      <trkpt lat="42.99484" lon="0.92543">
        <ele>458.4</ele>
        <time>2021-10-14T10:07:27.000Z</time>
      </trkpt>
      <trkpt lat="42.99481" lon="0.92545">
        <ele>458.7</ele>
        <time>2021-10-14T10:07:28.000Z</time>
      </trkpt>
      <trkpt lat="42.99475" lon="0.92547">
        <ele>459.2</ele>
        <time>2021-10-14T10:07:30.000Z</time>
      </trkpt>
      <trkpt lat="42.9947" lon="0.92549">
        <ele>459.6</ele>
        <time>2021-10-14T10:07:32.000Z</time>
      </trkpt>
      <trkpt lat="42.99466" lon="0.92551">
        <ele>459.9</ele>
        <time>2021-10-14T10:07:33.000Z</time>
      </trkpt>
      <trkpt lat="42.9946" lon="0.92551">
        <ele>460.3</ele>
        <time>2021-10-14T10:07:35.000Z</time>
      </trkpt>
      <trkpt lat="42.99455" lon="0.92549">
        <ele>460.6</ele>
        <time>2021-10-14T10:07:37.000Z</time>
      </trkpt>
      <trkpt lat="42.99451" lon="0.92547">
        <ele>460.8</ele>
        <time>2021-10-14T10:07:38.000Z</time>
      </trkpt>
      <trkpt lat="42.99446" lon="0.92544">
        <ele>461.1</ele>
        <time>2021-10-14T10:07:40.000Z</time>
      </trkpt>
      <trkpt lat="42.99442" lon="0.92542">
        <ele>461.3</ele>
        <time>2021-10-14T10:07:41.000Z</time>
      </trkpt>
      <trkpt lat="42.99438" lon="0.9254">
        <ele>461.4</ele>
        <time>2021-10-14T10:07:43.000Z</time>
      </trkpt>
      <trkpt lat="42.99435" lon="0.92538">
        <ele>461.6</ele>
        <time>2021-10-14T10:07:44.000Z</time>
      </trkpt>
      <trkpt lat="42.9943" lon="0.92536">
        <ele>461.8</ele>
        <time>2021-10-14T10:07:46.000Z</time>
      </trkpt>
      <trkpt lat="42.99425" lon="0.92533">
        <ele>462.1</ele>
        <time>2021-10-14T10:07:48.000Z</time>
      </trkpt>
      <trkpt lat="42.99421" lon="0.9253">
        <ele>462.3</ele>
        <time>2021-10-14T10:07:49.000Z</time>
      </trkpt>
      <trkpt lat="42.99415" lon="0.92528">
        <ele>462.6</ele>
        <time>2021-10-14T10:07:51.000Z</time>
      </trkpt>
      <trkpt lat="42.99411" lon="0.92525">
        <ele>462.8</ele>
        <time>2021-10-14T10:07:53.000Z</time>
      </trkpt>
      <trkpt lat="42.99406" lon="0.92523">
        <ele>463</ele>
        <time>2021-10-14T10:07:54.000Z</time>
      </trkpt>
      <trkpt lat="42.994" lon="0.92522">
        <ele>463.3</ele>
        <time>2021-10-14T10:07:56.000Z</time>
      </trkpt>
      <trkpt lat="42.99395" lon="0.92522">
        <ele>463.6</ele>
        <time>2021-10-14T10:07:58.000Z</time>
      </trkpt>
      <trkpt lat="42.9939" lon="0.92522">
        <ele>463.8</ele>
        <time>2021-10-14T10:07:59.000Z</time>
      </trkpt>
      <trkpt lat="42.99384" lon="0.92526">
        <ele>464.2</ele>
        <time>2021-10-14T10:08:01.000Z</time>
      </trkpt>
      <trkpt lat="42.99379" lon="0.92529">
        <ele>464.6</ele>
        <time>2021-10-14T10:08:03.000Z</time>
      </trkpt>
      <trkpt lat="42.99376" lon="0.92534">
        <ele>464.9</ele>
        <time>2021-10-14T10:08:04.000Z</time>
      </trkpt>
      <trkpt lat="42.99373" lon="0.92541">
        <ele>465.2</ele>
        <time>2021-10-14T10:08:06.000Z</time>
      </trkpt>
      <trkpt lat="42.99371" lon="0.92546">
        <ele>465.3</ele>
        <time>2021-10-14T10:08:07.000Z</time>
      </trkpt>
      <trkpt lat="42.99369" lon="0.92555">
        <ele>465.5</ele>
        <time>2021-10-14T10:08:09.000Z</time>
      </trkpt>
      <trkpt lat="42.99366" lon="0.92563">
        <ele>465.6</ele>
        <time>2021-10-14T10:08:11.000Z</time>
      </trkpt>
      <trkpt lat="42.99362" lon="0.92572">
        <ele>465.6</ele>
        <time>2021-10-14T10:08:12.000Z</time>
      </trkpt>
      <trkpt lat="42.99359" lon="0.92578">
        <ele>465.6</ele>
        <time>2021-10-14T10:08:13.000Z</time>
      </trkpt>
      <trkpt lat="42.99358" lon="0.92582">
        <ele>465.6</ele>
        <time>2021-10-14T10:08:14.000Z</time>
      </trkpt>
      <trkpt lat="42.99351" lon="0.92592">
        <ele>465.5</ele>
        <time>2021-10-14T10:08:16.000Z</time>
      </trkpt>
      <trkpt lat="42.99347" lon="0.92597">
        <ele>465.4</ele>
        <time>2021-10-14T10:08:17.000Z</time>
      </trkpt>
      <trkpt lat="42.99339" lon="0.92604">
        <ele>465.2</ele>
        <time>2021-10-14T10:08:19.000Z</time>
      </trkpt>
      <trkpt lat="42.99335" lon="0.92609">
        <ele>465.1</ele>
        <time>2021-10-14T10:08:20.000Z</time>
      </trkpt>
      <trkpt lat="42.99327" lon="0.92616">
        <ele>465</ele>
        <time>2021-10-14T10:08:22.000Z</time>
      </trkpt>
      <trkpt lat="42.99319" lon="0.92622">
        <ele>465</ele>
        <time>2021-10-14T10:08:24.000Z</time>
      </trkpt>
      <trkpt lat="42.99311" lon="0.92627">
        <ele>464.9</ele>
        <time>2021-10-14T10:08:26.000Z</time>
      </trkpt>
      <trkpt lat="42.99308" lon="0.92629">
        <ele>464.9</ele>
        <time>2021-10-14T10:08:27.000Z</time>
      </trkpt>
      <trkpt lat="42.993" lon="0.92636">
        <ele>464.9</ele>
        <time>2021-10-14T10:08:29.000Z</time>
      </trkpt>
      <trkpt lat="42.99292" lon="0.92641">
        <ele>465</ele>
        <time>2021-10-14T10:08:31.000Z</time>
      </trkpt>
      <trkpt lat="42.99285" lon="0.92645">
        <ele>465</ele>
        <time>2021-10-14T10:08:33.000Z</time>
      </trkpt>
      <trkpt lat="42.9928" lon="0.92646">
        <ele>465.1</ele>
        <time>2021-10-14T10:08:34.000Z</time>
      </trkpt>
      <trkpt lat="42.99273" lon="0.92648">
        <ele>465.1</ele>
        <time>2021-10-14T10:08:36.000Z</time>
      </trkpt>
      <trkpt lat="42.99266" lon="0.92651">
        <ele>465.2</ele>
        <time>2021-10-14T10:08:37.000Z</time>
      </trkpt>
      <trkpt lat="42.99256" lon="0.92655">
        <ele>465.3</ele>
        <time>2021-10-14T10:08:39.000Z</time>
      </trkpt>
      <trkpt lat="42.99253" lon="0.92658">
        <ele>465.4</ele>
        <time>2021-10-14T10:08:40.000Z</time>
      </trkpt>
      <trkpt lat="42.9925" lon="0.92662">
        <ele>465.4</ele>
        <time>2021-10-14T10:08:41.000Z</time>
      </trkpt>
      <trkpt lat="42.9924" lon="0.92667">
        <ele>465.5</ele>
        <time>2021-10-14T10:08:43.000Z</time>
      </trkpt>
      <trkpt lat="42.99236" lon="0.92671">
        <ele>465.5</ele>
        <time>2021-10-14T10:08:44.000Z</time>
      </trkpt>
      <trkpt lat="42.99234" lon="0.92674">
        <ele>465.5</ele>
        <time>2021-10-14T10:08:45.000Z</time>
      </trkpt>
      <trkpt lat="42.99228" lon="0.9268">
        <ele>465.6</ele>
        <time>2021-10-14T10:08:46.000Z</time>
      </trkpt>
      <trkpt lat="42.99222" lon="0.92683">
        <ele>465.7</ele>
        <time>2021-10-14T10:08:48.000Z</time>
      </trkpt>
      <trkpt lat="42.99217" lon="0.92686">
        <ele>465.8</ele>
        <time>2021-10-14T10:08:49.000Z</time>
      </trkpt>
      <trkpt lat="42.99213" lon="0.92689">
        <ele>465.9</ele>
        <time>2021-10-14T10:08:50.000Z</time>
      </trkpt>
      <trkpt lat="42.99205" lon="0.92693">
        <ele>466</ele>
        <time>2021-10-14T10:08:52.000Z</time>
      </trkpt>
      <trkpt lat="42.992" lon="0.92695">
        <ele>466.1</ele>
        <time>2021-10-14T10:08:53.000Z</time>
      </trkpt>
      <trkpt lat="42.99193" lon="0.92694">
        <ele>466.3</ele>
        <time>2021-10-14T10:08:55.000Z</time>
      </trkpt>
      <trkpt lat="42.99188" lon="0.92692">
        <ele>466.5</ele>
        <time>2021-10-14T10:08:56.000Z</time>
      </trkpt>
      <trkpt lat="42.99182" lon="0.92691">
        <ele>466.6</ele>
        <time>2021-10-14T10:08:58.000Z</time>
      </trkpt>
      <trkpt lat="42.99177" lon="0.92688">
        <ele>466.9</ele>
        <time>2021-10-14T10:08:59.000Z</time>
      </trkpt>
      <trkpt lat="42.99171" lon="0.92685">
        <ele>467.1</ele>
        <time>2021-10-14T10:09:01.000Z</time>
      </trkpt>
      <trkpt lat="42.99168" lon="0.92684">
        <ele>467.3</ele>
        <time>2021-10-14T10:09:02.000Z</time>
      </trkpt>
      <trkpt lat="42.99164" lon="0.92683">
        <ele>467.5</ele>
        <time>2021-10-14T10:09:03.000Z</time>
      </trkpt>
      <trkpt lat="42.99158" lon="0.92682">
        <ele>467.7</ele>
        <time>2021-10-14T10:09:05.000Z</time>
      </trkpt>
      <trkpt lat="42.99154" lon="0.92681">
        <ele>467.9</ele>
        <time>2021-10-14T10:09:06.000Z</time>
      </trkpt>
      <trkpt lat="42.9915" lon="0.92681">
        <ele>468.1</ele>
        <time>2021-10-14T10:09:07.000Z</time>
      </trkpt>
      <trkpt lat="42.99147" lon="0.9268">
        <ele>468.2</ele>
        <time>2021-10-14T10:09:08.000Z</time>
      </trkpt>
      <trkpt lat="42.99142" lon="0.92681">
        <ele>468.4</ele>
        <time>2021-10-14T10:09:09.000Z</time>
      </trkpt>
      <trkpt lat="42.99138" lon="0.92681">
        <ele>468.6</ele>
        <time>2021-10-14T10:09:11.000Z</time>
      </trkpt>
      <trkpt lat="42.99132" lon="0.92683">
        <ele>468.9</ele>
        <time>2021-10-14T10:09:12.000Z</time>
      </trkpt>
      <trkpt lat="42.99126" lon="0.92689">
        <ele>469.3</ele>
        <time>2021-10-14T10:09:14.000Z</time>
      </trkpt>
      <trkpt lat="42.99123" lon="0.92692">
        <ele>469.5</ele>
        <time>2021-10-14T10:09:15.000Z</time>
      </trkpt>
      <trkpt lat="42.99118" lon="0.92697">
        <ele>469.8</ele>
        <time>2021-10-14T10:09:17.000Z</time>
      </trkpt>
      <trkpt lat="42.99113" lon="0.92705">
        <ele>470.2</ele>
        <time>2021-10-14T10:09:19.000Z</time>
      </trkpt>
      <trkpt lat="42.9911" lon="0.92711">
        <ele>470.7</ele>
        <time>2021-10-14T10:09:21.000Z</time>
      </trkpt>
      <trkpt lat="42.99107" lon="0.92716">
        <ele>471.2</ele>
        <time>2021-10-14T10:09:22.000Z</time>
      </trkpt>
      <trkpt lat="42.99104" lon="0.92721">
        <ele>471.6</ele>
        <time>2021-10-14T10:09:23.000Z</time>
      </trkpt>
      <trkpt lat="42.99101" lon="0.92727">
        <ele>472.1</ele>
        <time>2021-10-14T10:09:25.000Z</time>
      </trkpt>
      <trkpt lat="42.99099" lon="0.92731">
        <ele>472.5</ele>
        <time>2021-10-14T10:09:26.000Z</time>
      </trkpt>
      <trkpt lat="42.99095" lon="0.92738">
        <ele>473</ele>
        <time>2021-10-14T10:09:28.000Z</time>
      </trkpt>
      <trkpt lat="42.99092" lon="0.92743">
        <ele>473.5</ele>
        <time>2021-10-14T10:09:29.000Z</time>
      </trkpt>
      <trkpt lat="42.9909" lon="0.92746">
        <ele>473.7</ele>
        <time>2021-10-14T10:09:30.000Z</time>
      </trkpt>
      <trkpt lat="42.99086" lon="0.92753">
        <ele>474.3</ele>
        <time>2021-10-14T10:09:32.000Z</time>
      </trkpt>
      <trkpt lat="42.99082" lon="0.92756">
        <ele>474.7</ele>
        <time>2021-10-14T10:09:33.000Z</time>
      </trkpt>
      <trkpt lat="42.99079" lon="0.92761">
        <ele>475.2</ele>
        <time>2021-10-14T10:09:34.000Z</time>
      </trkpt>
      <trkpt lat="42.99076" lon="0.92766">
        <ele>475.6</ele>
        <time>2021-10-14T10:09:36.000Z</time>
      </trkpt>
      <trkpt lat="42.99073" lon="0.92771">
        <ele>476</ele>
        <time>2021-10-14T10:09:37.000Z</time>
      </trkpt>
      <trkpt lat="42.99071" lon="0.92774">
        <ele>476.3</ele>
        <time>2021-10-14T10:09:38.000Z</time>
      </trkpt>
      <trkpt lat="42.99067" lon="0.9278">
        <ele>476.9</ele>
        <time>2021-10-14T10:09:40.000Z</time>
      </trkpt>
      <trkpt lat="42.99064" lon="0.92784">
        <ele>477.3</ele>
        <time>2021-10-14T10:09:41.000Z</time>
      </trkpt>
      <trkpt lat="42.9906" lon="0.9279">
        <ele>477.9</ele>
        <time>2021-10-14T10:09:43.000Z</time>
      </trkpt>
      <trkpt lat="42.99056" lon="0.92794">
        <ele>478.2</ele>
        <time>2021-10-14T10:09:44.000Z</time>
      </trkpt>
      <trkpt lat="42.99053" lon="0.92798">
        <ele>478.6</ele>
        <time>2021-10-14T10:09:46.000Z</time>
      </trkpt>
      <trkpt lat="42.9905" lon="0.92802">
        <ele>479</ele>
        <time>2021-10-14T10:09:47.000Z</time>
      </trkpt>
      <trkpt lat="42.99048" lon="0.92807">
        <ele>479.4</ele>
        <time>2021-10-14T10:09:48.000Z</time>
      </trkpt>
      <trkpt lat="42.99045" lon="0.92812">
        <ele>479.9</ele>
        <time>2021-10-14T10:09:50.000Z</time>
      </trkpt>
      <trkpt lat="42.99041" lon="0.92819">
        <ele>480.4</ele>
        <time>2021-10-14T10:09:52.000Z</time>
      </trkpt>
      <trkpt lat="42.99039" lon="0.92824">
        <ele>480.9</ele>
        <time>2021-10-14T10:09:53.000Z</time>
      </trkpt>
      <trkpt lat="42.99035" lon="0.92831">
        <ele>481.5</ele>
        <time>2021-10-14T10:09:55.000Z</time>
      </trkpt>
      <trkpt lat="42.99033" lon="0.92835">
        <ele>481.9</ele>
        <time>2021-10-14T10:09:56.000Z</time>
      </trkpt>
      <trkpt lat="42.9903" lon="0.9284">
        <ele>482.3</ele>
        <time>2021-10-14T10:09:58.000Z</time>
      </trkpt>
      <trkpt lat="42.99029" lon="0.92845">
        <ele>482.7</ele>
        <time>2021-10-14T10:09:59.000Z</time>
      </trkpt>
      <trkpt lat="42.99026" lon="0.92853">
        <ele>483.4</ele>
        <time>2021-10-14T10:10:01.000Z</time>
      </trkpt>
      <trkpt lat="42.99024" lon="0.92858">
        <ele>483.8</ele>
        <time>2021-10-14T10:10:02.000Z</time>
      </trkpt>
      <trkpt lat="42.99022" lon="0.92861">
        <ele>484.2</ele>
        <time>2021-10-14T10:10:03.000Z</time>
      </trkpt>
      <trkpt lat="42.99021" lon="0.92866">
        <ele>484.7</ele>
        <time>2021-10-14T10:10:05.000Z</time>
      </trkpt>
      <trkpt lat="42.99018" lon="0.92872">
        <ele>485.3</ele>
        <time>2021-10-14T10:10:06.000Z</time>
      </trkpt>
      <trkpt lat="42.99016" lon="0.9288">
        <ele>486</ele>
        <time>2021-10-14T10:10:08.000Z</time>
      </trkpt>
      <trkpt lat="42.99014" lon="0.92883">
        <ele>486.4</ele>
        <time>2021-10-14T10:10:09.000Z</time>
      </trkpt>
      <trkpt lat="42.99012" lon="0.92888">
        <ele>486.9</ele>
        <time>2021-10-14T10:10:10.000Z</time>
      </trkpt>
      <trkpt lat="42.99011" lon="0.92891">
        <ele>487.2</ele>
        <time>2021-10-14T10:10:11.000Z</time>
      </trkpt>
      <trkpt lat="42.99009" lon="0.92897">
        <ele>487.8</ele>
        <time>2021-10-14T10:10:13.000Z</time>
      </trkpt>
      <trkpt lat="42.99008" lon="0.92903">
        <ele>488.5</ele>
        <time>2021-10-14T10:10:15.000Z</time>
      </trkpt>
      <trkpt lat="42.99006" lon="0.92907">
        <ele>489</ele>
        <time>2021-10-14T10:10:16.000Z</time>
      </trkpt>
      <trkpt lat="42.99004" lon="0.92911">
        <ele>489.3</ele>
        <time>2021-10-14T10:10:17.000Z</time>
      </trkpt>
      <trkpt lat="42.99002" lon="0.92916">
        <ele>489.9</ele>
        <time>2021-10-14T10:10:19.000Z</time>
      </trkpt>
      <trkpt lat="42.98999" lon="0.92921">
        <ele>490.5</ele>
        <time>2021-10-14T10:10:21.000Z</time>
      </trkpt>
      <trkpt lat="42.98998" lon="0.92924">
        <ele>490.9</ele>
        <time>2021-10-14T10:10:22.000Z</time>
      </trkpt>
      <trkpt lat="42.98996" lon="0.92928">
        <ele>491.4</ele>
        <time>2021-10-14T10:10:23.000Z</time>
      </trkpt>
      <trkpt lat="42.98995" lon="0.9293">
        <ele>491.5</ele>
        <time>2021-10-14T10:10:24.000Z</time>
      </trkpt>
      <trkpt lat="42.98993" lon="0.92935">
        <ele>492.1</ele>
        <time>2021-10-14T10:10:26.000Z</time>
      </trkpt>
      <trkpt lat="42.98991" lon="0.92941">
        <ele>492.7</ele>
        <time>2021-10-14T10:10:28.000Z</time>
      </trkpt>
      <trkpt lat="42.98991" lon="0.92944">
        <ele>493.1</ele>
        <time>2021-10-14T10:10:29.000Z</time>
      </trkpt>
      <trkpt lat="42.98989" lon="0.92949">
        <ele>493.6</ele>
        <time>2021-10-14T10:10:31.000Z</time>
      </trkpt>
      <trkpt lat="42.98987" lon="0.92954">
        <ele>494.2</ele>
        <time>2021-10-14T10:10:33.000Z</time>
      </trkpt>
      <trkpt lat="42.98986" lon="0.92958">
        <ele>494.6</ele>
        <time>2021-10-14T10:10:34.000Z</time>
      </trkpt>
      <trkpt lat="42.98984" lon="0.92964">
        <ele>495.2</ele>
        <time>2021-10-14T10:10:36.000Z</time>
      </trkpt>
      <trkpt lat="42.98983" lon="0.92969">
        <ele>495.7</ele>
        <time>2021-10-14T10:10:38.000Z</time>
      </trkpt>
      <trkpt lat="42.98982" lon="0.92974">
        <ele>496.1</ele>
        <time>2021-10-14T10:10:39.000Z</time>
      </trkpt>
      <trkpt lat="42.9898" lon="0.92979">
        <ele>496.6</ele>
        <time>2021-10-14T10:10:41.000Z</time>
      </trkpt>
      <trkpt lat="42.98979" lon="0.92984">
        <ele>497.1</ele>
        <time>2021-10-14T10:10:42.000Z</time>
      </trkpt>
      <trkpt lat="42.98977" lon="0.92989">
        <ele>497.5</ele>
        <time>2021-10-14T10:10:44.000Z</time>
      </trkpt>
      <trkpt lat="42.98976" lon="0.92993">
        <ele>497.9</ele>
        <time>2021-10-14T10:10:45.000Z</time>
      </trkpt>
      <trkpt lat="42.98975" lon="0.92995">
        <ele>498</ele>
        <time>2021-10-14T10:10:46.000Z</time>
      </trkpt>
      <trkpt lat="42.98974" lon="0.92997">
        <ele>498.3</ele>
        <time>2021-10-14T10:10:47.000Z</time>
      </trkpt>
      <trkpt lat="42.98972" lon="0.93003">
        <ele>498.7</ele>
        <time>2021-10-14T10:10:49.000Z</time>
      </trkpt>
      <trkpt lat="42.9897" lon="0.93009">
        <ele>499.2</ele>
        <time>2021-10-14T10:10:51.000Z</time>
      </trkpt>
      <trkpt lat="42.98969" lon="0.93013">
        <ele>499.5</ele>
        <time>2021-10-14T10:10:52.000Z</time>
      </trkpt>
      <trkpt lat="42.98968" lon="0.93018">
        <ele>500</ele>
        <time>2021-10-14T10:10:54.000Z</time>
      </trkpt>
      <trkpt lat="42.98966" lon="0.93022">
        <ele>500.3</ele>
        <time>2021-10-14T10:10:55.000Z</time>
      </trkpt>
      <trkpt lat="42.98965" lon="0.93027">
        <ele>500.7</ele>
        <time>2021-10-14T10:10:56.000Z</time>
      </trkpt>
      <trkpt lat="42.98964" lon="0.93032">
        <ele>501.1</ele>
        <time>2021-10-14T10:10:58.000Z</time>
      </trkpt>
      <trkpt lat="42.98964" lon="0.93038">
        <ele>501.6</ele>
        <time>2021-10-14T10:10:59.000Z</time>
      </trkpt>
      <trkpt lat="42.98964" lon="0.9304">
        <ele>501.7</ele>
        <time>2021-10-14T10:11:00.000Z</time>
      </trkpt>
      <trkpt lat="42.98965" lon="0.93045">
        <ele>503.6</ele>
        <time>2021-10-14T10:11:02.000Z</time>
      </trkpt>
      <trkpt lat="42.98968" lon="0.93049">
        <ele>504.1</ele>
        <time>2021-10-14T10:11:03.000Z</time>
      </trkpt>
      <trkpt lat="42.98972" lon="0.9305">
        <ele>504.8</ele>
        <time>2021-10-14T10:11:05.000Z</time>
      </trkpt>
      <trkpt lat="42.98977" lon="0.93048">
        <ele>505.5</ele>
        <time>2021-10-14T10:11:07.000Z</time>
      </trkpt>
      <trkpt lat="42.98979" lon="0.93045">
        <ele>505.9</ele>
        <time>2021-10-14T10:11:08.000Z</time>
      </trkpt>
      <trkpt lat="42.98982" lon="0.93042">
        <ele>506.4</ele>
        <time>2021-10-14T10:11:09.000Z</time>
      </trkpt>
      <trkpt lat="42.98983" lon="0.93042">
        <ele>506.5</ele>
        <time>2021-10-14T10:11:10.000Z</time>
      </trkpt>
      <trkpt lat="42.98985" lon="0.93039">
        <ele>507</ele>
        <time>2021-10-14T10:11:12.000Z</time>
      </trkpt>
      <trkpt lat="42.98987" lon="0.93035">
        <ele>507.5</ele>
        <time>2021-10-14T10:11:13.000Z</time>
      </trkpt>
      <trkpt lat="42.9899" lon="0.93032">
        <ele>508</ele>
        <time>2021-10-14T10:11:15.000Z</time>
      </trkpt>
      <trkpt lat="42.98991" lon="0.9303">
        <ele>508.3</ele>
        <time>2021-10-14T10:11:16.000Z</time>
      </trkpt>
      <trkpt lat="42.98993" lon="0.93027">
        <ele>508.6</ele>
        <time>2021-10-14T10:11:18.000Z</time>
      </trkpt>
      <trkpt lat="42.98997" lon="0.93024">
        <ele>509.2</ele>
        <time>2021-10-14T10:11:19.000Z</time>
      </trkpt>
      <trkpt lat="42.98999" lon="0.93021">
        <ele>509.6</ele>
        <time>2021-10-14T10:11:21.000Z</time>
      </trkpt>
      <trkpt lat="42.99001" lon="0.93017">
        <ele>510.1</ele>
        <time>2021-10-14T10:11:22.000Z</time>
      </trkpt>
      <trkpt lat="42.99004" lon="0.93014">
        <ele>510.5</ele>
        <time>2021-10-14T10:11:23.000Z</time>
      </trkpt>
      <trkpt lat="42.99004" lon="0.93012">
        <ele>510.6</ele>
        <time>2021-10-14T10:11:24.000Z</time>
      </trkpt>
      <trkpt lat="42.99008" lon="0.93008">
        <ele>511.2</ele>
        <time>2021-10-14T10:11:26.000Z</time>
      </trkpt>
      <trkpt lat="42.9901" lon="0.93006">
        <ele>511.5</ele>
        <time>2021-10-14T10:11:27.000Z</time>
      </trkpt>
      <trkpt lat="42.99012" lon="0.93003">
        <ele>511.8</ele>
        <time>2021-10-14T10:11:29.000Z</time>
      </trkpt>
      <trkpt lat="42.99014" lon="0.93001">
        <ele>512.1</ele>
        <time>2021-10-14T10:11:30.000Z</time>
      </trkpt>
      <trkpt lat="42.99015" lon="0.92998">
        <ele>512.4</ele>
        <time>2021-10-14T10:11:32.000Z</time>
      </trkpt>
      <trkpt lat="42.99017" lon="0.92994">
        <ele>512.8</ele>
        <time>2021-10-14T10:11:33.000Z</time>
      </trkpt>
      <trkpt lat="42.99017" lon="0.92993">
        <ele>512.9</ele>
        <time>2021-10-14T10:11:34.000Z</time>
      </trkpt>
      <trkpt lat="42.99019" lon="0.92988">
        <ele>513.3</ele>
        <time>2021-10-14T10:11:36.000Z</time>
      </trkpt>
      <trkpt lat="42.99021" lon="0.92983">
        <ele>513.8</ele>
        <time>2021-10-14T10:11:38.000Z</time>
      </trkpt>
      <trkpt lat="42.99024" lon="0.92979">
        <ele>514.3</ele>
        <time>2021-10-14T10:11:39.000Z</time>
      </trkpt>
      <trkpt lat="42.99025" lon="0.92978">
        <ele>514.5</ele>
        <time>2021-10-14T10:11:40.000Z</time>
      </trkpt>
      <trkpt lat="42.99028" lon="0.92974">
        <ele>514.9</ele>
        <time>2021-10-14T10:11:42.000Z</time>
      </trkpt>
      <trkpt lat="42.99028" lon="0.92973">
        <ele>515</ele>
        <time>2021-10-14T10:11:43.000Z</time>
      </trkpt>
      <trkpt lat="42.99029" lon="0.92972">
        <ele>515.2</ele>
        <time>2021-10-14T10:11:44.000Z</time>
      </trkpt>
      <trkpt lat="42.9903" lon="0.92969">
        <ele>515.5</ele>
        <time>2021-10-14T10:11:45.000Z</time>
      </trkpt>
      <trkpt lat="42.99033" lon="0.92965">
        <ele>516</ele>
        <time>2021-10-14T10:11:47.000Z</time>
      </trkpt>
      <trkpt lat="42.99034" lon="0.92963">
        <ele>516.2</ele>
        <time>2021-10-14T10:11:48.000Z</time>
      </trkpt>
      <trkpt lat="42.99036" lon="0.92962">
        <ele>516.4</ele>
        <time>2021-10-14T10:11:49.000Z</time>
      </trkpt>
      <trkpt lat="42.99039" lon="0.92958">
        <ele>516.9</ele>
        <time>2021-10-14T10:11:51.000Z</time>
      </trkpt>
      <trkpt lat="42.9904" lon="0.92957">
        <ele>517.1</ele>
        <time>2021-10-14T10:11:52.000Z</time>
      </trkpt>
      <trkpt lat="42.99041" lon="0.92956">
        <ele>517.2</ele>
        <time>2021-10-14T10:11:53.000Z</time>
      </trkpt>
      <trkpt lat="42.99042" lon="0.92954">
        <ele>517.5</ele>
        <time>2021-10-14T10:11:54.000Z</time>
      </trkpt>
      <trkpt lat="42.99044" lon="0.92951">
        <ele>517.9</ele>
        <time>2021-10-14T10:11:56.000Z</time>
      </trkpt>
      <trkpt lat="42.99045" lon="0.92948">
        <ele>518.2</ele>
        <time>2021-10-14T10:11:57.000Z</time>
      </trkpt>
      <trkpt lat="42.99047" lon="0.92946">
        <ele>518.5</ele>
        <time>2021-10-14T10:11:59.000Z</time>
      </trkpt>
      <trkpt lat="42.9905" lon="0.92944">
        <ele>518.9</ele>
        <time>2021-10-14T10:12:00.000Z</time>
      </trkpt>
      <trkpt lat="42.99052" lon="0.92943">
        <ele>519.1</ele>
        <time>2021-10-14T10:12:01.000Z</time>
      </trkpt>
      <trkpt lat="42.99055" lon="0.92939">
        <ele>519.8</ele>
        <time>2021-10-14T10:12:03.000Z</time>
      </trkpt>
      <trkpt lat="42.99057" lon="0.92939">
        <ele>519.9</ele>
        <time>2021-10-14T10:12:04.000Z</time>
      </trkpt>
      <trkpt lat="42.99058" lon="0.92938">
        <ele>520.1</ele>
        <time>2021-10-14T10:12:05.000Z</time>
      </trkpt>
      <trkpt lat="42.99061" lon="0.92936">
        <ele>520.5</ele>
        <time>2021-10-14T10:12:07.000Z</time>
      </trkpt>
      <trkpt lat="42.99061" lon="0.92935">
        <ele>520.6</ele>
        <time>2021-10-14T10:12:08.000Z</time>
      </trkpt>
      <trkpt lat="42.99065" lon="0.92933">
        <ele>521.1</ele>
        <time>2021-10-14T10:12:10.000Z</time>
      </trkpt>
      <trkpt lat="42.99065" lon="0.92932">
        <ele>521.2</ele>
        <time>2021-10-14T10:12:11.000Z</time>
      </trkpt>
      <trkpt lat="42.99067" lon="0.92929">
        <ele>521.6</ele>
        <time>2021-10-14T10:12:13.000Z</time>
      </trkpt>
      <trkpt lat="42.9907" lon="0.92927">
        <ele>522</ele>
        <time>2021-10-14T10:12:15.000Z</time>
      </trkpt>
      <trkpt lat="42.99072" lon="0.92926">
        <ele>522.3</ele>
        <time>2021-10-14T10:12:16.000Z</time>
      </trkpt>
      <trkpt lat="42.99074" lon="0.92924">
        <ele>522.6</ele>
        <time>2021-10-14T10:12:18.000Z</time>
      </trkpt>
      <trkpt lat="42.99076" lon="0.92923">
        <ele>523</ele>
        <time>2021-10-14T10:12:19.000Z</time>
      </trkpt>
      <trkpt lat="42.99079" lon="0.92921">
        <ele>523.4</ele>
        <time>2021-10-14T10:12:21.000Z</time>
      </trkpt>
      <trkpt lat="42.99081" lon="0.9292">
        <ele>523.8</ele>
        <time>2021-10-14T10:12:22.000Z</time>
      </trkpt>
      <trkpt lat="42.99084" lon="0.92918">
        <ele>524.2</ele>
        <time>2021-10-14T10:12:24.000Z</time>
      </trkpt>
      <trkpt lat="42.99087" lon="0.92916">
        <ele>524.7</ele>
        <time>2021-10-14T10:12:25.000Z</time>
      </trkpt>
      <trkpt lat="42.99089" lon="0.92915">
        <ele>525.1</ele>
        <time>2021-10-14T10:12:27.000Z</time>
      </trkpt>
      <trkpt lat="42.99092" lon="0.92913">
        <ele>525.6</ele>
        <time>2021-10-14T10:12:29.000Z</time>
      </trkpt>
      <trkpt lat="42.99096" lon="0.92912">
        <ele>526.2</ele>
        <time>2021-10-14T10:12:31.000Z</time>
      </trkpt>
      <trkpt lat="42.99098" lon="0.9291">
        <ele>526.6</ele>
        <time>2021-10-14T10:12:32.000Z</time>
      </trkpt>
      <trkpt lat="42.99099" lon="0.9291">
        <ele>526.8</ele>
        <time>2021-10-14T10:12:33.000Z</time>
      </trkpt>
      <trkpt lat="42.99102" lon="0.92908">
        <ele>527.1</ele>
        <time>2021-10-14T10:12:35.000Z</time>
      </trkpt>
      <trkpt lat="42.99104" lon="0.92907">
        <ele>527.4</ele>
        <time>2021-10-14T10:12:36.000Z</time>
      </trkpt>
      <trkpt lat="42.99105" lon="0.92906">
        <ele>527.6</ele>
        <time>2021-10-14T10:12:37.000Z</time>
      </trkpt>
      <trkpt lat="42.99108" lon="0.92905">
        <ele>528.1</ele>
        <time>2021-10-14T10:12:39.000Z</time>
      </trkpt>
      <trkpt lat="42.99111" lon="0.92905">
        <ele>528.5</ele>
        <time>2021-10-14T10:12:41.000Z</time>
      </trkpt>
      <trkpt lat="42.99114" lon="0.92904">
        <ele>528.9</ele>
        <time>2021-10-14T10:12:42.000Z</time>
      </trkpt>
      <trkpt lat="42.99117" lon="0.92904">
        <ele>529.3</ele>
        <time>2021-10-14T10:12:44.000Z</time>
      </trkpt>
      <trkpt lat="42.9912" lon="0.92904">
        <ele>529.7</ele>
        <time>2021-10-14T10:12:46.000Z</time>
      </trkpt>
      <trkpt lat="42.99122" lon="0.92903">
        <ele>530</ele>
        <time>2021-10-14T10:12:47.000Z</time>
      </trkpt>
      <trkpt lat="42.99123" lon="0.92903">
        <ele>530.2</ele>
        <time>2021-10-14T10:12:48.000Z</time>
      </trkpt>
      <trkpt lat="42.99124" lon="0.92902">
        <ele>530.4</ele>
        <time>2021-10-14T10:12:49.000Z</time>
      </trkpt>
      <trkpt lat="42.99127" lon="0.929">
        <ele>530.8</ele>
        <time>2021-10-14T10:12:51.000Z</time>
      </trkpt>
      <trkpt lat="42.9913" lon="0.92901">
        <ele>531.2</ele>
        <time>2021-10-14T10:12:52.000Z</time>
      </trkpt>
      <trkpt lat="42.99131" lon="0.92901">
        <ele>531.3</ele>
        <time>2021-10-14T10:12:53.000Z</time>
      </trkpt>
      <trkpt lat="42.99132" lon="0.929">
        <ele>531.5</ele>
        <time>2021-10-14T10:12:54.000Z</time>
      </trkpt>
      <trkpt lat="42.99133" lon="0.929">
        <ele>531.7</ele>
        <time>2021-10-14T10:12:56.000Z</time>
      </trkpt>
      <trkpt lat="42.99134" lon="0.92899">
        <ele>531.9</ele>
        <time>2021-10-14T10:12:57.000Z</time>
      </trkpt>
      <trkpt lat="42.99135" lon="0.92898">
        <ele>532.1</ele>
        <time>2021-10-14T10:12:58.000Z</time>
      </trkpt>
      <trkpt lat="42.99137" lon="0.92896">
        <ele>532.5</ele>
        <time>2021-10-14T10:13:00.000Z</time>
      </trkpt>
      <trkpt lat="42.99138" lon="0.92895">
        <ele>532.7</ele>
        <time>2021-10-14T10:13:01.000Z</time>
      </trkpt>
      <trkpt lat="42.99141" lon="0.92894">
        <ele>533.2</ele>
        <time>2021-10-14T10:13:03.000Z</time>
      </trkpt>
      <trkpt lat="42.99143" lon="0.92891">
        <ele>533.7</ele>
        <time>2021-10-14T10:13:04.000Z</time>
      </trkpt>
      <trkpt lat="42.99144" lon="0.9289">
        <ele>533.9</ele>
        <time>2021-10-14T10:13:05.000Z</time>
      </trkpt>
      <trkpt lat="42.99145" lon="0.92889">
        <ele>534.2</ele>
        <time>2021-10-14T10:13:06.000Z</time>
      </trkpt>
      <trkpt lat="42.99148" lon="0.92888">
        <ele>534.7</ele>
        <time>2021-10-14T10:13:08.000Z</time>
      </trkpt>
      <trkpt lat="42.99152" lon="0.92889">
        <ele>535.4</ele>
        <time>2021-10-14T10:13:10.000Z</time>
      </trkpt>
      <trkpt lat="42.99156" lon="0.92889">
        <ele>536</ele>
        <time>2021-10-14T10:13:11.000Z</time>
      </trkpt>
      <trkpt lat="42.99156" lon="0.92889">
        <ele>536.2</ele>
        <time>2021-10-14T10:13:12.000Z</time>
      </trkpt>
      <trkpt lat="42.99158" lon="0.92889">
        <ele>536.4</ele>
        <time>2021-10-14T10:13:13.000Z</time>
      </trkpt>
      <trkpt lat="42.9916" lon="0.92889">
        <ele>536.8</ele>
        <time>2021-10-14T10:13:15.000Z</time>
      </trkpt>
      <trkpt lat="42.99162" lon="0.92889">
        <ele>537.1</ele>
        <time>2021-10-14T10:13:16.000Z</time>
      </trkpt>
      <trkpt lat="42.99163" lon="0.9289">
        <ele>537.4</ele>
        <time>2021-10-14T10:13:17.000Z</time>
      </trkpt>
      <trkpt lat="42.99165" lon="0.92891">
        <ele>537.7</ele>
        <time>2021-10-14T10:13:18.000Z</time>
      </trkpt>
      <trkpt lat="42.99167" lon="0.92892">
        <ele>538.1</ele>
        <time>2021-10-14T10:13:20.000Z</time>
      </trkpt>
      <trkpt lat="42.99168" lon="0.92892">
        <ele>538.3</ele>
        <time>2021-10-14T10:13:21.000Z</time>
      </trkpt>
      <trkpt lat="42.99171" lon="0.9289">
        <ele>538.8</ele>
        <time>2021-10-14T10:13:23.000Z</time>
      </trkpt>
      <trkpt lat="42.99172" lon="0.9289">
        <ele>539.1</ele>
        <time>2021-10-14T10:13:24.000Z</time>
      </trkpt>
      <trkpt lat="42.99174" lon="0.92889">
        <ele>539.4</ele>
        <time>2021-10-14T10:13:25.000Z</time>
      </trkpt>
      <trkpt lat="42.99176" lon="0.92889">
        <ele>539.7</ele>
        <time>2021-10-14T10:13:27.000Z</time>
      </trkpt>
      <trkpt lat="42.99178" lon="0.92888">
        <ele>540</ele>
        <time>2021-10-14T10:13:28.000Z</time>
      </trkpt>
      <trkpt lat="42.9918" lon="0.92888">
        <ele>540.3</ele>
        <time>2021-10-14T10:13:29.000Z</time>
      </trkpt>
      <trkpt lat="42.99182" lon="0.92889">
        <ele>540.7</ele>
        <time>2021-10-14T10:13:31.000Z</time>
      </trkpt>
      <trkpt lat="42.99185" lon="0.92889">
        <ele>541.2</ele>
        <time>2021-10-14T10:13:32.000Z</time>
      </trkpt>
      <trkpt lat="42.99186" lon="0.92889">
        <ele>541.4</ele>
        <time>2021-10-14T10:13:33.000Z</time>
      </trkpt>
      <trkpt lat="42.99189" lon="0.92889">
        <ele>542</ele>
        <time>2021-10-14T10:13:34.000Z</time>
      </trkpt>
      <trkpt lat="42.9919" lon="0.9289">
        <ele>542.3</ele>
        <time>2021-10-14T10:13:36.000Z</time>
      </trkpt>
      <trkpt lat="42.99192" lon="0.9289">
        <ele>542.6</ele>
        <time>2021-10-14T10:13:38.000Z</time>
      </trkpt>
      <trkpt lat="42.99193" lon="0.9289">
        <ele>542.9</ele>
        <time>2021-10-14T10:13:39.000Z</time>
      </trkpt>
      <trkpt lat="42.99197" lon="0.92891">
        <ele>543.6</ele>
        <time>2021-10-14T10:13:41.000Z</time>
      </trkpt>
      <trkpt lat="42.99198" lon="0.92892">
        <ele>543.8</ele>
        <time>2021-10-14T10:13:42.000Z</time>
      </trkpt>
      <trkpt lat="42.992" lon="0.92893">
        <ele>544.1</ele>
        <time>2021-10-14T10:13:43.000Z</time>
      </trkpt>
      <trkpt lat="42.99201" lon="0.92893">
        <ele>544.3</ele>
        <time>2021-10-14T10:13:44.000Z</time>
      </trkpt>
      <trkpt lat="42.99204" lon="0.92894">
        <ele>545</ele>
        <time>2021-10-14T10:13:46.000Z</time>
      </trkpt>
      <trkpt lat="42.99206" lon="0.92895">
        <ele>545.4</ele>
        <time>2021-10-14T10:13:48.000Z</time>
      </trkpt>
      <trkpt lat="42.99209" lon="0.92896">
        <ele>545.9</ele>
        <time>2021-10-14T10:13:49.000Z</time>
      </trkpt>
      <trkpt lat="42.99213" lon="0.92898">
        <ele>546.5</ele>
        <time>2021-10-14T10:13:51.000Z</time>
      </trkpt>
      <trkpt lat="42.99216" lon="0.92898">
        <ele>547.2</ele>
        <time>2021-10-14T10:13:52.000Z</time>
      </trkpt>
      <trkpt lat="42.99217" lon="0.92899">
        <ele>547.3</ele>
        <time>2021-10-14T10:13:53.000Z</time>
      </trkpt>
      <trkpt lat="42.9922" lon="0.92899">
        <ele>547.8</ele>
        <time>2021-10-14T10:13:54.000Z</time>
      </trkpt>
      <trkpt lat="42.99222" lon="0.92899">
        <ele>548.2</ele>
        <time>2021-10-14T10:13:55.000Z</time>
      </trkpt>
      <trkpt lat="42.99225" lon="0.92899">
        <ele>548.6</ele>
        <time>2021-10-14T10:13:57.000Z</time>
      </trkpt>
      <trkpt lat="42.99229" lon="0.929">
        <ele>549.2</ele>
        <time>2021-10-14T10:13:59.000Z</time>
      </trkpt>
      <trkpt lat="42.99232" lon="0.929">
        <ele>549.8</ele>
        <time>2021-10-14T10:14:00.000Z</time>
      </trkpt>
      <trkpt lat="42.99235" lon="0.929">
        <ele>550.3</ele>
        <time>2021-10-14T10:14:02.000Z</time>
      </trkpt>
      <trkpt lat="42.99238" lon="0.929">
        <ele>550.8</ele>
        <time>2021-10-14T10:14:03.000Z</time>
      </trkpt>
      <trkpt lat="42.99241" lon="0.92899">
        <ele>551.3</ele>
        <time>2021-10-14T10:14:04.000Z</time>
      </trkpt>
      <trkpt lat="42.99244" lon="0.92899">
        <ele>551.7</ele>
        <time>2021-10-14T10:14:06.000Z</time>
      </trkpt>
      <trkpt lat="42.99247" lon="0.929">
        <ele>552.2</ele>
        <time>2021-10-14T10:14:08.000Z</time>
      </trkpt>
      <trkpt lat="42.9925" lon="0.92901">
        <ele>552.6</ele>
        <time>2021-10-14T10:14:09.000Z</time>
      </trkpt>
      <trkpt lat="42.99252" lon="0.92899">
        <ele>553</ele>
        <time>2021-10-14T10:14:10.000Z</time>
      </trkpt>
      <trkpt lat="42.99256" lon="0.92899">
        <ele>553.4</ele>
        <time>2021-10-14T10:14:12.000Z</time>
      </trkpt>
      <trkpt lat="42.99259" lon="0.92899">
        <ele>553.8</ele>
        <time>2021-10-14T10:14:14.000Z</time>
      </trkpt>
      <trkpt lat="42.99263" lon="0.92899">
        <ele>554.3</ele>
        <time>2021-10-14T10:14:16.000Z</time>
      </trkpt>
      <trkpt lat="42.99266" lon="0.92901">
        <ele>554.7</ele>
        <time>2021-10-14T10:14:17.000Z</time>
      </trkpt>
      <trkpt lat="42.99266" lon="0.92901">
        <ele>554.7</ele>
        <time>2021-10-14T10:14:18.000Z</time>
      </trkpt>
      <trkpt lat="42.99268" lon="0.92901">
        <ele>554.9</ele>
        <time>2021-10-14T10:14:19.000Z</time>
      </trkpt>
      <trkpt lat="42.99269" lon="0.92902">
        <ele>555</ele>
        <time>2021-10-14T10:14:20.000Z</time>
      </trkpt>
      <trkpt lat="42.9927" lon="0.92902">
        <ele>555.2</ele>
        <time>2021-10-14T10:14:22.000Z</time>
      </trkpt>
      <trkpt lat="42.99272" lon="0.92903">
        <ele>555.5</ele>
        <time>2021-10-14T10:14:23.000Z</time>
      </trkpt>
      <trkpt lat="42.99273" lon="0.92903">
        <ele>555.6</ele>
        <time>2021-10-14T10:14:25.000Z</time>
      </trkpt>
      <trkpt lat="42.99275" lon="0.92903">
        <ele>555.9</ele>
        <time>2021-10-14T10:14:27.000Z</time>
      </trkpt>
      <trkpt lat="42.99277" lon="0.92903">
        <ele>556</ele>
        <time>2021-10-14T10:14:28.000Z</time>
      </trkpt>
      <trkpt lat="42.99279" lon="0.92903">
        <ele>556.3</ele>
        <time>2021-10-14T10:14:30.000Z</time>
      </trkpt>
      <trkpt lat="42.99281" lon="0.92901">
        <ele>556.5</ele>
        <time>2021-10-14T10:14:32.000Z</time>
      </trkpt>
      <trkpt lat="42.99282" lon="0.92901">
        <ele>556.7</ele>
        <time>2021-10-14T10:14:33.000Z</time>
      </trkpt>
      <trkpt lat="42.99284" lon="0.92901">
        <ele>556.8</ele>
        <time>2021-10-14T10:14:34.000Z</time>
      </trkpt>
      <trkpt lat="42.99286" lon="0.929">
        <ele>557.2</ele>
        <time>2021-10-14T10:14:36.000Z</time>
      </trkpt>
      <trkpt lat="42.99288" lon="0.92899">
        <ele>557.4</ele>
        <time>2021-10-14T10:14:37.000Z</time>
      </trkpt>
      <trkpt lat="42.99291" lon="0.92896">
        <ele>557.8</ele>
        <time>2021-10-14T10:14:39.000Z</time>
      </trkpt>
      <trkpt lat="42.99292" lon="0.92896">
        <ele>557.9</ele>
        <time>2021-10-14T10:14:40.000Z</time>
      </trkpt>
      <trkpt lat="42.99294" lon="0.92896">
        <ele>558.1</ele>
        <time>2021-10-14T10:14:41.000Z</time>
      </trkpt>
      <trkpt lat="42.99296" lon="0.92893">
        <ele>558.5</ele>
        <time>2021-10-14T10:14:43.000Z</time>
      </trkpt>
      <trkpt lat="42.99296" lon="0.92892">
        <ele>558.6</ele>
        <time>2021-10-14T10:14:44.000Z</time>
      </trkpt>
      <trkpt lat="42.99298" lon="0.92889">
        <ele>558.9</ele>
        <time>2021-10-14T10:14:46.000Z</time>
      </trkpt>
      <trkpt lat="42.99299" lon="0.92888">
        <ele>559.1</ele>
        <time>2021-10-14T10:14:47.000Z</time>
      </trkpt>
      <trkpt lat="42.99302" lon="0.92884">
        <ele>559.6</ele>
        <time>2021-10-14T10:14:49.000Z</time>
      </trkpt>
      <trkpt lat="42.99302" lon="0.92883">
        <ele>559.7</ele>
        <time>2021-10-14T10:14:50.000Z</time>
      </trkpt>
      <trkpt lat="42.99306" lon="0.92881">
        <ele>560.1</ele>
        <time>2021-10-14T10:14:51.000Z</time>
      </trkpt>
      <trkpt lat="42.99307" lon="0.92881">
        <ele>560.3</ele>
        <time>2021-10-14T10:14:52.000Z</time>
      </trkpt>
      <trkpt lat="42.9931" lon="0.92881">
        <ele>560.8</ele>
        <time>2021-10-14T10:14:54.000Z</time>
      </trkpt>
      <trkpt lat="42.99315" lon="0.92882">
        <ele>561.4</ele>
        <time>2021-10-14T10:14:55.000Z</time>
      </trkpt>
      <trkpt lat="42.99318" lon="0.92883">
        <ele>561.9</ele>
        <time>2021-10-14T10:14:57.000Z</time>
      </trkpt>
      <trkpt lat="42.9932" lon="0.92884">
        <ele>562.1</ele>
        <time>2021-10-14T10:14:58.000Z</time>
      </trkpt>
      <trkpt lat="42.99321" lon="0.92888">
        <ele>562.6</ele>
        <time>2021-10-14T10:15:00.000Z</time>
      </trkpt>
      <trkpt lat="42.99321" lon="0.92891">
        <ele>562.8</ele>
        <time>2021-10-14T10:15:01.000Z</time>
      </trkpt>
      <trkpt lat="42.99322" lon="0.92893">
        <ele>563.1</ele>
        <time>2021-10-14T10:15:02.000Z</time>
      </trkpt>
      <trkpt lat="42.99321" lon="0.92895">
        <ele>563.3</ele>
        <time>2021-10-14T10:15:03.000Z</time>
      </trkpt>
      <trkpt lat="42.99321" lon="0.92897">
        <ele>563.6</ele>
        <time>2021-10-14T10:15:04.000Z</time>
      </trkpt>
      <trkpt lat="42.99319" lon="0.929">
        <ele>564</ele>
        <time>2021-10-14T10:15:06.000Z</time>
      </trkpt>
      <trkpt lat="42.99317" lon="0.92903">
        <ele>564.4</ele>
        <time>2021-10-14T10:15:07.000Z</time>
      </trkpt>
      <trkpt lat="42.99315" lon="0.92905">
        <ele>564.8</ele>
        <time>2021-10-14T10:15:09.000Z</time>
      </trkpt>
      <trkpt lat="42.99313" lon="0.92908">
        <ele>565.3</ele>
        <time>2021-10-14T10:15:10.000Z</time>
      </trkpt>
      <trkpt lat="42.99312" lon="0.92908">
        <ele>565.4</ele>
        <time>2021-10-14T10:15:11.000Z</time>
      </trkpt>
      <trkpt lat="42.9931" lon="0.92912">
        <ele>565.9</ele>
        <time>2021-10-14T10:15:13.000Z</time>
      </trkpt>
      <trkpt lat="42.99309" lon="0.92914">
        <ele>566.2</ele>
        <time>2021-10-14T10:15:14.000Z</time>
      </trkpt>
      <trkpt lat="42.99309" lon="0.92915">
        <ele>566.4</ele>
        <time>2021-10-14T10:15:15.000Z</time>
      </trkpt>
      <trkpt lat="42.99308" lon="0.92916">
        <ele>566.6</ele>
        <time>2021-10-14T10:15:16.000Z</time>
      </trkpt>
      <trkpt lat="42.99305" lon="0.92917">
        <ele>566.9</ele>
        <time>2021-10-14T10:15:18.000Z</time>
      </trkpt>
      <trkpt lat="42.99304" lon="0.92918">
        <ele>567.2</ele>
        <time>2021-10-14T10:15:19.000Z</time>
      </trkpt>
      <trkpt lat="42.99301" lon="0.92918">
        <ele>567.6</ele>
        <time>2021-10-14T10:15:21.000Z</time>
      </trkpt>
      <trkpt lat="42.99299" lon="0.92919">
        <ele>567.9</ele>
        <time>2021-10-14T10:15:22.000Z</time>
      </trkpt>
      <trkpt lat="42.99297" lon="0.92919">
        <ele>568.3</ele>
        <time>2021-10-14T10:15:24.000Z</time>
      </trkpt>
      <trkpt lat="42.99295" lon="0.9292">
        <ele>568.5</ele>
        <time>2021-10-14T10:15:25.000Z</time>
      </trkpt>
      <trkpt lat="42.99294" lon="0.9292">
        <ele>568.7</ele>
        <time>2021-10-14T10:15:26.000Z</time>
      </trkpt>
      <trkpt lat="42.99291" lon="0.92922">
        <ele>569.1</ele>
        <time>2021-10-14T10:15:28.000Z</time>
      </trkpt>
      <trkpt lat="42.99289" lon="0.92924">
        <ele>569.4</ele>
        <time>2021-10-14T10:15:29.000Z</time>
      </trkpt>
      <trkpt lat="42.99286" lon="0.92925">
        <ele>569.8</ele>
        <time>2021-10-14T10:15:31.000Z</time>
      </trkpt>
      <trkpt lat="42.99283" lon="0.92926">
        <ele>570.2</ele>
        <time>2021-10-14T10:15:33.000Z</time>
      </trkpt>
      <trkpt lat="42.99282" lon="0.92927">
        <ele>570.4</ele>
        <time>2021-10-14T10:15:34.000Z</time>
      </trkpt>
      <trkpt lat="42.9928" lon="0.92927">
        <ele>570.6</ele>
        <time>2021-10-14T10:15:35.000Z</time>
      </trkpt>
      <trkpt lat="42.99277" lon="0.92929">
        <ele>571</ele>
        <time>2021-10-14T10:15:37.000Z</time>
      </trkpt>
      <trkpt lat="42.99276" lon="0.92929">
        <ele>571.1</ele>
        <time>2021-10-14T10:15:38.000Z</time>
      </trkpt>
      <trkpt lat="42.99275" lon="0.9293">
        <ele>571.3</ele>
        <time>2021-10-14T10:15:39.000Z</time>
      </trkpt>
      <trkpt lat="42.99273" lon="0.92931">
        <ele>571.5</ele>
        <time>2021-10-14T10:15:40.000Z</time>
      </trkpt>
      <trkpt lat="42.99269" lon="0.92935">
        <ele>571.9</ele>
        <time>2021-10-14T10:15:42.000Z</time>
      </trkpt>
      <trkpt lat="42.99268" lon="0.92936">
        <ele>572.1</ele>
        <time>2021-10-14T10:15:43.000Z</time>
      </trkpt>
      <trkpt lat="42.99267" lon="0.92937">
        <ele>572.2</ele>
        <time>2021-10-14T10:15:44.000Z</time>
      </trkpt>
      <trkpt lat="42.99265" lon="0.92939">
        <ele>572.5</ele>
        <time>2021-10-14T10:15:46.000Z</time>
      </trkpt>
      <trkpt lat="42.99263" lon="0.92941">
        <ele>572.7</ele>
        <time>2021-10-14T10:15:47.000Z</time>
      </trkpt>
      <trkpt lat="42.9926" lon="0.92943">
        <ele>573</ele>
        <time>2021-10-14T10:15:49.000Z</time>
      </trkpt>
      <trkpt lat="42.99258" lon="0.92945">
        <ele>573.2</ele>
        <time>2021-10-14T10:15:51.000Z</time>
      </trkpt>
      <trkpt lat="42.99256" lon="0.92945">
        <ele>573.5</ele>
        <time>2021-10-14T10:15:52.000Z</time>
      </trkpt>
      <trkpt lat="42.99252" lon="0.92946">
        <ele>573.8</ele>
        <time>2021-10-14T10:15:54.000Z</time>
      </trkpt>
      <trkpt lat="42.9925" lon="0.92948">
        <ele>574.1</ele>
        <time>2021-10-14T10:15:56.000Z</time>
      </trkpt>
      <trkpt lat="42.99247" lon="0.92949">
        <ele>574.3</ele>
        <time>2021-10-14T10:15:57.000Z</time>
      </trkpt>
      <trkpt lat="42.99245" lon="0.9295">
        <ele>574.5</ele>
        <time>2021-10-14T10:15:59.000Z</time>
      </trkpt>
      <trkpt lat="42.99242" lon="0.92952">
        <ele>574.8</ele>
        <time>2021-10-14T10:16:01.000Z</time>
      </trkpt>
      <trkpt lat="42.99239" lon="0.92954">
        <ele>575.1</ele>
        <time>2021-10-14T10:16:02.000Z</time>
      </trkpt>
      <trkpt lat="42.99239" lon="0.92955">
        <ele>575.2</ele>
        <time>2021-10-14T10:16:03.000Z</time>
      </trkpt>
      <trkpt lat="42.99238" lon="0.92958">
        <ele>575.5</ele>
        <time>2021-10-14T10:16:04.000Z</time>
      </trkpt>
      <trkpt lat="42.99237" lon="0.92962">
        <ele>575.8</ele>
        <time>2021-10-14T10:16:06.000Z</time>
      </trkpt>
      <trkpt lat="42.99234" lon="0.92965">
        <ele>576.1</ele>
        <time>2021-10-14T10:16:07.000Z</time>
      </trkpt>
      <trkpt lat="42.99233" lon="0.92966">
        <ele>576.3</ele>
        <time>2021-10-14T10:16:08.000Z</time>
      </trkpt>
      <trkpt lat="42.99229" lon="0.92967">
        <ele>576.7</ele>
        <time>2021-10-14T10:16:10.000Z</time>
      </trkpt>
      <trkpt lat="42.99226" lon="0.92968">
        <ele>577</ele>
        <time>2021-10-14T10:16:12.000Z</time>
      </trkpt>
      <trkpt lat="42.99223" lon="0.92968">
        <ele>577.3</ele>
        <time>2021-10-14T10:16:13.000Z</time>
      </trkpt>
      <trkpt lat="42.99222" lon="0.92968">
        <ele>577.5</ele>
        <time>2021-10-14T10:16:14.000Z</time>
      </trkpt>
      <trkpt lat="42.99219" lon="0.9297">
        <ele>577.7</ele>
        <time>2021-10-14T10:16:16.000Z</time>
      </trkpt>
      <trkpt lat="42.99217" lon="0.92972">
        <ele>578</ele>
        <time>2021-10-14T10:16:17.000Z</time>
      </trkpt>
      <trkpt lat="42.99215" lon="0.92973">
        <ele>578.2</ele>
        <time>2021-10-14T10:16:19.000Z</time>
      </trkpt>
      <trkpt lat="42.99212" lon="0.92975">
        <ele>578.6</ele>
        <time>2021-10-14T10:16:21.000Z</time>
      </trkpt>
      <trkpt lat="42.9921" lon="0.92976">
        <ele>578.8</ele>
        <time>2021-10-14T10:16:22.000Z</time>
      </trkpt>
      <trkpt lat="42.99207" lon="0.92978">
        <ele>579.1</ele>
        <time>2021-10-14T10:16:24.000Z</time>
      </trkpt>
      <trkpt lat="42.99203" lon="0.92981">
        <ele>579.5</ele>
        <time>2021-10-14T10:16:26.000Z</time>
      </trkpt>
      <trkpt lat="42.99202" lon="0.92982">
        <ele>579.7</ele>
        <time>2021-10-14T10:16:27.000Z</time>
      </trkpt>
      <trkpt lat="42.99201" lon="0.92983">
        <ele>579.8</ele>
        <time>2021-10-14T10:16:28.000Z</time>
      </trkpt>
      <trkpt lat="42.99199" lon="0.92985">
        <ele>580.1</ele>
        <time>2021-10-14T10:16:29.000Z</time>
      </trkpt>
      <trkpt lat="42.99197" lon="0.92988">
        <ele>580.4</ele>
        <time>2021-10-14T10:16:31.000Z</time>
      </trkpt>
      <trkpt lat="42.99195" lon="0.92991">
        <ele>580.7</ele>
        <time>2021-10-14T10:16:32.000Z</time>
      </trkpt>
      <trkpt lat="42.99194" lon="0.92993">
        <ele>580.9</ele>
        <time>2021-10-14T10:16:34.000Z</time>
      </trkpt>
      <trkpt lat="42.99192" lon="0.92994">
        <ele>581.2</ele>
        <time>2021-10-14T10:16:35.000Z</time>
      </trkpt>
      <trkpt lat="42.99191" lon="0.92995">
        <ele>581.3</ele>
        <time>2021-10-14T10:16:36.000Z</time>
      </trkpt>
      <trkpt lat="42.99189" lon="0.92997">
        <ele>581.7</ele>
        <time>2021-10-14T10:16:38.000Z</time>
      </trkpt>
      <trkpt lat="42.99187" lon="0.93">
        <ele>582</ele>
        <time>2021-10-14T10:16:39.000Z</time>
      </trkpt>
      <trkpt lat="42.99186" lon="0.93001">
        <ele>582.2</ele>
        <time>2021-10-14T10:16:41.000Z</time>
      </trkpt>
      <trkpt lat="42.99184" lon="0.93006">
        <ele>582.7</ele>
        <time>2021-10-14T10:16:42.000Z</time>
      </trkpt>
      <trkpt lat="42.99183" lon="0.93007">
        <ele>582.9</ele>
        <time>2021-10-14T10:16:43.000Z</time>
      </trkpt>
      <trkpt lat="42.99182" lon="0.9301">
        <ele>583.3</ele>
        <time>2021-10-14T10:16:44.000Z</time>
      </trkpt>
      <trkpt lat="42.9918" lon="0.93014">
        <ele>583.7</ele>
        <time>2021-10-14T10:16:46.000Z</time>
      </trkpt>
      <trkpt lat="42.9918" lon="0.93016">
        <ele>583.9</ele>
        <time>2021-10-14T10:16:47.000Z</time>
      </trkpt>
      <trkpt lat="42.99179" lon="0.93018">
        <ele>584.1</ele>
        <time>2021-10-14T10:16:48.000Z</time>
      </trkpt>
      <trkpt lat="42.99177" lon="0.93022">
        <ele>584.6</ele>
        <time>2021-10-14T10:16:50.000Z</time>
      </trkpt>
      <trkpt lat="42.99176" lon="0.93026">
        <ele>585</ele>
        <time>2021-10-14T10:16:52.000Z</time>
      </trkpt>
      <trkpt lat="42.99175" lon="0.93028">
        <ele>585.2</ele>
        <time>2021-10-14T10:16:53.000Z</time>
      </trkpt>
      <trkpt lat="42.99174" lon="0.93029">
        <ele>585.4</ele>
        <time>2021-10-14T10:16:54.000Z</time>
      </trkpt>
      <trkpt lat="42.99173" lon="0.93031">
        <ele>585.6</ele>
        <time>2021-10-14T10:16:55.000Z</time>
      </trkpt>
      <trkpt lat="42.99171" lon="0.93034">
        <ele>586.1</ele>
        <time>2021-10-14T10:16:57.000Z</time>
      </trkpt>
      <trkpt lat="42.99169" lon="0.93036">
        <ele>586.4</ele>
        <time>2021-10-14T10:16:59.000Z</time>
      </trkpt>
      <trkpt lat="42.99167" lon="0.93038">
        <ele>586.8</ele>
        <time>2021-10-14T10:17:01.000Z</time>
      </trkpt>
      <trkpt lat="42.99165" lon="0.93042">
        <ele>587.3</ele>
        <time>2021-10-14T10:17:02.000Z</time>
      </trkpt>
      <trkpt lat="42.99165" lon="0.93043">
        <ele>587.3</ele>
        <time>2021-10-14T10:17:03.000Z</time>
      </trkpt>
      <trkpt lat="42.99164" lon="0.93045">
        <ele>587.7</ele>
        <time>2021-10-14T10:17:05.000Z</time>
      </trkpt>
      <trkpt lat="42.99162" lon="0.93048">
        <ele>588</ele>
        <time>2021-10-14T10:17:07.000Z</time>
      </trkpt>
      <trkpt lat="42.99161" lon="0.93049">
        <ele>588.3</ele>
        <time>2021-10-14T10:17:08.000Z</time>
      </trkpt>
      <trkpt lat="42.9916" lon="0.93051">
        <ele>588.5</ele>
        <time>2021-10-14T10:17:09.000Z</time>
      </trkpt>
      <trkpt lat="42.99159" lon="0.93053">
        <ele>588.8</ele>
        <time>2021-10-14T10:17:10.000Z</time>
      </trkpt>
      <trkpt lat="42.99159" lon="0.93056">
        <ele>589.1</ele>
        <time>2021-10-14T10:17:12.000Z</time>
      </trkpt>
      <trkpt lat="42.99161" lon="0.9306">
        <ele>589.6</ele>
        <time>2021-10-14T10:17:14.000Z</time>
      </trkpt>
      <trkpt lat="42.99161" lon="0.93064">
        <ele>589.9</ele>
        <time>2021-10-14T10:17:15.000Z</time>
      </trkpt>
      <trkpt lat="42.99161" lon="0.93066">
        <ele>590.2</ele>
        <time>2021-10-14T10:17:16.000Z</time>
      </trkpt>
      <trkpt lat="42.9916" lon="0.93069">
        <ele>590.5</ele>
        <time>2021-10-14T10:17:18.000Z</time>
      </trkpt>
      <trkpt lat="42.99159" lon="0.93072">
        <ele>590.9</ele>
        <time>2021-10-14T10:17:19.000Z</time>
      </trkpt>
      <trkpt lat="42.99158" lon="0.93074">
        <ele>591.2</ele>
        <time>2021-10-14T10:17:21.000Z</time>
      </trkpt>
      <trkpt lat="42.99156" lon="0.93079">
        <ele>591.9</ele>
        <time>2021-10-14T10:17:22.000Z</time>
      </trkpt>
      <trkpt lat="42.99155" lon="0.93081">
        <ele>592.1</ele>
        <time>2021-10-14T10:17:23.000Z</time>
      </trkpt>
      <trkpt lat="42.99155" lon="0.93083">
        <ele>592.3</ele>
        <time>2021-10-14T10:17:24.000Z</time>
      </trkpt>
      <trkpt lat="42.99154" lon="0.93086">
        <ele>592.7</ele>
        <time>2021-10-14T10:17:26.000Z</time>
      </trkpt>
      <trkpt lat="42.99155" lon="0.93088">
        <ele>592.9</ele>
        <time>2021-10-14T10:17:27.000Z</time>
      </trkpt>
      <trkpt lat="42.99155" lon="0.9309">
        <ele>593.2</ele>
        <time>2021-10-14T10:17:28.000Z</time>
      </trkpt>
      <trkpt lat="42.99156" lon="0.93092">
        <ele>593.4</ele>
        <time>2021-10-14T10:17:29.000Z</time>
      </trkpt>
      <trkpt lat="42.99155" lon="0.93093">
        <ele>593.6</ele>
        <time>2021-10-14T10:17:30.000Z</time>
      </trkpt>
      <trkpt lat="42.99155" lon="0.93096">
        <ele>593.9</ele>
        <time>2021-10-14T10:17:32.000Z</time>
      </trkpt>
      <trkpt lat="42.99155" lon="0.93096">
        <ele>594</ele>
        <time>2021-10-14T10:17:33.000Z</time>
      </trkpt>
      <trkpt lat="42.99155" lon="0.93097">
        <ele>594.1</ele>
        <time>2021-10-14T10:17:35.000Z</time>
      </trkpt>
      <trkpt lat="42.99154" lon="0.931">
        <ele>594.3</ele>
        <time>2021-10-14T10:17:37.000Z</time>
      </trkpt>
      <trkpt lat="42.99154" lon="0.93102">
        <ele>594.6</ele>
        <time>2021-10-14T10:17:38.000Z</time>
      </trkpt>
      <trkpt lat="42.99154" lon="0.93104">
        <ele>594.8</ele>
        <time>2021-10-14T10:17:39.000Z</time>
      </trkpt>
      <trkpt lat="42.99153" lon="0.93109">
        <ele>595.4</ele>
        <time>2021-10-14T10:17:41.000Z</time>
      </trkpt>
      <trkpt lat="42.99151" lon="0.93112">
        <ele>595.8</ele>
        <time>2021-10-14T10:17:42.000Z</time>
      </trkpt>
      <trkpt lat="42.99151" lon="0.93114">
        <ele>596.1</ele>
        <time>2021-10-14T10:17:44.000Z</time>
      </trkpt>
      <trkpt lat="42.9915" lon="0.93116">
        <ele>596.3</ele>
        <time>2021-10-14T10:17:45.000Z</time>
      </trkpt>
      <trkpt lat="42.99149" lon="0.9312">
        <ele>596.7</ele>
        <time>2021-10-14T10:17:47.000Z</time>
      </trkpt>
      <trkpt lat="42.99148" lon="0.93125">
        <ele>597.3</ele>
        <time>2021-10-14T10:17:49.000Z</time>
      </trkpt>
      <trkpt lat="42.99148" lon="0.93129">
        <ele>597.6</ele>
        <time>2021-10-14T10:17:50.000Z</time>
      </trkpt>
      <trkpt lat="42.99147" lon="0.9313">
        <ele>597.8</ele>
        <time>2021-10-14T10:17:51.000Z</time>
      </trkpt>
      <trkpt lat="42.99147" lon="0.93137">
        <ele>598.5</ele>
        <time>2021-10-14T10:17:53.000Z</time>
      </trkpt>
      <trkpt lat="42.99147" lon="0.93139">
        <ele>598.7</ele>
        <time>2021-10-14T10:17:54.000Z</time>
      </trkpt>
      <trkpt lat="42.99147" lon="0.93141">
        <ele>599</ele>
        <time>2021-10-14T10:17:55.000Z</time>
      </trkpt>
      <trkpt lat="42.99147" lon="0.93145">
        <ele>599.4</ele>
        <time>2021-10-14T10:17:57.000Z</time>
      </trkpt>
      <trkpt lat="42.99147" lon="0.93147">
        <ele>599.6</ele>
        <time>2021-10-14T10:17:58.000Z</time>
      </trkpt>
      <trkpt lat="42.99147" lon="0.93149">
        <ele>599.8</ele>
        <time>2021-10-14T10:17:59.000Z</time>
      </trkpt>
      <trkpt lat="42.99147" lon="0.93151">
        <ele>600</ele>
        <time>2021-10-14T10:18:00.000Z</time>
      </trkpt>
      <trkpt lat="42.99148" lon="0.93157">
        <ele>600.6</ele>
        <time>2021-10-14T10:18:02.000Z</time>
      </trkpt>
      <trkpt lat="42.9915" lon="0.93161">
        <ele>601</ele>
        <time>2021-10-14T10:18:03.000Z</time>
      </trkpt>
      <trkpt lat="42.99152" lon="0.93165">
        <ele>601.4</ele>
        <time>2021-10-14T10:18:04.000Z</time>
      </trkpt>
      <trkpt lat="42.99153" lon="0.93166">
        <ele>601.5</ele>
        <time>2021-10-14T10:18:05.000Z</time>
      </trkpt>
      <trkpt lat="42.99155" lon="0.93169">
        <ele>601.8</ele>
        <time>2021-10-14T10:18:06.000Z</time>
      </trkpt>
      <trkpt lat="42.99159" lon="0.93173">
        <ele>602.2</ele>
        <time>2021-10-14T10:18:08.000Z</time>
      </trkpt>
      <trkpt lat="42.99161" lon="0.93177">
        <ele>602.4</ele>
        <time>2021-10-14T10:18:09.000Z</time>
      </trkpt>
      <trkpt lat="42.99163" lon="0.9318">
        <ele>602.7</ele>
        <time>2021-10-14T10:18:11.000Z</time>
      </trkpt>
      <trkpt lat="42.99165" lon="0.93182">
        <ele>602.9</ele>
        <time>2021-10-14T10:18:12.000Z</time>
      </trkpt>
      <trkpt lat="42.99168" lon="0.93186">
        <ele>603.1</ele>
        <time>2021-10-14T10:18:14.000Z</time>
      </trkpt>
      <trkpt lat="42.9917" lon="0.93189">
        <ele>603.3</ele>
        <time>2021-10-14T10:18:15.000Z</time>
      </trkpt>
      <trkpt lat="42.9917" lon="0.9319">
        <ele>603.4</ele>
        <time>2021-10-14T10:18:16.000Z</time>
      </trkpt>
      <trkpt lat="42.99173" lon="0.93194">
        <ele>603.6</ele>
        <time>2021-10-14T10:18:18.000Z</time>
      </trkpt>
      <trkpt lat="42.99176" lon="0.93197">
        <ele>603.8</ele>
        <time>2021-10-14T10:18:20.000Z</time>
      </trkpt>
      <trkpt lat="42.99178" lon="0.93201">
        <ele>604</ele>
        <time>2021-10-14T10:18:22.000Z</time>
      </trkpt>
      <trkpt lat="42.99179" lon="0.93203">
        <ele>604.2</ele>
        <time>2021-10-14T10:18:23.000Z</time>
      </trkpt>
      <trkpt lat="42.99182" lon="0.93206">
        <ele>604.4</ele>
        <time>2021-10-14T10:18:25.000Z</time>
      </trkpt>
      <trkpt lat="42.99185" lon="0.93209">
        <ele>604.7</ele>
        <time>2021-10-14T10:18:27.000Z</time>
      </trkpt>
      <trkpt lat="42.99186" lon="0.9321">
        <ele>604.7</ele>
        <time>2021-10-14T10:18:28.000Z</time>
      </trkpt>
      <trkpt lat="42.99187" lon="0.93213">
        <ele>605</ele>
        <time>2021-10-14T10:18:29.000Z</time>
      </trkpt>
      <trkpt lat="42.99188" lon="0.93214">
        <ele>605</ele>
        <time>2021-10-14T10:18:30.000Z</time>
      </trkpt>
      <trkpt lat="42.9919" lon="0.93219">
        <ele>605.3</ele>
        <time>2021-10-14T10:18:32.000Z</time>
      </trkpt>
      <trkpt lat="42.99191" lon="0.9322">
        <ele>605.4</ele>
        <time>2021-10-14T10:18:33.000Z</time>
      </trkpt>
      <trkpt lat="42.99192" lon="0.93222">
        <ele>605.6</ele>
        <time>2021-10-14T10:18:34.000Z</time>
      </trkpt>
      <trkpt lat="42.99194" lon="0.93225">
        <ele>605.9</ele>
        <time>2021-10-14T10:18:36.000Z</time>
      </trkpt>
      <trkpt lat="42.99196" lon="0.9323">
        <ele>606.2</ele>
        <time>2021-10-14T10:18:38.000Z</time>
      </trkpt>
      <trkpt lat="42.99198" lon="0.93233">
        <ele>606.5</ele>
        <time>2021-10-14T10:18:40.000Z</time>
      </trkpt>
      <trkpt lat="42.992" lon="0.93234">
        <ele>606.7</ele>
        <time>2021-10-14T10:18:41.000Z</time>
      </trkpt>
      <trkpt lat="42.99202" lon="0.93237">
        <ele>607</ele>
        <time>2021-10-14T10:18:43.000Z</time>
      </trkpt>
      <trkpt lat="42.99205" lon="0.93241">
        <ele>607.5</ele>
        <time>2021-10-14T10:18:45.000Z</time>
      </trkpt>
      <trkpt lat="42.99205" lon="0.93242">
        <ele>607.6</ele>
        <time>2021-10-14T10:18:46.000Z</time>
      </trkpt>
      <trkpt lat="42.99205" lon="0.93245">
        <ele>607.8</ele>
        <time>2021-10-14T10:18:48.000Z</time>
      </trkpt>
      <trkpt lat="42.99206" lon="0.93248">
        <ele>608.1</ele>
        <time>2021-10-14T10:18:50.000Z</time>
      </trkpt>
      <trkpt lat="42.99208" lon="0.93251">
        <ele>608.5</ele>
        <time>2021-10-14T10:18:52.000Z</time>
      </trkpt>
      <trkpt lat="42.99209" lon="0.93252">
        <ele>608.7</ele>
        <time>2021-10-14T10:18:53.000Z</time>
      </trkpt>
      <trkpt lat="42.99212" lon="0.93255">
        <ele>609.1</ele>
        <time>2021-10-14T10:18:55.000Z</time>
      </trkpt>
      <trkpt lat="42.99213" lon="0.93258">
        <ele>609.5</ele>
        <time>2021-10-14T10:18:57.000Z</time>
      </trkpt>
      <trkpt lat="42.99214" lon="0.9326">
        <ele>609.7</ele>
        <time>2021-10-14T10:18:58.000Z</time>
      </trkpt>
      <trkpt lat="42.99215" lon="0.93262">
        <ele>609.9</ele>
        <time>2021-10-14T10:18:59.000Z</time>
      </trkpt>
      <trkpt lat="42.99216" lon="0.93266">
        <ele>610.3</ele>
        <time>2021-10-14T10:19:01.000Z</time>
      </trkpt>
      <trkpt lat="42.99216" lon="0.93267">
        <ele>610.5</ele>
        <time>2021-10-14T10:19:02.000Z</time>
      </trkpt>
      <trkpt lat="42.99217" lon="0.93269">
        <ele>610.7</ele>
        <time>2021-10-14T10:19:03.000Z</time>
      </trkpt>
      <trkpt lat="42.99219" lon="0.93273">
        <ele>611.2</ele>
        <time>2021-10-14T10:19:05.000Z</time>
      </trkpt>
      <trkpt lat="42.99221" lon="0.93275">
        <ele>611.5</ele>
        <time>2021-10-14T10:19:06.000Z</time>
      </trkpt>
      <trkpt lat="42.99222" lon="0.93278">
        <ele>611.9</ele>
        <time>2021-10-14T10:19:08.000Z</time>
      </trkpt>
      <trkpt lat="42.99224" lon="0.93281">
        <ele>612.4</ele>
        <time>2021-10-14T10:19:09.000Z</time>
      </trkpt>
      <trkpt lat="42.99225" lon="0.93282">
        <ele>612.5</ele>
        <time>2021-10-14T10:19:10.000Z</time>
      </trkpt>
      <trkpt lat="42.99226" lon="0.93286">
        <ele>612.9</ele>
        <time>2021-10-14T10:19:12.000Z</time>
      </trkpt>
      <trkpt lat="42.99228" lon="0.9329">
        <ele>613.5</ele>
        <time>2021-10-14T10:19:14.000Z</time>
      </trkpt>
      <trkpt lat="42.9923" lon="0.93293">
        <ele>613.9</ele>
        <time>2021-10-14T10:19:15.000Z</time>
      </trkpt>
      <trkpt lat="42.99231" lon="0.93296">
        <ele>614.3</ele>
        <time>2021-10-14T10:19:17.000Z</time>
      </trkpt>
      <trkpt lat="42.99233" lon="0.933">
        <ele>615</ele>
        <time>2021-10-14T10:19:18.000Z</time>
      </trkpt>
      <trkpt lat="42.99234" lon="0.93302">
        <ele>615.2</ele>
        <time>2021-10-14T10:19:19.000Z</time>
      </trkpt>
      <trkpt lat="42.99236" lon="0.93306">
        <ele>615.9</ele>
        <time>2021-10-14T10:19:21.000Z</time>
      </trkpt>
      <trkpt lat="42.99238" lon="0.93307">
        <ele>616.2</ele>
        <time>2021-10-14T10:19:22.000Z</time>
      </trkpt>
      <trkpt lat="42.99241" lon="0.93307">
        <ele>616.8</ele>
        <time>2021-10-14T10:19:23.000Z</time>
      </trkpt>
      <trkpt lat="42.99242" lon="0.93307">
        <ele>617.1</ele>
        <time>2021-10-14T10:19:24.000Z</time>
      </trkpt>
      <trkpt lat="42.99245" lon="0.93306">
        <ele>617.8</ele>
        <time>2021-10-14T10:19:26.000Z</time>
      </trkpt>
      <trkpt lat="42.99248" lon="0.93304">
        <ele>618.6</ele>
        <time>2021-10-14T10:19:28.000Z</time>
      </trkpt>
      <trkpt lat="42.99249" lon="0.93301">
        <ele>619.2</ele>
        <time>2021-10-14T10:19:29.000Z</time>
      </trkpt>
      <trkpt lat="42.99249" lon="0.93297">
        <ele>622.2</ele>
        <time>2021-10-14T10:19:31.000Z</time>
      </trkpt>
      <trkpt lat="42.99248" lon="0.93292">
        <ele>622.5</ele>
        <time>2021-10-14T10:19:33.000Z</time>
      </trkpt>
      <trkpt lat="42.99248" lon="0.93289">
        <ele>622.7</ele>
        <time>2021-10-14T10:19:34.000Z</time>
      </trkpt>
      <trkpt lat="42.99245" lon="0.93285">
        <ele>623</ele>
        <time>2021-10-14T10:19:36.000Z</time>
      </trkpt>
      <trkpt lat="42.99244" lon="0.93282">
        <ele>623.1</ele>
        <time>2021-10-14T10:19:37.000Z</time>
      </trkpt>
      <trkpt lat="42.99243" lon="0.93281">
        <ele>623.2</ele>
        <time>2021-10-14T10:19:38.000Z</time>
      </trkpt>
      <trkpt lat="42.99241" lon="0.93275">
        <ele>623.4</ele>
        <time>2021-10-14T10:19:40.000Z</time>
      </trkpt>
      <trkpt lat="42.9924" lon="0.93273">
        <ele>623.5</ele>
        <time>2021-10-14T10:19:42.000Z</time>
      </trkpt>
      <trkpt lat="42.99238" lon="0.93269">
        <ele>623.7</ele>
        <time>2021-10-14T10:19:44.000Z</time>
      </trkpt>
      <trkpt lat="42.99237" lon="0.93264">
        <ele>623.8</ele>
        <time>2021-10-14T10:19:46.000Z</time>
      </trkpt>
      <trkpt lat="42.99236" lon="0.9326">
        <ele>624</ele>
        <time>2021-10-14T10:19:48.000Z</time>
      </trkpt>
      <trkpt lat="42.99235" lon="0.93257">
        <ele>624.1</ele>
        <time>2021-10-14T10:19:49.000Z</time>
      </trkpt>
      <trkpt lat="42.99232" lon="0.93251">
        <ele>624.2</ele>
        <time>2021-10-14T10:19:51.000Z</time>
      </trkpt>
      <trkpt lat="42.99231" lon="0.93246">
        <ele>624.3</ele>
        <time>2021-10-14T10:19:53.000Z</time>
      </trkpt>
      <trkpt lat="42.99231" lon="0.93243">
        <ele>624.3</ele>
        <time>2021-10-14T10:19:54.000Z</time>
      </trkpt>
      <trkpt lat="42.9923" lon="0.93239">
        <ele>624.3</ele>
        <time>2021-10-14T10:19:56.000Z</time>
      </trkpt>
      <trkpt lat="42.99231" lon="0.93233">
        <ele>624.4</ele>
        <time>2021-10-14T10:19:58.000Z</time>
      </trkpt>
      <trkpt lat="42.99231" lon="0.93229">
        <ele>624.4</ele>
        <time>2021-10-14T10:19:59.000Z</time>
      </trkpt>
      <trkpt lat="42.9923" lon="0.93224">
        <ele>624.4</ele>
        <time>2021-10-14T10:20:01.000Z</time>
      </trkpt>
      <trkpt lat="42.99228" lon="0.9322">
        <ele>624.4</ele>
        <time>2021-10-14T10:20:02.000Z</time>
      </trkpt>
      <trkpt lat="42.99227" lon="0.93215">
        <ele>624.4</ele>
        <time>2021-10-14T10:20:04.000Z</time>
      </trkpt>
      <trkpt lat="42.99225" lon="0.93212">
        <ele>624.4</ele>
        <time>2021-10-14T10:20:05.000Z</time>
      </trkpt>
      <trkpt lat="42.99225" lon="0.9321">
        <ele>624.4</ele>
        <time>2021-10-14T10:20:06.000Z</time>
      </trkpt>
      <trkpt lat="42.99223" lon="0.93202">
        <ele>624.5</ele>
        <time>2021-10-14T10:20:08.000Z</time>
      </trkpt>
      <trkpt lat="42.99221" lon="0.93195">
        <ele>624.5</ele>
        <time>2021-10-14T10:20:10.000Z</time>
      </trkpt>
      <trkpt lat="42.99218" lon="0.9319">
        <ele>624.6</ele>
        <time>2021-10-14T10:20:12.000Z</time>
      </trkpt>
      <trkpt lat="42.99216" lon="0.93187">
        <ele>624.7</ele>
        <time>2021-10-14T10:20:13.000Z</time>
      </trkpt>
      <trkpt lat="42.99214" lon="0.93183">
        <ele>624.8</ele>
        <time>2021-10-14T10:20:15.000Z</time>
      </trkpt>
      <trkpt lat="42.99213" lon="0.93179">
        <ele>624.9</ele>
        <time>2021-10-14T10:20:16.000Z</time>
      </trkpt>
      <trkpt lat="42.99212" lon="0.93173">
        <ele>625</ele>
        <time>2021-10-14T10:20:18.000Z</time>
      </trkpt>
      <trkpt lat="42.99212" lon="0.93168">
        <ele>625.2</ele>
        <time>2021-10-14T10:20:19.000Z</time>
      </trkpt>
      <trkpt lat="42.99213" lon="0.93164">
        <ele>625.3</ele>
        <time>2021-10-14T10:20:20.000Z</time>
      </trkpt>
      <trkpt lat="42.99213" lon="0.93162">
        <ele>625.4</ele>
        <time>2021-10-14T10:20:21.000Z</time>
      </trkpt>
      <trkpt lat="42.99215" lon="0.93156">
        <ele>625.6</ele>
        <time>2021-10-14T10:20:23.000Z</time>
      </trkpt>
      <trkpt lat="42.99219" lon="0.9315">
        <ele>625.9</ele>
        <time>2021-10-14T10:20:25.000Z</time>
      </trkpt>
      <trkpt lat="42.99223" lon="0.93146">
        <ele>626.2</ele>
        <time>2021-10-14T10:20:27.000Z</time>
      </trkpt>
      <trkpt lat="42.99225" lon="0.93144">
        <ele>626.4</ele>
        <time>2021-10-14T10:20:28.000Z</time>
      </trkpt>
      <trkpt lat="42.99229" lon="0.9314">
        <ele>626.7</ele>
        <time>2021-10-14T10:20:30.000Z</time>
      </trkpt>
      <trkpt lat="42.99231" lon="0.93139">
        <ele>627</ele>
        <time>2021-10-14T10:20:31.000Z</time>
      </trkpt>
      <trkpt lat="42.99232" lon="0.93137">
        <ele>627.1</ele>
        <time>2021-10-14T10:20:32.000Z</time>
      </trkpt>
      <trkpt lat="42.99235" lon="0.93134">
        <ele>627.5</ele>
        <time>2021-10-14T10:20:34.000Z</time>
      </trkpt>
      <trkpt lat="42.99239" lon="0.93133">
        <ele>627.9</ele>
        <time>2021-10-14T10:20:36.000Z</time>
      </trkpt>
      <trkpt lat="42.99239" lon="0.93134">
        <ele>628.1</ele>
        <time>2021-10-14T10:20:37.000Z</time>
      </trkpt>
      <trkpt lat="42.99241" lon="0.93133">
        <ele>628.3</ele>
        <time>2021-10-14T10:20:39.000Z</time>
      </trkpt>
      <trkpt lat="42.99244" lon="0.93134">
        <ele>628.7</ele>
        <time>2021-10-14T10:20:40.000Z</time>
      </trkpt>
      <trkpt lat="42.99246" lon="0.93134">
        <ele>629</ele>
        <time>2021-10-14T10:20:41.000Z</time>
      </trkpt>
      <trkpt lat="42.9925" lon="0.93134">
        <ele>629.5</ele>
        <time>2021-10-14T10:20:43.000Z</time>
      </trkpt>
      <trkpt lat="42.99253" lon="0.93134">
        <ele>629.9</ele>
        <time>2021-10-14T10:20:44.000Z</time>
      </trkpt>
      <trkpt lat="42.99255" lon="0.93133">
        <ele>630.2</ele>
        <time>2021-10-14T10:20:46.000Z</time>
      </trkpt>
      <trkpt lat="42.9926" lon="0.93132">
        <ele>630.9</ele>
        <time>2021-10-14T10:20:47.000Z</time>
      </trkpt>
      <trkpt lat="42.99261" lon="0.93132">
        <ele>631.2</ele>
        <time>2021-10-14T10:20:48.000Z</time>
      </trkpt>
      <trkpt lat="42.99264" lon="0.93132">
        <ele>631.6</ele>
        <time>2021-10-14T10:20:50.000Z</time>
      </trkpt>
      <trkpt lat="42.99267" lon="0.93131">
        <ele>632</ele>
        <time>2021-10-14T10:20:51.000Z</time>
      </trkpt>
      <trkpt lat="42.99269" lon="0.9313">
        <ele>632.4</ele>
        <time>2021-10-14T10:20:52.000Z</time>
      </trkpt>
      <trkpt lat="42.99273" lon="0.93128">
        <ele>633</ele>
        <time>2021-10-14T10:20:54.000Z</time>
      </trkpt>
      <trkpt lat="42.99276" lon="0.93127">
        <ele>633.5</ele>
        <time>2021-10-14T10:20:55.000Z</time>
      </trkpt>
      <trkpt lat="42.99277" lon="0.93127">
        <ele>633.7</ele>
        <time>2021-10-14T10:20:56.000Z</time>
      </trkpt>
      <trkpt lat="42.99279" lon="0.93126">
        <ele>634</ele>
        <time>2021-10-14T10:20:57.000Z</time>
      </trkpt>
      <trkpt lat="42.99282" lon="0.93125">
        <ele>634.5</ele>
        <time>2021-10-14T10:20:59.000Z</time>
      </trkpt>
      <trkpt lat="42.99284" lon="0.93124">
        <ele>634.9</ele>
        <time>2021-10-14T10:21:01.000Z</time>
      </trkpt>
      <trkpt lat="42.99286" lon="0.93123">
        <ele>635.3</ele>
        <time>2021-10-14T10:21:02.000Z</time>
      </trkpt>
      <trkpt lat="42.99287" lon="0.93121">
        <ele>635.5</ele>
        <time>2021-10-14T10:21:04.000Z</time>
      </trkpt>
      <trkpt lat="42.99289" lon="0.93119">
        <ele>636</ele>
        <time>2021-10-14T10:21:06.000Z</time>
      </trkpt>
      <trkpt lat="42.99291" lon="0.93117">
        <ele>636.3</ele>
        <time>2021-10-14T10:21:07.000Z</time>
      </trkpt>
      <trkpt lat="42.99292" lon="0.93116">
        <ele>636.6</ele>
        <time>2021-10-14T10:21:08.000Z</time>
      </trkpt>
      <trkpt lat="42.99294" lon="0.93114">
        <ele>637.1</ele>
        <time>2021-10-14T10:21:10.000Z</time>
      </trkpt>
      <trkpt lat="42.99296" lon="0.93113">
        <ele>637.5</ele>
        <time>2021-10-14T10:21:11.000Z</time>
      </trkpt>
      <trkpt lat="42.99298" lon="0.93112">
        <ele>637.8</ele>
        <time>2021-10-14T10:21:12.000Z</time>
      </trkpt>
      <trkpt lat="42.99301" lon="0.93113">
        <ele>638.5</ele>
        <time>2021-10-14T10:21:13.000Z</time>
      </trkpt>
      <trkpt lat="42.99302" lon="0.93114">
        <ele>638.7</ele>
        <time>2021-10-14T10:21:14.000Z</time>
      </trkpt>
      <trkpt lat="42.99306" lon="0.93115">
        <ele>639.5</ele>
        <time>2021-10-14T10:21:16.000Z</time>
      </trkpt>
      <trkpt lat="42.99309" lon="0.93117">
        <ele>640.1</ele>
        <time>2021-10-14T10:21:17.000Z</time>
      </trkpt>
      <trkpt lat="42.99311" lon="0.93119">
        <ele>640.7</ele>
        <time>2021-10-14T10:21:18.000Z</time>
      </trkpt>
      <trkpt lat="42.99314" lon="0.93122">
        <ele>641.2</ele>
        <time>2021-10-14T10:21:20.000Z</time>
      </trkpt>
      <trkpt lat="42.99314" lon="0.93125">
        <ele>641.7</ele>
        <time>2021-10-14T10:21:21.000Z</time>
      </trkpt>
      <trkpt lat="42.99312" lon="0.93128">
        <ele>642.1</ele>
        <time>2021-10-14T10:21:23.000Z</time>
      </trkpt>
      <trkpt lat="42.9931" lon="0.93129">
        <ele>642.4</ele>
        <time>2021-10-14T10:21:24.000Z</time>
      </trkpt>
      <trkpt lat="42.99309" lon="0.93131">
        <ele>642.7</ele>
        <time>2021-10-14T10:21:25.000Z</time>
      </trkpt>
      <trkpt lat="42.99306" lon="0.93133">
        <ele>643.3</ele>
        <time>2021-10-14T10:21:27.000Z</time>
      </trkpt>
      <trkpt lat="42.99303" lon="0.93136">
        <ele>643.8</ele>
        <time>2021-10-14T10:21:29.000Z</time>
      </trkpt>
      <trkpt lat="42.99302" lon="0.93136">
        <ele>644</ele>
        <time>2021-10-14T10:21:30.000Z</time>
      </trkpt>
      <trkpt lat="42.993" lon="0.93137">
        <ele>644.2</ele>
        <time>2021-10-14T10:21:31.000Z</time>
      </trkpt>
      <trkpt lat="42.99298" lon="0.93139">
        <ele>644.5</ele>
        <time>2021-10-14T10:21:33.000Z</time>
      </trkpt>
      <trkpt lat="42.99297" lon="0.9314">
        <ele>644.8</ele>
        <time>2021-10-14T10:21:34.000Z</time>
      </trkpt>
      <trkpt lat="42.99295" lon="0.93142">
        <ele>645.1</ele>
        <time>2021-10-14T10:21:36.000Z</time>
      </trkpt>
      <trkpt lat="42.99295" lon="0.93144">
        <ele>645.4</ele>
        <time>2021-10-14T10:21:37.000Z</time>
      </trkpt>
      <trkpt lat="42.99294" lon="0.93147">
        <ele>645.8</ele>
        <time>2021-10-14T10:21:39.000Z</time>
      </trkpt>
      <trkpt lat="42.99293" lon="0.9315">
        <ele>646.1</ele>
        <time>2021-10-14T10:21:40.000Z</time>
      </trkpt>
      <trkpt lat="42.99293" lon="0.93153">
        <ele>646.5</ele>
        <time>2021-10-14T10:21:42.000Z</time>
      </trkpt>
      <trkpt lat="42.99291" lon="0.93157">
        <ele>647.1</ele>
        <time>2021-10-14T10:21:44.000Z</time>
      </trkpt>
      <trkpt lat="42.99291" lon="0.93158">
        <ele>647.2</ele>
        <time>2021-10-14T10:21:45.000Z</time>
      </trkpt>
      <trkpt lat="42.9929" lon="0.9316">
        <ele>647.4</ele>
        <time>2021-10-14T10:21:46.000Z</time>
      </trkpt>
      <trkpt lat="42.99289" lon="0.93163">
        <ele>647.8</ele>
        <time>2021-10-14T10:21:48.000Z</time>
      </trkpt>
      <trkpt lat="42.99289" lon="0.93164">
        <ele>648</ele>
        <time>2021-10-14T10:21:49.000Z</time>
      </trkpt>
      <trkpt lat="42.99288" lon="0.93167">
        <ele>648.3</ele>
        <time>2021-10-14T10:21:50.000Z</time>
      </trkpt>
      <trkpt lat="42.99288" lon="0.93169">
        <ele>648.6</ele>
        <time>2021-10-14T10:21:52.000Z</time>
      </trkpt>
      <trkpt lat="42.99287" lon="0.93171">
        <ele>648.9</ele>
        <time>2021-10-14T10:21:53.000Z</time>
      </trkpt>
      <trkpt lat="42.99286" lon="0.93172">
        <ele>649</ele>
        <time>2021-10-14T10:21:54.000Z</time>
      </trkpt>
      <trkpt lat="42.99286" lon="0.93173">
        <ele>649.2</ele>
        <time>2021-10-14T10:21:56.000Z</time>
      </trkpt>
      <trkpt lat="42.99286" lon="0.93175">
        <ele>649.5</ele>
        <time>2021-10-14T10:21:57.000Z</time>
      </trkpt>
      <trkpt lat="42.99286" lon="0.93177">
        <ele>649.7</ele>
        <time>2021-10-14T10:21:58.000Z</time>
      </trkpt>
      <trkpt lat="42.99286" lon="0.93181">
        <ele>650.1</ele>
        <time>2021-10-14T10:22:00.000Z</time>
      </trkpt>
      <trkpt lat="42.99285" lon="0.93183">
        <ele>650.3</ele>
        <time>2021-10-14T10:22:01.000Z</time>
      </trkpt>
      <trkpt lat="42.99286" lon="0.93185">
        <ele>650.5</ele>
        <time>2021-10-14T10:22:02.000Z</time>
      </trkpt>
      <trkpt lat="42.99286" lon="0.93186">
        <ele>650.6</ele>
        <time>2021-10-14T10:22:03.000Z</time>
      </trkpt>
      <trkpt lat="42.99288" lon="0.93189">
        <ele>650.9</ele>
        <time>2021-10-14T10:22:05.000Z</time>
      </trkpt>
      <trkpt lat="42.99289" lon="0.93189">
        <ele>651.1</ele>
        <time>2021-10-14T10:22:06.000Z</time>
      </trkpt>
      <trkpt lat="42.99289" lon="0.93189">
        <ele>651.2</ele>
        <time>2021-10-14T10:22:07.000Z</time>
      </trkpt>
      <trkpt lat="42.99291" lon="0.93188">
        <ele>651.4</ele>
        <time>2021-10-14T10:22:09.000Z</time>
      </trkpt>
      <trkpt lat="42.99293" lon="0.93187">
        <ele>651.6</ele>
        <time>2021-10-14T10:22:10.000Z</time>
      </trkpt>
      <trkpt lat="42.99294" lon="0.93187">
        <ele>651.7</ele>
        <time>2021-10-14T10:22:11.000Z</time>
      </trkpt>
      <trkpt lat="42.99296" lon="0.93186">
        <ele>651.9</ele>
        <time>2021-10-14T10:22:12.000Z</time>
      </trkpt>
      <trkpt lat="42.99297" lon="0.93185">
        <ele>652</ele>
        <time>2021-10-14T10:22:13.000Z</time>
      </trkpt>
      <trkpt lat="42.99299" lon="0.93183">
        <ele>652.3</ele>
        <time>2021-10-14T10:22:15.000Z</time>
      </trkpt>
      <trkpt lat="42.99302" lon="0.93181">
        <ele>652.5</ele>
        <time>2021-10-14T10:22:17.000Z</time>
      </trkpt>
      <trkpt lat="42.99303" lon="0.93179">
        <ele>652.7</ele>
        <time>2021-10-14T10:22:18.000Z</time>
      </trkpt>
      <trkpt lat="42.99305" lon="0.93179">
        <ele>652.9</ele>
        <time>2021-10-14T10:22:20.000Z</time>
      </trkpt>
      <trkpt lat="42.99308" lon="0.93178">
        <ele>653.1</ele>
        <time>2021-10-14T10:22:21.000Z</time>
      </trkpt>
      <trkpt lat="42.9931" lon="0.93176">
        <ele>653.2</ele>
        <time>2021-10-14T10:22:22.000Z</time>
      </trkpt>
      <trkpt lat="42.99313" lon="0.93174">
        <ele>653.5</ele>
        <time>2021-10-14T10:22:24.000Z</time>
      </trkpt>
      <trkpt lat="42.99316" lon="0.93173">
        <ele>653.7</ele>
        <time>2021-10-14T10:22:26.000Z</time>
      </trkpt>
      <trkpt lat="42.99317" lon="0.93172">
        <ele>653.8</ele>
        <time>2021-10-14T10:22:27.000Z</time>
      </trkpt>
      <trkpt lat="42.9932" lon="0.93171">
        <ele>654.1</ele>
        <time>2021-10-14T10:22:29.000Z</time>
      </trkpt>
      <trkpt lat="42.99322" lon="0.9317">
        <ele>654.2</ele>
        <time>2021-10-14T10:22:30.000Z</time>
      </trkpt>
      <trkpt lat="42.99324" lon="0.9317">
        <ele>654.3</ele>
        <time>2021-10-14T10:22:31.000Z</time>
      </trkpt>
      <trkpt lat="42.99328" lon="0.93168">
        <ele>654.6</ele>
        <time>2021-10-14T10:22:33.000Z</time>
      </trkpt>
      <trkpt lat="42.9933" lon="0.93167">
        <ele>654.7</ele>
        <time>2021-10-14T10:22:35.000Z</time>
      </trkpt>
      <trkpt lat="42.99332" lon="0.93167">
        <ele>654.8</ele>
        <time>2021-10-14T10:22:36.000Z</time>
      </trkpt>
      <trkpt lat="42.99333" lon="0.93166">
        <ele>655</ele>
        <time>2021-10-14T10:22:37.000Z</time>
      </trkpt>
      <trkpt lat="42.99337" lon="0.93165">
        <ele>655.2</ele>
        <time>2021-10-14T10:22:39.000Z</time>
      </trkpt>
      <trkpt lat="42.99341" lon="0.93165">
        <ele>655.5</ele>
        <time>2021-10-14T10:22:41.000Z</time>
      </trkpt>
      <trkpt lat="42.99343" lon="0.93164">
        <ele>655.7</ele>
        <time>2021-10-14T10:22:42.000Z</time>
      </trkpt>
      <trkpt lat="42.99344" lon="0.93164">
        <ele>655.8</ele>
        <time>2021-10-14T10:22:43.000Z</time>
      </trkpt>
      <trkpt lat="42.99346" lon="0.93163">
        <ele>655.9</ele>
        <time>2021-10-14T10:22:44.000Z</time>
      </trkpt>
      <trkpt lat="42.99348" lon="0.93162">
        <ele>656.1</ele>
        <time>2021-10-14T10:22:46.000Z</time>
      </trkpt>
      <trkpt lat="42.9935" lon="0.93161">
        <ele>656.2</ele>
        <time>2021-10-14T10:22:47.000Z</time>
      </trkpt>
      <trkpt lat="42.99354" lon="0.93157">
        <ele>656.5</ele>
        <time>2021-10-14T10:22:49.000Z</time>
      </trkpt>
      <trkpt lat="42.99357" lon="0.93156">
        <ele>656.7</ele>
        <time>2021-10-14T10:22:51.000Z</time>
      </trkpt>
      <trkpt lat="42.99358" lon="0.93156">
        <ele>656.8</ele>
        <time>2021-10-14T10:22:52.000Z</time>
      </trkpt>
      <trkpt lat="42.9936" lon="0.93155">
        <ele>657</ele>
        <time>2021-10-14T10:22:53.000Z</time>
      </trkpt>
      <trkpt lat="42.99361" lon="0.93154">
        <ele>657.1</ele>
        <time>2021-10-14T10:22:54.000Z</time>
      </trkpt>
      <trkpt lat="42.99364" lon="0.93151">
        <ele>657.3</ele>
        <time>2021-10-14T10:22:56.000Z</time>
      </trkpt>
      <trkpt lat="42.99365" lon="0.93151">
        <ele>657.4</ele>
        <time>2021-10-14T10:22:57.000Z</time>
      </trkpt>
      <trkpt lat="42.99368" lon="0.9315">
        <ele>657.6</ele>
        <time>2021-10-14T10:22:59.000Z</time>
      </trkpt>
      <trkpt lat="42.9937" lon="0.93149">
        <ele>657.7</ele>
        <time>2021-10-14T10:23:00.000Z</time>
      </trkpt>
      <trkpt lat="42.99373" lon="0.93148">
        <ele>657.9</ele>
        <time>2021-10-14T10:23:02.000Z</time>
      </trkpt>
      <trkpt lat="42.99374" lon="0.93148">
        <ele>658</ele>
        <time>2021-10-14T10:23:03.000Z</time>
      </trkpt>
      <trkpt lat="42.9938" lon="0.93148">
        <ele>658.4</ele>
        <time>2021-10-14T10:23:05.000Z</time>
      </trkpt>
      <trkpt lat="42.99384" lon="0.93147">
        <ele>658.6</ele>
        <time>2021-10-14T10:23:06.000Z</time>
      </trkpt>
      <trkpt lat="42.99386" lon="0.93146">
        <ele>658.8</ele>
        <time>2021-10-14T10:23:07.000Z</time>
      </trkpt>
      <trkpt lat="42.99388" lon="0.93145">
        <ele>659</ele>
        <time>2021-10-14T10:23:09.000Z</time>
      </trkpt>
      <trkpt lat="42.99392" lon="0.93144">
        <ele>659.2</ele>
        <time>2021-10-14T10:23:11.000Z</time>
      </trkpt>
      <trkpt lat="42.99395" lon="0.93144">
        <ele>659.5</ele>
        <time>2021-10-14T10:23:12.000Z</time>
      </trkpt>
      <trkpt lat="42.99398" lon="0.93144">
        <ele>659.7</ele>
        <time>2021-10-14T10:23:14.000Z</time>
      </trkpt>
      <trkpt lat="42.994" lon="0.93144">
        <ele>659.8</ele>
        <time>2021-10-14T10:23:15.000Z</time>
      </trkpt>
      <trkpt lat="42.99402" lon="0.93143">
        <ele>660</ele>
        <time>2021-10-14T10:23:17.000Z</time>
      </trkpt>
      <trkpt lat="42.99404" lon="0.93144">
        <ele>660.2</ele>
        <time>2021-10-14T10:23:18.000Z</time>
      </trkpt>
      <trkpt lat="42.99408" lon="0.93145">
        <ele>660.4</ele>
        <time>2021-10-14T10:23:20.000Z</time>
      </trkpt>
      <trkpt lat="42.99409" lon="0.93145">
        <ele>660.5</ele>
        <time>2021-10-14T10:23:21.000Z</time>
      </trkpt>
      <trkpt lat="42.9941" lon="0.93146">
        <ele>660.6</ele>
        <time>2021-10-14T10:23:22.000Z</time>
      </trkpt>
      <trkpt lat="42.99413" lon="0.93146">
        <ele>660.8</ele>
        <time>2021-10-14T10:23:24.000Z</time>
      </trkpt>
      <trkpt lat="42.99416" lon="0.93144">
        <ele>661.1</ele>
        <time>2021-10-14T10:23:26.000Z</time>
      </trkpt>
      <trkpt lat="42.99419" lon="0.93142">
        <ele>661.4</ele>
        <time>2021-10-14T10:23:27.000Z</time>
      </trkpt>
      <trkpt lat="42.9942" lon="0.93142">
        <ele>661.6</ele>
        <time>2021-10-14T10:23:28.000Z</time>
      </trkpt>
      <trkpt lat="42.99422" lon="0.93141">
        <ele>661.7</ele>
        <time>2021-10-14T10:23:29.000Z</time>
      </trkpt>
      <trkpt lat="42.99424" lon="0.93142">
        <ele>662</ele>
        <time>2021-10-14T10:23:31.000Z</time>
      </trkpt>
      <trkpt lat="42.99428" lon="0.9314">
        <ele>662.3</ele>
        <time>2021-10-14T10:23:33.000Z</time>
      </trkpt>
      <trkpt lat="42.9943" lon="0.93138">
        <ele>662.5</ele>
        <time>2021-10-14T10:23:34.000Z</time>
      </trkpt>
      <trkpt lat="42.99432" lon="0.93135">
        <ele>662.8</ele>
        <time>2021-10-14T10:23:36.000Z</time>
      </trkpt>
      <trkpt lat="42.99435" lon="0.93134">
        <ele>663</ele>
        <time>2021-10-14T10:23:38.000Z</time>
      </trkpt>
      <trkpt lat="42.99438" lon="0.93133">
        <ele>663.3</ele>
        <time>2021-10-14T10:23:40.000Z</time>
      </trkpt>
      <trkpt lat="42.99441" lon="0.93131">
        <ele>663.6</ele>
        <time>2021-10-14T10:23:41.000Z</time>
      </trkpt>
      <trkpt lat="42.99443" lon="0.9313">
        <ele>663.7</ele>
        <time>2021-10-14T10:23:42.000Z</time>
      </trkpt>
      <trkpt lat="42.99445" lon="0.93128">
        <ele>663.9</ele>
        <time>2021-10-14T10:23:44.000Z</time>
      </trkpt>
      <trkpt lat="42.9945" lon="0.93126">
        <ele>664.2</ele>
        <time>2021-10-14T10:23:46.000Z</time>
      </trkpt>
      <trkpt lat="42.99452" lon="0.93125">
        <ele>664.5</ele>
        <time>2021-10-14T10:23:47.000Z</time>
      </trkpt>
      <trkpt lat="42.99456" lon="0.93123">
        <ele>664.7</ele>
        <time>2021-10-14T10:23:48.000Z</time>
      </trkpt>
      <trkpt lat="42.99457" lon="0.93123">
        <ele>664.7</ele>
        <time>2021-10-14T10:23:49.000Z</time>
      </trkpt>
      <trkpt lat="42.9946" lon="0.93122">
        <ele>665</ele>
        <time>2021-10-14T10:23:51.000Z</time>
      </trkpt>
      <trkpt lat="42.99463" lon="0.93121">
        <ele>665.2</ele>
        <time>2021-10-14T10:23:52.000Z</time>
      </trkpt>
      <trkpt lat="42.99466" lon="0.93119">
        <ele>665.5</ele>
        <time>2021-10-14T10:23:53.000Z</time>
      </trkpt>
      <trkpt lat="42.99467" lon="0.93118">
        <ele>665.5</ele>
        <time>2021-10-14T10:23:54.000Z</time>
      </trkpt>
      <trkpt lat="42.9947" lon="0.93116">
        <ele>665.7</ele>
        <time>2021-10-14T10:23:56.000Z</time>
      </trkpt>
      <trkpt lat="42.99473" lon="0.93115">
        <ele>665.9</ele>
        <time>2021-10-14T10:23:57.000Z</time>
      </trkpt>
      <trkpt lat="42.99475" lon="0.93113">
        <ele>666</ele>
        <time>2021-10-14T10:23:58.000Z</time>
      </trkpt>
      <trkpt lat="42.99478" lon="0.9311">
        <ele>666.3</ele>
        <time>2021-10-14T10:24:00.000Z</time>
      </trkpt>
      <trkpt lat="42.99482" lon="0.93108">
        <ele>666.5</ele>
        <time>2021-10-14T10:24:02.000Z</time>
      </trkpt>
      <trkpt lat="42.99484" lon="0.93106">
        <ele>666.7</ele>
        <time>2021-10-14T10:24:03.000Z</time>
      </trkpt>
      <trkpt lat="42.99488" lon="0.93103">
        <ele>667</ele>
        <time>2021-10-14T10:24:05.000Z</time>
      </trkpt>
      <trkpt lat="42.99491" lon="0.93101">
        <ele>667.2</ele>
        <time>2021-10-14T10:24:07.000Z</time>
      </trkpt>
      <trkpt lat="42.99493" lon="0.93099">
        <ele>667.4</ele>
        <time>2021-10-14T10:24:08.000Z</time>
      </trkpt>
      <trkpt lat="42.99497" lon="0.93097">
        <ele>667.6</ele>
        <time>2021-10-14T10:24:10.000Z</time>
      </trkpt>
      <trkpt lat="42.995" lon="0.93095">
        <ele>667.8</ele>
        <time>2021-10-14T10:24:12.000Z</time>
      </trkpt>
      <trkpt lat="42.99502" lon="0.93092">
        <ele>668</ele>
        <time>2021-10-14T10:24:13.000Z</time>
      </trkpt>
      <trkpt lat="42.99506" lon="0.93089">
        <ele>668.3</ele>
        <time>2021-10-14T10:24:15.000Z</time>
      </trkpt>
      <trkpt lat="42.9951" lon="0.93089">
        <ele>668.5</ele>
        <time>2021-10-14T10:24:17.000Z</time>
      </trkpt>
      <trkpt lat="42.99512" lon="0.93088">
        <ele>668.7</ele>
        <time>2021-10-14T10:24:18.000Z</time>
      </trkpt>
      <trkpt lat="42.99513" lon="0.93087">
        <ele>668.8</ele>
        <time>2021-10-14T10:24:19.000Z</time>
      </trkpt>
      <trkpt lat="42.99518" lon="0.93087">
        <ele>669.2</ele>
        <time>2021-10-14T10:24:21.000Z</time>
      </trkpt>
      <trkpt lat="42.99519" lon="0.93087">
        <ele>669.3</ele>
        <time>2021-10-14T10:24:22.000Z</time>
      </trkpt>
      <trkpt lat="42.99522" lon="0.93087">
        <ele>669.5</ele>
        <time>2021-10-14T10:24:23.000Z</time>
      </trkpt>
      <trkpt lat="42.99527" lon="0.93085">
        <ele>669.9</ele>
        <time>2021-10-14T10:24:25.000Z</time>
      </trkpt>
      <trkpt lat="42.99529" lon="0.93085">
        <ele>670.1</ele>
        <time>2021-10-14T10:24:26.000Z</time>
      </trkpt>
      <trkpt lat="42.99532" lon="0.93084">
        <ele>670.4</ele>
        <time>2021-10-14T10:24:28.000Z</time>
      </trkpt>
      <trkpt lat="42.99534" lon="0.93082">
        <ele>670.6</ele>
        <time>2021-10-14T10:24:29.000Z</time>
      </trkpt>
      <trkpt lat="42.99535" lon="0.93082">
        <ele>670.7</ele>
        <time>2021-10-14T10:24:30.000Z</time>
      </trkpt>
      <trkpt lat="42.9954" lon="0.93079">
        <ele>671.1</ele>
        <time>2021-10-14T10:24:32.000Z</time>
      </trkpt>
      <trkpt lat="42.99541" lon="0.93078">
        <ele>671.2</ele>
        <time>2021-10-14T10:24:33.000Z</time>
      </trkpt>
      <trkpt lat="42.99542" lon="0.93077">
        <ele>671.4</ele>
        <time>2021-10-14T10:24:34.000Z</time>
      </trkpt>
      <trkpt lat="42.99544" lon="0.93076">
        <ele>671.5</ele>
        <time>2021-10-14T10:24:36.000Z</time>
      </trkpt>
      <trkpt lat="42.99547" lon="0.93075">
        <ele>671.8</ele>
        <time>2021-10-14T10:24:38.000Z</time>
      </trkpt>
      <trkpt lat="42.9955" lon="0.93075">
        <ele>672.1</ele>
        <time>2021-10-14T10:24:40.000Z</time>
      </trkpt>
      <trkpt lat="42.99554" lon="0.93074">
        <ele>672.4</ele>
        <time>2021-10-14T10:24:41.000Z</time>
      </trkpt>
      <trkpt lat="42.99558" lon="0.93073">
        <ele>672.7</ele>
        <time>2021-10-14T10:24:43.000Z</time>
      </trkpt>
      <trkpt lat="42.99561" lon="0.93071">
        <ele>673.1</ele>
        <time>2021-10-14T10:24:44.000Z</time>
      </trkpt>
      <trkpt lat="42.99566" lon="0.9307">
        <ele>673.6</ele>
        <time>2021-10-14T10:24:46.000Z</time>
      </trkpt>
      <trkpt lat="42.99567" lon="0.9307">
        <ele>673.7</ele>
        <time>2021-10-14T10:24:47.000Z</time>
      </trkpt>
      <trkpt lat="42.99568" lon="0.9307">
        <ele>673.8</ele>
        <time>2021-10-14T10:24:48.000Z</time>
      </trkpt>
      <trkpt lat="42.9957" lon="0.93069">
        <ele>674.1</ele>
        <time>2021-10-14T10:24:49.000Z</time>
      </trkpt>
      <trkpt lat="42.99573" lon="0.93068">
        <ele>674.4</ele>
        <time>2021-10-14T10:24:51.000Z</time>
      </trkpt>
      <trkpt lat="42.99576" lon="0.93069">
        <ele>674.7</ele>
        <time>2021-10-14T10:24:52.000Z</time>
      </trkpt>
      <trkpt lat="42.99579" lon="0.9307">
        <ele>675</ele>
        <time>2021-10-14T10:24:54.000Z</time>
      </trkpt>
      <trkpt lat="42.99582" lon="0.93072">
        <ele>675.3</ele>
        <time>2021-10-14T10:24:56.000Z</time>
      </trkpt>
      <trkpt lat="42.99583" lon="0.93073">
        <ele>675.5</ele>
        <time>2021-10-14T10:24:57.000Z</time>
      </trkpt>
      <trkpt lat="42.99587" lon="0.93074">
        <ele>675.8</ele>
        <time>2021-10-14T10:24:59.000Z</time>
      </trkpt>
      <trkpt lat="42.99591" lon="0.93076">
        <ele>676.1</ele>
        <time>2021-10-14T10:25:01.000Z</time>
      </trkpt>
      <trkpt lat="42.99592" lon="0.93077">
        <ele>676.2</ele>
        <time>2021-10-14T10:25:02.000Z</time>
      </trkpt>
      <trkpt lat="42.99593" lon="0.93078">
        <ele>676.3</ele>
        <time>2021-10-14T10:25:03.000Z</time>
      </trkpt>
      <trkpt lat="42.99595" lon="0.93082">
        <ele>676.4</ele>
        <time>2021-10-14T10:25:05.000Z</time>
      </trkpt>
      <trkpt lat="42.99598" lon="0.93086">
        <ele>676.5</ele>
        <time>2021-10-14T10:25:06.000Z</time>
      </trkpt>
      <trkpt lat="42.99599" lon="0.93087">
        <ele>676.5</ele>
        <time>2021-10-14T10:25:07.000Z</time>
      </trkpt>
      <trkpt lat="42.99603" lon="0.93091">
        <ele>676.6</ele>
        <time>2021-10-14T10:25:09.000Z</time>
      </trkpt>
      <trkpt lat="42.99604" lon="0.93093">
        <ele>676.6</ele>
        <time>2021-10-14T10:25:10.000Z</time>
      </trkpt>
      <trkpt lat="42.99605" lon="0.93094">
        <ele>676.6</ele>
        <time>2021-10-14T10:25:11.000Z</time>
      </trkpt>
      <trkpt lat="42.99608" lon="0.93097">
        <ele>676.6</ele>
        <time>2021-10-14T10:25:13.000Z</time>
      </trkpt>
      <trkpt lat="42.99611" lon="0.931">
        <ele>676.6</ele>
        <time>2021-10-14T10:25:15.000Z</time>
      </trkpt>
      <trkpt lat="42.99614" lon="0.93104">
        <ele>676.6</ele>
        <time>2021-10-14T10:25:16.000Z</time>
      </trkpt>
      <trkpt lat="42.99618" lon="0.93108">
        <ele>676.6</ele>
        <time>2021-10-14T10:25:18.000Z</time>
      </trkpt>
      <trkpt lat="42.99621" lon="0.93112">
        <ele>676.5</ele>
        <time>2021-10-14T10:25:19.000Z</time>
      </trkpt>
      <trkpt lat="42.99623" lon="0.93116">
        <ele>676.5</ele>
        <time>2021-10-14T10:25:21.000Z</time>
      </trkpt>
      <trkpt lat="42.99625" lon="0.9312">
        <ele>676.4</ele>
        <time>2021-10-14T10:25:23.000Z</time>
      </trkpt>
      <trkpt lat="42.99628" lon="0.93124">
        <ele>676.3</ele>
        <time>2021-10-14T10:25:24.000Z</time>
      </trkpt>
      <trkpt lat="42.9963" lon="0.93126">
        <ele>676.2</ele>
        <time>2021-10-14T10:25:25.000Z</time>
      </trkpt>
      <trkpt lat="42.99634" lon="0.93129">
        <ele>676.1</ele>
        <time>2021-10-14T10:25:27.000Z</time>
      </trkpt>
      <trkpt lat="42.99636" lon="0.93132">
        <ele>676</ele>
        <time>2021-10-14T10:25:28.000Z</time>
      </trkpt>
      <trkpt lat="42.99642" lon="0.93135">
        <ele>676</ele>
        <time>2021-10-14T10:25:30.000Z</time>
      </trkpt>
      <trkpt lat="42.99644" lon="0.93136">
        <ele>676</ele>
        <time>2021-10-14T10:25:31.000Z</time>
      </trkpt>
      <trkpt lat="42.99648" lon="0.93139">
        <ele>675.9</ele>
        <time>2021-10-14T10:25:32.000Z</time>
      </trkpt>
      <trkpt lat="42.99649" lon="0.9314">
        <ele>675.9</ele>
        <time>2021-10-14T10:25:33.000Z</time>
      </trkpt>
      <trkpt lat="42.99652" lon="0.93142">
        <ele>675.9</ele>
        <time>2021-10-14T10:25:34.000Z</time>
      </trkpt>
      <trkpt lat="42.99657" lon="0.93146">
        <ele>675.8</ele>
        <time>2021-10-14T10:25:36.000Z</time>
      </trkpt>
      <trkpt lat="42.9966" lon="0.93147">
        <ele>675.7</ele>
        <time>2021-10-14T10:25:37.000Z</time>
      </trkpt>
      <trkpt lat="42.99664" lon="0.9315">
        <ele>675.6</ele>
        <time>2021-10-14T10:25:38.000Z</time>
      </trkpt>
      <trkpt lat="42.99668" lon="0.93154">
        <ele>675.5</ele>
        <time>2021-10-14T10:25:40.000Z</time>
      </trkpt>
      <trkpt lat="42.99671" lon="0.93158">
        <ele>675.4</ele>
        <time>2021-10-14T10:25:41.000Z</time>
      </trkpt>
      <trkpt lat="42.99673" lon="0.93161">
        <ele>675.4</ele>
        <time>2021-10-14T10:25:42.000Z</time>
      </trkpt>
      <trkpt lat="42.99677" lon="0.93163">
        <ele>675.3</ele>
        <time>2021-10-14T10:25:43.000Z</time>
      </trkpt>
      <trkpt lat="42.99682" lon="0.93167">
        <ele>675.1</ele>
        <time>2021-10-14T10:25:45.000Z</time>
      </trkpt>
      <trkpt lat="42.99686" lon="0.93171">
        <ele>675</ele>
        <time>2021-10-14T10:25:46.000Z</time>
      </trkpt>
      <trkpt lat="42.9969" lon="0.93175">
        <ele>674.8</ele>
        <time>2021-10-14T10:25:47.000Z</time>
      </trkpt>
      <trkpt lat="42.99693" lon="0.9318">
        <ele>674.6</ele>
        <time>2021-10-14T10:25:48.000Z</time>
      </trkpt>
      <trkpt lat="42.99701" lon="0.93188">
        <ele>674.2</ele>
        <time>2021-10-14T10:25:49.000Z</time>
      </trkpt>
      <trkpt lat="42.99712" lon="0.932">
        <ele>673.1</ele>
        <time>2021-10-14T10:25:51.000Z</time>
      </trkpt>
      <trkpt lat="42.99718" lon="0.93205">
        <ele>672.5</ele>
        <time>2021-10-14T10:25:52.000Z</time>
      </trkpt>
      <trkpt lat="42.99731" lon="0.93217">
        <ele>671.2</ele>
        <time>2021-10-14T10:25:54.000Z</time>
      </trkpt>
      <trkpt lat="42.99739" lon="0.93224">
        <ele>670.6</ele>
        <time>2021-10-14T10:25:55.000Z</time>
      </trkpt>
      <trkpt lat="42.99747" lon="0.9323">
        <ele>670.1</ele>
        <time>2021-10-14T10:25:56.000Z</time>
      </trkpt>
      <trkpt lat="42.9976" lon="0.93245">
        <ele>669.3</ele>
        <time>2021-10-14T10:25:58.000Z</time>
      </trkpt>
      <trkpt lat="42.99767" lon="0.93253">
        <ele>669</ele>
        <time>2021-10-14T10:25:59.000Z</time>
      </trkpt>
      <trkpt lat="42.99778" lon="0.93263">
        <ele>668.2</ele>
        <time>2021-10-14T10:26:01.000Z</time>
      </trkpt>
      <trkpt lat="42.99786" lon="0.93261">
        <ele>667</ele>
        <time>2021-10-14T10:26:02.000Z</time>
      </trkpt>
      <trkpt lat="42.99798" lon="0.93248">
        <ele>665.9</ele>
        <time>2021-10-14T10:26:04.000Z</time>
      </trkpt>
      <trkpt lat="42.99805" lon="0.93242">
        <ele>665.4</ele>
        <time>2021-10-14T10:26:05.000Z</time>
      </trkpt>
      <trkpt lat="42.99817" lon="0.93229">
        <ele>664.6</ele>
        <time>2021-10-14T10:26:07.000Z</time>
      </trkpt>
      <trkpt lat="42.99829" lon="0.93215">
        <ele>664</ele>
        <time>2021-10-14T10:26:09.000Z</time>
      </trkpt>
      <trkpt lat="42.99833" lon="0.93208">
        <ele>663.8</ele>
        <time>2021-10-14T10:26:10.000Z</time>
      </trkpt>
      <trkpt lat="42.99842" lon="0.93194">
        <ele>663.6</ele>
        <time>2021-10-14T10:26:12.000Z</time>
      </trkpt>
      <trkpt lat="42.99852" lon="0.9318">
        <ele>663.3</ele>
        <time>2021-10-14T10:26:14.000Z</time>
      </trkpt>
      <trkpt lat="42.9986" lon="0.93166">
        <ele>663.1</ele>
        <time>2021-10-14T10:26:16.000Z</time>
      </trkpt>
      <trkpt lat="42.99865" lon="0.9316">
        <ele>663.1</ele>
        <time>2021-10-14T10:26:18.000Z</time>
      </trkpt>
      <trkpt lat="42.99867" lon="0.93157">
        <ele>663.1</ele>
        <time>2021-10-14T10:26:19.000Z</time>
      </trkpt>
      <trkpt lat="42.99875" lon="0.9315">
        <ele>663.2</ele>
        <time>2021-10-14T10:26:21.000Z</time>
      </trkpt>
      <trkpt lat="42.99877" lon="0.93147">
        <ele>663.3</ele>
        <time>2021-10-14T10:26:22.000Z</time>
      </trkpt>
      <trkpt lat="42.99881" lon="0.93142">
        <ele>663.4</ele>
        <time>2021-10-14T10:26:24.000Z</time>
      </trkpt>
      <trkpt lat="42.99884" lon="0.93141">
        <ele>663.5</ele>
        <time>2021-10-14T10:26:26.000Z</time>
      </trkpt>
      <trkpt lat="42.99885" lon="0.93139">
        <ele>663.6</ele>
        <time>2021-10-14T10:26:27.000Z</time>
      </trkpt>
      <trkpt lat="42.99888" lon="0.93135">
        <ele>663.8</ele>
        <time>2021-10-14T10:26:29.000Z</time>
      </trkpt>
      <trkpt lat="42.99889" lon="0.9313">
        <ele>664</ele>
        <time>2021-10-14T10:26:30.000Z</time>
      </trkpt>
      <trkpt lat="42.9989" lon="0.93127">
        <ele>664.1</ele>
        <time>2021-10-14T10:26:31.000Z</time>
      </trkpt>
      <trkpt lat="42.99893" lon="0.93124">
        <ele>664.3</ele>
        <time>2021-10-14T10:26:33.000Z</time>
      </trkpt>
      <trkpt lat="42.99895" lon="0.9312">
        <ele>664.6</ele>
        <time>2021-10-14T10:26:34.000Z</time>
      </trkpt>
      <trkpt lat="42.99896" lon="0.93119">
        <ele>664.6</ele>
        <time>2021-10-14T10:26:35.000Z</time>
      </trkpt>
      <trkpt lat="42.99897" lon="0.93116">
        <ele>664.8</ele>
        <time>2021-10-14T10:26:36.000Z</time>
      </trkpt>
      <trkpt lat="42.999" lon="0.93111">
        <ele>665.2</ele>
        <time>2021-10-14T10:26:38.000Z</time>
      </trkpt>
      <trkpt lat="42.99901" lon="0.93108">
        <ele>665.4</ele>
        <time>2021-10-14T10:26:39.000Z</time>
      </trkpt>
      <trkpt lat="42.99903" lon="0.93105">
        <ele>665.6</ele>
        <time>2021-10-14T10:26:41.000Z</time>
      </trkpt>
      <trkpt lat="42.99906" lon="0.931">
        <ele>666</ele>
        <time>2021-10-14T10:26:42.000Z</time>
      </trkpt>
      <trkpt lat="42.9991" lon="0.93095">
        <ele>666.4</ele>
        <time>2021-10-14T10:26:44.000Z</time>
      </trkpt>
      <trkpt lat="42.99913" lon="0.93093">
        <ele>666.7</ele>
        <time>2021-10-14T10:26:45.000Z</time>
      </trkpt>
      <trkpt lat="42.99913" lon="0.93092">
        <ele>666.8</ele>
        <time>2021-10-14T10:26:46.000Z</time>
      </trkpt>
      <trkpt lat="42.99916" lon="0.93091">
        <ele>667</ele>
        <time>2021-10-14T10:26:48.000Z</time>
      </trkpt>
      <trkpt lat="42.99917" lon="0.9309">
        <ele>667.2</ele>
        <time>2021-10-14T10:26:49.000Z</time>
      </trkpt>
      <trkpt lat="42.99919" lon="0.93085">
        <ele>667.7</ele>
        <time>2021-10-14T10:26:51.000Z</time>
      </trkpt>
      <trkpt lat="42.99922" lon="0.93081">
        <ele>668.1</ele>
        <time>2021-10-14T10:26:52.000Z</time>
      </trkpt>
      <trkpt lat="42.99923" lon="0.9308">
        <ele>668.3</ele>
        <time>2021-10-14T10:26:53.000Z</time>
      </trkpt>
      <trkpt lat="42.99924" lon="0.93077">
        <ele>668.6</ele>
        <time>2021-10-14T10:26:55.000Z</time>
      </trkpt>
      <trkpt lat="42.99925" lon="0.93072">
        <ele>669.1</ele>
        <time>2021-10-14T10:26:56.000Z</time>
      </trkpt>
      <trkpt lat="42.99927" lon="0.93068">
        <ele>669.6</ele>
        <time>2021-10-14T10:26:58.000Z</time>
      </trkpt>
      <trkpt lat="42.99929" lon="0.93066">
        <ele>669.9</ele>
        <time>2021-10-14T10:26:59.000Z</time>
      </trkpt>
      <trkpt lat="42.9993" lon="0.93062">
        <ele>670.4</ele>
        <time>2021-10-14T10:27:01.000Z</time>
      </trkpt>
      <trkpt lat="42.99931" lon="0.9306">
        <ele>670.7</ele>
        <time>2021-10-14T10:27:02.000Z</time>
      </trkpt>
      <trkpt lat="42.99932" lon="0.93056">
        <ele>671.2</ele>
        <time>2021-10-14T10:27:04.000Z</time>
      </trkpt>
      <trkpt lat="42.99933" lon="0.93054">
        <ele>671.5</ele>
        <time>2021-10-14T10:27:05.000Z</time>
      </trkpt>
      <trkpt lat="42.99934" lon="0.93052">
        <ele>671.9</ele>
        <time>2021-10-14T10:27:07.000Z</time>
      </trkpt>
      <trkpt lat="42.99936" lon="0.93051">
        <ele>672.2</ele>
        <time>2021-10-14T10:27:08.000Z</time>
      </trkpt>
      <trkpt lat="42.99939" lon="0.93046">
        <ele>673.2</ele>
        <time>2021-10-14T10:27:10.000Z</time>
      </trkpt>
      <trkpt lat="42.99943" lon="0.93042">
        <ele>674.1</ele>
        <time>2021-10-14T10:27:12.000Z</time>
      </trkpt>
      <trkpt lat="42.99944" lon="0.9304">
        <ele>674.4</ele>
        <time>2021-10-14T10:27:13.000Z</time>
      </trkpt>
      <trkpt lat="42.99948" lon="0.93036">
        <ele>675.1</ele>
        <time>2021-10-14T10:27:15.000Z</time>
      </trkpt>
      <trkpt lat="42.9995" lon="0.93033">
        <ele>675.5</ele>
        <time>2021-10-14T10:27:17.000Z</time>
      </trkpt>
      <trkpt lat="42.9995" lon="0.93032">
        <ele>675.7</ele>
        <time>2021-10-14T10:27:18.000Z</time>
      </trkpt>
      <trkpt lat="42.99953" lon="0.93027">
        <ele>676.3</ele>
        <time>2021-10-14T10:27:20.000Z</time>
      </trkpt>
      <trkpt lat="42.99954" lon="0.93022">
        <ele>676.8</ele>
        <time>2021-10-14T10:27:22.000Z</time>
      </trkpt>
      <trkpt lat="42.99955" lon="0.9302">
        <ele>677</ele>
        <time>2021-10-14T10:27:23.000Z</time>
      </trkpt>
      <trkpt lat="42.99956" lon="0.93018">
        <ele>677.3</ele>
        <time>2021-10-14T10:27:24.000Z</time>
      </trkpt>
      <trkpt lat="42.99957" lon="0.93017">
        <ele>677.5</ele>
        <time>2021-10-14T10:27:26.000Z</time>
      </trkpt>
      <trkpt lat="42.99959" lon="0.93017">
        <ele>677.7</ele>
        <time>2021-10-14T10:27:27.000Z</time>
      </trkpt>
      <trkpt lat="42.99959" lon="0.93017">
        <ele>677.8</ele>
        <time>2021-10-14T10:27:28.000Z</time>
      </trkpt>
      <trkpt lat="42.99962" lon="0.93013">
        <ele>678.4</ele>
        <time>2021-10-14T10:27:30.000Z</time>
      </trkpt>
      <trkpt lat="42.99964" lon="0.9301">
        <ele>678.8</ele>
        <time>2021-10-14T10:27:31.000Z</time>
      </trkpt>
      <trkpt lat="42.99967" lon="0.93005">
        <ele>679.4</ele>
        <time>2021-10-14T10:27:33.000Z</time>
      </trkpt>
      <trkpt lat="42.99968" lon="0.93003">
        <ele>679.7</ele>
        <time>2021-10-14T10:27:35.000Z</time>
      </trkpt>
      <trkpt lat="42.99969" lon="0.93001">
        <ele>679.9</ele>
        <time>2021-10-14T10:27:37.000Z</time>
      </trkpt>
      <trkpt lat="42.9997" lon="0.92999">
        <ele>680.2</ele>
        <time>2021-10-14T10:27:38.000Z</time>
      </trkpt>
      <trkpt lat="42.99971" lon="0.92997">
        <ele>680.3</ele>
        <time>2021-10-14T10:27:39.000Z</time>
      </trkpt>
      <trkpt lat="42.99974" lon="0.92997">
        <ele>680.7</ele>
        <time>2021-10-14T10:27:41.000Z</time>
      </trkpt>
      <trkpt lat="42.99976" lon="0.92997">
        <ele>680.9</ele>
        <time>2021-10-14T10:27:42.000Z</time>
      </trkpt>
      <trkpt lat="42.99979" lon="0.92996">
        <ele>681.3</ele>
        <time>2021-10-14T10:27:44.000Z</time>
      </trkpt>
      <trkpt lat="42.99982" lon="0.92992">
        <ele>681.8</ele>
        <time>2021-10-14T10:27:46.000Z</time>
      </trkpt>
      <trkpt lat="42.99984" lon="0.92991">
        <ele>681.9</ele>
        <time>2021-10-14T10:27:47.000Z</time>
      </trkpt>
      <trkpt lat="42.99987" lon="0.92985">
        <ele>682.4</ele>
        <time>2021-10-14T10:27:49.000Z</time>
      </trkpt>
      <trkpt lat="42.99988" lon="0.92984">
        <ele>682.5</ele>
        <time>2021-10-14T10:27:50.000Z</time>
      </trkpt>
      <trkpt lat="42.99989" lon="0.92982">
        <ele>682.7</ele>
        <time>2021-10-14T10:27:51.000Z</time>
      </trkpt>
      <trkpt lat="42.99992" lon="0.92978">
        <ele>683</ele>
        <time>2021-10-14T10:27:53.000Z</time>
      </trkpt>
      <trkpt lat="42.99994" lon="0.92976">
        <ele>683.2</ele>
        <time>2021-10-14T10:27:55.000Z</time>
      </trkpt>
      <trkpt lat="42.99995" lon="0.92975">
        <ele>683.3</ele>
        <time>2021-10-14T10:27:56.000Z</time>
      </trkpt>
      <trkpt lat="42.99997" lon="0.92974">
        <ele>683.4</ele>
        <time>2021-10-14T10:27:57.000Z</time>
      </trkpt>
      <trkpt lat="42.99997" lon="0.92972">
        <ele>683.6</ele>
        <time>2021-10-14T10:27:58.000Z</time>
      </trkpt>
      <trkpt lat="42.99998" lon="0.9297">
        <ele>683.7</ele>
        <time>2021-10-14T10:28:00.000Z</time>
      </trkpt>
      <trkpt lat="42.99999" lon="0.92973">
        <ele>683.8</ele>
        <time>2021-10-14T10:28:01.000Z</time>
      </trkpt>
      <trkpt lat="43.00001" lon="0.92974">
        <ele>684</ele>
        <time>2021-10-14T10:28:03.000Z</time>
      </trkpt>
      <trkpt lat="43.00003" lon="0.92967">
        <ele>684.4</ele>
        <time>2021-10-14T10:28:04.000Z</time>
      </trkpt>
      <trkpt lat="43.00005" lon="0.92962">
        <ele>684.7</ele>
        <time>2021-10-14T10:28:06.000Z</time>
      </trkpt>
      <trkpt lat="43.00006" lon="0.92959">
        <ele>684.9</ele>
        <time>2021-10-14T10:28:07.000Z</time>
      </trkpt>
      <trkpt lat="43.00008" lon="0.92954">
        <ele>685.2</ele>
        <time>2021-10-14T10:28:08.000Z</time>
      </trkpt>
      <trkpt lat="43.00008" lon="0.92953">
        <ele>685.3</ele>
        <time>2021-10-14T10:28:09.000Z</time>
      </trkpt>
      <trkpt lat="43.0001" lon="0.92949">
        <ele>685.5</ele>
        <time>2021-10-14T10:28:10.000Z</time>
      </trkpt>
      <trkpt lat="43.00012" lon="0.92944">
        <ele>685.8</ele>
        <time>2021-10-14T10:28:12.000Z</time>
      </trkpt>
      <trkpt lat="43.00013" lon="0.9294">
        <ele>686</ele>
        <time>2021-10-14T10:28:13.000Z</time>
      </trkpt>
      <trkpt lat="43.00013" lon="0.92938">
        <ele>686.1</ele>
        <time>2021-10-14T10:28:14.000Z</time>
      </trkpt>
      <trkpt lat="43.00015" lon="0.92933">
        <ele>686.4</ele>
        <time>2021-10-14T10:28:16.000Z</time>
      </trkpt>
      <trkpt lat="43.00017" lon="0.9293">
        <ele>686.6</ele>
        <time>2021-10-14T10:28:17.000Z</time>
      </trkpt>
      <trkpt lat="43.00017" lon="0.92928">
        <ele>686.7</ele>
        <time>2021-10-14T10:28:18.000Z</time>
      </trkpt>
      <trkpt lat="43.0002" lon="0.92923">
        <ele>686.9</ele>
        <time>2021-10-14T10:28:20.000Z</time>
      </trkpt>
      <trkpt lat="43.00021" lon="0.92921">
        <ele>687</ele>
        <time>2021-10-14T10:28:21.000Z</time>
      </trkpt>
      <trkpt lat="43.00022" lon="0.9292">
        <ele>687.1</ele>
        <time>2021-10-14T10:28:22.000Z</time>
      </trkpt>
      <trkpt lat="43.00024" lon="0.92916">
        <ele>687.3</ele>
        <time>2021-10-14T10:28:23.000Z</time>
      </trkpt>
      <trkpt lat="43.00024" lon="0.92915">
        <ele>687.3</ele>
        <time>2021-10-14T10:28:24.000Z</time>
      </trkpt>
      <trkpt lat="43.00026" lon="0.92911">
        <ele>687.4</ele>
        <time>2021-10-14T10:28:26.000Z</time>
      </trkpt>
      <trkpt lat="43.00027" lon="0.92909">
        <ele>687.5</ele>
        <time>2021-10-14T10:28:27.000Z</time>
      </trkpt>
      <trkpt lat="43.00029" lon="0.92905">
        <ele>687.7</ele>
        <time>2021-10-14T10:28:29.000Z</time>
      </trkpt>
      <trkpt lat="43.00032" lon="0.92901">
        <ele>687.8</ele>
        <time>2021-10-14T10:28:30.000Z</time>
      </trkpt>
      <trkpt lat="43.00033" lon="0.92899">
        <ele>687.9</ele>
        <time>2021-10-14T10:28:31.000Z</time>
      </trkpt>
      <trkpt lat="43.00034" lon="0.92896">
        <ele>687.9</ele>
        <time>2021-10-14T10:28:33.000Z</time>
      </trkpt>
      <trkpt lat="43.00035" lon="0.92893">
        <ele>688</ele>
        <time>2021-10-14T10:28:34.000Z</time>
      </trkpt>
      <trkpt lat="43.00037" lon="0.92888">
        <ele>688</ele>
        <time>2021-10-14T10:28:36.000Z</time>
      </trkpt>
      <trkpt lat="43.00038" lon="0.92884">
        <ele>688.1</ele>
        <time>2021-10-14T10:28:37.000Z</time>
      </trkpt>
      <trkpt lat="43.0004" lon="0.92877">
        <ele>688</ele>
        <time>2021-10-14T10:28:39.000Z</time>
      </trkpt>
      <trkpt lat="43.00042" lon="0.92872">
        <ele>688</ele>
        <time>2021-10-14T10:28:40.000Z</time>
      </trkpt>
      <trkpt lat="43.00042" lon="0.92868">
        <ele>688</ele>
        <time>2021-10-14T10:28:41.000Z</time>
      </trkpt>
      <trkpt lat="43.00044" lon="0.92864">
        <ele>688.1</ele>
        <time>2021-10-14T10:28:42.000Z</time>
      </trkpt>
      <trkpt lat="43.00045" lon="0.92859">
        <ele>688.1</ele>
        <time>2021-10-14T10:28:44.000Z</time>
      </trkpt>
      <trkpt lat="43.00048" lon="0.92854">
        <ele>688.1</ele>
        <time>2021-10-14T10:28:45.000Z</time>
      </trkpt>
      <trkpt lat="43.00049" lon="0.9285">
        <ele>688.2</ele>
        <time>2021-10-14T10:28:46.000Z</time>
      </trkpt>
      <trkpt lat="43.00051" lon="0.92846">
        <ele>688.2</ele>
        <time>2021-10-14T10:28:48.000Z</time>
      </trkpt>
      <trkpt lat="43.00053" lon="0.92842">
        <ele>688.3</ele>
        <time>2021-10-14T10:28:49.000Z</time>
      </trkpt>
      <trkpt lat="43.00056" lon="0.92838">
        <ele>688.3</ele>
        <time>2021-10-14T10:28:50.000Z</time>
      </trkpt>
      <trkpt lat="43.00057" lon="0.92837">
        <ele>688.3</ele>
        <time>2021-10-14T10:28:51.000Z</time>
      </trkpt>
      <trkpt lat="43.00058" lon="0.92833">
        <ele>688.4</ele>
        <time>2021-10-14T10:28:53.000Z</time>
      </trkpt>
      <trkpt lat="43.00059" lon="0.9283">
        <ele>688.4</ele>
        <time>2021-10-14T10:28:54.000Z</time>
      </trkpt>
      <trkpt lat="43.00061" lon="0.92826">
        <ele>688.4</ele>
        <time>2021-10-14T10:28:56.000Z</time>
      </trkpt>
      <trkpt lat="43.00062" lon="0.92822">
        <ele>688.4</ele>
        <time>2021-10-14T10:28:57.000Z</time>
      </trkpt>
      <trkpt lat="43.00062" lon="0.92817">
        <ele>688.5</ele>
        <time>2021-10-14T10:28:59.000Z</time>
      </trkpt>
      <trkpt lat="43.00063" lon="0.92812">
        <ele>688.6</ele>
        <time>2021-10-14T10:29:00.000Z</time>
      </trkpt>
      <trkpt lat="43.00065" lon="0.92807">
        <ele>688.7</ele>
        <time>2021-10-14T10:29:02.000Z</time>
      </trkpt>
      <trkpt lat="43.00068" lon="0.928">
        <ele>688.8</ele>
        <time>2021-10-14T10:29:04.000Z</time>
      </trkpt>
      <trkpt lat="43.0007" lon="0.92796">
        <ele>688.9</ele>
        <time>2021-10-14T10:29:05.000Z</time>
      </trkpt>
      <trkpt lat="43.00071" lon="0.92793">
        <ele>689</ele>
        <time>2021-10-14T10:29:06.000Z</time>
      </trkpt>
      <trkpt lat="43.00073" lon="0.92788">
        <ele>689.1</ele>
        <time>2021-10-14T10:29:08.000Z</time>
      </trkpt>
      <trkpt lat="43.00075" lon="0.92782">
        <ele>689.2</ele>
        <time>2021-10-14T10:29:09.000Z</time>
      </trkpt>
      <trkpt lat="43.00078" lon="0.92775">
        <ele>689.2</ele>
        <time>2021-10-14T10:29:11.000Z</time>
      </trkpt>
      <trkpt lat="43.00081" lon="0.92771">
        <ele>689.2</ele>
        <time>2021-10-14T10:29:12.000Z</time>
      </trkpt>
      <trkpt lat="43.00083" lon="0.92768">
        <ele>689.2</ele>
        <time>2021-10-14T10:29:13.000Z</time>
      </trkpt>
      <trkpt lat="43.00086" lon="0.92763">
        <ele>689.2</ele>
        <time>2021-10-14T10:29:15.000Z</time>
      </trkpt>
      <trkpt lat="43.00089" lon="0.92758">
        <ele>689.2</ele>
        <time>2021-10-14T10:29:16.000Z</time>
      </trkpt>
      <trkpt lat="43.00093" lon="0.92754">
        <ele>689.2</ele>
        <time>2021-10-14T10:29:17.000Z</time>
      </trkpt>
      <trkpt lat="43.00099" lon="0.92747">
        <ele>689.2</ele>
        <time>2021-10-14T10:29:19.000Z</time>
      </trkpt>
      <trkpt lat="43.00103" lon="0.92744">
        <ele>689.2</ele>
        <time>2021-10-14T10:29:20.000Z</time>
      </trkpt>
      <trkpt lat="43.00109" lon="0.9274">
        <ele>689.3</ele>
        <time>2021-10-14T10:29:22.000Z</time>
      </trkpt>
      <trkpt lat="43.00113" lon="0.92736">
        <ele>689.3</ele>
        <time>2021-10-14T10:29:23.000Z</time>
      </trkpt>
      <trkpt lat="43.00117" lon="0.92732">
        <ele>689.4</ele>
        <time>2021-10-14T10:29:25.000Z</time>
      </trkpt>
      <trkpt lat="43.00121" lon="0.92728">
        <ele>689.4</ele>
        <time>2021-10-14T10:29:27.000Z</time>
      </trkpt>
      <trkpt lat="43.00127" lon="0.92724">
        <ele>689.4</ele>
        <time>2021-10-14T10:29:29.000Z</time>
      </trkpt>
      <trkpt lat="43.00132" lon="0.92721">
        <ele>689.3</ele>
        <time>2021-10-14T10:29:30.000Z</time>
      </trkpt>
      <trkpt lat="43.00138" lon="0.92717">
        <ele>689.3</ele>
        <time>2021-10-14T10:29:32.000Z</time>
      </trkpt>
      <trkpt lat="43.00142" lon="0.92715">
        <ele>689.2</ele>
        <time>2021-10-14T10:29:33.000Z</time>
      </trkpt>
      <trkpt lat="43.00145" lon="0.92714">
        <ele>689.2</ele>
        <time>2021-10-14T10:29:34.000Z</time>
      </trkpt>
      <trkpt lat="43.00149" lon="0.92711">
        <ele>689.1</ele>
        <time>2021-10-14T10:29:36.000Z</time>
      </trkpt>
      <trkpt lat="43.00153" lon="0.92707">
        <ele>689</ele>
        <time>2021-10-14T10:29:37.000Z</time>
      </trkpt>
      <trkpt lat="43.00157" lon="0.92705">
        <ele>688.8</ele>
        <time>2021-10-14T10:29:38.000Z</time>
      </trkpt>
      <trkpt lat="43.0016" lon="0.92702">
        <ele>688.7</ele>
        <time>2021-10-14T10:29:39.000Z</time>
      </trkpt>
      <trkpt lat="43.00166" lon="0.92696">
        <ele>688.3</ele>
        <time>2021-10-14T10:29:41.000Z</time>
      </trkpt>
      <trkpt lat="43.00173" lon="0.92692">
        <ele>687.9</ele>
        <time>2021-10-14T10:29:43.000Z</time>
      </trkpt>
      <trkpt lat="43.00178" lon="0.9269">
        <ele>687.6</ele>
        <time>2021-10-14T10:29:44.000Z</time>
      </trkpt>
      <trkpt lat="43.00183" lon="0.92685">
        <ele>687.2</ele>
        <time>2021-10-14T10:29:45.000Z</time>
      </trkpt>
      <trkpt lat="43.00194" lon="0.92673">
        <ele>686.5</ele>
        <time>2021-10-14T10:29:47.000Z</time>
      </trkpt>
      <trkpt lat="43.002" lon="0.9267">
        <ele>686.3</ele>
        <time>2021-10-14T10:29:48.000Z</time>
      </trkpt>
      <trkpt lat="43.00211" lon="0.92665">
        <ele>686.3</ele>
        <time>2021-10-14T10:29:50.000Z</time>
      </trkpt>
      <trkpt lat="43.00216" lon="0.92663">
        <ele>686.4</ele>
        <time>2021-10-14T10:29:51.000Z</time>
      </trkpt>
      <trkpt lat="43.00225" lon="0.92664">
        <ele>686.6</ele>
        <time>2021-10-14T10:29:53.000Z</time>
      </trkpt>
      <trkpt lat="43.0023" lon="0.92664">
        <ele>686.7</ele>
        <time>2021-10-14T10:29:55.000Z</time>
      </trkpt>
      <trkpt lat="43.00233" lon="0.92662">
        <ele>686.8</ele>
        <time>2021-10-14T10:29:56.000Z</time>
      </trkpt>
      <trkpt lat="43.00237" lon="0.92659">
        <ele>686.8</ele>
        <time>2021-10-14T10:29:58.000Z</time>
      </trkpt>
      <trkpt lat="43.00241" lon="0.92657">
        <ele>686.9</ele>
        <time>2021-10-14T10:29:59.000Z</time>
      </trkpt>
      <trkpt lat="43.00243" lon="0.92656">
        <ele>686.8</ele>
        <time>2021-10-14T10:30:00.000Z</time>
      </trkpt>
      <trkpt lat="43.00249" lon="0.92655">
        <ele>686.8</ele>
        <time>2021-10-14T10:30:02.000Z</time>
      </trkpt>
      <trkpt lat="43.00252" lon="0.92653">
        <ele>686.7</ele>
        <time>2021-10-14T10:30:03.000Z</time>
      </trkpt>
      <trkpt lat="43.00255" lon="0.92652">
        <ele>686.6</ele>
        <time>2021-10-14T10:30:04.000Z</time>
      </trkpt>
      <trkpt lat="43.00261" lon="0.92649">
        <ele>686.4</ele>
        <time>2021-10-14T10:30:06.000Z</time>
      </trkpt>
      <trkpt lat="43.00269" lon="0.92645">
        <ele>686.2</ele>
        <time>2021-10-14T10:30:07.000Z</time>
      </trkpt>
      <trkpt lat="43.00278" lon="0.9264">
        <ele>685.9</ele>
        <time>2021-10-14T10:30:09.000Z</time>
      </trkpt>
      <trkpt lat="43.00288" lon="0.92637">
        <ele>686</ele>
        <time>2021-10-14T10:30:11.000Z</time>
      </trkpt>
      <trkpt lat="43.00297" lon="0.92635">
        <ele>686.2</ele>
        <time>2021-10-14T10:30:13.000Z</time>
      </trkpt>
      <trkpt lat="43.00301" lon="0.92634">
        <ele>686.3</ele>
        <time>2021-10-14T10:30:14.000Z</time>
      </trkpt>
      <trkpt lat="43.00305" lon="0.92633">
        <ele>686.5</ele>
        <time>2021-10-14T10:30:16.000Z</time>
      </trkpt>
      <trkpt lat="43.0031" lon="0.92632">
        <ele>686.8</ele>
        <time>2021-10-14T10:30:17.000Z</time>
      </trkpt>
      <trkpt lat="43.00317" lon="0.9263">
        <ele>687.5</ele>
        <time>2021-10-14T10:30:19.000Z</time>
      </trkpt>
      <trkpt lat="43.00321" lon="0.9263">
        <ele>688</ele>
        <time>2021-10-14T10:30:20.000Z</time>
      </trkpt>
      <trkpt lat="43.00329" lon="0.92629">
        <ele>688.9</ele>
        <time>2021-10-14T10:30:22.000Z</time>
      </trkpt>
      <trkpt lat="43.00334" lon="0.9263">
        <ele>689.5</ele>
        <time>2021-10-14T10:30:23.000Z</time>
      </trkpt>
      <trkpt lat="43.00336" lon="0.9263">
        <ele>689.8</ele>
        <time>2021-10-14T10:30:24.000Z</time>
      </trkpt>
      <trkpt lat="43.0034" lon="0.92632">
        <ele>690.3</ele>
        <time>2021-10-14T10:30:26.000Z</time>
      </trkpt>
      <trkpt lat="43.00344" lon="0.92633">
        <ele>690.8</ele>
        <time>2021-10-14T10:30:28.000Z</time>
      </trkpt>
      <trkpt lat="43.00346" lon="0.92633">
        <ele>690.9</ele>
        <time>2021-10-14T10:30:29.000Z</time>
      </trkpt>
      <trkpt lat="43.00347" lon="0.92634">
        <ele>691.1</ele>
        <time>2021-10-14T10:30:30.000Z</time>
      </trkpt>
      <trkpt lat="43.00349" lon="0.92634">
        <ele>691.2</ele>
        <time>2021-10-14T10:30:31.000Z</time>
      </trkpt>
      <trkpt lat="43.00352" lon="0.92637">
        <ele>691.6</ele>
        <time>2021-10-14T10:30:33.000Z</time>
      </trkpt>
      <trkpt lat="43.00357" lon="0.92639">
        <ele>692</ele>
        <time>2021-10-14T10:30:35.000Z</time>
      </trkpt>
      <trkpt lat="43.00358" lon="0.92639">
        <ele>692.2</ele>
        <time>2021-10-14T10:30:36.000Z</time>
      </trkpt>
      <trkpt lat="43.00359" lon="0.92639">
        <ele>692.2</ele>
        <time>2021-10-14T10:30:37.000Z</time>
      </trkpt>
      <trkpt lat="43.0036" lon="0.92639">
        <ele>692.3</ele>
        <time>2021-10-14T10:30:38.000Z</time>
      </trkpt>
      <trkpt lat="43.00364" lon="0.9264">
        <ele>692.6</ele>
        <time>2021-10-14T10:30:40.000Z</time>
      </trkpt>
      <trkpt lat="43.00367" lon="0.92641">
        <ele>692.7</ele>
        <time>2021-10-14T10:30:41.000Z</time>
      </trkpt>
      <trkpt lat="43.00368" lon="0.92641">
        <ele>692.8</ele>
        <time>2021-10-14T10:30:42.000Z</time>
      </trkpt>
      <trkpt lat="43.0037" lon="0.92641">
        <ele>692.9</ele>
        <time>2021-10-14T10:30:44.000Z</time>
      </trkpt>
      <trkpt lat="43.00372" lon="0.92641">
        <ele>693</ele>
        <time>2021-10-14T10:30:45.000Z</time>
      </trkpt>
      <trkpt lat="43.00376" lon="0.92643">
        <ele>693.1</ele>
        <time>2021-10-14T10:30:47.000Z</time>
      </trkpt>
      <trkpt lat="43.0038" lon="0.92644">
        <ele>693.2</ele>
        <time>2021-10-14T10:30:49.000Z</time>
      </trkpt>
      <trkpt lat="43.00384" lon="0.92647">
        <ele>693.3</ele>
        <time>2021-10-14T10:30:51.000Z</time>
      </trkpt>
      <trkpt lat="43.00386" lon="0.92648">
        <ele>693.4</ele>
        <time>2021-10-14T10:30:52.000Z</time>
      </trkpt>
      <trkpt lat="43.00391" lon="0.92649">
        <ele>693.4</ele>
        <time>2021-10-14T10:30:54.000Z</time>
      </trkpt>
      <trkpt lat="43.00392" lon="0.9265">
        <ele>693.5</ele>
        <time>2021-10-14T10:30:55.000Z</time>
      </trkpt>
      <trkpt lat="43.00393" lon="0.9265">
        <ele>693.5</ele>
        <time>2021-10-14T10:30:56.000Z</time>
      </trkpt>
      <trkpt lat="43.00398" lon="0.92651">
        <ele>693.5</ele>
        <time>2021-10-14T10:30:58.000Z</time>
      </trkpt>
      <trkpt lat="43.004" lon="0.92651">
        <ele>693.6</ele>
        <time>2021-10-14T10:30:59.000Z</time>
      </trkpt>
      <trkpt lat="43.00404" lon="0.92651">
        <ele>693.7</ele>
        <time>2021-10-14T10:31:01.000Z</time>
      </trkpt>
      <trkpt lat="43.00408" lon="0.9265">
        <ele>693.8</ele>
        <time>2021-10-14T10:31:03.000Z</time>
      </trkpt>
      <trkpt lat="43.0041" lon="0.9265">
        <ele>693.8</ele>
        <time>2021-10-14T10:31:04.000Z</time>
      </trkpt>
      <trkpt lat="43.00413" lon="0.92651">
        <ele>694</ele>
        <time>2021-10-14T10:31:06.000Z</time>
      </trkpt>
      <trkpt lat="43.00417" lon="0.92651">
        <ele>694.2</ele>
        <time>2021-10-14T10:31:08.000Z</time>
      </trkpt>
      <trkpt lat="43.00419" lon="0.9265">
        <ele>694.2</ele>
        <time>2021-10-14T10:31:09.000Z</time>
      </trkpt>
      <trkpt lat="43.0042" lon="0.9265">
        <ele>694.3</ele>
        <time>2021-10-14T10:31:10.000Z</time>
      </trkpt>
      <trkpt lat="43.00424" lon="0.92648">
        <ele>694.5</ele>
        <time>2021-10-14T10:31:12.000Z</time>
      </trkpt>
      <trkpt lat="43.00426" lon="0.92647">
        <ele>694.6</ele>
        <time>2021-10-14T10:31:13.000Z</time>
      </trkpt>
      <trkpt lat="43.00431" lon="0.92645">
        <ele>695.2</ele>
        <time>2021-10-14T10:31:15.000Z</time>
      </trkpt>
      <trkpt lat="43.00432" lon="0.92644">
        <ele>695.4</ele>
        <time>2021-10-14T10:31:16.000Z</time>
      </trkpt>
      <trkpt lat="43.00435" lon="0.92643">
        <ele>695.9</ele>
        <time>2021-10-14T10:31:18.000Z</time>
      </trkpt>
      <trkpt lat="43.00437" lon="0.92643">
        <ele>696.2</ele>
        <time>2021-10-14T10:31:19.000Z</time>
      </trkpt>
      <trkpt lat="43.00438" lon="0.92643">
        <ele>696.4</ele>
        <time>2021-10-14T10:31:20.000Z</time>
      </trkpt>
      <trkpt lat="43.00441" lon="0.92642">
        <ele>696.9</ele>
        <time>2021-10-14T10:31:22.000Z</time>
      </trkpt>
      <trkpt lat="43.00442" lon="0.92641">
        <ele>697.1</ele>
        <time>2021-10-14T10:31:23.000Z</time>
      </trkpt>
      <trkpt lat="43.00443" lon="0.92641">
        <ele>697.3</ele>
        <time>2021-10-14T10:31:24.000Z</time>
      </trkpt>
      <trkpt lat="43.00445" lon="0.92639">
        <ele>697.7</ele>
        <time>2021-10-14T10:31:26.000Z</time>
      </trkpt>
      <trkpt lat="43.00446" lon="0.92639">
        <ele>698</ele>
        <time>2021-10-14T10:31:27.000Z</time>
      </trkpt>
      <trkpt lat="43.00448" lon="0.92637">
        <ele>698.3</ele>
        <time>2021-10-14T10:31:29.000Z</time>
      </trkpt>
      <trkpt lat="43.00449" lon="0.92636">
        <ele>698.6</ele>
        <time>2021-10-14T10:31:30.000Z</time>
      </trkpt>
      <trkpt lat="43.00452" lon="0.92636">
        <ele>699.2</ele>
        <time>2021-10-14T10:31:32.000Z</time>
      </trkpt>
      <trkpt lat="43.00454" lon="0.92636">
        <ele>699.4</ele>
        <time>2021-10-14T10:31:33.000Z</time>
      </trkpt>
      <trkpt lat="43.00456" lon="0.92635">
        <ele>699.9</ele>
        <time>2021-10-14T10:31:35.000Z</time>
      </trkpt>
      <trkpt lat="43.00457" lon="0.92634">
        <ele>700.2</ele>
        <time>2021-10-14T10:31:36.000Z</time>
      </trkpt>
      <trkpt lat="43.0046" lon="0.92633">
        <ele>700.7</ele>
        <time>2021-10-14T10:31:38.000Z</time>
      </trkpt>
      <trkpt lat="43.00464" lon="0.9263">
        <ele>701.3</ele>
        <time>2021-10-14T10:31:40.000Z</time>
      </trkpt>
      <trkpt lat="43.00464" lon="0.92629">
        <ele>701.4</ele>
        <time>2021-10-14T10:31:41.000Z</time>
      </trkpt>
      <trkpt lat="43.00465" lon="0.92628">
        <ele>701.6</ele>
        <time>2021-10-14T10:31:42.000Z</time>
      </trkpt>
      <trkpt lat="43.00466" lon="0.92628">
        <ele>701.8</ele>
        <time>2021-10-14T10:31:43.000Z</time>
      </trkpt>
      <trkpt lat="43.00467" lon="0.92627">
        <ele>701.9</ele>
        <time>2021-10-14T10:31:44.000Z</time>
      </trkpt>
      <trkpt lat="43.00469" lon="0.92624">
        <ele>702.3</ele>
        <time>2021-10-14T10:31:46.000Z</time>
      </trkpt>
      <trkpt lat="43.0047" lon="0.92623">
        <ele>702.6</ele>
        <time>2021-10-14T10:31:47.000Z</time>
      </trkpt>
      <trkpt lat="43.00471" lon="0.92623">
        <ele>702.7</ele>
        <time>2021-10-14T10:31:48.000Z</time>
      </trkpt>
      <trkpt lat="43.00473" lon="0.92621">
        <ele>703.1</ele>
        <time>2021-10-14T10:31:50.000Z</time>
      </trkpt>
      <trkpt lat="43.00475" lon="0.92618">
        <ele>703.4</ele>
        <time>2021-10-14T10:31:52.000Z</time>
      </trkpt>
      <trkpt lat="43.00476" lon="0.92616">
        <ele>703.7</ele>
        <time>2021-10-14T10:31:54.000Z</time>
      </trkpt>
      <trkpt lat="43.00476" lon="0.92611">
        <ele>704.2</ele>
        <time>2021-10-14T10:31:56.000Z</time>
      </trkpt>
      <trkpt lat="43.00477" lon="0.92609">
        <ele>704.4</ele>
        <time>2021-10-14T10:31:57.000Z</time>
      </trkpt>
      <trkpt lat="43.00477" lon="0.92608">
        <ele>704.6</ele>
        <time>2021-10-14T10:31:58.000Z</time>
      </trkpt>
      <trkpt lat="43.00479" lon="0.92605">
        <ele>705</ele>
        <time>2021-10-14T10:32:00.000Z</time>
      </trkpt>
      <trkpt lat="43.00481" lon="0.92603">
        <ele>705.4</ele>
        <time>2021-10-14T10:32:02.000Z</time>
      </trkpt>
      <trkpt lat="43.00483" lon="0.92601">
        <ele>705.7</ele>
        <time>2021-10-14T10:32:04.000Z</time>
      </trkpt>
      <trkpt lat="43.00484" lon="0.92601">
        <ele>706</ele>
        <time>2021-10-14T10:32:05.000Z</time>
      </trkpt>
      <trkpt lat="43.00487" lon="0.92599">
        <ele>706.5</ele>
        <time>2021-10-14T10:32:07.000Z</time>
      </trkpt>
      <trkpt lat="43.00487" lon="0.92598">
        <ele>706.6</ele>
        <time>2021-10-14T10:32:08.000Z</time>
      </trkpt>
      <trkpt lat="43.00489" lon="0.92596">
        <ele>707</ele>
        <time>2021-10-14T10:32:10.000Z</time>
      </trkpt>
      <trkpt lat="43.0049" lon="0.92592">
        <ele>707.4</ele>
        <time>2021-10-14T10:32:12.000Z</time>
      </trkpt>
      <trkpt lat="43.00491" lon="0.9259">
        <ele>707.9</ele>
        <time>2021-10-14T10:32:14.000Z</time>
      </trkpt>
      <trkpt lat="43.00492" lon="0.92589">
        <ele>708.1</ele>
        <time>2021-10-14T10:32:15.000Z</time>
      </trkpt>
      <trkpt lat="43.00493" lon="0.92586">
        <ele>708.4</ele>
        <time>2021-10-14T10:32:17.000Z</time>
      </trkpt>
      <trkpt lat="43.00494" lon="0.92583">
        <ele>708.8</ele>
        <time>2021-10-14T10:32:19.000Z</time>
      </trkpt>
      <trkpt lat="43.00496" lon="0.92582">
        <ele>709.2</ele>
        <time>2021-10-14T10:32:21.000Z</time>
      </trkpt>
      <trkpt lat="43.00498" lon="0.9258">
        <ele>709.7</ele>
        <time>2021-10-14T10:32:23.000Z</time>
      </trkpt>
      <trkpt lat="43.00499" lon="0.9258">
        <ele>709.8</ele>
        <time>2021-10-14T10:32:24.000Z</time>
      </trkpt>
      <trkpt lat="43.005" lon="0.92577">
        <ele>710.2</ele>
        <time>2021-10-14T10:32:26.000Z</time>
      </trkpt>
      <trkpt lat="43.00501" lon="0.92575">
        <ele>710.6</ele>
        <time>2021-10-14T10:32:27.000Z</time>
      </trkpt>
      <trkpt lat="43.00502" lon="0.92574">
        <ele>710.8</ele>
        <time>2021-10-14T10:32:28.000Z</time>
      </trkpt>
      <trkpt lat="43.00503" lon="0.92568">
        <ele>711.6</ele>
        <time>2021-10-14T10:32:30.000Z</time>
      </trkpt>
      <trkpt lat="43.00504" lon="0.92566">
        <ele>711.8</ele>
        <time>2021-10-14T10:32:31.000Z</time>
      </trkpt>
      <trkpt lat="43.00505" lon="0.92565">
        <ele>712.1</ele>
        <time>2021-10-14T10:32:32.000Z</time>
      </trkpt>
      <trkpt lat="43.00506" lon="0.92563">
        <ele>712.4</ele>
        <time>2021-10-14T10:32:33.000Z</time>
      </trkpt>
      <trkpt lat="43.00506" lon="0.92562">
        <ele>712.5</ele>
        <time>2021-10-14T10:32:34.000Z</time>
      </trkpt>
      <trkpt lat="43.00507" lon="0.9256">
        <ele>712.9</ele>
        <time>2021-10-14T10:32:36.000Z</time>
      </trkpt>
      <trkpt lat="43.00509" lon="0.92556">
        <ele>713.5</ele>
        <time>2021-10-14T10:32:38.000Z</time>
      </trkpt>
      <trkpt lat="43.0051" lon="0.92555">
        <ele>713.7</ele>
        <time>2021-10-14T10:32:39.000Z</time>
      </trkpt>
      <trkpt lat="43.00511" lon="0.92553">
        <ele>714.1</ele>
        <time>2021-10-14T10:32:41.000Z</time>
      </trkpt>
      <trkpt lat="43.00512" lon="0.92551">
        <ele>714.3</ele>
        <time>2021-10-14T10:32:43.000Z</time>
      </trkpt>
      <trkpt lat="43.00513" lon="0.92549">
        <ele>714.7</ele>
        <time>2021-10-14T10:32:45.000Z</time>
      </trkpt>
      <trkpt lat="43.00515" lon="0.92546">
        <ele>715.1</ele>
        <time>2021-10-14T10:32:47.000Z</time>
      </trkpt>
      <trkpt lat="43.00515" lon="0.92545">
        <ele>715.3</ele>
        <time>2021-10-14T10:32:48.000Z</time>
      </trkpt>
      <trkpt lat="43.00517" lon="0.92543">
        <ele>715.7</ele>
        <time>2021-10-14T10:32:50.000Z</time>
      </trkpt>
      <trkpt lat="43.00518" lon="0.92541">
        <ele>716</ele>
        <time>2021-10-14T10:32:51.000Z</time>
      </trkpt>
      <trkpt lat="43.00519" lon="0.9254">
        <ele>716.2</ele>
        <time>2021-10-14T10:32:52.000Z</time>
      </trkpt>
      <trkpt lat="43.00521" lon="0.92538">
        <ele>716.7</ele>
        <time>2021-10-14T10:32:54.000Z</time>
      </trkpt>
      <trkpt lat="43.00521" lon="0.92536">
        <ele>716.9</ele>
        <time>2021-10-14T10:32:55.000Z</time>
      </trkpt>
      <trkpt lat="43.00523" lon="0.92531">
        <ele>717.6</ele>
        <time>2021-10-14T10:32:57.000Z</time>
      </trkpt>
      <trkpt lat="43.00524" lon="0.9253">
        <ele>717.8</ele>
        <time>2021-10-14T10:32:58.000Z</time>
      </trkpt>
      <trkpt lat="43.00525" lon="0.92529">
        <ele>718.1</ele>
        <time>2021-10-14T10:32:59.000Z</time>
      </trkpt>
      <trkpt lat="43.00526" lon="0.92527">
        <ele>718.3</ele>
        <time>2021-10-14T10:33:00.000Z</time>
      </trkpt>
      <trkpt lat="43.00527" lon="0.92522">
        <ele>719</ele>
        <time>2021-10-14T10:33:02.000Z</time>
      </trkpt>
      <trkpt lat="43.00529" lon="0.92518">
        <ele>719.6</ele>
        <time>2021-10-14T10:33:04.000Z</time>
      </trkpt>
      <trkpt lat="43.0053" lon="0.92515">
        <ele>720</ele>
        <time>2021-10-14T10:33:05.000Z</time>
      </trkpt>
      <trkpt lat="43.00533" lon="0.92511">
        <ele>720.7</ele>
        <time>2021-10-14T10:33:07.000Z</time>
      </trkpt>
      <trkpt lat="43.00533" lon="0.92509">
        <ele>720.9</ele>
        <time>2021-10-14T10:33:08.000Z</time>
      </trkpt>
      <trkpt lat="43.00533" lon="0.92507">
        <ele>721.1</ele>
        <time>2021-10-14T10:33:09.000Z</time>
      </trkpt>
      <trkpt lat="43.00533" lon="0.92504">
        <ele>721.5</ele>
        <time>2021-10-14T10:33:11.000Z</time>
      </trkpt>
      <trkpt lat="43.00534" lon="0.92503">
        <ele>721.7</ele>
        <time>2021-10-14T10:33:12.000Z</time>
      </trkpt>
      <trkpt lat="43.00535" lon="0.92499">
        <ele>722.2</ele>
        <time>2021-10-14T10:33:14.000Z</time>
      </trkpt>
      <trkpt lat="43.00537" lon="0.92496">
        <ele>722.6</ele>
        <time>2021-10-14T10:33:16.000Z</time>
      </trkpt>
      <trkpt lat="43.00539" lon="0.92492">
        <ele>723.2</ele>
        <time>2021-10-14T10:33:18.000Z</time>
      </trkpt>
      <trkpt lat="43.0054" lon="0.92491">
        <ele>723.4</ele>
        <time>2021-10-14T10:33:19.000Z</time>
      </trkpt>
      <trkpt lat="43.00541" lon="0.92489">
        <ele>723.7</ele>
        <time>2021-10-14T10:33:21.000Z</time>
      </trkpt>
      <trkpt lat="43.00542" lon="0.92487">
        <ele>723.9</ele>
        <time>2021-10-14T10:33:22.000Z</time>
      </trkpt>
      <trkpt lat="43.00542" lon="0.92486">
        <ele>724.1</ele>
        <time>2021-10-14T10:33:23.000Z</time>
      </trkpt>
      <trkpt lat="43.00543" lon="0.92483">
        <ele>724.4</ele>
        <time>2021-10-14T10:33:25.000Z</time>
      </trkpt>
      <trkpt lat="43.00544" lon="0.9248">
        <ele>724.8</ele>
        <time>2021-10-14T10:33:27.000Z</time>
      </trkpt>
      <trkpt lat="43.00545" lon="0.92479">
        <ele>724.9</ele>
        <time>2021-10-14T10:33:28.000Z</time>
      </trkpt>
      <trkpt lat="43.00546" lon="0.92476">
        <ele>725.3</ele>
        <time>2021-10-14T10:33:30.000Z</time>
      </trkpt>
      <trkpt lat="43.00547" lon="0.92473">
        <ele>725.7</ele>
        <time>2021-10-14T10:33:32.000Z</time>
      </trkpt>
      <trkpt lat="43.00548" lon="0.9247">
        <ele>725.9</ele>
        <time>2021-10-14T10:33:34.000Z</time>
      </trkpt>
      <trkpt lat="43.00548" lon="0.92469">
        <ele>726.1</ele>
        <time>2021-10-14T10:33:35.000Z</time>
      </trkpt>
      <trkpt lat="43.00549" lon="0.92465">
        <ele>726.5</ele>
        <time>2021-10-14T10:33:37.000Z</time>
      </trkpt>
      <trkpt lat="43.0055" lon="0.92463">
        <ele>726.8</ele>
        <time>2021-10-14T10:33:39.000Z</time>
      </trkpt>
      <trkpt lat="43.0055" lon="0.92462">
        <ele>726.9</ele>
        <time>2021-10-14T10:33:40.000Z</time>
      </trkpt>
      <trkpt lat="43.00552" lon="0.92457">
        <ele>727.4</ele>
        <time>2021-10-14T10:33:42.000Z</time>
      </trkpt>
      <trkpt lat="43.00554" lon="0.92455">
        <ele>727.7</ele>
        <time>2021-10-14T10:33:44.000Z</time>
      </trkpt>
      <trkpt lat="43.00555" lon="0.92452">
        <ele>728</ele>
        <time>2021-10-14T10:33:45.000Z</time>
      </trkpt>
      <trkpt lat="43.00555" lon="0.92448">
        <ele>728.4</ele>
        <time>2021-10-14T10:33:47.000Z</time>
      </trkpt>
      <trkpt lat="43.00556" lon="0.92446">
        <ele>728.6</ele>
        <time>2021-10-14T10:33:48.000Z</time>
      </trkpt>
      <trkpt lat="43.00558" lon="0.92442">
        <ele>729</ele>
        <time>2021-10-14T10:33:50.000Z</time>
      </trkpt>
      <trkpt lat="43.00561" lon="0.9244">
        <ele>729.5</ele>
        <time>2021-10-14T10:33:52.000Z</time>
      </trkpt>
      <trkpt lat="43.00562" lon="0.92439">
        <ele>729.6</ele>
        <time>2021-10-14T10:33:53.000Z</time>
      </trkpt>
      <trkpt lat="43.00563" lon="0.92438">
        <ele>729.8</ele>
        <time>2021-10-14T10:33:54.000Z</time>
      </trkpt>
      <trkpt lat="43.00565" lon="0.92434">
        <ele>730.2</ele>
        <time>2021-10-14T10:33:56.000Z</time>
      </trkpt>
      <trkpt lat="43.00565" lon="0.92433">
        <ele>730.3</ele>
        <time>2021-10-14T10:33:57.000Z</time>
      </trkpt>
      <trkpt lat="43.00567" lon="0.92429">
        <ele>730.7</ele>
        <time>2021-10-14T10:33:59.000Z</time>
      </trkpt>
      <trkpt lat="43.00568" lon="0.92428">
        <ele>730.8</ele>
        <time>2021-10-14T10:34:00.000Z</time>
      </trkpt>
      <trkpt lat="43.0057" lon="0.92424">
        <ele>731.2</ele>
        <time>2021-10-14T10:34:02.000Z</time>
      </trkpt>
      <trkpt lat="43.00571" lon="0.9242">
        <ele>731.6</ele>
        <time>2021-10-14T10:34:03.000Z</time>
      </trkpt>
      <trkpt lat="43.00572" lon="0.92417">
        <ele>731.8</ele>
        <time>2021-10-14T10:34:04.000Z</time>
      </trkpt>
      <trkpt lat="43.00572" lon="0.92413">
        <ele>732.2</ele>
        <time>2021-10-14T10:34:06.000Z</time>
      </trkpt>
      <trkpt lat="43.00573" lon="0.92408">
        <ele>732.5</ele>
        <time>2021-10-14T10:34:08.000Z</time>
      </trkpt>
      <trkpt lat="43.00573" lon="0.92407">
        <ele>732.7</ele>
        <time>2021-10-14T10:34:09.000Z</time>
      </trkpt>
      <trkpt lat="43.00574" lon="0.92405">
        <ele>732.8</ele>
        <time>2021-10-14T10:34:10.000Z</time>
      </trkpt>
      <trkpt lat="43.00574" lon="0.92404">
        <ele>732.9</ele>
        <time>2021-10-14T10:34:12.000Z</time>
      </trkpt>
      <trkpt lat="43.00574" lon="0.92403">
        <ele>733</ele>
        <time>2021-10-14T10:34:13.000Z</time>
      </trkpt>
      <trkpt lat="43.00574" lon="0.92402">
        <ele>733</ele>
        <time>2021-10-14T10:34:14.000Z</time>
      </trkpt>
      <trkpt lat="43.00576" lon="0.92399">
        <ele>733.4</ele>
        <time>2021-10-14T10:34:16.000Z</time>
      </trkpt>
      <trkpt lat="43.00577" lon="0.92398">
        <ele>733.5</ele>
        <time>2021-10-14T10:34:17.000Z</time>
      </trkpt>
      <trkpt lat="43.00579" lon="0.92396">
        <ele>733.8</ele>
        <time>2021-10-14T10:34:19.000Z</time>
      </trkpt>
      <trkpt lat="43.00579" lon="0.92394">
        <ele>734</ele>
        <time>2021-10-14T10:34:20.000Z</time>
      </trkpt>
      <trkpt lat="43.0058" lon="0.9239">
        <ele>734.3</ele>
        <time>2021-10-14T10:34:22.000Z</time>
      </trkpt>
      <trkpt lat="43.00581" lon="0.92388">
        <ele>734.5</ele>
        <time>2021-10-14T10:34:23.000Z</time>
      </trkpt>
      <trkpt lat="43.00582" lon="0.92387">
        <ele>734.7</ele>
        <time>2021-10-14T10:34:24.000Z</time>
      </trkpt>
      <trkpt lat="43.00584" lon="0.92383">
        <ele>735.1</ele>
        <time>2021-10-14T10:34:26.000Z</time>
      </trkpt>
      <trkpt lat="43.00586" lon="0.92379">
        <ele>735.5</ele>
        <time>2021-10-14T10:34:28.000Z</time>
      </trkpt>
      <trkpt lat="43.00587" lon="0.92379">
        <ele>735.6</ele>
        <time>2021-10-14T10:34:29.000Z</time>
      </trkpt>
      <trkpt lat="43.00587" lon="0.92378">
        <ele>735.7</ele>
        <time>2021-10-14T10:34:30.000Z</time>
      </trkpt>
      <trkpt lat="43.00586" lon="0.92377">
        <ele>735.8</ele>
        <time>2021-10-14T10:34:31.000Z</time>
      </trkpt>
      <trkpt lat="43.00586" lon="0.92376">
        <ele>735.9</ele>
        <time>2021-10-14T10:34:33.000Z</time>
      </trkpt>
      <trkpt lat="43.00586" lon="0.92375">
        <ele>736</ele>
        <time>2021-10-14T10:34:34.000Z</time>
      </trkpt>
      <trkpt lat="43.00586" lon="0.92373">
        <ele>736.2</ele>
        <time>2021-10-14T10:34:35.000Z</time>
      </trkpt>
      <trkpt lat="43.00587" lon="0.92369">
        <ele>736.5</ele>
        <time>2021-10-14T10:34:37.000Z</time>
      </trkpt>
      <trkpt lat="43.00588" lon="0.92363">
        <ele>737.1</ele>
        <time>2021-10-14T10:34:39.000Z</time>
      </trkpt>
      <trkpt lat="43.00588" lon="0.92361">
        <ele>737.3</ele>
        <time>2021-10-14T10:34:40.000Z</time>
      </trkpt>
      <trkpt lat="43.00589" lon="0.92359">
        <ele>737.6</ele>
        <time>2021-10-14T10:34:42.000Z</time>
      </trkpt>
      <trkpt lat="43.00589" lon="0.92357">
        <ele>737.8</ele>
        <time>2021-10-14T10:34:44.000Z</time>
      </trkpt>
      <trkpt lat="43.0059" lon="0.92355">
        <ele>738</ele>
        <time>2021-10-14T10:34:45.000Z</time>
      </trkpt>
      <trkpt lat="43.00591" lon="0.92353">
        <ele>738.2</ele>
        <time>2021-10-14T10:34:47.000Z</time>
      </trkpt>
      <trkpt lat="43.00591" lon="0.92351">
        <ele>738.4</ele>
        <time>2021-10-14T10:34:48.000Z</time>
      </trkpt>
      <trkpt lat="43.00591" lon="0.9235">
        <ele>738.5</ele>
        <time>2021-10-14T10:34:49.000Z</time>
      </trkpt>
      <trkpt lat="43.00591" lon="0.92349">
        <ele>738.6</ele>
        <time>2021-10-14T10:34:50.000Z</time>
      </trkpt>
      <trkpt lat="43.00592" lon="0.92344">
        <ele>739.1</ele>
        <time>2021-10-14T10:34:52.000Z</time>
      </trkpt>
      <trkpt lat="43.00595" lon="0.92341">
        <ele>739.6</ele>
        <time>2021-10-14T10:34:54.000Z</time>
      </trkpt>
      <trkpt lat="43.00598" lon="0.92339">
        <ele>739.9</ele>
        <time>2021-10-14T10:34:55.000Z</time>
      </trkpt>
      <trkpt lat="43.00601" lon="0.92335">
        <ele>740.5</ele>
        <time>2021-10-14T10:34:57.000Z</time>
      </trkpt>
      <trkpt lat="43.00602" lon="0.92334">
        <ele>740.6</ele>
        <time>2021-10-14T10:34:59.000Z</time>
      </trkpt>
      <trkpt lat="43.00603" lon="0.92332">
        <ele>740.8</ele>
        <time>2021-10-14T10:35:00.000Z</time>
      </trkpt>
      <trkpt lat="43.00605" lon="0.92331">
        <ele>741</ele>
        <time>2021-10-14T10:35:02.000Z</time>
      </trkpt>
      <trkpt lat="43.00606" lon="0.9233">
        <ele>741.1</ele>
        <time>2021-10-14T10:35:03.000Z</time>
      </trkpt>
      <trkpt lat="43.00606" lon="0.92329">
        <ele>741.2</ele>
        <time>2021-10-14T10:35:04.000Z</time>
      </trkpt>
      <trkpt lat="43.00608" lon="0.9233">
        <ele>741.5</ele>
        <time>2021-10-14T10:35:06.000Z</time>
      </trkpt>
      <trkpt lat="43.00609" lon="0.92329">
        <ele>741.5</ele>
        <time>2021-10-14T10:35:07.000Z</time>
      </trkpt>
      <trkpt lat="43.0061" lon="0.92326">
        <ele>741.8</ele>
        <time>2021-10-14T10:35:09.000Z</time>
      </trkpt>
      <trkpt lat="43.00611" lon="0.92323">
        <ele>742.1</ele>
        <time>2021-10-14T10:35:11.000Z</time>
      </trkpt>
      <trkpt lat="43.00614" lon="0.9232">
        <ele>742.4</ele>
        <time>2021-10-14T10:35:13.000Z</time>
      </trkpt>
      <trkpt lat="43.00614" lon="0.92319">
        <ele>742.6</ele>
        <time>2021-10-14T10:35:14.000Z</time>
      </trkpt>
      <trkpt lat="43.00616" lon="0.92314">
        <ele>743</ele>
        <time>2021-10-14T10:35:16.000Z</time>
      </trkpt>
      <trkpt lat="43.00617" lon="0.92312">
        <ele>743.1</ele>
        <time>2021-10-14T10:35:17.000Z</time>
      </trkpt>
      <trkpt lat="43.00617" lon="0.9231">
        <ele>743.3</ele>
        <time>2021-10-14T10:35:18.000Z</time>
      </trkpt>
      <trkpt lat="43.0062" lon="0.92306">
        <ele>743.6</ele>
        <time>2021-10-14T10:35:20.000Z</time>
      </trkpt>
      <trkpt lat="43.00623" lon="0.92301">
        <ele>744</ele>
        <time>2021-10-14T10:35:22.000Z</time>
      </trkpt>
      <trkpt lat="43.00626" lon="0.92297">
        <ele>744.3</ele>
        <time>2021-10-14T10:35:24.000Z</time>
      </trkpt>
      <trkpt lat="43.00628" lon="0.92294">
        <ele>744.5</ele>
        <time>2021-10-14T10:35:25.000Z</time>
      </trkpt>
      <trkpt lat="43.00632" lon="0.92289">
        <ele>744.8</ele>
        <time>2021-10-14T10:35:27.000Z</time>
      </trkpt>
      <trkpt lat="43.00634" lon="0.92286">
        <ele>745.1</ele>
        <time>2021-10-14T10:35:28.000Z</time>
      </trkpt>
      <trkpt lat="43.00636" lon="0.92283">
        <ele>745.3</ele>
        <time>2021-10-14T10:35:29.000Z</time>
      </trkpt>
      <trkpt lat="43.00639" lon="0.92278">
        <ele>745.6</ele>
        <time>2021-10-14T10:35:31.000Z</time>
      </trkpt>
      <trkpt lat="43.00641" lon="0.92275">
        <ele>745.7</ele>
        <time>2021-10-14T10:35:32.000Z</time>
      </trkpt>
      <trkpt lat="43.00642" lon="0.9227">
        <ele>745.9</ele>
        <time>2021-10-14T10:35:34.000Z</time>
      </trkpt>
      <trkpt lat="43.00643" lon="0.92266">
        <ele>746.1</ele>
        <time>2021-10-14T10:35:36.000Z</time>
      </trkpt>
      <trkpt lat="43.00645" lon="0.92263">
        <ele>746.3</ele>
        <time>2021-10-14T10:35:37.000Z</time>
      </trkpt>
      <trkpt lat="43.00648" lon="0.92261">
        <ele>746.4</ele>
        <time>2021-10-14T10:35:38.000Z</time>
      </trkpt>
      <trkpt lat="43.00649" lon="0.9226">
        <ele>746.5</ele>
        <time>2021-10-14T10:35:39.000Z</time>
      </trkpt>
      <trkpt lat="43.00649" lon="0.92257">
        <ele>746.6</ele>
        <time>2021-10-14T10:35:40.000Z</time>
      </trkpt>
      <trkpt lat="43.0065" lon="0.92253">
        <ele>746.7</ele>
        <time>2021-10-14T10:35:42.000Z</time>
      </trkpt>
      <trkpt lat="43.00652" lon="0.9225">
        <ele>746.9</ele>
        <time>2021-10-14T10:35:43.000Z</time>
      </trkpt>
      <trkpt lat="43.00654" lon="0.92245">
        <ele>747.1</ele>
        <time>2021-10-14T10:35:45.000Z</time>
      </trkpt>
      <trkpt lat="43.00655" lon="0.92241">
        <ele>747.3</ele>
        <time>2021-10-14T10:35:46.000Z</time>
      </trkpt>
      <trkpt lat="43.00657" lon="0.92235">
        <ele>747.5</ele>
        <time>2021-10-14T10:35:48.000Z</time>
      </trkpt>
      <trkpt lat="43.00658" lon="0.92234">
        <ele>747.6</ele>
        <time>2021-10-14T10:35:49.000Z</time>
      </trkpt>
      <trkpt lat="43.00658" lon="0.92232">
        <ele>747.7</ele>
        <time>2021-10-14T10:35:50.000Z</time>
      </trkpt>
      <trkpt lat="43.0066" lon="0.9223">
        <ele>747.8</ele>
        <time>2021-10-14T10:35:51.000Z</time>
      </trkpt>
      <trkpt lat="43.00661" lon="0.92227">
        <ele>748</ele>
        <time>2021-10-14T10:35:53.000Z</time>
      </trkpt>
      <trkpt lat="43.00664" lon="0.92224">
        <ele>748.2</ele>
        <time>2021-10-14T10:35:54.000Z</time>
      </trkpt>
      <trkpt lat="43.00667" lon="0.9222">
        <ele>748.5</ele>
        <time>2021-10-14T10:35:56.000Z</time>
      </trkpt>
      <trkpt lat="43.00668" lon="0.92216">
        <ele>748.7</ele>
        <time>2021-10-14T10:35:57.000Z</time>
      </trkpt>
      <trkpt lat="43.00671" lon="0.92213">
        <ele>748.9</ele>
        <time>2021-10-14T10:35:59.000Z</time>
      </trkpt>
      <trkpt lat="43.00672" lon="0.92212">
        <ele>749</ele>
        <time>2021-10-14T10:36:00.000Z</time>
      </trkpt>
      <trkpt lat="43.00675" lon="0.9221">
        <ele>749.1</ele>
        <time>2021-10-14T10:36:01.000Z</time>
      </trkpt>
      <trkpt lat="43.00678" lon="0.92206">
        <ele>749.4</ele>
        <time>2021-10-14T10:36:03.000Z</time>
      </trkpt>
      <trkpt lat="43.0068" lon="0.92201">
        <ele>749.6</ele>
        <time>2021-10-14T10:36:05.000Z</time>
      </trkpt>
      <trkpt lat="43.00682" lon="0.92197">
        <ele>749.7</ele>
        <time>2021-10-14T10:36:06.000Z</time>
      </trkpt>
      <trkpt lat="43.00682" lon="0.92196">
        <ele>749.8</ele>
        <time>2021-10-14T10:36:07.000Z</time>
      </trkpt>
      <trkpt lat="43.00686" lon="0.92192">
        <ele>750</ele>
        <time>2021-10-14T10:36:09.000Z</time>
      </trkpt>
      <trkpt lat="43.00688" lon="0.9219">
        <ele>750.1</ele>
        <time>2021-10-14T10:36:10.000Z</time>
      </trkpt>
      <trkpt lat="43.00692" lon="0.92187">
        <ele>750.4</ele>
        <time>2021-10-14T10:36:12.000Z</time>
      </trkpt>
      <trkpt lat="43.00695" lon="0.92184">
        <ele>750.6</ele>
        <time>2021-10-14T10:36:13.000Z</time>
      </trkpt>
      <trkpt lat="43.00696" lon="0.92182">
        <ele>750.7</ele>
        <time>2021-10-14T10:36:14.000Z</time>
      </trkpt>
      <trkpt lat="43.007" lon="0.92178">
        <ele>751</ele>
        <time>2021-10-14T10:36:16.000Z</time>
      </trkpt>
      <trkpt lat="43.00702" lon="0.92176">
        <ele>751.2</ele>
        <time>2021-10-14T10:36:17.000Z</time>
      </trkpt>
      <trkpt lat="43.00704" lon="0.92175">
        <ele>751.3</ele>
        <time>2021-10-14T10:36:18.000Z</time>
      </trkpt>
      <trkpt lat="43.00707" lon="0.92172">
        <ele>751.5</ele>
        <time>2021-10-14T10:36:20.000Z</time>
      </trkpt>
      <trkpt lat="43.0071" lon="0.9217">
        <ele>751.6</ele>
        <time>2021-10-14T10:36:21.000Z</time>
      </trkpt>
      <trkpt lat="43.00712" lon="0.92168">
        <ele>751.7</ele>
        <time>2021-10-14T10:36:23.000Z</time>
      </trkpt>
      <trkpt lat="43.00715" lon="0.92167">
        <ele>751.8</ele>
        <time>2021-10-14T10:36:24.000Z</time>
      </trkpt>
      <trkpt lat="43.00719" lon="0.92166">
        <ele>752</ele>
        <time>2021-10-14T10:36:26.000Z</time>
      </trkpt>
      <trkpt lat="43.00723" lon="0.92165">
        <ele>752.2</ele>
        <time>2021-10-14T10:36:28.000Z</time>
      </trkpt>
      <trkpt lat="43.00727" lon="0.92164">
        <ele>752.3</ele>
        <time>2021-10-14T10:36:29.000Z</time>
      </trkpt>
      <trkpt lat="43.00732" lon="0.92163">
        <ele>752.5</ele>
        <time>2021-10-14T10:36:31.000Z</time>
      </trkpt>
      <trkpt lat="43.00735" lon="0.92162">
        <ele>752.6</ele>
        <time>2021-10-14T10:36:32.000Z</time>
      </trkpt>
      <trkpt lat="43.0074" lon="0.9216">
        <ele>752.7</ele>
        <time>2021-10-14T10:36:34.000Z</time>
      </trkpt>
      <trkpt lat="43.00743" lon="0.92158">
        <ele>752.8</ele>
        <time>2021-10-14T10:36:35.000Z</time>
      </trkpt>
      <trkpt lat="43.00745" lon="0.92157">
        <ele>752.9</ele>
        <time>2021-10-14T10:36:36.000Z</time>
      </trkpt>
      <trkpt lat="43.00751" lon="0.92156">
        <ele>753.1</ele>
        <time>2021-10-14T10:36:38.000Z</time>
      </trkpt>
      <trkpt lat="43.00754" lon="0.92155">
        <ele>753.2</ele>
        <time>2021-10-14T10:36:39.000Z</time>
      </trkpt>
      <trkpt lat="43.00757" lon="0.92154">
        <ele>753.4</ele>
        <time>2021-10-14T10:36:41.000Z</time>
      </trkpt>
      <trkpt lat="43.0076" lon="0.92152">
        <ele>753.5</ele>
        <time>2021-10-14T10:36:42.000Z</time>
      </trkpt>
      <trkpt lat="43.00763" lon="0.92151">
        <ele>753.7</ele>
        <time>2021-10-14T10:36:44.000Z</time>
      </trkpt>
      <trkpt lat="43.00766" lon="0.92151">
        <ele>753.9</ele>
        <time>2021-10-14T10:36:46.000Z</time>
      </trkpt>
      <trkpt lat="43.00769" lon="0.92149">
        <ele>754.1</ele>
        <time>2021-10-14T10:36:47.000Z</time>
      </trkpt>
      <trkpt lat="43.00773" lon="0.92147">
        <ele>754.4</ele>
        <time>2021-10-14T10:36:49.000Z</time>
      </trkpt>
      <trkpt lat="43.00776" lon="0.92144">
        <ele>754.7</ele>
        <time>2021-10-14T10:36:50.000Z</time>
      </trkpt>
      <trkpt lat="43.00777" lon="0.92144">
        <ele>754.7</ele>
        <time>2021-10-14T10:36:51.000Z</time>
      </trkpt>
      <trkpt lat="43.0078" lon="0.92142">
        <ele>755</ele>
        <time>2021-10-14T10:36:52.000Z</time>
      </trkpt>
      <trkpt lat="43.00781" lon="0.92141">
        <ele>755.1</ele>
        <time>2021-10-14T10:36:53.000Z</time>
      </trkpt>
      <trkpt lat="43.00785" lon="0.92139">
        <ele>755.5</ele>
        <time>2021-10-14T10:36:55.000Z</time>
      </trkpt>
      <trkpt lat="43.00786" lon="0.92138">
        <ele>755.7</ele>
        <time>2021-10-14T10:36:56.000Z</time>
      </trkpt>
      <trkpt lat="43.00789" lon="0.92136">
        <ele>756.1</ele>
        <time>2021-10-14T10:36:58.000Z</time>
      </trkpt>
      <trkpt lat="43.00793" lon="0.92135">
        <ele>756.5</ele>
        <time>2021-10-14T10:36:59.000Z</time>
      </trkpt>
      <trkpt lat="43.00794" lon="0.92135">
        <ele>756.7</ele>
        <time>2021-10-14T10:37:00.000Z</time>
      </trkpt>
      <trkpt lat="43.00796" lon="0.92133">
        <ele>756.9</ele>
        <time>2021-10-14T10:37:01.000Z</time>
      </trkpt>
      <trkpt lat="43.00799" lon="0.9213">
        <ele>757.4</ele>
        <time>2021-10-14T10:37:03.000Z</time>
      </trkpt>
      <trkpt lat="43.00801" lon="0.92129">
        <ele>757.7</ele>
        <time>2021-10-14T10:37:04.000Z</time>
      </trkpt>
      <trkpt lat="43.00804" lon="0.92127">
        <ele>758.1</ele>
        <time>2021-10-14T10:37:06.000Z</time>
      </trkpt>
      <trkpt lat="43.00808" lon="0.92125">
        <ele>758.7</ele>
        <time>2021-10-14T10:37:08.000Z</time>
      </trkpt>
      <trkpt lat="43.00811" lon="0.92123">
        <ele>759</ele>
        <time>2021-10-14T10:37:09.000Z</time>
      </trkpt>
      <trkpt lat="43.00813" lon="0.92122">
        <ele>759.3</ele>
        <time>2021-10-14T10:37:10.000Z</time>
      </trkpt>
      <trkpt lat="43.00816" lon="0.9212">
        <ele>759.7</ele>
        <time>2021-10-14T10:37:12.000Z</time>
      </trkpt>
      <trkpt lat="43.00819" lon="0.92117">
        <ele>760.1</ele>
        <time>2021-10-14T10:37:14.000Z</time>
      </trkpt>
      <trkpt lat="43.00821" lon="0.92114">
        <ele>760.4</ele>
        <time>2021-10-14T10:37:15.000Z</time>
      </trkpt>
      <trkpt lat="43.00823" lon="0.92113">
        <ele>760.6</ele>
        <time>2021-10-14T10:37:16.000Z</time>
      </trkpt>
      <trkpt lat="43.00826" lon="0.92111">
        <ele>760.9</ele>
        <time>2021-10-14T10:37:18.000Z</time>
      </trkpt>
      <trkpt lat="43.00829" lon="0.92108">
        <ele>761.2</ele>
        <time>2021-10-14T10:37:19.000Z</time>
      </trkpt>
      <trkpt lat="43.0083" lon="0.92108">
        <ele>761.3</ele>
        <time>2021-10-14T10:37:20.000Z</time>
      </trkpt>
      <trkpt lat="43.00833" lon="0.92104">
        <ele>761.6</ele>
        <time>2021-10-14T10:37:22.000Z</time>
      </trkpt>
      <trkpt lat="43.00835" lon="0.92101">
        <ele>761.8</ele>
        <time>2021-10-14T10:37:23.000Z</time>
      </trkpt>
      <trkpt lat="43.00838" lon="0.92099">
        <ele>762.1</ele>
        <time>2021-10-14T10:37:25.000Z</time>
      </trkpt>
      <trkpt lat="43.0084" lon="0.92097">
        <ele>762.2</ele>
        <time>2021-10-14T10:37:26.000Z</time>
      </trkpt>
      <trkpt lat="43.00843" lon="0.92094">
        <ele>762.5</ele>
        <time>2021-10-14T10:37:28.000Z</time>
      </trkpt>
      <trkpt lat="43.00847" lon="0.92091">
        <ele>762.8</ele>
        <time>2021-10-14T10:37:30.000Z</time>
      </trkpt>
      <trkpt lat="43.00849" lon="0.92088">
        <ele>763</ele>
        <time>2021-10-14T10:37:31.000Z</time>
      </trkpt>
      <trkpt lat="43.00851" lon="0.92085">
        <ele>763.1</ele>
        <time>2021-10-14T10:37:32.000Z</time>
      </trkpt>
      <trkpt lat="43.00852" lon="0.92081">
        <ele>763.3</ele>
        <time>2021-10-14T10:37:33.000Z</time>
      </trkpt>
      <trkpt lat="43.00854" lon="0.92076">
        <ele>763.4</ele>
        <time>2021-10-14T10:37:35.000Z</time>
      </trkpt>
      <trkpt lat="43.00858" lon="0.92072">
        <ele>763.5</ele>
        <time>2021-10-14T10:37:36.000Z</time>
      </trkpt>
      <trkpt lat="43.00862" lon="0.92066">
        <ele>763.6</ele>
        <time>2021-10-14T10:37:38.000Z</time>
      </trkpt>
      <trkpt lat="43.00866" lon="0.92061">
        <ele>763.7</ele>
        <time>2021-10-14T10:37:39.000Z</time>
      </trkpt>
      <trkpt lat="43.00869" lon="0.92057">
        <ele>763.7</ele>
        <time>2021-10-14T10:37:40.000Z</time>
      </trkpt>
      <trkpt lat="43.00872" lon="0.92053">
        <ele>763.7</ele>
        <time>2021-10-14T10:37:41.000Z</time>
      </trkpt>
      <trkpt lat="43.00876" lon="0.9205">
        <ele>763.7</ele>
        <time>2021-10-14T10:37:42.000Z</time>
      </trkpt>
      <trkpt lat="43.0088" lon="0.92048">
        <ele>763.7</ele>
        <time>2021-10-14T10:37:43.000Z</time>
      </trkpt>
      <trkpt lat="43.00886" lon="0.92043">
        <ele>763.7</ele>
        <time>2021-10-14T10:37:45.000Z</time>
      </trkpt>
      <trkpt lat="43.00888" lon="0.9204">
        <ele>763.8</ele>
        <time>2021-10-14T10:37:46.000Z</time>
      </trkpt>
      <trkpt lat="43.00891" lon="0.92035">
        <ele>763.8</ele>
        <time>2021-10-14T10:37:48.000Z</time>
      </trkpt>
      <trkpt lat="43.00891" lon="0.92031">
        <ele>763.9</ele>
        <time>2021-10-14T10:37:49.000Z</time>
      </trkpt>
      <trkpt lat="43.00891" lon="0.92026">
        <ele>764</ele>
        <time>2021-10-14T10:37:51.000Z</time>
      </trkpt>
      <trkpt lat="43.0089" lon="0.92021">
        <ele>764.2</ele>
        <time>2021-10-14T10:37:53.000Z</time>
      </trkpt>
      <trkpt lat="43.00889" lon="0.92017">
        <ele>764.3</ele>
        <time>2021-10-14T10:37:54.000Z</time>
      </trkpt>
      <trkpt lat="43.00886" lon="0.92012">
        <ele>764.6</ele>
        <time>2021-10-14T10:37:56.000Z</time>
      </trkpt>
      <trkpt lat="43.00884" lon="0.92009">
        <ele>764.9</ele>
        <time>2021-10-14T10:37:57.000Z</time>
      </trkpt>
      <trkpt lat="43.00883" lon="0.92008">
        <ele>765</ele>
        <time>2021-10-14T10:37:58.000Z</time>
      </trkpt>
      <trkpt lat="43.00879" lon="0.92007">
        <ele>765.3</ele>
        <time>2021-10-14T10:38:00.000Z</time>
      </trkpt>
      <trkpt lat="43.00877" lon="0.92008">
        <ele>765.5</ele>
        <time>2021-10-14T10:38:01.000Z</time>
      </trkpt>
      <trkpt lat="43.00875" lon="0.92009">
        <ele>765.8</ele>
        <time>2021-10-14T10:38:03.000Z</time>
      </trkpt>
      <trkpt lat="43.00872" lon="0.9201">
        <ele>766.2</ele>
        <time>2021-10-14T10:38:05.000Z</time>
      </trkpt>
      <trkpt lat="43.00871" lon="0.9201">
        <ele>766.4</ele>
        <time>2021-10-14T10:38:06.000Z</time>
      </trkpt>
      <trkpt lat="43.00869" lon="0.92011">
        <ele>766.6</ele>
        <time>2021-10-14T10:38:07.000Z</time>
      </trkpt>
      <trkpt lat="43.00866" lon="0.92012">
        <ele>767.2</ele>
        <time>2021-10-14T10:38:09.000Z</time>
      </trkpt>
      <trkpt lat="43.00862" lon="0.92012">
        <ele>767.8</ele>
        <time>2021-10-14T10:38:10.000Z</time>
      </trkpt>
      <trkpt lat="43.00861" lon="0.92012">
        <ele>768.1</ele>
        <time>2021-10-14T10:38:11.000Z</time>
      </trkpt>
      <trkpt lat="43.00859" lon="0.92011">
        <ele>768.6</ele>
        <time>2021-10-14T10:38:13.000Z</time>
      </trkpt>
      <trkpt lat="43.00858" lon="0.9201">
        <ele>768.8</ele>
        <time>2021-10-14T10:38:14.000Z</time>
      </trkpt>
      <trkpt lat="43.00856" lon="0.92007">
        <ele>769.5</ele>
        <time>2021-10-14T10:38:16.000Z</time>
      </trkpt>
      <trkpt lat="43.00853" lon="0.92001">
        <ele>770.4</ele>
        <time>2021-10-14T10:38:18.000Z</time>
      </trkpt>
      <trkpt lat="43.00853" lon="0.91997">
        <ele>771.1</ele>
        <time>2021-10-14T10:38:19.000Z</time>
      </trkpt>
      <trkpt lat="43.00851" lon="0.91993">
        <ele>771.7</ele>
        <time>2021-10-14T10:38:20.000Z</time>
      </trkpt>
      <trkpt lat="43.00851" lon="0.91988">
        <ele>772.4</ele>
        <time>2021-10-14T10:38:22.000Z</time>
      </trkpt>
      <trkpt lat="43.00852" lon="0.91983">
        <ele>773</ele>
        <time>2021-10-14T10:38:24.000Z</time>
      </trkpt>
      <trkpt lat="43.00853" lon="0.91979">
        <ele>773.6</ele>
        <time>2021-10-14T10:38:25.000Z</time>
      </trkpt>
      <trkpt lat="43.00853" lon="0.91978">
        <ele>773.7</ele>
        <time>2021-10-14T10:38:26.000Z</time>
      </trkpt>
      <trkpt lat="43.00854" lon="0.91976">
        <ele>773.9</ele>
        <time>2021-10-14T10:38:27.000Z</time>
      </trkpt>
      <trkpt lat="43.00854" lon="0.91973">
        <ele>774.4</ele>
        <time>2021-10-14T10:38:29.000Z</time>
      </trkpt>
      <trkpt lat="43.00854" lon="0.9197">
        <ele>774.7</ele>
        <time>2021-10-14T10:38:30.000Z</time>
      </trkpt>
      <trkpt lat="43.00854" lon="0.91969">
        <ele>774.9</ele>
        <time>2021-10-14T10:38:31.000Z</time>
      </trkpt>
      <trkpt lat="43.00855" lon="0.91964">
        <ele>775.5</ele>
        <time>2021-10-14T10:38:33.000Z</time>
      </trkpt>
      <trkpt lat="43.00857" lon="0.91962">
        <ele>775.9</ele>
        <time>2021-10-14T10:38:35.000Z</time>
      </trkpt>
      <trkpt lat="43.00858" lon="0.91961">
        <ele>776.1</ele>
        <time>2021-10-14T10:38:36.000Z</time>
      </trkpt>
      <trkpt lat="43.00858" lon="0.9196">
        <ele>776.2</ele>
        <time>2021-10-14T10:38:37.000Z</time>
      </trkpt>
      <trkpt lat="43.00859" lon="0.91957">
        <ele>776.6</ele>
        <time>2021-10-14T10:38:39.000Z</time>
      </trkpt>
      <trkpt lat="43.00859" lon="0.91954">
        <ele>777</ele>
        <time>2021-10-14T10:38:40.000Z</time>
      </trkpt>
      <trkpt lat="43.0086" lon="0.91952">
        <ele>777.3</ele>
        <time>2021-10-14T10:38:42.000Z</time>
      </trkpt>
      <trkpt lat="43.0086" lon="0.91947">
        <ele>777.9</ele>
        <time>2021-10-14T10:38:44.000Z</time>
      </trkpt>
      <trkpt lat="43.0086" lon="0.91946">
        <ele>778</ele>
        <time>2021-10-14T10:38:45.000Z</time>
      </trkpt>
      <trkpt lat="43.0086" lon="0.91946">
        <ele>778.1</ele>
        <time>2021-10-14T10:38:46.000Z</time>
      </trkpt>
      <trkpt lat="43.00861" lon="0.91944">
        <ele>778.3</ele>
        <time>2021-10-14T10:38:47.000Z</time>
      </trkpt>
      <trkpt lat="43.00862" lon="0.91941">
        <ele>778.8</ele>
        <time>2021-10-14T10:38:49.000Z</time>
      </trkpt>
      <trkpt lat="43.00863" lon="0.91939">
        <ele>779.1</ele>
        <time>2021-10-14T10:38:50.000Z</time>
      </trkpt>
      <trkpt lat="43.00864" lon="0.91935">
        <ele>779.6</ele>
        <time>2021-10-14T10:38:52.000Z</time>
      </trkpt>
      <trkpt lat="43.00865" lon="0.9193">
        <ele>780.1</ele>
        <time>2021-10-14T10:38:54.000Z</time>
      </trkpt>
      <trkpt lat="43.00865" lon="0.91929">
        <ele>780.3</ele>
        <time>2021-10-14T10:38:55.000Z</time>
      </trkpt>
      <trkpt lat="43.00865" lon="0.91925">
        <ele>780.8</ele>
        <time>2021-10-14T10:38:57.000Z</time>
      </trkpt>
      <trkpt lat="43.00864" lon="0.91924">
        <ele>780.9</ele>
        <time>2021-10-14T10:38:58.000Z</time>
      </trkpt>
      <trkpt lat="43.00864" lon="0.91921">
        <ele>781.3</ele>
        <time>2021-10-14T10:39:00.000Z</time>
      </trkpt>
      <trkpt lat="43.00864" lon="0.91919">
        <ele>781.5</ele>
        <time>2021-10-14T10:39:01.000Z</time>
      </trkpt>
      <trkpt lat="43.00864" lon="0.91916">
        <ele>782</ele>
        <time>2021-10-14T10:39:03.000Z</time>
      </trkpt>
      <trkpt lat="43.00865" lon="0.91912">
        <ele>782.4</ele>
        <time>2021-10-14T10:39:05.000Z</time>
      </trkpt>
      <trkpt lat="43.00865" lon="0.9191">
        <ele>782.7</ele>
        <time>2021-10-14T10:39:06.000Z</time>
      </trkpt>
      <trkpt lat="43.00865" lon="0.91907">
        <ele>783.1</ele>
        <time>2021-10-14T10:39:08.000Z</time>
      </trkpt>
      <trkpt lat="43.00866" lon="0.91905">
        <ele>783.3</ele>
        <time>2021-10-14T10:39:09.000Z</time>
      </trkpt>
      <trkpt lat="43.00865" lon="0.91902">
        <ele>783.6</ele>
        <time>2021-10-14T10:39:10.000Z</time>
      </trkpt>
      <trkpt lat="43.00865" lon="0.91898">
        <ele>784.2</ele>
        <time>2021-10-14T10:39:12.000Z</time>
      </trkpt>
      <trkpt lat="43.00864" lon="0.91896">
        <ele>784.3</ele>
        <time>2021-10-14T10:39:13.000Z</time>
      </trkpt>
      <trkpt lat="43.00864" lon="0.91892">
        <ele>784.8</ele>
        <time>2021-10-14T10:39:15.000Z</time>
      </trkpt>
      <trkpt lat="43.00864" lon="0.9189">
        <ele>785</ele>
        <time>2021-10-14T10:39:16.000Z</time>
      </trkpt>
      <trkpt lat="43.00864" lon="0.91888">
        <ele>785.4</ele>
        <time>2021-10-14T10:39:17.000Z</time>
      </trkpt>
      <trkpt lat="43.00863" lon="0.91885">
        <ele>785.7</ele>
        <time>2021-10-14T10:39:19.000Z</time>
      </trkpt>
      <trkpt lat="43.00864" lon="0.91881">
        <ele>786.1</ele>
        <time>2021-10-14T10:39:21.000Z</time>
      </trkpt>
      <trkpt lat="43.00864" lon="0.91877">
        <ele>786.7</ele>
        <time>2021-10-14T10:39:22.000Z</time>
      </trkpt>
      <trkpt lat="43.00864" lon="0.91876">
        <ele>786.8</ele>
        <time>2021-10-14T10:39:23.000Z</time>
      </trkpt>
      <trkpt lat="43.00863" lon="0.91872">
        <ele>787.4</ele>
        <time>2021-10-14T10:39:25.000Z</time>
      </trkpt>
      <trkpt lat="43.00861" lon="0.91869">
        <ele>787.8</ele>
        <time>2021-10-14T10:39:26.000Z</time>
      </trkpt>
      <trkpt lat="43.00859" lon="0.91867">
        <ele>788.3</ele>
        <time>2021-10-14T10:39:28.000Z</time>
      </trkpt>
      <trkpt lat="43.00857" lon="0.91865">
        <ele>788.7</ele>
        <time>2021-10-14T10:39:29.000Z</time>
      </trkpt>
      <trkpt lat="43.00855" lon="0.91862">
        <ele>789.3</ele>
        <time>2021-10-14T10:39:31.000Z</time>
      </trkpt>
      <trkpt lat="43.00853" lon="0.91859">
        <ele>789.7</ele>
        <time>2021-10-14T10:39:32.000Z</time>
      </trkpt>
      <trkpt lat="43.00852" lon="0.91858">
        <ele>789.9</ele>
        <time>2021-10-14T10:39:33.000Z</time>
      </trkpt>
      <trkpt lat="43.00852" lon="0.91855">
        <ele>790.3</ele>
        <time>2021-10-14T10:39:35.000Z</time>
      </trkpt>
      <trkpt lat="43.0085" lon="0.9185">
        <ele>791.1</ele>
        <time>2021-10-14T10:39:37.000Z</time>
      </trkpt>
      <trkpt lat="43.00848" lon="0.91847">
        <ele>791.5</ele>
        <time>2021-10-14T10:39:38.000Z</time>
      </trkpt>
      <trkpt lat="43.00845" lon="0.91845">
        <ele>792.2</ele>
        <time>2021-10-14T10:39:40.000Z</time>
      </trkpt>
      <trkpt lat="43.00842" lon="0.91843">
        <ele>792.8</ele>
        <time>2021-10-14T10:39:42.000Z</time>
      </trkpt>
      <trkpt lat="43.0084" lon="0.91841">
        <ele>793.3</ele>
        <time>2021-10-14T10:39:43.000Z</time>
      </trkpt>
      <trkpt lat="43.00837" lon="0.91839">
        <ele>793.8</ele>
        <time>2021-10-14T10:39:45.000Z</time>
      </trkpt>
      <trkpt lat="43.00836" lon="0.91838">
        <ele>794</ele>
        <time>2021-10-14T10:39:46.000Z</time>
      </trkpt>
      <trkpt lat="43.00833" lon="0.91835">
        <ele>794.5</ele>
        <time>2021-10-14T10:39:48.000Z</time>
      </trkpt>
      <trkpt lat="43.00832" lon="0.91834">
        <ele>794.8</ele>
        <time>2021-10-14T10:39:49.000Z</time>
      </trkpt>
      <trkpt lat="43.00829" lon="0.91832">
        <ele>795.2</ele>
        <time>2021-10-14T10:39:51.000Z</time>
      </trkpt>
      <trkpt lat="43.00826" lon="0.91829">
        <ele>795.8</ele>
        <time>2021-10-14T10:39:53.000Z</time>
      </trkpt>
      <trkpt lat="43.00825" lon="0.91828">
        <ele>796</ele>
        <time>2021-10-14T10:39:54.000Z</time>
      </trkpt>
      <trkpt lat="43.00824" lon="0.91826">
        <ele>796.1</ele>
        <time>2021-10-14T10:39:55.000Z</time>
      </trkpt>
      <trkpt lat="43.00823" lon="0.91825">
        <ele>796.3</ele>
        <time>2021-10-14T10:39:56.000Z</time>
      </trkpt>
      <trkpt lat="43.00821" lon="0.91823">
        <ele>796.7</ele>
        <time>2021-10-14T10:39:58.000Z</time>
      </trkpt>
      <trkpt lat="43.00819" lon="0.91821">
        <ele>797</ele>
        <time>2021-10-14T10:39:59.000Z</time>
      </trkpt>
      <trkpt lat="43.00817" lon="0.91819">
        <ele>797.4</ele>
        <time>2021-10-14T10:40:01.000Z</time>
      </trkpt>
      <trkpt lat="43.00815" lon="0.91816">
        <ele>797.8</ele>
        <time>2021-10-14T10:40:03.000Z</time>
      </trkpt>
      <trkpt lat="43.00814" lon="0.91815">
        <ele>798</ele>
        <time>2021-10-14T10:40:04.000Z</time>
      </trkpt>
      <trkpt lat="43.00811" lon="0.91813">
        <ele>798.8</ele>
        <time>2021-10-14T10:40:06.000Z</time>
      </trkpt>
      <trkpt lat="43.00808" lon="0.91812">
        <ele>799</ele>
        <time>2021-10-14T10:40:08.000Z</time>
      </trkpt>
      <trkpt lat="43.00806" lon="0.91811">
        <ele>799.2</ele>
        <time>2021-10-14T10:40:09.000Z</time>
      </trkpt>
      <trkpt lat="43.00802" lon="0.91808">
        <ele>799.5</ele>
        <time>2021-10-14T10:40:11.000Z</time>
      </trkpt>
      <trkpt lat="43.00799" lon="0.91807">
        <ele>799.6</ele>
        <time>2021-10-14T10:40:13.000Z</time>
      </trkpt>
      <trkpt lat="43.00797" lon="0.91807">
        <ele>799.7</ele>
        <time>2021-10-14T10:40:14.000Z</time>
      </trkpt>
      <trkpt lat="43.00794" lon="0.91807">
        <ele>799.8</ele>
        <time>2021-10-14T10:40:16.000Z</time>
      </trkpt>
      <trkpt lat="43.00793" lon="0.91807">
        <ele>799.9</ele>
        <time>2021-10-14T10:40:17.000Z</time>
      </trkpt>
      <trkpt lat="43.0079" lon="0.91807">
        <ele>800</ele>
        <time>2021-10-14T10:40:19.000Z</time>
      </trkpt>
      <trkpt lat="43.00789" lon="0.91807">
        <ele>800.1</ele>
        <time>2021-10-14T10:40:20.000Z</time>
      </trkpt>
      <trkpt lat="43.00786" lon="0.91808">
        <ele>800.2</ele>
        <time>2021-10-14T10:40:22.000Z</time>
      </trkpt>
      <trkpt lat="43.00784" lon="0.91808">
        <ele>800.2</ele>
        <time>2021-10-14T10:40:24.000Z</time>
      </trkpt>
      <trkpt lat="43.00781" lon="0.91807">
        <ele>800.3</ele>
        <time>2021-10-14T10:40:25.000Z</time>
      </trkpt>
      <trkpt lat="43.00778" lon="0.91806">
        <ele>800.5</ele>
        <time>2021-10-14T10:40:27.000Z</time>
      </trkpt>
      <trkpt lat="43.00777" lon="0.91807">
        <ele>800.5</ele>
        <time>2021-10-14T10:40:28.000Z</time>
      </trkpt>
      <trkpt lat="43.00774" lon="0.91809">
        <ele>800.6</ele>
        <time>2021-10-14T10:40:30.000Z</time>
      </trkpt>
      <trkpt lat="43.00772" lon="0.91811">
        <ele>800.8</ele>
        <time>2021-10-14T10:40:32.000Z</time>
      </trkpt>
      <trkpt lat="43.00771" lon="0.91813">
        <ele>800.9</ele>
        <time>2021-10-14T10:40:33.000Z</time>
      </trkpt>
      <trkpt lat="43.0077" lon="0.91813">
        <ele>801</ele>
        <time>2021-10-14T10:40:34.000Z</time>
      </trkpt>
      <trkpt lat="43.00768" lon="0.91815">
        <ele>801.1</ele>
        <time>2021-10-14T10:40:35.000Z</time>
      </trkpt>
      <trkpt lat="43.00767" lon="0.91818">
        <ele>801.3</ele>
        <time>2021-10-14T10:40:37.000Z</time>
      </trkpt>
      <trkpt lat="43.00766" lon="0.9182">
        <ele>801.4</ele>
        <time>2021-10-14T10:40:38.000Z</time>
      </trkpt>
      <trkpt lat="43.00766" lon="0.91822">
        <ele>801.5</ele>
        <time>2021-10-14T10:40:39.000Z</time>
      </trkpt>
      <trkpt lat="43.00765" lon="0.91824">
        <ele>801.6</ele>
        <time>2021-10-14T10:40:40.000Z</time>
      </trkpt>
      <trkpt lat="43.00764" lon="0.91826">
        <ele>801.7</ele>
        <time>2021-10-14T10:40:42.000Z</time>
      </trkpt>
      <trkpt lat="43.00765" lon="0.91829">
        <ele>801.9</ele>
        <time>2021-10-14T10:40:43.000Z</time>
      </trkpt>
      <trkpt lat="43.00766" lon="0.9183">
        <ele>801.9</ele>
        <time>2021-10-14T10:40:44.000Z</time>
      </trkpt>
      <trkpt lat="43.00767" lon="0.91832">
        <ele>802.1</ele>
        <time>2021-10-14T10:40:46.000Z</time>
      </trkpt>
      <trkpt lat="43.00769" lon="0.91836">
        <ele>802.3</ele>
        <time>2021-10-14T10:40:48.000Z</time>
      </trkpt>
      <trkpt lat="43.00771" lon="0.91839">
        <ele>802.4</ele>
        <time>2021-10-14T10:40:49.000Z</time>
      </trkpt>
      <trkpt lat="43.00772" lon="0.91841">
        <ele>802.5</ele>
        <time>2021-10-14T10:40:51.000Z</time>
      </trkpt>
      <trkpt lat="43.00774" lon="0.91843">
        <ele>802.6</ele>
        <time>2021-10-14T10:40:53.000Z</time>
      </trkpt>
      <trkpt lat="43.00776" lon="0.91846">
        <ele>802.7</ele>
        <time>2021-10-14T10:40:55.000Z</time>
      </trkpt>
      <trkpt lat="43.00776" lon="0.91848">
        <ele>802.7</ele>
        <time>2021-10-14T10:40:56.000Z</time>
      </trkpt>
      <trkpt lat="43.00778" lon="0.91851">
        <ele>802.8</ele>
        <time>2021-10-14T10:40:58.000Z</time>
      </trkpt>
      <trkpt lat="43.00779" lon="0.91852">
        <ele>802.8</ele>
        <time>2021-10-14T10:40:59.000Z</time>
      </trkpt>
      <trkpt lat="43.00778" lon="0.91855">
        <ele>802.9</ele>
        <time>2021-10-14T10:41:00.000Z</time>
      </trkpt>
      <trkpt lat="43.00779" lon="0.91856">
        <ele>802.9</ele>
        <time>2021-10-14T10:41:02.000Z</time>
      </trkpt>
      <trkpt lat="43.00779" lon="0.91858">
        <ele>802.9</ele>
        <time>2021-10-14T10:41:03.000Z</time>
      </trkpt>
      <trkpt lat="43.00779" lon="0.9186">
        <ele>803</ele>
        <time>2021-10-14T10:41:04.000Z</time>
      </trkpt>
      <trkpt lat="43.00779" lon="0.91863">
        <ele>803</ele>
        <time>2021-10-14T10:41:06.000Z</time>
      </trkpt>
      <trkpt lat="43.0078" lon="0.91865">
        <ele>803</ele>
        <time>2021-10-14T10:41:07.000Z</time>
      </trkpt>
      <trkpt lat="43.0078" lon="0.91867">
        <ele>803</ele>
        <time>2021-10-14T10:41:08.000Z</time>
      </trkpt>
      <trkpt lat="43.0078" lon="0.91872">
        <ele>803.1</ele>
        <time>2021-10-14T10:41:10.000Z</time>
      </trkpt>
      <trkpt lat="43.00781" lon="0.91875">
        <ele>803.1</ele>
        <time>2021-10-14T10:41:11.000Z</time>
      </trkpt>
      <trkpt lat="43.0078" lon="0.91878">
        <ele>803.1</ele>
        <time>2021-10-14T10:41:13.000Z</time>
      </trkpt>
      <trkpt lat="43.00779" lon="0.91883">
        <ele>803.1</ele>
        <time>2021-10-14T10:41:14.000Z</time>
      </trkpt>
      <trkpt lat="43.00779" lon="0.91884">
        <ele>803.1</ele>
        <time>2021-10-14T10:41:15.000Z</time>
      </trkpt>
      <trkpt lat="43.00777" lon="0.91888">
        <ele>803.1</ele>
        <time>2021-10-14T10:41:17.000Z</time>
      </trkpt>
      <trkpt lat="43.00775" lon="0.9189">
        <ele>803.1</ele>
        <time>2021-10-14T10:41:18.000Z</time>
      </trkpt>
      <trkpt lat="43.00772" lon="0.91893">
        <ele>803</ele>
        <time>2021-10-14T10:41:20.000Z</time>
      </trkpt>
      <trkpt lat="43.0077" lon="0.91897">
        <ele>802.9</ele>
        <time>2021-10-14T10:41:22.000Z</time>
      </trkpt>
      <trkpt lat="43.00769" lon="0.91898">
        <ele>802.9</ele>
        <time>2021-10-14T10:41:23.000Z</time>
      </trkpt>
      <trkpt lat="43.00768" lon="0.91899">
        <ele>802.8</ele>
        <time>2021-10-14T10:41:24.000Z</time>
      </trkpt>
      <trkpt lat="43.00764" lon="0.91899">
        <ele>802.7</ele>
        <time>2021-10-14T10:41:26.000Z</time>
      </trkpt>
      <trkpt lat="43.0076" lon="0.91896">
        <ele>802.6</ele>
        <time>2021-10-14T10:41:28.000Z</time>
      </trkpt>
      <trkpt lat="43.00758" lon="0.91894">
        <ele>802.5</ele>
        <time>2021-10-14T10:41:29.000Z</time>
      </trkpt>
      <trkpt lat="43.00755" lon="0.91892">
        <ele>802.6</ele>
        <time>2021-10-14T10:41:30.000Z</time>
      </trkpt>
      <trkpt lat="43.00754" lon="0.91892">
        <ele>802.4</ele>
        <time>2021-10-14T10:41:31.000Z</time>
      </trkpt>
      <trkpt lat="43.0075" lon="0.91889">
        <ele>802.7</ele>
        <time>2021-10-14T10:41:33.000Z</time>
      </trkpt>
      <trkpt lat="43.00748" lon="0.91886">
        <ele>802.7</ele>
        <time>2021-10-14T10:41:34.000Z</time>
      </trkpt>
      <trkpt lat="43.00747" lon="0.91886">
        <ele>802.9</ele>
        <time>2021-10-14T10:41:35.000Z</time>
      </trkpt>
      <trkpt lat="43.00745" lon="0.91884">
        <ele>802.8</ele>
        <time>2021-10-14T10:41:37.000Z</time>
      </trkpt>
      <trkpt lat="43.00745" lon="0.91887">
        <ele>802.5</ele>
        <time>2021-10-14T10:41:39.000Z</time>
      </trkpt>
      <trkpt lat="43.00745" lon="0.91888">
        <ele>802.4</ele>
        <time>2021-10-14T10:41:40.000Z</time>
      </trkpt>
      <trkpt lat="43.00745" lon="0.91888">
        <ele>802.3</ele>
        <time>2021-10-14T10:41:41.000Z</time>
      </trkpt>
      <trkpt lat="43.00745" lon="0.91889">
        <ele>802.2</ele>
        <time>2021-10-14T10:41:43.000Z</time>
      </trkpt>
      <trkpt lat="43.00745" lon="0.91889">
        <ele>802.1</ele>
        <time>2021-10-14T10:41:44.000Z</time>
      </trkpt>
      <trkpt lat="43.00745" lon="0.91889">
        <ele>802</ele>
        <time>2021-10-14T10:41:45.000Z</time>
      </trkpt>
      <trkpt lat="43.00745" lon="0.91889">
        <ele>801.9</ele>
        <time>2021-10-14T10:41:46.000Z</time>
      </trkpt>
      <trkpt lat="43.00745" lon="0.91889">
        <ele>801.8</ele>
        <time>2021-10-14T10:41:48.000Z</time>
      </trkpt>
      <trkpt lat="43.00744" lon="0.91902">
        <ele>800.8</ele>
        <time>2021-10-14T10:45:17.000Z</time>
      </trkpt>
      <trkpt lat="43.00743" lon="0.91905">
        <ele>800.4</ele>
        <time>2021-10-14T10:45:18.000Z</time>
      </trkpt>
      <trkpt lat="43.00742" lon="0.91908">
        <ele>799.9</ele>
        <time>2021-10-14T10:45:20.000Z</time>
      </trkpt>
      <trkpt lat="43.00741" lon="0.91909">
        <ele>799.8</ele>
        <time>2021-10-14T10:45:22.000Z</time>
      </trkpt>
      <trkpt lat="43.0074" lon="0.91915">
        <ele>799.3</ele>
        <time>2021-10-14T10:45:24.000Z</time>
      </trkpt>
      <trkpt lat="43.0074" lon="0.91917">
        <ele>798.7</ele>
        <time>2021-10-14T10:45:25.000Z</time>
      </trkpt>
      <trkpt lat="43.00737" lon="0.91922">
        <ele>798.1</ele>
        <time>2021-10-14T10:45:27.000Z</time>
      </trkpt>
      <trkpt lat="43.00735" lon="0.91928">
        <ele>797.5</ele>
        <time>2021-10-14T10:45:29.000Z</time>
      </trkpt>
      <trkpt lat="43.00735" lon="0.91933">
        <ele>796.3</ele>
        <time>2021-10-14T10:45:30.000Z</time>
      </trkpt>
      <trkpt lat="43.00736" lon="0.91935">
        <ele>796.2</ele>
        <time>2021-10-14T10:45:31.000Z</time>
      </trkpt>
      <trkpt lat="43.00741" lon="0.91946">
        <ele>794.6</ele>
        <time>2021-10-14T10:45:33.000Z</time>
      </trkpt>
      <trkpt lat="43.00743" lon="0.91951">
        <ele>793</ele>
        <time>2021-10-14T10:45:34.000Z</time>
      </trkpt>
      <trkpt lat="43.00746" lon="0.91955">
        <ele>791.9</ele>
        <time>2021-10-14T10:45:35.000Z</time>
      </trkpt>
      <trkpt lat="43.00753" lon="0.91957">
        <ele>791.2</ele>
        <time>2021-10-14T10:45:37.000Z</time>
      </trkpt>
      <trkpt lat="43.00756" lon="0.91957">
        <ele>790.7</ele>
        <time>2021-10-14T10:45:38.000Z</time>
      </trkpt>
      <trkpt lat="43.0076" lon="0.91958">
        <ele>789.9</ele>
        <time>2021-10-14T10:45:39.000Z</time>
      </trkpt>
      <trkpt lat="43.00767" lon="0.91957">
        <ele>788.9</ele>
        <time>2021-10-14T10:45:40.000Z</time>
      </trkpt>
      <trkpt lat="43.00772" lon="0.91957">
        <ele>788.3</ele>
        <time>2021-10-14T10:45:41.000Z</time>
      </trkpt>
      <trkpt lat="43.00778" lon="0.91953">
        <ele>788.1</ele>
        <time>2021-10-14T10:45:42.000Z</time>
      </trkpt>
      <trkpt lat="43.00784" lon="0.91948">
        <ele>787.8</ele>
        <time>2021-10-14T10:45:44.000Z</time>
      </trkpt>
      <trkpt lat="43.00786" lon="0.91949">
        <ele>787.2</ele>
        <time>2021-10-14T10:45:45.000Z</time>
      </trkpt>
      <trkpt lat="43.00786" lon="0.91952">
        <ele>786.2</ele>
        <time>2021-10-14T10:45:46.000Z</time>
      </trkpt>
      <trkpt lat="43.00785" lon="0.91954">
        <ele>786.1</ele>
        <time>2021-10-14T10:45:47.000Z</time>
      </trkpt>
      <trkpt lat="43.00785" lon="0.91957">
        <ele>785.7</ele>
        <time>2021-10-14T10:45:49.000Z</time>
      </trkpt>
      <trkpt lat="43.00786" lon="0.91962">
        <ele>784.2</ele>
        <time>2021-10-14T10:45:50.000Z</time>
      </trkpt>
      <trkpt lat="43.00789" lon="0.91964">
        <ele>782.8</ele>
        <time>2021-10-14T10:45:51.000Z</time>
      </trkpt>
      <trkpt lat="43.00799" lon="0.91965">
        <ele>781.5</ele>
        <time>2021-10-14T10:45:53.000Z</time>
      </trkpt>
      <trkpt lat="43.00808" lon="0.91964">
        <ele>780.1</ele>
        <time>2021-10-14T10:45:54.000Z</time>
      </trkpt>
      <trkpt lat="43.00812" lon="0.91962">
        <ele>780.4</ele>
        <time>2021-10-14T10:45:55.000Z</time>
      </trkpt>
      <trkpt lat="43.00818" lon="0.91961">
        <ele>779.6</ele>
        <time>2021-10-14T10:45:57.000Z</time>
      </trkpt>
      <trkpt lat="43.00822" lon="0.91967">
        <ele>778.3</ele>
        <time>2021-10-14T10:45:59.000Z</time>
      </trkpt>
      <trkpt lat="43.00821" lon="0.9197">
        <ele>777.4</ele>
        <time>2021-10-14T10:46:00.000Z</time>
      </trkpt>
      <trkpt lat="43.0082" lon="0.91971">
        <ele>777.3</ele>
        <time>2021-10-14T10:46:01.000Z</time>
      </trkpt>
      <trkpt lat="43.00819" lon="0.91974">
        <ele>776.7</ele>
        <time>2021-10-14T10:46:02.000Z</time>
      </trkpt>
      <trkpt lat="43.00813" lon="0.91981">
        <ele>775.4</ele>
        <time>2021-10-14T10:46:04.000Z</time>
      </trkpt>
      <trkpt lat="43.00807" lon="0.91979">
        <ele>776.6</ele>
        <time>2021-10-14T10:46:05.000Z</time>
      </trkpt>
      <trkpt lat="43.00802" lon="0.91984">
        <ele>776.4</ele>
        <time>2021-10-14T10:46:07.000Z</time>
      </trkpt>
      <trkpt lat="43.00799" lon="0.91989">
        <ele>774.7</ele>
        <time>2021-10-14T10:46:08.000Z</time>
      </trkpt>
      <trkpt lat="43.00787" lon="0.92002">
        <ele>773.1</ele>
        <time>2021-10-14T10:46:10.000Z</time>
      </trkpt>
      <trkpt lat="43.00781" lon="0.92007">
        <ele>772.8</ele>
        <time>2021-10-14T10:46:11.000Z</time>
      </trkpt>
      <trkpt lat="43.00781" lon="0.92014">
        <ele>771.9</ele>
        <time>2021-10-14T10:46:13.000Z</time>
      </trkpt>
      <trkpt lat="43.00779" lon="0.92017">
        <ele>770.9</ele>
        <time>2021-10-14T10:46:14.000Z</time>
      </trkpt>
      <trkpt lat="43.00777" lon="0.9202">
        <ele>770.3</ele>
        <time>2021-10-14T10:46:15.000Z</time>
      </trkpt>
      <trkpt lat="43.00773" lon="0.92022">
        <ele>770.6</ele>
        <time>2021-10-14T10:46:17.000Z</time>
      </trkpt>
      <trkpt lat="43.0077" lon="0.92024">
        <ele>770</ele>
        <time>2021-10-14T10:46:19.000Z</time>
      </trkpt>
      <trkpt lat="43.0077" lon="0.92025">
        <ele>769.9</ele>
        <time>2021-10-14T10:46:20.000Z</time>
      </trkpt>
      <trkpt lat="43.00767" lon="0.92027">
        <ele>770.2</ele>
        <time>2021-10-14T10:46:21.000Z</time>
      </trkpt>
      <trkpt lat="43.00762" lon="0.92031">
        <ele>769.9</ele>
        <time>2021-10-14T10:46:23.000Z</time>
      </trkpt>
      <trkpt lat="43.00759" lon="0.92034">
        <ele>769.3</ele>
        <time>2021-10-14T10:46:24.000Z</time>
      </trkpt>
      <trkpt lat="43.00749" lon="0.92045">
        <ele>768.7</ele>
        <time>2021-10-14T10:46:26.000Z</time>
      </trkpt>
      <trkpt lat="43.00742" lon="0.92054">
        <ele>767.2</ele>
        <time>2021-10-14T10:46:27.000Z</time>
      </trkpt>
      <trkpt lat="43.00737" lon="0.9206">
        <ele>767</ele>
        <time>2021-10-14T10:46:29.000Z</time>
      </trkpt>
      <trkpt lat="43.00725" lon="0.92073">
        <ele>765.8</ele>
        <time>2021-10-14T10:46:31.000Z</time>
      </trkpt>
      <trkpt lat="43.00718" lon="0.92082">
        <ele>764.6</ele>
        <time>2021-10-14T10:46:33.000Z</time>
      </trkpt>
      <trkpt lat="43.00714" lon="0.92087">
        <ele>763.9</ele>
        <time>2021-10-14T10:46:35.000Z</time>
      </trkpt>
      <trkpt lat="43.00706" lon="0.92097">
        <ele>761.9</ele>
        <time>2021-10-14T10:46:36.000Z</time>
      </trkpt>
      <trkpt lat="43.00703" lon="0.921">
        <ele>761.6</ele>
        <time>2021-10-14T10:46:37.000Z</time>
      </trkpt>
      <trkpt lat="43.00699" lon="0.921">
        <ele>761.3</ele>
        <time>2021-10-14T10:46:38.000Z</time>
      </trkpt>
      <trkpt lat="43.00694" lon="0.92103">
        <ele>760.6</ele>
        <time>2021-10-14T10:46:40.000Z</time>
      </trkpt>
      <trkpt lat="43.00689" lon="0.92105">
        <ele>759.9</ele>
        <time>2021-10-14T10:46:41.000Z</time>
      </trkpt>
      <trkpt lat="43.00685" lon="0.92106">
        <ele>759</ele>
        <time>2021-10-14T10:46:42.000Z</time>
      </trkpt>
      <trkpt lat="43.00676" lon="0.92107">
        <ele>757.9</ele>
        <time>2021-10-14T10:46:44.000Z</time>
      </trkpt>
      <trkpt lat="43.00675" lon="0.92112">
        <ele>757.3</ele>
        <time>2021-10-14T10:46:46.000Z</time>
      </trkpt>
      <trkpt lat="43.00672" lon="0.92114">
        <ele>755.7</ele>
        <time>2021-10-14T10:46:47.000Z</time>
      </trkpt>
      <trkpt lat="43.00666" lon="0.92115">
        <ele>755</ele>
        <time>2021-10-14T10:46:49.000Z</time>
      </trkpt>
      <trkpt lat="43.00663" lon="0.92115">
        <ele>754.3</ele>
        <time>2021-10-14T10:46:50.000Z</time>
      </trkpt>
      <trkpt lat="43.00657" lon="0.92113">
        <ele>753.6</ele>
        <time>2021-10-14T10:46:51.000Z</time>
      </trkpt>
      <trkpt lat="43.00655" lon="0.92114">
        <ele>752.3</ele>
        <time>2021-10-14T10:46:52.000Z</time>
      </trkpt>
      <trkpt lat="43.00652" lon="0.92119">
        <ele>751</ele>
        <time>2021-10-14T10:46:54.000Z</time>
      </trkpt>
      <trkpt lat="43.00651" lon="0.92123">
        <ele>750.3</ele>
        <time>2021-10-14T10:46:55.000Z</time>
      </trkpt>
      <trkpt lat="43.00649" lon="0.92125">
        <ele>749.5</ele>
        <time>2021-10-14T10:46:56.000Z</time>
      </trkpt>
      <trkpt lat="43.00638" lon="0.92125">
        <ele>747</ele>
        <time>2021-10-14T10:46:58.000Z</time>
      </trkpt>
      <trkpt lat="43.00633" lon="0.92127">
        <ele>744.6</ele>
        <time>2021-10-14T10:47:00.000Z</time>
      </trkpt>
      <trkpt lat="43.00623" lon="0.92131">
        <ele>741.8</ele>
        <time>2021-10-14T10:47:01.000Z</time>
      </trkpt>
      <trkpt lat="43.00611" lon="0.92142">
        <ele>737.6</ele>
        <time>2021-10-14T10:47:03.000Z</time>
      </trkpt>
      <trkpt lat="43.00606" lon="0.92139">
        <ele>736.7</ele>
        <time>2021-10-14T10:47:05.000Z</time>
      </trkpt>
      <trkpt lat="43.00603" lon="0.9214">
        <ele>735.8</ele>
        <time>2021-10-14T10:47:06.000Z</time>
      </trkpt>
      <trkpt lat="43.00601" lon="0.92143">
        <ele>734.9</ele>
        <time>2021-10-14T10:47:07.000Z</time>
      </trkpt>
      <trkpt lat="43.00594" lon="0.92149">
        <ele>732.4</ele>
        <time>2021-10-14T10:47:09.000Z</time>
      </trkpt>
      <trkpt lat="43.00587" lon="0.92152">
        <ele>729.5</ele>
        <time>2021-10-14T10:47:10.000Z</time>
      </trkpt>
      <trkpt lat="43.00581" lon="0.9215">
        <ele>727.3</ele>
        <time>2021-10-14T10:47:12.000Z</time>
      </trkpt>
      <trkpt lat="43.00573" lon="0.92145">
        <ele>725.4</ele>
        <time>2021-10-14T10:47:13.000Z</time>
      </trkpt>
      <trkpt lat="43.0057" lon="0.92144">
        <ele>724.3</ele>
        <time>2021-10-14T10:47:14.000Z</time>
      </trkpt>
      <trkpt lat="43.00565" lon="0.9214">
        <ele>723.5</ele>
        <time>2021-10-14T10:47:16.000Z</time>
      </trkpt>
      <trkpt lat="43.00564" lon="0.92132">
        <ele>723.1</ele>
        <time>2021-10-14T10:47:17.000Z</time>
      </trkpt>
      <trkpt lat="43.00559" lon="0.92125">
        <ele>721.8</ele>
        <time>2021-10-14T10:47:18.000Z</time>
      </trkpt>
      <trkpt lat="43.00539" lon="0.92119">
        <ele>716</ele>
        <time>2021-10-14T10:47:20.000Z</time>
      </trkpt>
      <trkpt lat="43.0053" lon="0.92118">
        <ele>712.7</ele>
        <time>2021-10-14T10:47:21.000Z</time>
      </trkpt>
      <trkpt lat="43.00518" lon="0.92116">
        <ele>708</ele>
        <time>2021-10-14T10:47:23.000Z</time>
      </trkpt>
      <trkpt lat="43.00513" lon="0.92114">
        <ele>706.8</ele>
        <time>2021-10-14T10:47:24.000Z</time>
      </trkpt>
      <trkpt lat="43.0051" lon="0.92113">
        <ele>705.7</ele>
        <time>2021-10-14T10:47:25.000Z</time>
      </trkpt>
      <trkpt lat="43.00507" lon="0.92112">
        <ele>704.5</ele>
        <time>2021-10-14T10:47:27.000Z</time>
      </trkpt>
      <trkpt lat="43.00505" lon="0.92111">
        <ele>703.2</ele>
        <time>2021-10-14T10:47:28.000Z</time>
      </trkpt>
      <trkpt lat="43.00502" lon="0.92109">
        <ele>703.1</ele>
        <time>2021-10-14T10:47:29.000Z</time>
      </trkpt>
      <trkpt lat="43.00498" lon="0.9211">
        <ele>700.4</ele>
        <time>2021-10-14T10:47:31.000Z</time>
      </trkpt>
      <trkpt lat="43.00494" lon="0.92108">
        <ele>699.2</ele>
        <time>2021-10-14T10:47:32.000Z</time>
      </trkpt>
      <trkpt lat="43.00492" lon="0.92106">
        <ele>698</ele>
        <time>2021-10-14T10:47:33.000Z</time>
      </trkpt>
      <trkpt lat="43.00482" lon="0.92108">
        <ele>694.7</ele>
        <time>2021-10-14T10:47:35.000Z</time>
      </trkpt>
      <trkpt lat="43.00479" lon="0.92114">
        <ele>693.4</ele>
        <time>2021-10-14T10:47:36.000Z</time>
      </trkpt>
      <trkpt lat="43.00477" lon="0.92131">
        <ele>692.3</ele>
        <time>2021-10-14T10:47:38.000Z</time>
      </trkpt>
      <trkpt lat="43.00477" lon="0.92144">
        <ele>692.4</ele>
        <time>2021-10-14T10:47:40.000Z</time>
      </trkpt>
      <trkpt lat="43.0048" lon="0.92145">
        <ele>693.4</ele>
        <time>2021-10-14T10:47:42.000Z</time>
      </trkpt>
      <trkpt lat="43.00469" lon="0.92145">
        <ele>690</ele>
        <time>2021-10-14T10:47:44.000Z</time>
      </trkpt>
      <trkpt lat="43.00464" lon="0.92142">
        <ele>687.1</ele>
        <time>2021-10-14T10:47:45.000Z</time>
      </trkpt>
      <trkpt lat="43.00461" lon="0.92139">
        <ele>687.3</ele>
        <time>2021-10-14T10:47:46.000Z</time>
      </trkpt>
      <trkpt lat="43.00464" lon="0.92135">
        <ele>687.5</ele>
        <time>2021-10-14T10:47:48.000Z</time>
      </trkpt>
      <trkpt lat="43.00462" lon="0.9213">
        <ele>687.7</ele>
        <time>2021-10-14T10:47:49.000Z</time>
      </trkpt>
      <trkpt lat="43.00454" lon="0.92124">
        <ele>688.1</ele>
        <time>2021-10-14T10:47:51.000Z</time>
      </trkpt>
      <trkpt lat="43.0045" lon="0.92123">
        <ele>688.4</ele>
        <time>2021-10-14T10:47:52.000Z</time>
      </trkpt>
      <trkpt lat="43.00443" lon="0.92117">
        <ele>688.9</ele>
        <time>2021-10-14T10:47:54.000Z</time>
      </trkpt>
      <trkpt lat="43.00443" lon="0.92117">
        <ele>688.9</ele>
        <time>2021-10-14T10:47:55.000Z</time>
      </trkpt>
      <trkpt lat="43.00444" lon="0.92118">
        <ele>689</ele>
        <time>2021-10-14T10:47:57.000Z</time>
      </trkpt>
      <trkpt lat="43.00446" lon="0.92119">
        <ele>689.2</ele>
        <time>2021-10-14T10:47:58.000Z</time>
      </trkpt>
      <trkpt lat="43.00448" lon="0.9212">
        <ele>689.3</ele>
        <time>2021-10-14T10:47:59.000Z</time>
      </trkpt>
      <trkpt lat="43.00449" lon="0.92121">
        <ele>689.5</ele>
        <time>2021-10-14T10:48:01.000Z</time>
      </trkpt>
      <trkpt lat="43.0045" lon="0.92121">
        <ele>689.5</ele>
        <time>2021-10-14T10:48:03.000Z</time>
      </trkpt>
      <trkpt lat="43.0045" lon="0.92121">
        <ele>689.6</ele>
        <time>2021-10-14T10:48:04.000Z</time>
      </trkpt>
      <trkpt lat="43.00451" lon="0.92121">
        <ele>689.6</ele>
        <time>2021-10-14T10:48:06.000Z</time>
      </trkpt>
      <trkpt lat="43.00454" lon="0.92117">
        <ele>689.9</ele>
        <time>2021-10-14T10:48:14.000Z</time>
      </trkpt>
      <trkpt lat="43.00455" lon="0.92117">
        <ele>690</ele>
        <time>2021-10-14T10:48:16.000Z</time>
      </trkpt>
      <trkpt lat="43.00455" lon="0.92117">
        <ele>690</ele>
        <time>2021-10-14T10:48:18.000Z</time>
      </trkpt>
      <trkpt lat="43.00455" lon="0.92117">
        <ele>690</ele>
        <time>2021-10-14T10:48:20.000Z</time>
      </trkpt>
      <trkpt lat="43.00455" lon="0.92117">
        <ele>690</ele>
        <time>2021-10-14T10:48:21.000Z</time>
      </trkpt>
      <trkpt lat="43.00455" lon="0.92117">
        <ele>690</ele>
        <time>2021-10-14T10:48:22.000Z</time>
      </trkpt>
      <trkpt lat="43.00455" lon="0.92117">
        <ele>690</ele>
        <time>2021-10-14T10:48:24.000Z</time>
      </trkpt>
      <trkpt lat="43.00455" lon="0.92117">
        <ele>690</ele>
        <time>2021-10-14T10:48:25.000Z</time>
      </trkpt>
      <trkpt lat="43.00455" lon="0.92117">
        <ele>690</ele>
        <time>2021-10-14T10:48:27.000Z</time>
      </trkpt>
      <trkpt lat="43.00454" lon="0.92122">
        <ele>690.3</ele>
        <time>2021-10-14T10:48:40.000Z</time>
      </trkpt>
      <trkpt lat="43.00456" lon="0.92125">
        <ele>690.5</ele>
        <time>2021-10-14T10:48:41.000Z</time>
      </trkpt>
      <trkpt lat="43.00458" lon="0.92128">
        <ele>690.8</ele>
        <time>2021-10-14T10:48:43.000Z</time>
      </trkpt>
      <trkpt lat="43.00458" lon="0.9213">
        <ele>690.9</ele>
        <time>2021-10-14T10:48:44.000Z</time>
      </trkpt>
      <trkpt lat="43.00458" lon="0.92136">
        <ele>691.2</ele>
        <time>2021-10-14T10:48:46.000Z</time>
      </trkpt>
      <trkpt lat="43.00458" lon="0.92138">
        <ele>691.3</ele>
        <time>2021-10-14T10:48:47.000Z</time>
      </trkpt>
      <trkpt lat="43.00457" lon="0.92146">
        <ele>691.7</ele>
        <time>2021-10-14T10:48:49.000Z</time>
      </trkpt>
      <trkpt lat="43.00458" lon="0.92152">
        <ele>692</ele>
        <time>2021-10-14T10:48:51.000Z</time>
      </trkpt>
      <trkpt lat="43.00458" lon="0.92154">
        <ele>692.1</ele>
        <time>2021-10-14T10:48:52.000Z</time>
      </trkpt>
      <trkpt lat="43.00459" lon="0.92156">
        <ele>692.1</ele>
        <time>2021-10-14T10:48:53.000Z</time>
      </trkpt>
      <trkpt lat="43.00459" lon="0.92158">
        <ele>692.2</ele>
        <time>2021-10-14T10:48:54.000Z</time>
      </trkpt>
      <trkpt lat="43.0046" lon="0.92163">
        <ele>692.4</ele>
        <time>2021-10-14T10:48:56.000Z</time>
      </trkpt>
      <trkpt lat="43.00462" lon="0.92166">
        <ele>692.5</ele>
        <time>2021-10-14T10:48:57.000Z</time>
      </trkpt>
      <trkpt lat="43.00463" lon="0.92167">
        <ele>692.6</ele>
        <time>2021-10-14T10:48:58.000Z</time>
      </trkpt>
      <trkpt lat="43.00465" lon="0.92173">
        <ele>692.8</ele>
        <time>2021-10-14T10:49:00.000Z</time>
      </trkpt>
      <trkpt lat="43.00466" lon="0.92176">
        <ele>692.9</ele>
        <time>2021-10-14T10:49:01.000Z</time>
      </trkpt>
      <trkpt lat="43.00467" lon="0.92181">
        <ele>693.1</ele>
        <time>2021-10-14T10:49:03.000Z</time>
      </trkpt>
      <trkpt lat="43.00467" lon="0.92183">
        <ele>693.1</ele>
        <time>2021-10-14T10:49:04.000Z</time>
      </trkpt>
      <trkpt lat="43.00467" lon="0.92189">
        <ele>693.3</ele>
        <time>2021-10-14T10:49:06.000Z</time>
      </trkpt>
      <trkpt lat="43.00467" lon="0.92194">
        <ele>693.5</ele>
        <time>2021-10-14T10:49:07.000Z</time>
      </trkpt>
      <trkpt lat="43.00467" lon="0.92195">
        <ele>693.5</ele>
        <time>2021-10-14T10:49:08.000Z</time>
      </trkpt>
      <trkpt lat="43.00468" lon="0.92201">
        <ele>693.7</ele>
        <time>2021-10-14T10:49:10.000Z</time>
      </trkpt>
      <trkpt lat="43.0047" lon="0.92205">
        <ele>693.9</ele>
        <time>2021-10-14T10:49:12.000Z</time>
      </trkpt>
      <trkpt lat="43.00471" lon="0.92208">
        <ele>694</ele>
        <time>2021-10-14T10:49:13.000Z</time>
      </trkpt>
      <trkpt lat="43.00473" lon="0.92213">
        <ele>694.2</ele>
        <time>2021-10-14T10:49:15.000Z</time>
      </trkpt>
      <trkpt lat="43.00473" lon="0.92216">
        <ele>694.3</ele>
        <time>2021-10-14T10:49:16.000Z</time>
      </trkpt>
      <trkpt lat="43.00474" lon="0.92222">
        <ele>694.5</ele>
        <time>2021-10-14T10:49:18.000Z</time>
      </trkpt>
      <trkpt lat="43.00474" lon="0.92226">
        <ele>694.6</ele>
        <time>2021-10-14T10:49:19.000Z</time>
      </trkpt>
      <trkpt lat="43.00474" lon="0.92227">
        <ele>694.7</ele>
        <time>2021-10-14T10:49:20.000Z</time>
      </trkpt>
      <trkpt lat="43.00475" lon="0.92233">
        <ele>694.8</ele>
        <time>2021-10-14T10:49:22.000Z</time>
      </trkpt>
      <trkpt lat="43.00475" lon="0.92235">
        <ele>694.9</ele>
        <time>2021-10-14T10:49:23.000Z</time>
      </trkpt>
      <trkpt lat="43.00476" lon="0.92242">
        <ele>695.1</ele>
        <time>2021-10-14T10:49:25.000Z</time>
      </trkpt>
      <trkpt lat="43.00476" lon="0.92247">
        <ele>695.2</ele>
        <time>2021-10-14T10:49:27.000Z</time>
      </trkpt>
      <trkpt lat="43.00477" lon="0.92252">
        <ele>695.3</ele>
        <time>2021-10-14T10:49:29.000Z</time>
      </trkpt>
      <trkpt lat="43.00478" lon="0.92259">
        <ele>695.5</ele>
        <time>2021-10-14T10:49:31.000Z</time>
      </trkpt>
      <trkpt lat="43.00478" lon="0.92264">
        <ele>695.6</ele>
        <time>2021-10-14T10:49:33.000Z</time>
      </trkpt>
      <trkpt lat="43.00477" lon="0.92268">
        <ele>695.7</ele>
        <time>2021-10-14T10:49:34.000Z</time>
      </trkpt>
      <trkpt lat="43.00477" lon="0.92275">
        <ele>695.8</ele>
        <time>2021-10-14T10:49:36.000Z</time>
      </trkpt>
      <trkpt lat="43.00477" lon="0.92278">
        <ele>695.9</ele>
        <time>2021-10-14T10:49:37.000Z</time>
      </trkpt>
      <trkpt lat="43.00477" lon="0.92283">
        <ele>695.9</ele>
        <time>2021-10-14T10:49:39.000Z</time>
      </trkpt>
      <trkpt lat="43.00477" lon="0.92288">
        <ele>696</ele>
        <time>2021-10-14T10:49:41.000Z</time>
      </trkpt>
      <trkpt lat="43.00478" lon="0.92291">
        <ele>696</ele>
        <time>2021-10-14T10:49:42.000Z</time>
      </trkpt>
      <trkpt lat="43.00479" lon="0.92295">
        <ele>696.1</ele>
        <time>2021-10-14T10:49:43.000Z</time>
      </trkpt>
      <trkpt lat="43.0048" lon="0.92299">
        <ele>696.1</ele>
        <time>2021-10-14T10:49:44.000Z</time>
      </trkpt>
      <trkpt lat="43.0048" lon="0.92304">
        <ele>696.2</ele>
        <time>2021-10-14T10:49:46.000Z</time>
      </trkpt>
      <trkpt lat="43.00481" lon="0.92309">
        <ele>696.2</ele>
        <time>2021-10-14T10:49:47.000Z</time>
      </trkpt>
      <trkpt lat="43.00481" lon="0.92315">
        <ele>696.3</ele>
        <time>2021-10-14T10:49:49.000Z</time>
      </trkpt>
      <trkpt lat="43.00482" lon="0.9232">
        <ele>696.4</ele>
        <time>2021-10-14T10:49:50.000Z</time>
      </trkpt>
      <trkpt lat="43.00482" lon="0.92324">
        <ele>696.5</ele>
        <time>2021-10-14T10:49:51.000Z</time>
      </trkpt>
      <trkpt lat="43.00482" lon="0.92331">
        <ele>696.6</ele>
        <time>2021-10-14T10:49:53.000Z</time>
      </trkpt>
      <trkpt lat="43.00483" lon="0.92338">
        <ele>696.8</ele>
        <time>2021-10-14T10:49:55.000Z</time>
      </trkpt>
      <trkpt lat="43.00483" lon="0.92342">
        <ele>696.9</ele>
        <time>2021-10-14T10:49:56.000Z</time>
      </trkpt>
      <trkpt lat="43.00483" lon="0.92346">
        <ele>697</ele>
        <time>2021-10-14T10:49:57.000Z</time>
      </trkpt>
      <trkpt lat="43.00482" lon="0.92351">
        <ele>697.1</ele>
        <time>2021-10-14T10:49:59.000Z</time>
      </trkpt>
      <trkpt lat="43.00482" lon="0.92356">
        <ele>697.2</ele>
        <time>2021-10-14T10:50:00.000Z</time>
      </trkpt>
      <trkpt lat="43.00481" lon="0.92362">
        <ele>697.3</ele>
        <time>2021-10-14T10:50:02.000Z</time>
      </trkpt>
      <trkpt lat="43.00481" lon="0.92367">
        <ele>697.4</ele>
        <time>2021-10-14T10:50:03.000Z</time>
      </trkpt>
      <trkpt lat="43.0048" lon="0.92374">
        <ele>697.5</ele>
        <time>2021-10-14T10:50:05.000Z</time>
      </trkpt>
      <trkpt lat="43.00481" lon="0.92379">
        <ele>697.6</ele>
        <time>2021-10-14T10:50:06.000Z</time>
      </trkpt>
      <trkpt lat="43.00482" lon="0.92385">
        <ele>697.7</ele>
        <time>2021-10-14T10:50:08.000Z</time>
      </trkpt>
      <trkpt lat="43.00483" lon="0.9239">
        <ele>697.8</ele>
        <time>2021-10-14T10:50:10.000Z</time>
      </trkpt>
      <trkpt lat="43.00483" lon="0.92395">
        <ele>697.9</ele>
        <time>2021-10-14T10:50:11.000Z</time>
      </trkpt>
      <trkpt lat="43.00483" lon="0.92396">
        <ele>697.9</ele>
        <time>2021-10-14T10:50:12.000Z</time>
      </trkpt>
      <trkpt lat="43.00484" lon="0.92401">
        <ele>697.9</ele>
        <time>2021-10-14T10:50:14.000Z</time>
      </trkpt>
      <trkpt lat="43.00484" lon="0.92403">
        <ele>697.9</ele>
        <time>2021-10-14T10:50:15.000Z</time>
      </trkpt>
      <trkpt lat="43.00485" lon="0.92406">
        <ele>698</ele>
        <time>2021-10-14T10:50:16.000Z</time>
      </trkpt>
      <trkpt lat="43.00486" lon="0.92411">
        <ele>698</ele>
        <time>2021-10-14T10:50:17.000Z</time>
      </trkpt>
      <trkpt lat="43.00487" lon="0.92413">
        <ele>698</ele>
        <time>2021-10-14T10:50:18.000Z</time>
      </trkpt>
      <trkpt lat="43.00488" lon="0.92419">
        <ele>698</ele>
        <time>2021-10-14T10:50:20.000Z</time>
      </trkpt>
      <trkpt lat="43.00489" lon="0.92423">
        <ele>698</ele>
        <time>2021-10-14T10:50:21.000Z</time>
      </trkpt>
      <trkpt lat="43.0049" lon="0.92428">
        <ele>697.9</ele>
        <time>2021-10-14T10:50:22.000Z</time>
      </trkpt>
      <trkpt lat="43.0049" lon="0.9243">
        <ele>697.9</ele>
        <time>2021-10-14T10:50:23.000Z</time>
      </trkpt>
      <trkpt lat="43.00491" lon="0.92438">
        <ele>697.8</ele>
        <time>2021-10-14T10:50:25.000Z</time>
      </trkpt>
      <trkpt lat="43.0049" lon="0.92444">
        <ele>697.7</ele>
        <time>2021-10-14T10:50:26.000Z</time>
      </trkpt>
      <trkpt lat="43.00489" lon="0.92449">
        <ele>697.5</ele>
        <time>2021-10-14T10:50:27.000Z</time>
      </trkpt>
      <trkpt lat="43.00488" lon="0.92455">
        <ele>697.4</ele>
        <time>2021-10-14T10:50:29.000Z</time>
      </trkpt>
      <trkpt lat="43.00487" lon="0.92461">
        <ele>697.2</ele>
        <time>2021-10-14T10:50:30.000Z</time>
      </trkpt>
      <trkpt lat="43.00486" lon="0.92466">
        <ele>697</ele>
        <time>2021-10-14T10:50:31.000Z</time>
      </trkpt>
      <trkpt lat="43.00485" lon="0.92474">
        <ele>696.7</ele>
        <time>2021-10-14T10:50:32.000Z</time>
      </trkpt>
      <trkpt lat="43.00484" lon="0.9248">
        <ele>696.5</ele>
        <time>2021-10-14T10:50:33.000Z</time>
      </trkpt>
      <trkpt lat="43.00483" lon="0.92489">
        <ele>696.2</ele>
        <time>2021-10-14T10:50:35.000Z</time>
      </trkpt>
      <trkpt lat="43.00479" lon="0.92502">
        <ele>695.7</ele>
        <time>2021-10-14T10:50:36.000Z</time>
      </trkpt>
      <trkpt lat="43.00476" lon="0.92515">
        <ele>695.3</ele>
        <time>2021-10-14T10:50:38.000Z</time>
      </trkpt>
      <trkpt lat="43.00472" lon="0.92526">
        <ele>695</ele>
        <time>2021-10-14T10:50:40.000Z</time>
      </trkpt>
      <trkpt lat="43.0047" lon="0.92532">
        <ele>694.8</ele>
        <time>2021-10-14T10:50:41.000Z</time>
      </trkpt>
      <trkpt lat="43.00468" lon="0.92538">
        <ele>694.6</ele>
        <time>2021-10-14T10:50:42.000Z</time>
      </trkpt>
      <trkpt lat="43.00461" lon="0.9255">
        <ele>694.3</ele>
        <time>2021-10-14T10:50:44.000Z</time>
      </trkpt>
      <trkpt lat="43.00457" lon="0.92559">
        <ele>694</ele>
        <time>2021-10-14T10:50:46.000Z</time>
      </trkpt>
      <trkpt lat="43.00454" lon="0.92565">
        <ele>693.8</ele>
        <time>2021-10-14T10:50:47.000Z</time>
      </trkpt>
      <trkpt lat="43.00447" lon="0.92578">
        <ele>693.6</ele>
        <time>2021-10-14T10:50:49.000Z</time>
      </trkpt>
      <trkpt lat="43.00442" lon="0.92586">
        <ele>693.6</ele>
        <time>2021-10-14T10:50:51.000Z</time>
      </trkpt>
      <trkpt lat="43.0044" lon="0.92591">
        <ele>693.6</ele>
        <time>2021-10-14T10:50:52.000Z</time>
      </trkpt>
      <trkpt lat="43.00439" lon="0.92596">
        <ele>693.6</ele>
        <time>2021-10-14T10:50:53.000Z</time>
      </trkpt>
      <trkpt lat="43.00437" lon="0.92601">
        <ele>693.7</ele>
        <time>2021-10-14T10:50:54.000Z</time>
      </trkpt>
      <trkpt lat="43.00435" lon="0.92605">
        <ele>693.8</ele>
        <time>2021-10-14T10:50:55.000Z</time>
      </trkpt>
      <trkpt lat="43.00432" lon="0.92608">
        <ele>693.8</ele>
        <time>2021-10-14T10:50:57.000Z</time>
      </trkpt>
      <trkpt lat="43.0043" lon="0.92612">
        <ele>693.9</ele>
        <time>2021-10-14T10:50:59.000Z</time>
      </trkpt>
      <trkpt lat="43.00429" lon="0.92615">
        <ele>694</ele>
        <time>2021-10-14T10:51:00.000Z</time>
      </trkpt>
      <trkpt lat="43.00427" lon="0.92619">
        <ele>694.1</ele>
        <time>2021-10-14T10:51:02.000Z</time>
      </trkpt>
      <trkpt lat="43.00425" lon="0.92623">
        <ele>694.2</ele>
        <time>2021-10-14T10:51:03.000Z</time>
      </trkpt>
      <trkpt lat="43.00426" lon="0.92629">
        <ele>694.3</ele>
        <time>2021-10-14T10:51:05.000Z</time>
      </trkpt>
      <trkpt lat="43.00427" lon="0.92632">
        <ele>695</ele>
        <time>2021-10-14T10:51:06.000Z</time>
      </trkpt>
      <trkpt lat="43.00429" lon="0.92633">
        <ele>695.3</ele>
        <time>2021-10-14T10:51:08.000Z</time>
      </trkpt>
      <trkpt lat="43.00431" lon="0.92633">
        <ele>695.5</ele>
        <time>2021-10-14T10:51:09.000Z</time>
      </trkpt>
      <trkpt lat="43.00432" lon="0.92633">
        <ele>695.7</ele>
        <time>2021-10-14T10:51:10.000Z</time>
      </trkpt>
      <trkpt lat="43.00435" lon="0.92634">
        <ele>696.2</ele>
        <time>2021-10-14T10:51:12.000Z</time>
      </trkpt>
      <trkpt lat="43.00436" lon="0.92634">
        <ele>696.4</ele>
        <time>2021-10-14T10:51:13.000Z</time>
      </trkpt>
      <trkpt lat="43.00439" lon="0.92633">
        <ele>696.9</ele>
        <time>2021-10-14T10:51:15.000Z</time>
      </trkpt>
      <trkpt lat="43.00441" lon="0.92632">
        <ele>697.3</ele>
        <time>2021-10-14T10:51:17.000Z</time>
      </trkpt>
      <trkpt lat="43.00442" lon="0.92632">
        <ele>697.5</ele>
        <time>2021-10-14T10:51:18.000Z</time>
      </trkpt>
      <trkpt lat="43.00446" lon="0.9263">
        <ele>698.2</ele>
        <time>2021-10-14T10:51:20.000Z</time>
      </trkpt>
      <trkpt lat="43.00447" lon="0.9263">
        <ele>698.4</ele>
        <time>2021-10-14T10:51:21.000Z</time>
      </trkpt>
      <trkpt lat="43.0045" lon="0.92629">
        <ele>699</ele>
        <time>2021-10-14T10:51:23.000Z</time>
      </trkpt>
      <trkpt lat="43.00453" lon="0.92628">
        <ele>699.5</ele>
        <time>2021-10-14T10:51:25.000Z</time>
      </trkpt>
      <trkpt lat="43.00454" lon="0.92627">
        <ele>699.8</ele>
        <time>2021-10-14T10:51:26.000Z</time>
      </trkpt>
      <trkpt lat="43.00455" lon="0.92626">
        <ele>700.1</ele>
        <time>2021-10-14T10:51:27.000Z</time>
      </trkpt>
      <trkpt lat="43.00457" lon="0.92624">
        <ele>700.5</ele>
        <time>2021-10-14T10:51:28.000Z</time>
      </trkpt>
      <trkpt lat="43.0046" lon="0.92618">
        <ele>701.2</ele>
        <time>2021-10-14T10:51:30.000Z</time>
      </trkpt>
      <trkpt lat="43.00461" lon="0.92617">
        <ele>701.5</ele>
        <time>2021-10-14T10:51:31.000Z</time>
      </trkpt>
      <trkpt lat="43.00463" lon="0.92614">
        <ele>702</ele>
        <time>2021-10-14T10:51:33.000Z</time>
      </trkpt>
      <trkpt lat="43.00465" lon="0.92611">
        <ele>702.4</ele>
        <time>2021-10-14T10:51:35.000Z</time>
      </trkpt>
      <trkpt lat="43.00467" lon="0.92609">
        <ele>702.7</ele>
        <time>2021-10-14T10:51:37.000Z</time>
      </trkpt>
      <trkpt lat="43.00468" lon="0.92606">
        <ele>703.1</ele>
        <time>2021-10-14T10:51:39.000Z</time>
      </trkpt>
      <trkpt lat="43.00471" lon="0.92604">
        <ele>703.5</ele>
        <time>2021-10-14T10:51:41.000Z</time>
      </trkpt>
      <trkpt lat="43.00472" lon="0.92601">
        <ele>703.9</ele>
        <time>2021-10-14T10:51:42.000Z</time>
      </trkpt>
      <trkpt lat="43.00474" lon="0.92599">
        <ele>704.2</ele>
        <time>2021-10-14T10:51:44.000Z</time>
      </trkpt>
      <trkpt lat="43.00475" lon="0.92597">
        <ele>704.5</ele>
        <time>2021-10-14T10:51:45.000Z</time>
      </trkpt>
      <trkpt lat="43.00476" lon="0.92596">
        <ele>704.6</ele>
        <time>2021-10-14T10:51:46.000Z</time>
      </trkpt>
      <trkpt lat="43.00477" lon="0.92596">
        <ele>704.8</ele>
        <time>2021-10-14T10:51:48.000Z</time>
      </trkpt>
      <trkpt lat="43.00479" lon="0.92595">
        <ele>705.1</ele>
        <time>2021-10-14T10:51:49.000Z</time>
      </trkpt>
      <trkpt lat="43.00481" lon="0.92594">
        <ele>705.4</ele>
        <time>2021-10-14T10:51:50.000Z</time>
      </trkpt>
      <trkpt lat="43.00483" lon="0.92593">
        <ele>705.7</ele>
        <time>2021-10-14T10:51:52.000Z</time>
      </trkpt>
      <trkpt lat="43.00484" lon="0.92592">
        <ele>706</ele>
        <time>2021-10-14T10:51:53.000Z</time>
      </trkpt>
      <trkpt lat="43.00487" lon="0.92591">
        <ele>706.5</ele>
        <time>2021-10-14T10:51:55.000Z</time>
      </trkpt>
      <trkpt lat="43.0049" lon="0.92589">
        <ele>707</ele>
        <time>2021-10-14T10:51:56.000Z</time>
      </trkpt>
      <trkpt lat="43.0049" lon="0.92588">
        <ele>707.1</ele>
        <time>2021-10-14T10:51:57.000Z</time>
      </trkpt>
      <trkpt lat="43.00491" lon="0.92586">
        <ele>707.4</ele>
        <time>2021-10-14T10:51:59.000Z</time>
      </trkpt>
      <trkpt lat="43.00492" lon="0.92584">
        <ele>707.7</ele>
        <time>2021-10-14T10:52:00.000Z</time>
      </trkpt>
      <trkpt lat="43.00492" lon="0.92582">
        <ele>708</ele>
        <time>2021-10-14T10:52:01.000Z</time>
      </trkpt>
      <trkpt lat="43.00493" lon="0.9258">
        <ele>708.3</ele>
        <time>2021-10-14T10:52:03.000Z</time>
      </trkpt>
      <trkpt lat="43.00495" lon="0.92578">
        <ele>708.8</ele>
        <time>2021-10-14T10:52:04.000Z</time>
      </trkpt>
      <trkpt lat="43.00497" lon="0.92575">
        <ele>709.2</ele>
        <time>2021-10-14T10:52:06.000Z</time>
      </trkpt>
      <trkpt lat="43.00498" lon="0.92573">
        <ele>709.5</ele>
        <time>2021-10-14T10:52:07.000Z</time>
      </trkpt>
      <trkpt lat="43.00499" lon="0.92569">
        <ele>710.1</ele>
        <time>2021-10-14T10:52:09.000Z</time>
      </trkpt>
      <trkpt lat="43.00501" lon="0.92565">
        <ele>710.7</ele>
        <time>2021-10-14T10:52:11.000Z</time>
      </trkpt>
      <trkpt lat="43.00501" lon="0.92564">
        <ele>710.9</ele>
        <time>2021-10-14T10:52:12.000Z</time>
      </trkpt>
      <trkpt lat="43.00502" lon="0.92562">
        <ele>711.1</ele>
        <time>2021-10-14T10:52:13.000Z</time>
      </trkpt>
      <trkpt lat="43.00503" lon="0.92561">
        <ele>711.4</ele>
        <time>2021-10-14T10:52:14.000Z</time>
      </trkpt>
      <trkpt lat="43.00504" lon="0.92557">
        <ele>711.9</ele>
        <time>2021-10-14T10:52:16.000Z</time>
      </trkpt>
      <trkpt lat="43.00505" lon="0.92556">
        <ele>712.1</ele>
        <time>2021-10-14T10:52:17.000Z</time>
      </trkpt>
      <trkpt lat="43.00507" lon="0.92553">
        <ele>712.6</ele>
        <time>2021-10-14T10:52:18.000Z</time>
      </trkpt>
      <trkpt lat="43.00508" lon="0.92552">
        <ele>712.9</ele>
        <time>2021-10-14T10:52:20.000Z</time>
      </trkpt>
      <trkpt lat="43.00508" lon="0.9255">
        <ele>713.1</ele>
        <time>2021-10-14T10:52:21.000Z</time>
      </trkpt>
      <trkpt lat="43.00509" lon="0.92549">
        <ele>713.4</ele>
        <time>2021-10-14T10:52:22.000Z</time>
      </trkpt>
      <trkpt lat="43.0051" lon="0.92547">
        <ele>713.7</ele>
        <time>2021-10-14T10:52:23.000Z</time>
      </trkpt>
      <trkpt lat="43.00512" lon="0.92544">
        <ele>714.2</ele>
        <time>2021-10-14T10:52:25.000Z</time>
      </trkpt>
      <trkpt lat="43.00514" lon="0.92541">
        <ele>714.6</ele>
        <time>2021-10-14T10:52:26.000Z</time>
      </trkpt>
      <trkpt lat="43.00514" lon="0.9254">
        <ele>714.8</ele>
        <time>2021-10-14T10:52:27.000Z</time>
      </trkpt>
      <trkpt lat="43.00515" lon="0.92539">
        <ele>715</ele>
        <time>2021-10-14T10:52:28.000Z</time>
      </trkpt>
      <trkpt lat="43.00516" lon="0.92537">
        <ele>715.3</ele>
        <time>2021-10-14T10:52:29.000Z</time>
      </trkpt>
      <trkpt lat="43.00517" lon="0.92533">
        <ele>715.8</ele>
        <time>2021-10-14T10:52:31.000Z</time>
      </trkpt>
      <trkpt lat="43.00518" lon="0.92532">
        <ele>716</ele>
        <time>2021-10-14T10:52:32.000Z</time>
      </trkpt>
      <trkpt lat="43.00519" lon="0.92527">
        <ele>716.7</ele>
        <time>2021-10-14T10:52:34.000Z</time>
      </trkpt>
      <trkpt lat="43.00519" lon="0.92526">
        <ele>716.9</ele>
        <time>2021-10-14T10:52:35.000Z</time>
      </trkpt>
      <trkpt lat="43.0052" lon="0.92522">
        <ele>717.3</ele>
        <time>2021-10-14T10:52:37.000Z</time>
      </trkpt>
      <trkpt lat="43.00521" lon="0.92519">
        <ele>717.8</ele>
        <time>2021-10-14T10:52:39.000Z</time>
      </trkpt>
      <trkpt lat="43.00522" lon="0.92518">
        <ele>717.9</ele>
        <time>2021-10-14T10:52:40.000Z</time>
      </trkpt>
      <trkpt lat="43.00522" lon="0.92518">
        <ele>718.1</ele>
        <time>2021-10-14T10:52:41.000Z</time>
      </trkpt>
      <trkpt lat="43.00523" lon="0.92517">
        <ele>718.3</ele>
        <time>2021-10-14T10:52:42.000Z</time>
      </trkpt>
      <trkpt lat="43.00525" lon="0.92515">
        <ele>718.7</ele>
        <time>2021-10-14T10:52:44.000Z</time>
      </trkpt>
      <trkpt lat="43.00525" lon="0.92513">
        <ele>718.9</ele>
        <time>2021-10-14T10:52:45.000Z</time>
      </trkpt>
      <trkpt lat="43.00526" lon="0.92509">
        <ele>719.4</ele>
        <time>2021-10-14T10:52:47.000Z</time>
      </trkpt>
      <trkpt lat="43.00527" lon="0.92508">
        <ele>719.6</ele>
        <time>2021-10-14T10:52:48.000Z</time>
      </trkpt>
      <trkpt lat="43.00528" lon="0.92504">
        <ele>720.1</ele>
        <time>2021-10-14T10:52:50.000Z</time>
      </trkpt>
      <trkpt lat="43.00529" lon="0.92502">
        <ele>720.5</ele>
        <time>2021-10-14T10:52:51.000Z</time>
      </trkpt>
      <trkpt lat="43.00532" lon="0.92499">
        <ele>721</ele>
        <time>2021-10-14T10:52:53.000Z</time>
      </trkpt>
      <trkpt lat="43.00534" lon="0.92496">
        <ele>721.6</ele>
        <time>2021-10-14T10:52:55.000Z</time>
      </trkpt>
      <trkpt lat="43.00535" lon="0.92494">
        <ele>721.8</ele>
        <time>2021-10-14T10:52:56.000Z</time>
      </trkpt>
      <trkpt lat="43.00538" lon="0.9249">
        <ele>722.5</ele>
        <time>2021-10-14T10:52:58.000Z</time>
      </trkpt>
      <trkpt lat="43.00539" lon="0.92487">
        <ele>722.9</ele>
        <time>2021-10-14T10:52:59.000Z</time>
      </trkpt>
      <trkpt lat="43.0054" lon="0.92483">
        <ele>723.3</ele>
        <time>2021-10-14T10:53:01.000Z</time>
      </trkpt>
      <trkpt lat="43.0054" lon="0.92481">
        <ele>723.6</ele>
        <time>2021-10-14T10:53:02.000Z</time>
      </trkpt>
      <trkpt lat="43.0054" lon="0.9248">
        <ele>723.7</ele>
        <time>2021-10-14T10:53:03.000Z</time>
      </trkpt>
      <trkpt lat="43.0054" lon="0.92477">
        <ele>724.1</ele>
        <time>2021-10-14T10:53:05.000Z</time>
      </trkpt>
      <trkpt lat="43.00541" lon="0.92475">
        <ele>724.3</ele>
        <time>2021-10-14T10:53:06.000Z</time>
      </trkpt>
      <trkpt lat="43.00542" lon="0.92473">
        <ele>724.6</ele>
        <time>2021-10-14T10:53:08.000Z</time>
      </trkpt>
      <trkpt lat="43.00542" lon="0.92471">
        <ele>724.8</ele>
        <time>2021-10-14T10:53:10.000Z</time>
      </trkpt>
      <trkpt lat="43.00542" lon="0.92471">
        <ele>724.9</ele>
        <time>2021-10-14T10:53:11.000Z</time>
      </trkpt>
      <trkpt lat="43.00542" lon="0.92471">
        <ele>724.9</ele>
        <time>2021-10-14T10:53:12.000Z</time>
      </trkpt>
      <trkpt lat="43.00542" lon="0.92472">
        <ele>725</ele>
        <time>2021-10-14T10:53:14.000Z</time>
      </trkpt>
      <trkpt lat="43.00542" lon="0.92472">
        <ele>725.1</ele>
        <time>2021-10-14T10:53:15.000Z</time>
      </trkpt>
      <trkpt lat="43.00543" lon="0.92471">
        <ele>725.3</ele>
        <time>2021-10-14T10:53:16.000Z</time>
      </trkpt>
      <trkpt lat="43.00545" lon="0.92468">
        <ele>725.7</ele>
        <time>2021-10-14T10:53:18.000Z</time>
      </trkpt>
      <trkpt lat="43.00546" lon="0.92466">
        <ele>725.9</ele>
        <time>2021-10-14T10:53:19.000Z</time>
      </trkpt>
      <trkpt lat="43.00546" lon="0.92463">
        <ele>726.2</ele>
        <time>2021-10-14T10:53:20.000Z</time>
      </trkpt>
      <trkpt lat="43.00547" lon="0.92459">
        <ele>726.7</ele>
        <time>2021-10-14T10:53:22.000Z</time>
      </trkpt>
      <trkpt lat="43.00548" lon="0.92457">
        <ele>726.9</ele>
        <time>2021-10-14T10:53:23.000Z</time>
      </trkpt>
      <trkpt lat="43.00549" lon="0.92453">
        <ele>727.4</ele>
        <time>2021-10-14T10:53:25.000Z</time>
      </trkpt>
      <trkpt lat="43.0055" lon="0.9245">
        <ele>727.7</ele>
        <time>2021-10-14T10:53:26.000Z</time>
      </trkpt>
      <trkpt lat="43.00552" lon="0.92447">
        <ele>728</ele>
        <time>2021-10-14T10:53:28.000Z</time>
      </trkpt>
      <trkpt lat="43.00553" lon="0.92444">
        <ele>728.4</ele>
        <time>2021-10-14T10:53:29.000Z</time>
      </trkpt>
      <trkpt lat="43.00556" lon="0.92438">
        <ele>728.9</ele>
        <time>2021-10-14T10:53:31.000Z</time>
      </trkpt>
      <trkpt lat="43.00558" lon="0.92434">
        <ele>729.4</ele>
        <time>2021-10-14T10:53:33.000Z</time>
      </trkpt>
      <trkpt lat="43.0056" lon="0.9243">
        <ele>729.9</ele>
        <time>2021-10-14T10:53:35.000Z</time>
      </trkpt>
      <trkpt lat="43.00562" lon="0.92428">
        <ele>730.2</ele>
        <time>2021-10-14T10:53:36.000Z</time>
      </trkpt>
      <trkpt lat="43.00563" lon="0.92427">
        <ele>730.3</ele>
        <time>2021-10-14T10:53:37.000Z</time>
      </trkpt>
      <trkpt lat="43.00566" lon="0.92423">
        <ele>730.8</ele>
        <time>2021-10-14T10:53:39.000Z</time>
      </trkpt>
      <trkpt lat="43.00569" lon="0.9242">
        <ele>731.2</ele>
        <time>2021-10-14T10:53:41.000Z</time>
      </trkpt>
      <trkpt lat="43.00571" lon="0.92418">
        <ele>731.5</ele>
        <time>2021-10-14T10:53:42.000Z</time>
      </trkpt>
      <trkpt lat="43.00573" lon="0.92417">
        <ele>731.7</ele>
        <time>2021-10-14T10:53:44.000Z</time>
      </trkpt>
      <trkpt lat="43.00576" lon="0.92415">
        <ele>732.1</ele>
        <time>2021-10-14T10:53:46.000Z</time>
      </trkpt>
      <trkpt lat="43.00577" lon="0.92414">
        <ele>732.2</ele>
        <time>2021-10-14T10:53:47.000Z</time>
      </trkpt>
      <trkpt lat="43.00578" lon="0.92413">
        <ele>732.4</ele>
        <time>2021-10-14T10:53:48.000Z</time>
      </trkpt>
      <trkpt lat="43.00581" lon="0.9241">
        <ele>732.7</ele>
        <time>2021-10-14T10:53:50.000Z</time>
      </trkpt>
      <trkpt lat="43.00584" lon="0.92406">
        <ele>733.2</ele>
        <time>2021-10-14T10:53:52.000Z</time>
      </trkpt>
      <trkpt lat="43.00585" lon="0.92405">
        <ele>733.3</ele>
        <time>2021-10-14T10:53:53.000Z</time>
      </trkpt>
      <trkpt lat="43.00586" lon="0.92404">
        <ele>733.5</ele>
        <time>2021-10-14T10:53:54.000Z</time>
      </trkpt>
      <trkpt lat="43.00588" lon="0.924">
        <ele>733.9</ele>
        <time>2021-10-14T10:53:56.000Z</time>
      </trkpt>
      <trkpt lat="43.0059" lon="0.92396">
        <ele>734.3</ele>
        <time>2021-10-14T10:53:57.000Z</time>
      </trkpt>
      <trkpt lat="43.0059" lon="0.92395">
        <ele>734.4</ele>
        <time>2021-10-14T10:53:58.000Z</time>
      </trkpt>
      <trkpt lat="43.00591" lon="0.92394">
        <ele>734.6</ele>
        <time>2021-10-14T10:53:59.000Z</time>
      </trkpt>
      <trkpt lat="43.00592" lon="0.9239">
        <ele>734.9</ele>
        <time>2021-10-14T10:54:01.000Z</time>
      </trkpt>
      <trkpt lat="43.00592" lon="0.92387">
        <ele>735.1</ele>
        <time>2021-10-14T10:54:02.000Z</time>
      </trkpt>
      <trkpt lat="43.00592" lon="0.92383">
        <ele>735.5</ele>
        <time>2021-10-14T10:54:04.000Z</time>
      </trkpt>
      <trkpt lat="43.00592" lon="0.92381">
        <ele>735.7</ele>
        <time>2021-10-14T10:54:05.000Z</time>
      </trkpt>
      <trkpt lat="43.00593" lon="0.92376">
        <ele>736.1</ele>
        <time>2021-10-14T10:54:07.000Z</time>
      </trkpt>
      <trkpt lat="43.00594" lon="0.92372">
        <ele>736.5</ele>
        <time>2021-10-14T10:54:08.000Z</time>
      </trkpt>
      <trkpt lat="43.00595" lon="0.92371">
        <ele>736.6</ele>
        <time>2021-10-14T10:54:09.000Z</time>
      </trkpt>
      <trkpt lat="43.00595" lon="0.9237">
        <ele>736.8</ele>
        <time>2021-10-14T10:54:10.000Z</time>
      </trkpt>
      <trkpt lat="43.00597" lon="0.92367">
        <ele>737.2</ele>
        <time>2021-10-14T10:54:12.000Z</time>
      </trkpt>
      <trkpt lat="43.00598" lon="0.92365">
        <ele>737.4</ele>
        <time>2021-10-14T10:54:13.000Z</time>
      </trkpt>
      <trkpt lat="43.00598" lon="0.92364">
        <ele>737.5</ele>
        <time>2021-10-14T10:54:14.000Z</time>
      </trkpt>
      <trkpt lat="43.006" lon="0.92361">
        <ele>737.9</ele>
        <time>2021-10-14T10:54:16.000Z</time>
      </trkpt>
      <trkpt lat="43.00601" lon="0.92359">
        <ele>738.2</ele>
        <time>2021-10-14T10:54:18.000Z</time>
      </trkpt>
      <trkpt lat="43.00603" lon="0.92356">
        <ele>738.6</ele>
        <time>2021-10-14T10:54:20.000Z</time>
      </trkpt>
      <trkpt lat="43.00606" lon="0.92353">
        <ele>739</ele>
        <time>2021-10-14T10:54:21.000Z</time>
      </trkpt>
      <trkpt lat="43.00606" lon="0.92352">
        <ele>739.2</ele>
        <time>2021-10-14T10:54:22.000Z</time>
      </trkpt>
      <trkpt lat="43.00608" lon="0.92349">
        <ele>739.5</ele>
        <time>2021-10-14T10:54:24.000Z</time>
      </trkpt>
      <trkpt lat="43.00609" lon="0.92346">
        <ele>739.8</ele>
        <time>2021-10-14T10:54:26.000Z</time>
      </trkpt>
      <trkpt lat="43.00609" lon="0.92341">
        <ele>740.2</ele>
        <time>2021-10-14T10:54:27.000Z</time>
      </trkpt>
      <trkpt lat="43.00609" lon="0.9234">
        <ele>740.3</ele>
        <time>2021-10-14T10:54:28.000Z</time>
      </trkpt>
      <trkpt lat="43.0061" lon="0.92336">
        <ele>740.7</ele>
        <time>2021-10-14T10:54:30.000Z</time>
      </trkpt>
      <trkpt lat="43.00611" lon="0.92332">
        <ele>741.1</ele>
        <time>2021-10-14T10:54:32.000Z</time>
      </trkpt>
      <trkpt lat="43.00613" lon="0.92327">
        <ele>741.5</ele>
        <time>2021-10-14T10:54:34.000Z</time>
      </trkpt>
      <trkpt lat="43.00613" lon="0.92326">
        <ele>741.6</ele>
        <time>2021-10-14T10:54:35.000Z</time>
      </trkpt>
      <trkpt lat="43.00615" lon="0.92324">
        <ele>741.8</ele>
        <time>2021-10-14T10:54:36.000Z</time>
      </trkpt>
      <trkpt lat="43.00615" lon="0.92321">
        <ele>742.1</ele>
        <time>2021-10-14T10:54:38.000Z</time>
      </trkpt>
      <trkpt lat="43.00614" lon="0.92316">
        <ele>742.5</ele>
        <time>2021-10-14T10:54:40.000Z</time>
      </trkpt>
      <trkpt lat="43.00614" lon="0.92312">
        <ele>742.8</ele>
        <time>2021-10-14T10:54:41.000Z</time>
      </trkpt>
      <trkpt lat="43.00614" lon="0.92308">
        <ele>743.1</ele>
        <time>2021-10-14T10:54:42.000Z</time>
      </trkpt>
      <trkpt lat="43.00614" lon="0.92304">
        <ele>743.3</ele>
        <time>2021-10-14T10:54:44.000Z</time>
      </trkpt>
      <trkpt lat="43.00615" lon="0.92302">
        <ele>743.5</ele>
        <time>2021-10-14T10:54:45.000Z</time>
      </trkpt>
      <trkpt lat="43.00617" lon="0.92298">
        <ele>743.8</ele>
        <time>2021-10-14T10:54:47.000Z</time>
      </trkpt>
      <trkpt lat="43.00618" lon="0.92294">
        <ele>744</ele>
        <time>2021-10-14T10:54:49.000Z</time>
      </trkpt>
      <trkpt lat="43.0062" lon="0.92291">
        <ele>744.2</ele>
        <time>2021-10-14T10:54:50.000Z</time>
      </trkpt>
      <trkpt lat="43.00621" lon="0.92287">
        <ele>744.4</ele>
        <time>2021-10-14T10:54:51.000Z</time>
      </trkpt>
      <trkpt lat="43.00622" lon="0.92286">
        <ele>744.5</ele>
        <time>2021-10-14T10:54:52.000Z</time>
      </trkpt>
      <trkpt lat="43.00624" lon="0.92282">
        <ele>744.8</ele>
        <time>2021-10-14T10:54:54.000Z</time>
      </trkpt>
      <trkpt lat="43.00625" lon="0.9228">
        <ele>744.9</ele>
        <time>2021-10-14T10:54:55.000Z</time>
      </trkpt>
      <trkpt lat="43.00627" lon="0.92275">
        <ele>745.2</ele>
        <time>2021-10-14T10:54:57.000Z</time>
      </trkpt>
      <trkpt lat="43.00628" lon="0.92274">
        <ele>745.3</ele>
        <time>2021-10-14T10:54:58.000Z</time>
      </trkpt>
      <trkpt lat="43.00629" lon="0.92272">
        <ele>745.4</ele>
        <time>2021-10-14T10:54:59.000Z</time>
      </trkpt>
      <trkpt lat="43.00632" lon="0.92269">
        <ele>745.6</ele>
        <time>2021-10-14T10:55:01.000Z</time>
      </trkpt>
      <trkpt lat="43.00635" lon="0.92265">
        <ele>745.8</ele>
        <time>2021-10-14T10:55:02.000Z</time>
      </trkpt>
      <trkpt lat="43.00635" lon="0.92264">
        <ele>745.9</ele>
        <time>2021-10-14T10:55:03.000Z</time>
      </trkpt>
      <trkpt lat="43.00637" lon="0.9226">
        <ele>746.1</ele>
        <time>2021-10-14T10:55:05.000Z</time>
      </trkpt>
      <trkpt lat="43.00639" lon="0.92258">
        <ele>746.2</ele>
        <time>2021-10-14T10:55:06.000Z</time>
      </trkpt>
      <trkpt lat="43.00641" lon="0.92253">
        <ele>746.4</ele>
        <time>2021-10-14T10:55:08.000Z</time>
      </trkpt>
      <trkpt lat="43.00644" lon="0.92249">
        <ele>746.6</ele>
        <time>2021-10-14T10:55:10.000Z</time>
      </trkpt>
      <trkpt lat="43.00645" lon="0.92248">
        <ele>746.7</ele>
        <time>2021-10-14T10:55:11.000Z</time>
      </trkpt>
      <trkpt lat="43.00646" lon="0.92246">
        <ele>746.7</ele>
        <time>2021-10-14T10:55:12.000Z</time>
      </trkpt>
      <trkpt lat="43.00648" lon="0.92245">
        <ele>746.8</ele>
        <time>2021-10-14T10:55:13.000Z</time>
      </trkpt>
      <trkpt lat="43.00651" lon="0.92242">
        <ele>747</ele>
        <time>2021-10-14T10:55:15.000Z</time>
      </trkpt>
      <trkpt lat="43.00653" lon="0.9224">
        <ele>747.2</ele>
        <time>2021-10-14T10:55:16.000Z</time>
      </trkpt>
      <trkpt lat="43.00656" lon="0.92237">
        <ele>747.3</ele>
        <time>2021-10-14T10:55:17.000Z</time>
      </trkpt>
      <trkpt lat="43.00657" lon="0.92236">
        <ele>747.4</ele>
        <time>2021-10-14T10:55:18.000Z</time>
      </trkpt>
      <trkpt lat="43.0066" lon="0.92231">
        <ele>747.7</ele>
        <time>2021-10-14T10:55:20.000Z</time>
      </trkpt>
      <trkpt lat="43.00663" lon="0.92227">
        <ele>748</ele>
        <time>2021-10-14T10:55:22.000Z</time>
      </trkpt>
      <trkpt lat="43.00667" lon="0.92223">
        <ele>748.3</ele>
        <time>2021-10-14T10:55:23.000Z</time>
      </trkpt>
      <trkpt lat="43.00669" lon="0.92221">
        <ele>748.5</ele>
        <time>2021-10-14T10:55:24.000Z</time>
      </trkpt>
      <trkpt lat="43.00672" lon="0.92218">
        <ele>748.7</ele>
        <time>2021-10-14T10:55:26.000Z</time>
      </trkpt>
      <trkpt lat="43.00673" lon="0.92217">
        <ele>748.8</ele>
        <time>2021-10-14T10:55:27.000Z</time>
      </trkpt>
      <trkpt lat="43.00677" lon="0.92213">
        <ele>749</ele>
        <time>2021-10-14T10:55:29.000Z</time>
      </trkpt>
      <trkpt lat="43.0068" lon="0.92211">
        <ele>749.2</ele>
        <time>2021-10-14T10:55:30.000Z</time>
      </trkpt>
      <trkpt lat="43.00681" lon="0.9221">
        <ele>749.3</ele>
        <time>2021-10-14T10:55:31.000Z</time>
      </trkpt>
      <trkpt lat="43.00684" lon="0.92208">
        <ele>749.4</ele>
        <time>2021-10-14T10:55:33.000Z</time>
      </trkpt>
      <trkpt lat="43.00685" lon="0.92207">
        <ele>749.5</ele>
        <time>2021-10-14T10:55:34.000Z</time>
      </trkpt>
      <trkpt lat="43.00687" lon="0.92204">
        <ele>749.6</ele>
        <time>2021-10-14T10:55:35.000Z</time>
      </trkpt>
      <trkpt lat="43.0069" lon="0.922">
        <ele>749.8</ele>
        <time>2021-10-14T10:55:37.000Z</time>
      </trkpt>
      <trkpt lat="43.00692" lon="0.92197">
        <ele>750</ele>
        <time>2021-10-14T10:55:38.000Z</time>
      </trkpt>
      <trkpt lat="43.00692" lon="0.92196">
        <ele>750.1</ele>
        <time>2021-10-14T10:55:39.000Z</time>
      </trkpt>
      <trkpt lat="43.00695" lon="0.92194">
        <ele>750.2</ele>
        <time>2021-10-14T10:55:41.000Z</time>
      </trkpt>
      <trkpt lat="43.00698" lon="0.92192">
        <ele>750.4</ele>
        <time>2021-10-14T10:55:42.000Z</time>
      </trkpt>
      <trkpt lat="43.007" lon="0.9219">
        <ele>750.6</ele>
        <time>2021-10-14T10:55:43.000Z</time>
      </trkpt>
      <trkpt lat="43.00704" lon="0.92188">
        <ele>750.8</ele>
        <time>2021-10-14T10:55:45.000Z</time>
      </trkpt>
      <trkpt lat="43.00707" lon="0.92185">
        <ele>751</ele>
        <time>2021-10-14T10:55:46.000Z</time>
      </trkpt>
      <trkpt lat="43.0071" lon="0.92184">
        <ele>751.2</ele>
        <time>2021-10-14T10:55:48.000Z</time>
      </trkpt>
      <trkpt lat="43.00714" lon="0.92183">
        <ele>751.4</ele>
        <time>2021-10-14T10:55:50.000Z</time>
      </trkpt>
      <trkpt lat="43.00717" lon="0.92182">
        <ele>751.5</ele>
        <time>2021-10-14T10:55:51.000Z</time>
      </trkpt>
      <trkpt lat="43.00721" lon="0.9218">
        <ele>751.7</ele>
        <time>2021-10-14T10:55:52.000Z</time>
      </trkpt>
      <trkpt lat="43.00722" lon="0.92179">
        <ele>751.8</ele>
        <time>2021-10-14T10:55:53.000Z</time>
      </trkpt>
      <trkpt lat="43.00725" lon="0.92179">
        <ele>751.9</ele>
        <time>2021-10-14T10:55:55.000Z</time>
      </trkpt>
      <trkpt lat="43.00728" lon="0.92177">
        <ele>752</ele>
        <time>2021-10-14T10:55:56.000Z</time>
      </trkpt>
      <trkpt lat="43.00731" lon="0.92175">
        <ele>752.1</ele>
        <time>2021-10-14T10:55:57.000Z</time>
      </trkpt>
      <trkpt lat="43.00735" lon="0.92174">
        <ele>752.3</ele>
        <time>2021-10-14T10:55:59.000Z</time>
      </trkpt>
      <trkpt lat="43.00738" lon="0.92173">
        <ele>752.4</ele>
        <time>2021-10-14T10:56:00.000Z</time>
      </trkpt>
      <trkpt lat="43.00743" lon="0.92171">
        <ele>752.5</ele>
        <time>2021-10-14T10:56:02.000Z</time>
      </trkpt>
      <trkpt lat="43.00746" lon="0.9217">
        <ele>752.6</ele>
        <time>2021-10-14T10:56:04.000Z</time>
      </trkpt>
      <trkpt lat="43.00749" lon="0.92168">
        <ele>752.7</ele>
        <time>2021-10-14T10:56:05.000Z</time>
      </trkpt>
      <trkpt lat="43.00752" lon="0.92167">
        <ele>752.8</ele>
        <time>2021-10-14T10:56:06.000Z</time>
      </trkpt>
      <trkpt lat="43.00753" lon="0.92167">
        <ele>752.9</ele>
        <time>2021-10-14T10:56:07.000Z</time>
      </trkpt>
      <trkpt lat="43.00757" lon="0.92166">
        <ele>753</ele>
        <time>2021-10-14T10:56:08.000Z</time>
      </trkpt>
      <trkpt lat="43.0076" lon="0.92165">
        <ele>753.1</ele>
        <time>2021-10-14T10:56:10.000Z</time>
      </trkpt>
      <trkpt lat="43.00761" lon="0.92164">
        <ele>753.2</ele>
        <time>2021-10-14T10:56:11.000Z</time>
      </trkpt>
      <trkpt lat="43.00763" lon="0.92163">
        <ele>753.3</ele>
        <time>2021-10-14T10:56:12.000Z</time>
      </trkpt>
      <trkpt lat="43.00766" lon="0.92161">
        <ele>753.4</ele>
        <time>2021-10-14T10:56:14.000Z</time>
      </trkpt>
      <trkpt lat="43.00768" lon="0.92161">
        <ele>753.5</ele>
        <time>2021-10-14T10:56:15.000Z</time>
      </trkpt>
      <trkpt lat="43.00769" lon="0.92161">
        <ele>753.5</ele>
        <time>2021-10-14T10:56:16.000Z</time>
      </trkpt>
      <trkpt lat="43.00773" lon="0.9216">
        <ele>753.8</ele>
        <time>2021-10-14T10:56:18.000Z</time>
      </trkpt>
      <trkpt lat="43.00774" lon="0.9216">
        <ele>753.9</ele>
        <time>2021-10-14T10:56:19.000Z</time>
      </trkpt>
      <trkpt lat="43.00777" lon="0.92158">
        <ele>754</ele>
        <time>2021-10-14T10:56:21.000Z</time>
      </trkpt>
      <trkpt lat="43.00779" lon="0.92159">
        <ele>754.2</ele>
        <time>2021-10-14T10:56:22.000Z</time>
      </trkpt>
      <trkpt lat="43.00781" lon="0.92159">
        <ele>754.3</ele>
        <time>2021-10-14T10:56:24.000Z</time>
      </trkpt>
      <trkpt lat="43.00784" lon="0.9216">
        <ele>754.5</ele>
        <time>2021-10-14T10:56:25.000Z</time>
      </trkpt>
      <trkpt lat="43.00788" lon="0.92157">
        <ele>754.9</ele>
        <time>2021-10-14T10:56:27.000Z</time>
      </trkpt>
      <trkpt lat="43.0079" lon="0.92157">
        <ele>755.1</ele>
        <time>2021-10-14T10:56:29.000Z</time>
      </trkpt>
      <trkpt lat="43.00791" lon="0.92156">
        <ele>755.2</ele>
        <time>2021-10-14T10:56:30.000Z</time>
      </trkpt>
      <trkpt lat="43.00794" lon="0.92155">
        <ele>755.5</ele>
        <time>2021-10-14T10:56:31.000Z</time>
      </trkpt>
      <trkpt lat="43.00797" lon="0.92154">
        <ele>755.9</ele>
        <time>2021-10-14T10:56:33.000Z</time>
      </trkpt>
      <trkpt lat="43.008" lon="0.92154">
        <ele>756.2</ele>
        <time>2021-10-14T10:56:34.000Z</time>
      </trkpt>
      <trkpt lat="43.00803" lon="0.92153">
        <ele>756.5</ele>
        <time>2021-10-14T10:56:35.000Z</time>
      </trkpt>
      <trkpt lat="43.00808" lon="0.92152">
        <ele>757.2</ele>
        <time>2021-10-14T10:56:37.000Z</time>
      </trkpt>
      <trkpt lat="43.00812" lon="0.92149">
        <ele>757.7</ele>
        <time>2021-10-14T10:56:39.000Z</time>
      </trkpt>
      <trkpt lat="43.00815" lon="0.92147">
        <ele>758.2</ele>
        <time>2021-10-14T10:56:40.000Z</time>
      </trkpt>
      <trkpt lat="43.00819" lon="0.92143">
        <ele>758.8</ele>
        <time>2021-10-14T10:56:42.000Z</time>
      </trkpt>
      <trkpt lat="43.00821" lon="0.92137">
        <ele>759.3</ele>
        <time>2021-10-14T10:56:43.000Z</time>
      </trkpt>
      <trkpt lat="43.00823" lon="0.92132">
        <ele>759.8</ele>
        <time>2021-10-14T10:56:45.000Z</time>
      </trkpt>
      <trkpt lat="43.00825" lon="0.92127">
        <ele>760.2</ele>
        <time>2021-10-14T10:56:47.000Z</time>
      </trkpt>
      <trkpt lat="43.00826" lon="0.92123">
        <ele>760.5</ele>
        <time>2021-10-14T10:56:48.000Z</time>
      </trkpt>
      <trkpt lat="43.00829" lon="0.92119">
        <ele>761</ele>
        <time>2021-10-14T10:56:50.000Z</time>
      </trkpt>
      <trkpt lat="43.00832" lon="0.92117">
        <ele>761.2</ele>
        <time>2021-10-14T10:56:51.000Z</time>
      </trkpt>
      <trkpt lat="43.00834" lon="0.92114">
        <ele>761.4</ele>
        <time>2021-10-14T10:56:52.000Z</time>
      </trkpt>
      <trkpt lat="43.00836" lon="0.92111">
        <ele>761.7</ele>
        <time>2021-10-14T10:56:54.000Z</time>
      </trkpt>
      <trkpt lat="43.00839" lon="0.92108">
        <ele>762</ele>
        <time>2021-10-14T10:56:56.000Z</time>
      </trkpt>
      <trkpt lat="43.00842" lon="0.92105">
        <ele>762.2</ele>
        <time>2021-10-14T10:56:57.000Z</time>
      </trkpt>
      <trkpt lat="43.00845" lon="0.92099">
        <ele>762.6</ele>
        <time>2021-10-14T10:56:59.000Z</time>
      </trkpt>
      <trkpt lat="43.00846" lon="0.92097">
        <ele>762.7</ele>
        <time>2021-10-14T10:57:00.000Z</time>
      </trkpt>
      <trkpt lat="43.00847" lon="0.92094">
        <ele>762.8</ele>
        <time>2021-10-14T10:57:01.000Z</time>
      </trkpt>
      <trkpt lat="43.00851" lon="0.92089">
        <ele>763.2</ele>
        <time>2021-10-14T10:57:03.000Z</time>
      </trkpt>
      <trkpt lat="43.00853" lon="0.92086">
        <ele>763.3</ele>
        <time>2021-10-14T10:57:04.000Z</time>
      </trkpt>
      <trkpt lat="43.00858" lon="0.9208">
        <ele>763.5</ele>
        <time>2021-10-14T10:57:06.000Z</time>
      </trkpt>
      <trkpt lat="43.00862" lon="0.92073">
        <ele>763.6</ele>
        <time>2021-10-14T10:57:08.000Z</time>
      </trkpt>
      <trkpt lat="43.00867" lon="0.92064">
        <ele>763.7</ele>
        <time>2021-10-14T10:57:10.000Z</time>
      </trkpt>
      <trkpt lat="43.0087" lon="0.92056">
        <ele>763.7</ele>
        <time>2021-10-14T10:57:12.000Z</time>
      </trkpt>
      <trkpt lat="43.00873" lon="0.92049">
        <ele>763.7</ele>
        <time>2021-10-14T10:57:14.000Z</time>
      </trkpt>
      <trkpt lat="43.00875" lon="0.92046">
        <ele>763.7</ele>
        <time>2021-10-14T10:57:15.000Z</time>
      </trkpt>
      <trkpt lat="43.00878" lon="0.92042">
        <ele>763.7</ele>
        <time>2021-10-14T10:57:16.000Z</time>
      </trkpt>
      <trkpt lat="43.00881" lon="0.92037">
        <ele>763.8</ele>
        <time>2021-10-14T10:57:18.000Z</time>
      </trkpt>
      <trkpt lat="43.00883" lon="0.92034">
        <ele>763.8</ele>
        <time>2021-10-14T10:57:19.000Z</time>
      </trkpt>
      <trkpt lat="43.00885" lon="0.9203">
        <ele>763.8</ele>
        <time>2021-10-14T10:57:21.000Z</time>
      </trkpt>
      <trkpt lat="43.00887" lon="0.92026">
        <ele>763.9</ele>
        <time>2021-10-14T10:57:22.000Z</time>
      </trkpt>
      <trkpt lat="43.00888" lon="0.92024">
        <ele>764</ele>
        <time>2021-10-14T10:57:23.000Z</time>
      </trkpt>
      <trkpt lat="43.00888" lon="0.92022">
        <ele>764</ele>
        <time>2021-10-14T10:57:25.000Z</time>
      </trkpt>
      <trkpt lat="43.00888" lon="0.92021">
        <ele>764</ele>
        <time>2021-10-14T10:57:26.000Z</time>
      </trkpt>
      <trkpt lat="43.00888" lon="0.92021">
        <ele>764.1</ele>
        <time>2021-10-14T10:57:27.000Z</time>
      </trkpt>
      <trkpt lat="43.00889" lon="0.92021">
        <ele>764.1</ele>
        <time>2021-10-14T10:57:29.000Z</time>
      </trkpt>
      <trkpt lat="43.00889" lon="0.92021">
        <ele>764.1</ele>
        <time>2021-10-14T10:57:30.000Z</time>
      </trkpt>
      <trkpt lat="43.00889" lon="0.92021">
        <ele>764.1</ele>
        <time>2021-10-14T10:57:31.000Z</time>
      </trkpt>
      <trkpt lat="43.00889" lon="0.9202">
        <ele>764.1</ele>
        <time>2021-10-14T10:57:33.000Z</time>
      </trkpt>
      <trkpt lat="43.00889" lon="0.9202">
        <ele>764.1</ele>
        <time>2021-10-14T10:57:34.000Z</time>
      </trkpt>
      <trkpt lat="43.00889" lon="0.9202">
        <ele>764.1</ele>
        <time>2021-10-14T10:57:35.000Z</time>
      </trkpt>
      <trkpt lat="43.0089" lon="0.92017">
        <ele>764.2</ele>
        <time>2021-10-14T10:57:44.000Z</time>
      </trkpt>
      <trkpt lat="43.0089" lon="0.92016">
        <ele>764.2</ele>
        <time>2021-10-14T10:57:45.000Z</time>
      </trkpt>
      <trkpt lat="43.00889" lon="0.92016">
        <ele>764.2</ele>
        <time>2021-10-14T10:57:47.000Z</time>
      </trkpt>
      <trkpt lat="43.00889" lon="0.92016">
        <ele>764.2</ele>
        <time>2021-10-14T10:57:49.000Z</time>
      </trkpt>
      <trkpt lat="43.00889" lon="0.92016">
        <ele>764.2</ele>
        <time>2021-10-14T10:57:51.000Z</time>
      </trkpt>
      <trkpt lat="43.00889" lon="0.92016">
        <ele>764.2</ele>
        <time>2021-10-14T10:57:53.000Z</time>
      </trkpt>
      <trkpt lat="43.00889" lon="0.92016">
        <ele>764.3</ele>
        <time>2021-10-14T10:57:54.000Z</time>
      </trkpt>
      <trkpt lat="43.00888" lon="0.92016">
        <ele>764.3</ele>
        <time>2021-10-14T10:57:56.000Z</time>
      </trkpt>
      <trkpt lat="43.00894" lon="0.92013">
        <ele>764.1</ele>
        <time>2021-10-14T10:58:49.000Z</time>
      </trkpt>
      <trkpt lat="43.00897" lon="0.92009">
        <ele>763.9</ele>
        <time>2021-10-14T10:58:51.000Z</time>
      </trkpt>
      <trkpt lat="43.00907" lon="0.92005">
        <ele>763.2</ele>
        <time>2021-10-14T10:58:52.000Z</time>
      </trkpt>
      <trkpt lat="43.00923" lon="0.91996">
        <ele>761</ele>
        <time>2021-10-14T10:58:54.000Z</time>
      </trkpt>
      <trkpt lat="43.00927" lon="0.9199">
        <ele>759.8</ele>
        <time>2021-10-14T10:58:55.000Z</time>
      </trkpt>
      <trkpt lat="43.00932" lon="0.91984">
        <ele>758.9</ele>
        <time>2021-10-14T10:58:57.000Z</time>
      </trkpt>
      <trkpt lat="43.0094" lon="0.91979">
        <ele>756.2</ele>
        <time>2021-10-14T10:58:59.000Z</time>
      </trkpt>
      <trkpt lat="43.00944" lon="0.91977">
        <ele>755.2</ele>
        <time>2021-10-14T10:59:01.000Z</time>
      </trkpt>
      <trkpt lat="43.00943" lon="0.91974">
        <ele>754.9</ele>
        <time>2021-10-14T10:59:03.000Z</time>
      </trkpt>
      <trkpt lat="43.00942" lon="0.91973">
        <ele>754.9</ele>
        <time>2021-10-14T10:59:04.000Z</time>
      </trkpt>
      <trkpt lat="43.00941" lon="0.91972">
        <ele>755.7</ele>
        <time>2021-10-14T10:59:06.000Z</time>
      </trkpt>
      <trkpt lat="43.0094" lon="0.9197">
        <ele>755.7</ele>
        <time>2021-10-14T10:59:08.000Z</time>
      </trkpt>
      <trkpt lat="43.00939" lon="0.91969">
        <ele>755.7</ele>
        <time>2021-10-14T10:59:09.000Z</time>
      </trkpt>
      <trkpt lat="43.00935" lon="0.91962">
        <ele>757.2</ele>
        <time>2021-10-14T10:59:11.000Z</time>
      </trkpt>
      <trkpt lat="43.00934" lon="0.91959">
        <ele>757</ele>
        <time>2021-10-14T10:59:12.000Z</time>
      </trkpt>
      <trkpt lat="43.00933" lon="0.91953">
        <ele>756.8</ele>
        <time>2021-10-14T10:59:14.000Z</time>
      </trkpt>
      <trkpt lat="43.00932" lon="0.91945">
        <ele>757.5</ele>
        <time>2021-10-14T10:59:16.000Z</time>
      </trkpt>
      <trkpt lat="43.0093" lon="0.9194">
        <ele>757.4</ele>
        <time>2021-10-14T10:59:17.000Z</time>
      </trkpt>
      <trkpt lat="43.00929" lon="0.91935">
        <ele>758.3</ele>
        <time>2021-10-14T10:59:18.000Z</time>
      </trkpt>
      <trkpt lat="43.00926" lon="0.91926">
        <ele>759.4</ele>
        <time>2021-10-14T10:59:20.000Z</time>
      </trkpt>
      <trkpt lat="43.00924" lon="0.91917">
        <ele>759.5</ele>
        <time>2021-10-14T10:59:22.000Z</time>
      </trkpt>
      <trkpt lat="43.00925" lon="0.91913">
        <ele>759.6</ele>
        <time>2021-10-14T10:59:23.000Z</time>
      </trkpt>
      <trkpt lat="43.00926" lon="0.91908">
        <ele>759.6</ele>
        <time>2021-10-14T10:59:24.000Z</time>
      </trkpt>
      <trkpt lat="43.00929" lon="0.91897">
        <ele>758.3</ele>
        <time>2021-10-14T10:59:26.000Z</time>
      </trkpt>
      <trkpt lat="43.00931" lon="0.91891">
        <ele>756.9</ele>
        <time>2021-10-14T10:59:27.000Z</time>
      </trkpt>
      <trkpt lat="43.00934" lon="0.91882">
        <ele>755</ele>
        <time>2021-10-14T10:59:29.000Z</time>
      </trkpt>
      <trkpt lat="43.00936" lon="0.91877">
        <ele>753.2</ele>
        <time>2021-10-14T10:59:30.000Z</time>
      </trkpt>
      <trkpt lat="43.00939" lon="0.91871">
        <ele>751.1</ele>
        <time>2021-10-14T10:59:32.000Z</time>
      </trkpt>
      <trkpt lat="43.00941" lon="0.91862">
        <ele>750.6</ele>
        <time>2021-10-14T10:59:34.000Z</time>
      </trkpt>
      <trkpt lat="43.00943" lon="0.91852">
        <ele>747.4</ele>
        <time>2021-10-14T10:59:36.000Z</time>
      </trkpt>
      <trkpt lat="43.00946" lon="0.91842">
        <ele>744.4</ele>
        <time>2021-10-14T10:59:38.000Z</time>
      </trkpt>
      <trkpt lat="43.0095" lon="0.91829">
        <ele>740.8</ele>
        <time>2021-10-14T10:59:40.000Z</time>
      </trkpt>
      <trkpt lat="43.00954" lon="0.91817">
        <ele>737.2</ele>
        <time>2021-10-14T10:59:41.000Z</time>
      </trkpt>
      <trkpt lat="43.00958" lon="0.91801">
        <ele>731.7</ele>
        <time>2021-10-14T10:59:42.000Z</time>
      </trkpt>
      <trkpt lat="43.00961" lon="0.91785">
        <ele>727.5</ele>
        <time>2021-10-14T10:59:43.000Z</time>
      </trkpt>
      <trkpt lat="43.00966" lon="0.91758">
        <ele>722.8</ele>
        <time>2021-10-14T10:59:45.000Z</time>
      </trkpt>
      <trkpt lat="43.00966" lon="0.91735">
        <ele>720</ele>
        <time>2021-10-14T10:59:47.000Z</time>
      </trkpt>
      <trkpt lat="43.00964" lon="0.91724">
        <ele>720.8</ele>
        <time>2021-10-14T10:59:48.000Z</time>
      </trkpt>
      <trkpt lat="43.00962" lon="0.91715">
        <ele>719.6</ele>
        <time>2021-10-14T10:59:49.000Z</time>
      </trkpt>
      <trkpt lat="43.00955" lon="0.91695">
        <ele>719.4</ele>
        <time>2021-10-14T10:59:51.000Z</time>
      </trkpt>
      <trkpt lat="43.00952" lon="0.91686">
        <ele>719.5</ele>
        <time>2021-10-14T10:59:52.000Z</time>
      </trkpt>
      <trkpt lat="43.0095" lon="0.91668">
        <ele>717.9</ele>
        <time>2021-10-14T10:59:54.000Z</time>
      </trkpt>
      <trkpt lat="43.00949" lon="0.91657">
        <ele>715.4</ele>
        <time>2021-10-14T10:59:55.000Z</time>
      </trkpt>
      <trkpt lat="43.00951" lon="0.91639">
        <ele>712.1</ele>
        <time>2021-10-14T10:59:57.000Z</time>
      </trkpt>
      <trkpt lat="43.00954" lon="0.91631">
        <ele>708.7</ele>
        <time>2021-10-14T10:59:58.000Z</time>
      </trkpt>
      <trkpt lat="43.00959" lon="0.91614">
        <ele>702.3</ele>
        <time>2021-10-14T11:00:00.000Z</time>
      </trkpt>
      <trkpt lat="43.0096" lon="0.91604">
        <ele>700.9</ele>
        <time>2021-10-14T11:00:01.000Z</time>
      </trkpt>
      <trkpt lat="43.00962" lon="0.91595">
        <ele>698</ele>
        <time>2021-10-14T11:00:02.000Z</time>
      </trkpt>
      <trkpt lat="43.00963" lon="0.91578">
        <ele>695.1</ele>
        <time>2021-10-14T11:00:04.000Z</time>
      </trkpt>
      <trkpt lat="43.00962" lon="0.91557">
        <ele>691.4</ele>
        <time>2021-10-14T11:00:06.000Z</time>
      </trkpt>
      <trkpt lat="43.00957" lon="0.91538">
        <ele>690.7</ele>
        <time>2021-10-14T11:00:08.000Z</time>
      </trkpt>
      <trkpt lat="43.00956" lon="0.9153">
        <ele>689.9</ele>
        <time>2021-10-14T11:00:09.000Z</time>
      </trkpt>
      <trkpt lat="43.00954" lon="0.91511">
        <ele>687.9</ele>
        <time>2021-10-14T11:00:11.000Z</time>
      </trkpt>
      <trkpt lat="43.00955" lon="0.91495">
        <ele>684.1</ele>
        <time>2021-10-14T11:00:13.000Z</time>
      </trkpt>
      <trkpt lat="43.00955" lon="0.91487">
        <ele>683.4</ele>
        <time>2021-10-14T11:00:14.000Z</time>
      </trkpt>
      <trkpt lat="43.00954" lon="0.91477">
        <ele>682.4</ele>
        <time>2021-10-14T11:00:15.000Z</time>
      </trkpt>
      <trkpt lat="43.00949" lon="0.91457">
        <ele>680.8</ele>
        <time>2021-10-14T11:00:17.000Z</time>
      </trkpt>
      <trkpt lat="43.00948" lon="0.91446">
        <ele>679.8</ele>
        <time>2021-10-14T11:00:18.000Z</time>
      </trkpt>
      <trkpt lat="43.00945" lon="0.91437">
        <ele>679.4</ele>
        <time>2021-10-14T11:00:19.000Z</time>
      </trkpt>
      <trkpt lat="43.00944" lon="0.91428">
        <ele>677.6</ele>
        <time>2021-10-14T11:00:20.000Z</time>
      </trkpt>
      <trkpt lat="43.0094" lon="0.9141">
        <ele>675.2</ele>
        <time>2021-10-14T11:00:22.000Z</time>
      </trkpt>
      <trkpt lat="43.00933" lon="0.91393">
        <ele>672.8</ele>
        <time>2021-10-14T11:00:24.000Z</time>
      </trkpt>
      <trkpt lat="43.00931" lon="0.91385">
        <ele>671.2</ele>
        <time>2021-10-14T11:00:26.000Z</time>
      </trkpt>
      <trkpt lat="43.00933" lon="0.91381">
        <ele>668.8</ele>
        <time>2021-10-14T11:00:27.000Z</time>
      </trkpt>
      <trkpt lat="43.00936" lon="0.91377">
        <ele>666.3</ele>
        <time>2021-10-14T11:00:28.000Z</time>
      </trkpt>
      <trkpt lat="43.0094" lon="0.91375">
        <ele>663.8</ele>
        <time>2021-10-14T11:00:29.000Z</time>
      </trkpt>
      <trkpt lat="43.00943" lon="0.91374">
        <ele>662.5</ele>
        <time>2021-10-14T11:00:30.000Z</time>
      </trkpt>
      <trkpt lat="43.00952" lon="0.91371">
        <ele>658.6</ele>
        <time>2021-10-14T11:00:32.000Z</time>
      </trkpt>
      <trkpt lat="43.00962" lon="0.91371">
        <ele>653.8</ele>
        <time>2021-10-14T11:00:34.000Z</time>
      </trkpt>
      <trkpt lat="43.00967" lon="0.91372">
        <ele>653.8</ele>
        <time>2021-10-14T11:00:35.000Z</time>
      </trkpt>
      <trkpt lat="43.00971" lon="0.91375">
        <ele>651.4</ele>
        <time>2021-10-14T11:00:37.000Z</time>
      </trkpt>
      <trkpt lat="43.00975" lon="0.91377">
        <ele>651.3</ele>
        <time>2021-10-14T11:00:38.000Z</time>
      </trkpt>
      <trkpt lat="43.0098" lon="0.91378">
        <ele>649.2</ele>
        <time>2021-10-14T11:00:39.000Z</time>
      </trkpt>
      <trkpt lat="43.00992" lon="0.91384">
        <ele>647.7</ele>
        <time>2021-10-14T11:00:41.000Z</time>
      </trkpt>
      <trkpt lat="43.01005" lon="0.91387">
        <ele>644.2</ele>
        <time>2021-10-14T11:00:43.000Z</time>
      </trkpt>
      <trkpt lat="43.0101" lon="0.91387">
        <ele>643.4</ele>
        <time>2021-10-14T11:00:44.000Z</time>
      </trkpt>
      <trkpt lat="43.01014" lon="0.91387">
        <ele>642.7</ele>
        <time>2021-10-14T11:00:45.000Z</time>
      </trkpt>
      <trkpt lat="43.01018" lon="0.91387">
        <ele>641.4</ele>
        <time>2021-10-14T11:00:46.000Z</time>
      </trkpt>
      <trkpt lat="43.01022" lon="0.91387">
        <ele>640.7</ele>
        <time>2021-10-14T11:00:47.000Z</time>
      </trkpt>
      <trkpt lat="43.01029" lon="0.91386">
        <ele>639.1</ele>
        <time>2021-10-14T11:00:49.000Z</time>
      </trkpt>
      <trkpt lat="43.01036" lon="0.91385">
        <ele>636.4</ele>
        <time>2021-10-14T11:00:50.000Z</time>
      </trkpt>
      <trkpt lat="43.01045" lon="0.91384">
        <ele>634.8</ele>
        <time>2021-10-14T11:00:52.000Z</time>
      </trkpt>
      <trkpt lat="43.01049" lon="0.91386">
        <ele>633</ele>
        <time>2021-10-14T11:00:53.000Z</time>
      </trkpt>
      <trkpt lat="43.01056" lon="0.91392">
        <ele>631.9</ele>
        <time>2021-10-14T11:00:55.000Z</time>
      </trkpt>
      <trkpt lat="43.01065" lon="0.91396">
        <ele>629.7</ele>
        <time>2021-10-14T11:00:57.000Z</time>
      </trkpt>
      <trkpt lat="43.01069" lon="0.91396">
        <ele>628.7</ele>
        <time>2021-10-14T11:00:58.000Z</time>
      </trkpt>
      <trkpt lat="43.01073" lon="0.91397">
        <ele>627.8</ele>
        <time>2021-10-14T11:01:00.000Z</time>
      </trkpt>
      <trkpt lat="43.0108" lon="0.91397">
        <ele>624.6</ele>
        <time>2021-10-14T11:01:01.000Z</time>
      </trkpt>
      <trkpt lat="43.01087" lon="0.91397">
        <ele>623.5</ele>
        <time>2021-10-14T11:01:02.000Z</time>
      </trkpt>
      <trkpt lat="43.01096" lon="0.91401">
        <ele>620.8</ele>
        <time>2021-10-14T11:01:04.000Z</time>
      </trkpt>
      <trkpt lat="43.0109" lon="0.91403">
        <ele>623.4</ele>
        <time>2021-10-14T11:01:06.000Z</time>
      </trkpt>
      <trkpt lat="43.01093" lon="0.91398">
        <ele>621.7</ele>
        <time>2021-10-14T11:01:07.000Z</time>
      </trkpt>
      <trkpt lat="43.01106" lon="0.91391">
        <ele>616.4</ele>
        <time>2021-10-14T11:01:08.000Z</time>
      </trkpt>
      <trkpt lat="43.0111" lon="0.91387">
        <ele>614.7</ele>
        <time>2021-10-14T11:01:09.000Z</time>
      </trkpt>
      <trkpt lat="43.01118" lon="0.91384">
        <ele>611.5</ele>
        <time>2021-10-14T11:01:11.000Z</time>
      </trkpt>
      <trkpt lat="43.01128" lon="0.91381">
        <ele>609.4</ele>
        <time>2021-10-14T11:01:12.000Z</time>
      </trkpt>
      <trkpt lat="43.01136" lon="0.91377">
        <ele>607.3</ele>
        <time>2021-10-14T11:01:13.000Z</time>
      </trkpt>
      <trkpt lat="43.01153" lon="0.91366">
        <ele>600.5</ele>
        <time>2021-10-14T11:01:15.000Z</time>
      </trkpt>
      <trkpt lat="43.01161" lon="0.9136">
        <ele>597.8</ele>
        <time>2021-10-14T11:01:16.000Z</time>
      </trkpt>
      <trkpt lat="43.01174" lon="0.91349">
        <ele>592.6</ele>
        <time>2021-10-14T11:01:18.000Z</time>
      </trkpt>
      <trkpt lat="43.01178" lon="0.91348">
        <ele>591.8</ele>
        <time>2021-10-14T11:01:19.000Z</time>
      </trkpt>
      <trkpt lat="43.01187" lon="0.91344">
        <ele>588.8</ele>
        <time>2021-10-14T11:01:21.000Z</time>
      </trkpt>
      <trkpt lat="43.01193" lon="0.91334">
        <ele>585.7</ele>
        <time>2021-10-14T11:01:22.000Z</time>
      </trkpt>
      <trkpt lat="43.01199" lon="0.91329">
        <ele>584.2</ele>
        <time>2021-10-14T11:01:24.000Z</time>
      </trkpt>
      <trkpt lat="43.01205" lon="0.91317">
        <ele>581</ele>
        <time>2021-10-14T11:01:25.000Z</time>
      </trkpt>
      <trkpt lat="43.0121" lon="0.91308">
        <ele>578.2</ele>
        <time>2021-10-14T11:01:26.000Z</time>
      </trkpt>
      <trkpt lat="43.01216" lon="0.91302">
        <ele>575.2</ele>
        <time>2021-10-14T11:01:28.000Z</time>
      </trkpt>
      <trkpt lat="43.01218" lon="0.91288">
        <ele>573</ele>
        <time>2021-10-14T11:01:29.000Z</time>
      </trkpt>
      <trkpt lat="43.0122" lon="0.91271">
        <ele>571.1</ele>
        <time>2021-10-14T11:01:31.000Z</time>
      </trkpt>
      <trkpt lat="43.01214" lon="0.91263">
        <ele>571.5</ele>
        <time>2021-10-14T11:01:33.000Z</time>
      </trkpt>
      <trkpt lat="43.01216" lon="0.91258">
        <ele>569.9</ele>
        <time>2021-10-14T11:01:35.000Z</time>
      </trkpt>
      <trkpt lat="43.01217" lon="0.91258">
        <ele>569.9</ele>
        <time>2021-10-14T11:01:36.000Z</time>
      </trkpt>
      <trkpt lat="43.01219" lon="0.91258">
        <ele>569</ele>
        <time>2021-10-14T11:01:38.000Z</time>
      </trkpt>
      <trkpt lat="43.01221" lon="0.91257">
        <ele>569.1</ele>
        <time>2021-10-14T11:01:39.000Z</time>
      </trkpt>
      <trkpt lat="43.01222" lon="0.91256">
        <ele>568.1</ele>
        <time>2021-10-14T11:01:41.000Z</time>
      </trkpt>
      <trkpt lat="43.01222" lon="0.91256">
        <ele>568.1</ele>
        <time>2021-10-14T11:01:42.000Z</time>
      </trkpt>
      <trkpt lat="43.01222" lon="0.91254">
        <ele>567.4</ele>
        <time>2021-10-14T11:01:43.000Z</time>
      </trkpt>
      <trkpt lat="43.01222" lon="0.91252">
        <ele>567.4</ele>
        <time>2021-10-14T11:01:44.000Z</time>
      </trkpt>
      <trkpt lat="43.01221" lon="0.91251">
        <ele>567.4</ele>
        <time>2021-10-14T11:01:46.000Z</time>
      </trkpt>
      <trkpt lat="43.01221" lon="0.9125">
        <ele>566.6</ele>
        <time>2021-10-14T11:02:13.000Z</time>
      </trkpt>
      <trkpt lat="43.01221" lon="0.91248">
        <ele>566.6</ele>
        <time>2021-10-14T11:02:14.000Z</time>
      </trkpt>
      <trkpt lat="43.01223" lon="0.91246">
        <ele>565.8</ele>
        <time>2021-10-14T11:02:15.000Z</time>
      </trkpt>
      <trkpt lat="43.01224" lon="0.91245">
        <ele>565.8</ele>
        <time>2021-10-14T11:02:16.000Z</time>
      </trkpt>
      <trkpt lat="43.01225" lon="0.91239">
        <ele>564.1</ele>
        <time>2021-10-14T11:02:17.000Z</time>
      </trkpt>
      <trkpt lat="43.01227" lon="0.91234">
        <ele>563.3</ele>
        <time>2021-10-14T11:02:19.000Z</time>
      </trkpt>
      <trkpt lat="43.01227" lon="0.91229">
        <ele>561.3</ele>
        <time>2021-10-14T11:02:20.000Z</time>
      </trkpt>
      <trkpt lat="43.01228" lon="0.91226">
        <ele>560.5</ele>
        <time>2021-10-14T11:02:21.000Z</time>
      </trkpt>
      <trkpt lat="43.01228" lon="0.91224">
        <ele>559.4</ele>
        <time>2021-10-14T11:02:22.000Z</time>
      </trkpt>
      <trkpt lat="43.01228" lon="0.91222">
        <ele>559.4</ele>
        <time>2021-10-14T11:02:23.000Z</time>
      </trkpt>
      <trkpt lat="43.0123" lon="0.91219">
        <ele>558.2</ele>
        <time>2021-10-14T11:02:25.000Z</time>
      </trkpt>
      <trkpt lat="43.0123" lon="0.91217">
        <ele>558.2</ele>
        <time>2021-10-14T11:02:26.000Z</time>
      </trkpt>
      <trkpt lat="43.01233" lon="0.91215">
        <ele>556.2</ele>
        <time>2021-10-14T11:02:27.000Z</time>
      </trkpt>
      <trkpt lat="43.01235" lon="0.91215">
        <ele>555.4</ele>
        <time>2021-10-14T11:02:28.000Z</time>
      </trkpt>
      <trkpt lat="43.01239" lon="0.91215">
        <ele>554.6</ele>
        <time>2021-10-14T11:02:30.000Z</time>
      </trkpt>
      <trkpt lat="43.01241" lon="0.91212">
        <ele>552.6</ele>
        <time>2021-10-14T11:02:31.000Z</time>
      </trkpt>
      <trkpt lat="43.01243" lon="0.91207">
        <ele>550.6</ele>
        <time>2021-10-14T11:02:32.000Z</time>
      </trkpt>
      <trkpt lat="43.01245" lon="0.91203">
        <ele>549.4</ele>
        <time>2021-10-14T11:02:33.000Z</time>
      </trkpt>
      <trkpt lat="43.01247" lon="0.91197">
        <ele>547.3</ele>
        <time>2021-10-14T11:02:35.000Z</time>
      </trkpt>
      <trkpt lat="43.01249" lon="0.91194">
        <ele>545.2</ele>
        <time>2021-10-14T11:02:36.000Z</time>
      </trkpt>
      <trkpt lat="43.0125" lon="0.9119">
        <ele>543.9</ele>
        <time>2021-10-14T11:02:37.000Z</time>
      </trkpt>
      <trkpt lat="43.01252" lon="0.91186">
        <ele>541.7</ele>
        <time>2021-10-14T11:02:38.000Z</time>
      </trkpt>
      <trkpt lat="43.01254" lon="0.9118">
        <ele>539.3</ele>
        <time>2021-10-14T11:02:40.000Z</time>
      </trkpt>
      <trkpt lat="43.01255" lon="0.91174">
        <ele>537.8</ele>
        <time>2021-10-14T11:02:41.000Z</time>
      </trkpt>
      <trkpt lat="43.01258" lon="0.9117">
        <ele>535.2</ele>
        <time>2021-10-14T11:02:42.000Z</time>
      </trkpt>
      <trkpt lat="43.01259" lon="0.91169">
        <ele>533.6</ele>
        <time>2021-10-14T11:02:43.000Z</time>
      </trkpt>
      <trkpt lat="43.0126" lon="0.91166">
        <ele>532.6</ele>
        <time>2021-10-14T11:02:44.000Z</time>
      </trkpt>
      <trkpt lat="43.01262" lon="0.91163">
        <ele>530.1</ele>
        <time>2021-10-14T11:02:46.000Z</time>
      </trkpt>
      <trkpt lat="43.01266" lon="0.91161">
        <ele>529.1</ele>
        <time>2021-10-14T11:02:47.000Z</time>
      </trkpt>
      <trkpt lat="43.01269" lon="0.91157">
        <ele>526</ele>
        <time>2021-10-14T11:02:49.000Z</time>
      </trkpt>
      <trkpt lat="43.01271" lon="0.91155">
        <ele>524.6</ele>
        <time>2021-10-14T11:02:50.000Z</time>
      </trkpt>
      <trkpt lat="43.01272" lon="0.91155">
        <ele>523.5</ele>
        <time>2021-10-14T11:02:52.000Z</time>
      </trkpt>
      <trkpt lat="43.01273" lon="0.91156">
        <ele>523.5</ele>
        <time>2021-10-14T11:02:53.000Z</time>
      </trkpt>
      <trkpt lat="43.01274" lon="0.91156">
        <ele>523.5</ele>
        <time>2021-10-14T11:02:54.000Z</time>
      </trkpt>
      <trkpt lat="43.01275" lon="0.91156">
        <ele>522.3</ele>
        <time>2021-10-14T11:02:55.000Z</time>
      </trkpt>
      <trkpt lat="43.01277" lon="0.91154">
        <ele>522.3</ele>
        <time>2021-10-14T11:02:57.000Z</time>
      </trkpt>
      <trkpt lat="43.01278" lon="0.91153">
        <ele>521.1</ele>
        <time>2021-10-14T11:02:58.000Z</time>
      </trkpt>
      <trkpt lat="43.0128" lon="0.91134">
        <ele>514.1</ele>
        <time>2021-10-14T11:02:59.000Z</time>
      </trkpt>
      <trkpt lat="43.01281" lon="0.91128">
        <ele>512.6</ele>
        <time>2021-10-14T11:03:00.000Z</time>
      </trkpt>
      <trkpt lat="43.01282" lon="0.9112">
        <ele>508.7</ele>
        <time>2021-10-14T11:03:01.000Z</time>
      </trkpt>
      <trkpt lat="43.01286" lon="0.91112">
        <ele>505.1</ele>
        <time>2021-10-14T11:03:03.000Z</time>
      </trkpt>
      <trkpt lat="43.0129" lon="0.91106">
        <ele>503</ele>
        <time>2021-10-14T11:03:04.000Z</time>
      </trkpt>
      <trkpt lat="43.01292" lon="0.91105">
        <ele>500.9</ele>
        <time>2021-10-14T11:03:05.000Z</time>
      </trkpt>
      <trkpt lat="43.01296" lon="0.91105">
        <ele>500.3</ele>
        <time>2021-10-14T11:03:07.000Z</time>
      </trkpt>
      <trkpt lat="43.01302" lon="0.91102">
        <ele>498</ele>
        <time>2021-10-14T11:03:09.000Z</time>
      </trkpt>
      <trkpt lat="43.01304" lon="0.91101">
        <ele>496.9</ele>
        <time>2021-10-14T11:03:10.000Z</time>
      </trkpt>
      <trkpt lat="43.01307" lon="0.91097">
        <ele>494.7</ele>
        <time>2021-10-14T11:03:12.000Z</time>
      </trkpt>
      <trkpt lat="43.01309" lon="0.91094">
        <ele>493.5</ele>
        <time>2021-10-14T11:03:13.000Z</time>
      </trkpt>
      <trkpt lat="43.01317" lon="0.91094">
        <ele>490.8</ele>
        <time>2021-10-14T11:03:14.000Z</time>
      </trkpt>
      <trkpt lat="43.01327" lon="0.91091">
        <ele>487.3</ele>
        <time>2021-10-14T11:03:16.000Z</time>
      </trkpt>
      <trkpt lat="43.01331" lon="0.91083">
        <ele>483</ele>
        <time>2021-10-14T11:03:17.000Z</time>
      </trkpt>
      <trkpt lat="43.01333" lon="0.91078">
        <ele>481.8</ele>
        <time>2021-10-14T11:03:18.000Z</time>
      </trkpt>
      <trkpt lat="43.01327" lon="0.91057">
        <ele>478.2</ele>
        <time>2021-10-14T11:03:20.000Z</time>
      </trkpt>
      <trkpt lat="43.01323" lon="0.91053">
        <ele>477.9</ele>
        <time>2021-10-14T11:03:21.000Z</time>
      </trkpt>
      <trkpt lat="43.0132" lon="0.91046">
        <ele>477.5</ele>
        <time>2021-10-14T11:03:22.000Z</time>
      </trkpt>
      <trkpt lat="43.01319" lon="0.91041">
        <ele>474.9</ele>
        <time>2021-10-14T11:03:24.000Z</time>
      </trkpt>
      <trkpt lat="43.01321" lon="0.91033">
        <ele>473.6</ele>
        <time>2021-10-14T11:03:25.000Z</time>
      </trkpt>
      <trkpt lat="43.01323" lon="0.9103">
        <ele>471.5</ele>
        <time>2021-10-14T11:03:26.000Z</time>
      </trkpt>
      <trkpt lat="43.01327" lon="0.91031">
        <ele>470.7</ele>
        <time>2021-10-14T11:03:28.000Z</time>
      </trkpt>
      <trkpt lat="43.01331" lon="0.91028">
        <ele>468.8</ele>
        <time>2021-10-14T11:03:29.000Z</time>
      </trkpt>
      <trkpt lat="43.01339" lon="0.9102">
        <ele>464.7</ele>
        <time>2021-10-14T11:03:31.000Z</time>
      </trkpt>
      <trkpt lat="43.0134" lon="0.91019">
        <ele>462.9</ele>
        <time>2021-10-14T11:03:33.000Z</time>
      </trkpt>
      <trkpt lat="43.01341" lon="0.91017">
        <ele>462.9</ele>
        <time>2021-10-14T11:03:34.000Z</time>
      </trkpt>
      <trkpt lat="43.01343" lon="0.91012">
        <ele>461.9</ele>
        <time>2021-10-14T11:03:35.000Z</time>
      </trkpt>
      <trkpt lat="43.01343" lon="0.9101">
        <ele>460.9</ele>
        <time>2021-10-14T11:03:36.000Z</time>
      </trkpt>
      <trkpt lat="43.01345" lon="0.91003">
        <ele>459.1</ele>
        <time>2021-10-14T11:03:38.000Z</time>
      </trkpt>
      <trkpt lat="43.01348" lon="0.90996">
        <ele>456.1</ele>
        <time>2021-10-14T11:03:39.000Z</time>
      </trkpt>
      <trkpt lat="43.01351" lon="0.90993">
        <ele>454.2</ele>
        <time>2021-10-14T11:03:40.000Z</time>
      </trkpt>
      <trkpt lat="43.01357" lon="0.90988">
        <ele>451.5</ele>
        <time>2021-10-14T11:03:42.000Z</time>
      </trkpt>
      <trkpt lat="43.0136" lon="0.90985">
        <ele>450.8</ele>
        <time>2021-10-14T11:03:43.000Z</time>
      </trkpt>
      <trkpt lat="43.01358" lon="0.90969">
        <ele>447.2</ele>
        <time>2021-10-14T11:03:44.000Z</time>
      </trkpt>
      <trkpt lat="43.01355" lon="0.90957">
        <ele>444.3</ele>
        <time>2021-10-14T11:03:46.000Z</time>
      </trkpt>
      <trkpt lat="43.01352" lon="0.90942">
        <ele>439.6</ele>
        <time>2021-10-14T11:03:48.000Z</time>
      </trkpt>
      <trkpt lat="43.01359" lon="0.90931">
        <ele>435.4</ele>
        <time>2021-10-14T11:03:50.000Z</time>
      </trkpt>
      <trkpt lat="43.01361" lon="0.90923">
        <ele>432.2</ele>
        <time>2021-10-14T11:03:51.000Z</time>
      </trkpt>
      <trkpt lat="43.01362" lon="0.90915">
        <ele>428.8</ele>
        <time>2021-10-14T11:03:53.000Z</time>
      </trkpt>
      <trkpt lat="43.01363" lon="0.9091">
        <ele>427.5</ele>
        <time>2021-10-14T11:03:54.000Z</time>
      </trkpt>
      <trkpt lat="43.01364" lon="0.90903">
        <ele>424.9</ele>
        <time>2021-10-14T11:03:56.000Z</time>
      </trkpt>
      <trkpt lat="43.01363" lon="0.909">
        <ele>424.9</ele>
        <time>2021-10-14T11:03:57.000Z</time>
      </trkpt>
      <trkpt lat="43.01363" lon="0.90893">
        <ele>422.4</ele>
        <time>2021-10-14T11:03:59.000Z</time>
      </trkpt>
      <trkpt lat="43.01362" lon="0.90886">
        <ele>422</ele>
        <time>2021-10-14T11:04:00.000Z</time>
      </trkpt>
      <trkpt lat="43.0136" lon="0.9088">
        <ele>419.8</ele>
        <time>2021-10-14T11:04:01.000Z</time>
      </trkpt>
      <trkpt lat="43.01361" lon="0.90867">
        <ele>416.5</ele>
        <time>2021-10-14T11:04:02.000Z</time>
      </trkpt>
      <trkpt lat="43.01363" lon="0.90864">
        <ele>414.8</ele>
        <time>2021-10-14T11:04:04.000Z</time>
      </trkpt>
      <trkpt lat="43.01364" lon="0.90857">
        <ele>413.7</ele>
        <time>2021-10-14T11:04:05.000Z</time>
      </trkpt>
      <trkpt lat="43.01366" lon="0.90851">
        <ele>411.2</ele>
        <time>2021-10-14T11:04:06.000Z</time>
      </trkpt>
      <trkpt lat="43.01368" lon="0.90847">
        <ele>410.3</ele>
        <time>2021-10-14T11:04:07.000Z</time>
      </trkpt>
      <trkpt lat="43.01378" lon="0.90839">
        <ele>408.1</ele>
        <time>2021-10-14T11:04:09.000Z</time>
      </trkpt>
      <trkpt lat="43.01391" lon="0.90832">
        <ele>404.5</ele>
        <time>2021-10-14T11:04:11.000Z</time>
      </trkpt>
      <trkpt lat="43.01398" lon="0.90828">
        <ele>402.9</ele>
        <time>2021-10-14T11:04:12.000Z</time>
      </trkpt>
      <trkpt lat="43.01412" lon="0.90827">
        <ele>401.7</ele>
        <time>2021-10-14T11:04:14.000Z</time>
      </trkpt>
      <trkpt lat="43.01418" lon="0.90827">
        <ele>401</ele>
        <time>2021-10-14T11:04:15.000Z</time>
      </trkpt>
      <trkpt lat="43.01429" lon="0.90827">
        <ele>399.9</ele>
        <time>2021-10-14T11:04:17.000Z</time>
      </trkpt>
      <trkpt lat="43.01441" lon="0.90811">
        <ele>397.2</ele>
        <time>2021-10-14T11:04:19.000Z</time>
      </trkpt>
      <trkpt lat="43.01444" lon="0.90795">
        <ele>395.2</ele>
        <time>2021-10-14T11:04:20.000Z</time>
      </trkpt>
      <trkpt lat="43.01447" lon="0.90778">
        <ele>393.3</ele>
        <time>2021-10-14T11:04:21.000Z</time>
      </trkpt>
      <trkpt lat="43.01451" lon="0.9075">
        <ele>390.3</ele>
        <time>2021-10-14T11:04:23.000Z</time>
      </trkpt>
      <trkpt lat="43.01452" lon="0.90741">
        <ele>390.4</ele>
        <time>2021-10-14T11:04:24.000Z</time>
      </trkpt>
      <trkpt lat="43.01448" lon="0.90731">
        <ele>390.5</ele>
        <time>2021-10-14T11:04:26.000Z</time>
      </trkpt>
      <trkpt lat="43.01444" lon="0.9073">
        <ele>390.7</ele>
        <time>2021-10-14T11:04:27.000Z</time>
      </trkpt>
      <trkpt lat="43.01437" lon="0.90729">
        <ele>391.1</ele>
        <time>2021-10-14T11:04:29.000Z</time>
      </trkpt>
      <trkpt lat="43.01432" lon="0.90727">
        <ele>391.4</ele>
        <time>2021-10-14T11:04:31.000Z</time>
      </trkpt>
      <trkpt lat="43.0143" lon="0.90724">
        <ele>391.5</ele>
        <time>2021-10-14T11:04:32.000Z</time>
      </trkpt>
      <trkpt lat="43.01426" lon="0.90722">
        <ele>391.7</ele>
        <time>2021-10-14T11:04:33.000Z</time>
      </trkpt>
      <trkpt lat="43.01421" lon="0.9072">
        <ele>392</ele>
        <time>2021-10-14T11:04:35.000Z</time>
      </trkpt>
      <trkpt lat="43.01415" lon="0.90719">
        <ele>392.2</ele>
        <time>2021-10-14T11:04:36.000Z</time>
      </trkpt>
      <trkpt lat="43.01411" lon="0.90718">
        <ele>392.3</ele>
        <time>2021-10-14T11:04:38.000Z</time>
      </trkpt>
      <trkpt lat="43.01406" lon="0.90717">
        <ele>392.5</ele>
        <time>2021-10-14T11:04:39.000Z</time>
      </trkpt>
      <trkpt lat="43.01403" lon="0.90715">
        <ele>392.5</ele>
        <time>2021-10-14T11:04:40.000Z</time>
      </trkpt>
      <trkpt lat="43.01402" lon="0.90714">
        <ele>392.6</ele>
        <time>2021-10-14T11:04:41.000Z</time>
      </trkpt>
      <trkpt lat="43.01398" lon="0.90712">
        <ele>392.6</ele>
        <time>2021-10-14T11:04:43.000Z</time>
      </trkpt>
      <trkpt lat="43.01394" lon="0.90711">
        <ele>392.7</ele>
        <time>2021-10-14T11:04:44.000Z</time>
      </trkpt>
      <trkpt lat="43.01392" lon="0.9071">
        <ele>392.7</ele>
        <time>2021-10-14T11:04:45.000Z</time>
      </trkpt>
      <trkpt lat="43.01388" lon="0.90706">
        <ele>392.7</ele>
        <time>2021-10-14T11:04:47.000Z</time>
      </trkpt>
      <trkpt lat="43.01384" lon="0.90704">
        <ele>392.6</ele>
        <time>2021-10-14T11:04:48.000Z</time>
      </trkpt>
      <trkpt lat="43.01383" lon="0.90704">
        <ele>392.6</ele>
        <time>2021-10-14T11:04:49.000Z</time>
      </trkpt>
      <trkpt lat="43.01379" lon="0.90701">
        <ele>392.6</ele>
        <time>2021-10-14T11:04:51.000Z</time>
      </trkpt>
      <trkpt lat="43.01375" lon="0.90701">
        <ele>392.5</ele>
        <time>2021-10-14T11:04:52.000Z</time>
      </trkpt>
      <trkpt lat="43.0137" lon="0.90701">
        <ele>392.4</ele>
        <time>2021-10-14T11:04:54.000Z</time>
      </trkpt>
      <trkpt lat="43.01366" lon="0.90701">
        <ele>392.4</ele>
        <time>2021-10-14T11:04:55.000Z</time>
      </trkpt>
      <trkpt lat="43.01362" lon="0.90701">
        <ele>392.3</ele>
        <time>2021-10-14T11:04:57.000Z</time>
      </trkpt>
      <trkpt lat="43.01358" lon="0.90701">
        <ele>392.2</ele>
        <time>2021-10-14T11:04:58.000Z</time>
      </trkpt>
      <trkpt lat="43.01353" lon="0.907">
        <ele>392.1</ele>
        <time>2021-10-14T11:05:00.000Z</time>
      </trkpt>
      <trkpt lat="43.0135" lon="0.90699">
        <ele>392</ele>
        <time>2021-10-14T11:05:01.000Z</time>
      </trkpt>
      <trkpt lat="43.01347" lon="0.90699">
        <ele>391.9</ele>
        <time>2021-10-14T11:05:02.000Z</time>
      </trkpt>
      <trkpt lat="43.01341" lon="0.90698">
        <ele>391.8</ele>
        <time>2021-10-14T11:05:04.000Z</time>
      </trkpt>
      <trkpt lat="43.01337" lon="0.90697">
        <ele>391.7</ele>
        <time>2021-10-14T11:05:05.000Z</time>
      </trkpt>
      <trkpt lat="43.01333" lon="0.90695">
        <ele>391.6</ele>
        <time>2021-10-14T11:05:06.000Z</time>
      </trkpt>
      <trkpt lat="43.01324" lon="0.90693">
        <ele>391.4</ele>
        <time>2021-10-14T11:05:08.000Z</time>
      </trkpt>
      <trkpt lat="43.01319" lon="0.90692">
        <ele>391.3</ele>
        <time>2021-10-14T11:05:09.000Z</time>
      </trkpt>
      <trkpt lat="43.01312" lon="0.9069">
        <ele>391.1</ele>
        <time>2021-10-14T11:05:11.000Z</time>
      </trkpt>
      <trkpt lat="43.01307" lon="0.90689">
        <ele>391</ele>
        <time>2021-10-14T11:05:12.000Z</time>
      </trkpt>
      <trkpt lat="43.013" lon="0.90687">
        <ele>390.9</ele>
        <time>2021-10-14T11:05:14.000Z</time>
      </trkpt>
      <trkpt lat="43.01293" lon="0.90686">
        <ele>390.8</ele>
        <time>2021-10-14T11:05:15.000Z</time>
      </trkpt>
      <trkpt lat="43.01286" lon="0.90686">
        <ele>390.8</ele>
        <time>2021-10-14T11:05:17.000Z</time>
      </trkpt>
      <trkpt lat="43.01282" lon="0.90686">
        <ele>390.8</ele>
        <time>2021-10-14T11:05:18.000Z</time>
      </trkpt>
      <trkpt lat="43.01278" lon="0.90685">
        <ele>390.8</ele>
        <time>2021-10-14T11:05:19.000Z</time>
      </trkpt>
      <trkpt lat="43.01272" lon="0.90682">
        <ele>390.9</ele>
        <time>2021-10-14T11:05:21.000Z</time>
      </trkpt>
      <trkpt lat="43.01268" lon="0.90679">
        <ele>390.9</ele>
        <time>2021-10-14T11:05:22.000Z</time>
      </trkpt>
      <trkpt lat="43.01266" lon="0.90678">
        <ele>391</ele>
        <time>2021-10-14T11:05:23.000Z</time>
      </trkpt>
      <trkpt lat="43.01261" lon="0.90674">
        <ele>391.1</ele>
        <time>2021-10-14T11:05:25.000Z</time>
      </trkpt>
      <trkpt lat="43.01258" lon="0.90671">
        <ele>391.2</ele>
        <time>2021-10-14T11:05:26.000Z</time>
      </trkpt>
      <trkpt lat="43.01254" lon="0.90667">
        <ele>391.3</ele>
        <time>2021-10-14T11:05:28.000Z</time>
      </trkpt>
      <trkpt lat="43.01253" lon="0.90666">
        <ele>391.4</ele>
        <time>2021-10-14T11:05:29.000Z</time>
      </trkpt>
      <trkpt lat="43.01251" lon="0.90664">
        <ele>391.4</ele>
        <time>2021-10-14T11:05:30.000Z</time>
      </trkpt>
      <trkpt lat="43.01247" lon="0.90661">
        <ele>391.5</ele>
        <time>2021-10-14T11:05:32.000Z</time>
      </trkpt>
      <trkpt lat="43.01244" lon="0.90661">
        <ele>391.5</ele>
        <time>2021-10-14T11:05:33.000Z</time>
      </trkpt>
      <trkpt lat="43.0124" lon="0.9066">
        <ele>391.5</ele>
        <time>2021-10-14T11:05:35.000Z</time>
      </trkpt>
      <trkpt lat="43.01236" lon="0.90659">
        <ele>391.5</ele>
        <time>2021-10-14T11:05:36.000Z</time>
      </trkpt>
      <trkpt lat="43.01233" lon="0.90658">
        <ele>391.4</ele>
        <time>2021-10-14T11:05:37.000Z</time>
      </trkpt>
      <trkpt lat="43.01226" lon="0.90657">
        <ele>391.2</ele>
        <time>2021-10-14T11:05:39.000Z</time>
      </trkpt>
      <trkpt lat="43.01222" lon="0.90657">
        <ele>391</ele>
        <time>2021-10-14T11:05:40.000Z</time>
      </trkpt>
      <trkpt lat="43.01218" lon="0.90657">
        <ele>390.9</ele>
        <time>2021-10-14T11:05:41.000Z</time>
      </trkpt>
      <trkpt lat="43.01214" lon="0.90658">
        <ele>390.7</ele>
        <time>2021-10-14T11:05:42.000Z</time>
      </trkpt>
      <trkpt lat="43.01209" lon="0.90659">
        <ele>390.5</ele>
        <time>2021-10-14T11:05:44.000Z</time>
      </trkpt>
      <trkpt lat="43.01202" lon="0.90662">
        <ele>390.2</ele>
        <time>2021-10-14T11:05:45.000Z</time>
      </trkpt>
      <trkpt lat="43.01196" lon="0.90663">
        <ele>390</ele>
        <time>2021-10-14T11:05:46.000Z</time>
      </trkpt>
      <trkpt lat="43.01186" lon="0.90665">
        <ele>389.9</ele>
        <time>2021-10-14T11:05:48.000Z</time>
      </trkpt>
      <trkpt lat="43.01182" lon="0.90665">
        <ele>389.9</ele>
        <time>2021-10-14T11:05:49.000Z</time>
      </trkpt>
      <trkpt lat="43.01176" lon="0.90665">
        <ele>389.9</ele>
        <time>2021-10-14T11:05:51.000Z</time>
      </trkpt>
      <trkpt lat="43.01173" lon="0.90665">
        <ele>390</ele>
        <time>2021-10-14T11:05:52.000Z</time>
      </trkpt>
      <trkpt lat="43.01164" lon="0.90664">
        <ele>390.4</ele>
        <time>2021-10-14T11:05:53.000Z</time>
      </trkpt>
      <trkpt lat="43.0116" lon="0.90661">
        <ele>390.7</ele>
        <time>2021-10-14T11:05:55.000Z</time>
      </trkpt>
      <trkpt lat="43.01153" lon="0.90656">
        <ele>391.4</ele>
        <time>2021-10-14T11:05:56.000Z</time>
      </trkpt>
      <trkpt lat="43.01152" lon="0.90653">
        <ele>391.6</ele>
        <time>2021-10-14T11:05:57.000Z</time>
      </trkpt>
      <trkpt lat="43.01151" lon="0.90652">
        <ele>391.7</ele>
        <time>2021-10-14T11:05:58.000Z</time>
      </trkpt>
      <trkpt lat="43.01147" lon="0.90646">
        <ele>392.3</ele>
        <time>2021-10-14T11:06:00.000Z</time>
      </trkpt>
      <trkpt lat="43.01143" lon="0.90643">
        <ele>392.7</ele>
        <time>2021-10-14T11:06:02.000Z</time>
      </trkpt>
      <trkpt lat="43.0114" lon="0.90642">
        <ele>393</ele>
        <time>2021-10-14T11:06:03.000Z</time>
      </trkpt>
      <trkpt lat="43.01138" lon="0.90642">
        <ele>393.2</ele>
        <time>2021-10-14T11:06:04.000Z</time>
      </trkpt>
      <trkpt lat="43.01133" lon="0.90643">
        <ele>393.8</ele>
        <time>2021-10-14T11:06:06.000Z</time>
      </trkpt>
      <trkpt lat="43.0113" lon="0.90644">
        <ele>394.2</ele>
        <time>2021-10-14T11:06:07.000Z</time>
      </trkpt>
      <trkpt lat="43.01128" lon="0.90644">
        <ele>394.4</ele>
        <time>2021-10-14T11:06:08.000Z</time>
      </trkpt>
      <trkpt lat="43.01126" lon="0.90644">
        <ele>394.6</ele>
        <time>2021-10-14T11:06:09.000Z</time>
      </trkpt>
      <trkpt lat="43.01123" lon="0.90644">
        <ele>395</ele>
        <time>2021-10-14T11:06:11.000Z</time>
      </trkpt>
      <trkpt lat="43.01118" lon="0.90645">
        <ele>395.5</ele>
        <time>2021-10-14T11:06:13.000Z</time>
      </trkpt>
      <trkpt lat="43.01115" lon="0.90645">
        <ele>395.9</ele>
        <time>2021-10-14T11:06:14.000Z</time>
      </trkpt>
      <trkpt lat="43.01114" lon="0.90645">
        <ele>396.1</ele>
        <time>2021-10-14T11:06:15.000Z</time>
      </trkpt>
      <trkpt lat="43.01112" lon="0.90647">
        <ele>396.4</ele>
        <time>2021-10-14T11:06:16.000Z</time>
      </trkpt>
      <trkpt lat="43.0111" lon="0.90648">
        <ele>396.7</ele>
        <time>2021-10-14T11:06:18.000Z</time>
      </trkpt>
      <trkpt lat="43.01108" lon="0.9065">
        <ele>397</ele>
        <time>2021-10-14T11:06:19.000Z</time>
      </trkpt>
      <trkpt lat="43.01104" lon="0.90652">
        <ele>397.5</ele>
        <time>2021-10-14T11:06:21.000Z</time>
      </trkpt>
      <trkpt lat="43.01101" lon="0.90652">
        <ele>397.8</ele>
        <time>2021-10-14T11:06:22.000Z</time>
      </trkpt>
      <trkpt lat="43.01099" lon="0.90653">
        <ele>398</ele>
        <time>2021-10-14T11:06:24.000Z</time>
      </trkpt>
      <trkpt lat="43.01097" lon="0.90652">
        <ele>398.3</ele>
        <time>2021-10-14T11:06:25.000Z</time>
      </trkpt>
      <trkpt lat="43.01095" lon="0.90652">
        <ele>398.5</ele>
        <time>2021-10-14T11:06:26.000Z</time>
      </trkpt>
      <trkpt lat="43.01092" lon="0.90652">
        <ele>398.8</ele>
        <time>2021-10-14T11:06:28.000Z</time>
      </trkpt>
      <trkpt lat="43.01087" lon="0.90652">
        <ele>399.3</ele>
        <time>2021-10-14T11:06:30.000Z</time>
      </trkpt>
      <trkpt lat="43.01084" lon="0.90652">
        <ele>399.5</ele>
        <time>2021-10-14T11:06:32.000Z</time>
      </trkpt>
      <trkpt lat="43.01081" lon="0.90654">
        <ele>399.8</ele>
        <time>2021-10-14T11:06:33.000Z</time>
      </trkpt>
      <trkpt lat="43.01078" lon="0.90655">
        <ele>400</ele>
        <time>2021-10-14T11:06:35.000Z</time>
      </trkpt>
      <trkpt lat="43.01073" lon="0.90655">
        <ele>400.2</ele>
        <time>2021-10-14T11:06:37.000Z</time>
      </trkpt>
      <trkpt lat="43.01069" lon="0.90656">
        <ele>400.4</ele>
        <time>2021-10-14T11:06:38.000Z</time>
      </trkpt>
      <trkpt lat="43.01064" lon="0.90657">
        <ele>400.6</ele>
        <time>2021-10-14T11:06:40.000Z</time>
      </trkpt>
      <trkpt lat="43.01059" lon="0.90657">
        <ele>400.7</ele>
        <time>2021-10-14T11:06:41.000Z</time>
      </trkpt>
      <trkpt lat="43.01055" lon="0.90657">
        <ele>400.8</ele>
        <time>2021-10-14T11:06:43.000Z</time>
      </trkpt>
      <trkpt lat="43.01051" lon="0.90657">
        <ele>400.8</ele>
        <time>2021-10-14T11:06:44.000Z</time>
      </trkpt>
      <trkpt lat="43.01049" lon="0.90657">
        <ele>400.9</ele>
        <time>2021-10-14T11:06:45.000Z</time>
      </trkpt>
      <trkpt lat="43.01042" lon="0.90658">
        <ele>400.9</ele>
        <time>2021-10-14T11:06:47.000Z</time>
      </trkpt>
      <trkpt lat="43.01038" lon="0.90659">
        <ele>401</ele>
        <time>2021-10-14T11:06:48.000Z</time>
      </trkpt>
      <trkpt lat="43.01035" lon="0.90659">
        <ele>401</ele>
        <time>2021-10-14T11:06:49.000Z</time>
      </trkpt>
      <trkpt lat="43.01029" lon="0.90659">
        <ele>401.1</ele>
        <time>2021-10-14T11:06:51.000Z</time>
      </trkpt>
      <trkpt lat="43.01025" lon="0.90658">
        <ele>401.2</ele>
        <time>2021-10-14T11:06:52.000Z</time>
      </trkpt>
      <trkpt lat="43.0102" lon="0.90658">
        <ele>401.3</ele>
        <time>2021-10-14T11:06:54.000Z</time>
      </trkpt>
      <trkpt lat="43.01016" lon="0.90658">
        <ele>401.4</ele>
        <time>2021-10-14T11:06:55.000Z</time>
      </trkpt>
      <trkpt lat="43.01013" lon="0.90658">
        <ele>401.6</ele>
        <time>2021-10-14T11:06:56.000Z</time>
      </trkpt>
      <trkpt lat="43.01008" lon="0.90658">
        <ele>401.9</ele>
        <time>2021-10-14T11:06:58.000Z</time>
      </trkpt>
      <trkpt lat="43.01005" lon="0.90658">
        <ele>402.1</ele>
        <time>2021-10-14T11:06:59.000Z</time>
      </trkpt>
      <trkpt lat="43.01001" lon="0.90658">
        <ele>402.4</ele>
        <time>2021-10-14T11:07:00.000Z</time>
      </trkpt>
      <trkpt lat="43.00998" lon="0.90658">
        <ele>402.7</ele>
        <time>2021-10-14T11:07:01.000Z</time>
      </trkpt>
      <trkpt lat="43.00994" lon="0.90658">
        <ele>403.1</ele>
        <time>2021-10-14T11:07:03.000Z</time>
      </trkpt>
      <trkpt lat="43.0099" lon="0.90657">
        <ele>403.5</ele>
        <time>2021-10-14T11:07:04.000Z</time>
      </trkpt>
      <trkpt lat="43.00987" lon="0.90657">
        <ele>403.8</ele>
        <time>2021-10-14T11:07:05.000Z</time>
      </trkpt>
      <trkpt lat="43.00985" lon="0.90657">
        <ele>404.1</ele>
        <time>2021-10-14T11:07:06.000Z</time>
      </trkpt>
      <trkpt lat="43.00981" lon="0.90657">
        <ele>404.6</ele>
        <time>2021-10-14T11:07:08.000Z</time>
      </trkpt>
      <trkpt lat="43.00978" lon="0.90657">
        <ele>405</ele>
        <time>2021-10-14T11:07:09.000Z</time>
      </trkpt>
      <trkpt lat="43.00977" lon="0.90657">
        <ele>405.1</ele>
        <time>2021-10-14T11:07:10.000Z</time>
      </trkpt>
      <trkpt lat="43.00974" lon="0.90656">
        <ele>405.5</ele>
        <time>2021-10-14T11:07:12.000Z</time>
      </trkpt>
      <trkpt lat="43.00972" lon="0.90655">
        <ele>405.7</ele>
        <time>2021-10-14T11:07:14.000Z</time>
      </trkpt>
      <trkpt lat="43.0097" lon="0.90656">
        <ele>406</ele>
        <time>2021-10-14T11:07:16.000Z</time>
      </trkpt>
      <trkpt lat="43.00967" lon="0.90657">
        <ele>406.3</ele>
        <time>2021-10-14T11:07:17.000Z</time>
      </trkpt>
      <trkpt lat="43.00964" lon="0.90657">
        <ele>406.7</ele>
        <time>2021-10-14T11:07:19.000Z</time>
      </trkpt>
      <trkpt lat="43.0096" lon="0.9066">
        <ele>407.1</ele>
        <time>2021-10-14T11:07:21.000Z</time>
      </trkpt>
      <trkpt lat="43.00958" lon="0.90661">
        <ele>407.4</ele>
        <time>2021-10-14T11:07:22.000Z</time>
      </trkpt>
      <trkpt lat="43.00954" lon="0.90663">
        <ele>407.8</ele>
        <time>2021-10-14T11:07:24.000Z</time>
      </trkpt>
      <trkpt lat="43.00951" lon="0.90663">
        <ele>408.2</ele>
        <time>2021-10-14T11:07:26.000Z</time>
      </trkpt>
      <trkpt lat="43.00948" lon="0.90662">
        <ele>408.4</ele>
        <time>2021-10-14T11:07:27.000Z</time>
      </trkpt>
      <trkpt lat="43.00946" lon="0.90662">
        <ele>408.6</ele>
        <time>2021-10-14T11:07:28.000Z</time>
      </trkpt>
      <trkpt lat="43.00943" lon="0.90662">
        <ele>408.8</ele>
        <time>2021-10-14T11:07:30.000Z</time>
      </trkpt>
      <trkpt lat="43.0094" lon="0.90661">
        <ele>409.1</ele>
        <time>2021-10-14T11:07:32.000Z</time>
      </trkpt>
      <trkpt lat="43.00938" lon="0.90661">
        <ele>409.2</ele>
        <time>2021-10-14T11:07:33.000Z</time>
      </trkpt>
      <trkpt lat="43.00937" lon="0.9066">
        <ele>409.3</ele>
        <time>2021-10-14T11:07:34.000Z</time>
      </trkpt>
      <trkpt lat="43.00932" lon="0.90659">
        <ele>409.6</ele>
        <time>2021-10-14T11:07:36.000Z</time>
      </trkpt>
      <trkpt lat="43.00929" lon="0.90658">
        <ele>409.8</ele>
        <time>2021-10-14T11:07:37.000Z</time>
      </trkpt>
      <trkpt lat="43.00928" lon="0.90658">
        <ele>409.9</ele>
        <time>2021-10-14T11:07:38.000Z</time>
      </trkpt>
      <trkpt lat="43.00925" lon="0.90658">
        <ele>410</ele>
        <time>2021-10-14T11:07:40.000Z</time>
      </trkpt>
      <trkpt lat="43.00922" lon="0.90657">
        <ele>410.2</ele>
        <time>2021-10-14T11:07:41.000Z</time>
      </trkpt>
      <trkpt lat="43.00918" lon="0.90656">
        <ele>410.4</ele>
        <time>2021-10-14T11:07:43.000Z</time>
      </trkpt>
      <trkpt lat="43.00916" lon="0.90655">
        <ele>410.5</ele>
        <time>2021-10-14T11:07:44.000Z</time>
      </trkpt>
      <trkpt lat="43.00912" lon="0.90654">
        <ele>410.7</ele>
        <time>2021-10-14T11:07:46.000Z</time>
      </trkpt>
      <trkpt lat="43.00909" lon="0.90653">
        <ele>410.8</ele>
        <time>2021-10-14T11:07:48.000Z</time>
      </trkpt>
      <trkpt lat="43.00907" lon="0.90653">
        <ele>410.9</ele>
        <time>2021-10-14T11:07:49.000Z</time>
      </trkpt>
      <trkpt lat="43.00903" lon="0.90651">
        <ele>411.1</ele>
        <time>2021-10-14T11:07:51.000Z</time>
      </trkpt>
      <trkpt lat="43.009" lon="0.9065">
        <ele>411.2</ele>
        <time>2021-10-14T11:07:52.000Z</time>
      </trkpt>
      <trkpt lat="43.00897" lon="0.90649">
        <ele>411.3</ele>
        <time>2021-10-14T11:07:54.000Z</time>
      </trkpt>
      <trkpt lat="43.00895" lon="0.90648">
        <ele>411.4</ele>
        <time>2021-10-14T11:07:55.000Z</time>
      </trkpt>
      <trkpt lat="43.00892" lon="0.90646">
        <ele>411.5</ele>
        <time>2021-10-14T11:07:56.000Z</time>
      </trkpt>
      <trkpt lat="43.00887" lon="0.90644">
        <ele>411.6</ele>
        <time>2021-10-14T11:07:58.000Z</time>
      </trkpt>
      <trkpt lat="43.00883" lon="0.90643">
        <ele>411.7</ele>
        <time>2021-10-14T11:07:59.000Z</time>
      </trkpt>
      <trkpt lat="43.0088" lon="0.90642">
        <ele>411.8</ele>
        <time>2021-10-14T11:08:00.000Z</time>
      </trkpt>
      <trkpt lat="43.00874" lon="0.90642">
        <ele>411.9</ele>
        <time>2021-10-14T11:08:02.000Z</time>
      </trkpt>
      <trkpt lat="43.00869" lon="0.90643">
        <ele>411.9</ele>
        <time>2021-10-14T11:08:03.000Z</time>
      </trkpt>
      <trkpt lat="43.00863" lon="0.90646">
        <ele>412</ele>
        <time>2021-10-14T11:08:05.000Z</time>
      </trkpt>
      <trkpt lat="43.00859" lon="0.90648">
        <ele>412.1</ele>
        <time>2021-10-14T11:08:06.000Z</time>
      </trkpt>
      <trkpt lat="43.00853" lon="0.90651">
        <ele>412.3</ele>
        <time>2021-10-14T11:08:08.000Z</time>
      </trkpt>
      <trkpt lat="43.00848" lon="0.90653">
        <ele>412.4</ele>
        <time>2021-10-14T11:08:09.000Z</time>
      </trkpt>
      <trkpt lat="43.00843" lon="0.90656">
        <ele>412.5</ele>
        <time>2021-10-14T11:08:11.000Z</time>
      </trkpt>
      <trkpt lat="43.00838" lon="0.90658">
        <ele>412.6</ele>
        <time>2021-10-14T11:08:13.000Z</time>
      </trkpt>
      <trkpt lat="43.00833" lon="0.9066">
        <ele>412.7</ele>
        <time>2021-10-14T11:08:14.000Z</time>
      </trkpt>
      <trkpt lat="43.00828" lon="0.90663">
        <ele>412.9</ele>
        <time>2021-10-14T11:08:16.000Z</time>
      </trkpt>
      <trkpt lat="43.00824" lon="0.90665">
        <ele>413</ele>
        <time>2021-10-14T11:08:17.000Z</time>
      </trkpt>
      <trkpt lat="43.00819" lon="0.90669">
        <ele>413.2</ele>
        <time>2021-10-14T11:08:19.000Z</time>
      </trkpt>
      <trkpt lat="43.00815" lon="0.90671">
        <ele>413.4</ele>
        <time>2021-10-14T11:08:20.000Z</time>
      </trkpt>
      <trkpt lat="43.00811" lon="0.90672">
        <ele>413.6</ele>
        <time>2021-10-14T11:08:21.000Z</time>
      </trkpt>
      <trkpt lat="43.00805" lon="0.90674">
        <ele>413.8</ele>
        <time>2021-10-14T11:08:23.000Z</time>
      </trkpt>
      <trkpt lat="43.00801" lon="0.90676">
        <ele>414</ele>
        <time>2021-10-14T11:08:24.000Z</time>
      </trkpt>
      <trkpt lat="43.00799" lon="0.90678">
        <ele>414.1</ele>
        <time>2021-10-14T11:08:25.000Z</time>
      </trkpt>
      <trkpt lat="43.00795" lon="0.90679">
        <ele>414.3</ele>
        <time>2021-10-14T11:08:26.000Z</time>
      </trkpt>
      <trkpt lat="43.00791" lon="0.9068">
        <ele>414.6</ele>
        <time>2021-10-14T11:08:28.000Z</time>
      </trkpt>
      <trkpt lat="43.00787" lon="0.90681">
        <ele>414.8</ele>
        <time>2021-10-14T11:08:29.000Z</time>
      </trkpt>
      <trkpt lat="43.00783" lon="0.90682">
        <ele>415.1</ele>
        <time>2021-10-14T11:08:31.000Z</time>
      </trkpt>
      <trkpt lat="43.00779" lon="0.90682">
        <ele>415.4</ele>
        <time>2021-10-14T11:08:33.000Z</time>
      </trkpt>
      <trkpt lat="43.00778" lon="0.90682">
        <ele>415.5</ele>
        <time>2021-10-14T11:08:34.000Z</time>
      </trkpt>
      <trkpt lat="43.00777" lon="0.90682">
        <ele>415.5</ele>
        <time>2021-10-14T11:08:35.000Z</time>
      </trkpt>
      <trkpt lat="43.00773" lon="0.90678">
        <ele>415.9</ele>
        <time>2021-10-14T11:08:37.000Z</time>
      </trkpt>
      <trkpt lat="43.0077" lon="0.90675">
        <ele>416.1</ele>
        <time>2021-10-14T11:08:38.000Z</time>
      </trkpt>
      <trkpt lat="43.00766" lon="0.90671">
        <ele>416.4</ele>
        <time>2021-10-14T11:08:40.000Z</time>
      </trkpt>
      <trkpt lat="43.00763" lon="0.90669">
        <ele>416.6</ele>
        <time>2021-10-14T11:08:41.000Z</time>
      </trkpt>
      <trkpt lat="43.0076" lon="0.90667">
        <ele>416.8</ele>
        <time>2021-10-14T11:08:43.000Z</time>
      </trkpt>
      <trkpt lat="43.00757" lon="0.90665">
        <ele>416.9</ele>
        <time>2021-10-14T11:08:44.000Z</time>
      </trkpt>
      <trkpt lat="43.00755" lon="0.90661">
        <ele>417.1</ele>
        <time>2021-10-14T11:08:45.000Z</time>
      </trkpt>
      <trkpt lat="43.00754" lon="0.9066">
        <ele>417.2</ele>
        <time>2021-10-14T11:08:46.000Z</time>
      </trkpt>
      <trkpt lat="43.00752" lon="0.90657">
        <ele>417.4</ele>
        <time>2021-10-14T11:08:48.000Z</time>
      </trkpt>
      <trkpt lat="43.00751" lon="0.90656">
        <ele>417.4</ele>
        <time>2021-10-14T11:08:49.000Z</time>
      </trkpt>
      <trkpt lat="43.0075" lon="0.90655">
        <ele>417.5</ele>
        <time>2021-10-14T11:08:51.000Z</time>
      </trkpt>
      <trkpt lat="43.00749" lon="0.90653">
        <ele>417.6</ele>
        <time>2021-10-14T11:08:53.000Z</time>
      </trkpt>
      <trkpt lat="43.00748" lon="0.90651">
        <ele>417.7</ele>
        <time>2021-10-14T11:08:54.000Z</time>
      </trkpt>
      <trkpt lat="43.00746" lon="0.90647">
        <ele>417.9</ele>
        <time>2021-10-14T11:08:56.000Z</time>
      </trkpt>
      <trkpt lat="43.00742" lon="0.90643">
        <ele>418</ele>
        <time>2021-10-14T11:08:57.000Z</time>
      </trkpt>
      <trkpt lat="43.00737" lon="0.90639">
        <ele>418.3</ele>
        <time>2021-10-14T11:08:59.000Z</time>
      </trkpt>
      <trkpt lat="43.00732" lon="0.90637">
        <ele>418.4</ele>
        <time>2021-10-14T11:09:00.000Z</time>
      </trkpt>
      <trkpt lat="43.00727" lon="0.90635">
        <ele>418.6</ele>
        <time>2021-10-14T11:09:02.000Z</time>
      </trkpt>
      <trkpt lat="43.00721" lon="0.90633">
        <ele>418.7</ele>
        <time>2021-10-14T11:09:04.000Z</time>
      </trkpt>
      <trkpt lat="43.00718" lon="0.90632">
        <ele>418.7</ele>
        <time>2021-10-14T11:09:05.000Z</time>
      </trkpt>
      <trkpt lat="43.00711" lon="0.9063">
        <ele>418.7</ele>
        <time>2021-10-14T11:09:07.000Z</time>
      </trkpt>
      <trkpt lat="43.00707" lon="0.90628">
        <ele>418.6</ele>
        <time>2021-10-14T11:09:08.000Z</time>
      </trkpt>
      <trkpt lat="43.00703" lon="0.90627">
        <ele>418.5</ele>
        <time>2021-10-14T11:09:09.000Z</time>
      </trkpt>
      <trkpt lat="43.00698" lon="0.90625">
        <ele>418.3</ele>
        <time>2021-10-14T11:09:10.000Z</time>
      </trkpt>
      <trkpt lat="43.0069" lon="0.90623">
        <ele>417.9</ele>
        <time>2021-10-14T11:09:12.000Z</time>
      </trkpt>
      <trkpt lat="43.00684" lon="0.90622">
        <ele>417.5</ele>
        <time>2021-10-14T11:09:13.000Z</time>
      </trkpt>
      <trkpt lat="43.00674" lon="0.9062">
        <ele>416.9</ele>
        <time>2021-10-14T11:09:14.000Z</time>
      </trkpt>
      <trkpt lat="43.00669" lon="0.90618">
        <ele>416.6</ele>
        <time>2021-10-14T11:09:15.000Z</time>
      </trkpt>
      <trkpt lat="43.00663" lon="0.90615">
        <ele>416.3</ele>
        <time>2021-10-14T11:09:16.000Z</time>
      </trkpt>
      <trkpt lat="43.00649" lon="0.90609">
        <ele>415.3</ele>
        <time>2021-10-14T11:09:18.000Z</time>
      </trkpt>
      <trkpt lat="43.00644" lon="0.90608">
        <ele>415</ele>
        <time>2021-10-14T11:09:19.000Z</time>
      </trkpt>
      <trkpt lat="43.00637" lon="0.90605">
        <ele>414.8</ele>
        <time>2021-10-14T11:09:20.000Z</time>
      </trkpt>
      <trkpt lat="43.00626" lon="0.90607">
        <ele>414.4</ele>
        <time>2021-10-14T11:09:22.000Z</time>
      </trkpt>
      <trkpt lat="43.00619" lon="0.90609">
        <ele>414.1</ele>
        <time>2021-10-14T11:09:23.000Z</time>
      </trkpt>
      <trkpt lat="43.00613" lon="0.9061">
        <ele>413.9</ele>
        <time>2021-10-14T11:09:24.000Z</time>
      </trkpt>
      <trkpt lat="43.00607" lon="0.90612">
        <ele>413.7</ele>
        <time>2021-10-14T11:09:25.000Z</time>
      </trkpt>
      <trkpt lat="43.00593" lon="0.90614">
        <ele>413.3</ele>
        <time>2021-10-14T11:09:27.000Z</time>
      </trkpt>
      <trkpt lat="43.00581" lon="0.90616">
        <ele>413.1</ele>
        <time>2021-10-14T11:09:29.000Z</time>
      </trkpt>
      <trkpt lat="43.00568" lon="0.90617">
        <ele>412.7</ele>
        <time>2021-10-14T11:09:31.000Z</time>
      </trkpt>
      <trkpt lat="43.00557" lon="0.90618">
        <ele>412</ele>
        <time>2021-10-14T11:09:33.000Z</time>
      </trkpt>
      <trkpt lat="43.00548" lon="0.90614">
        <ele>411.2</ele>
        <time>2021-10-14T11:09:35.000Z</time>
      </trkpt>
      <trkpt lat="43.00544" lon="0.90614">
        <ele>411</ele>
        <time>2021-10-14T11:09:36.000Z</time>
      </trkpt>
      <trkpt lat="43.00536" lon="0.90611">
        <ele>410.5</ele>
        <time>2021-10-14T11:09:38.000Z</time>
      </trkpt>
      <trkpt lat="43.0053" lon="0.90609">
        <ele>410.3</ele>
        <time>2021-10-14T11:09:40.000Z</time>
      </trkpt>
      <trkpt lat="43.00526" lon="0.9061">
        <ele>410.2</ele>
        <time>2021-10-14T11:09:42.000Z</time>
      </trkpt>
      <trkpt lat="43.00523" lon="0.90611">
        <ele>410.4</ele>
        <time>2021-10-14T11:09:43.000Z</time>
      </trkpt>
      <trkpt lat="43.00519" lon="0.90615">
        <ele>410.6</ele>
        <time>2021-10-14T11:09:45.000Z</time>
      </trkpt>
      <trkpt lat="43.00516" lon="0.90618">
        <ele>410.9</ele>
        <time>2021-10-14T11:09:46.000Z</time>
      </trkpt>
      <trkpt lat="43.00514" lon="0.90619">
        <ele>411</ele>
        <time>2021-10-14T11:09:47.000Z</time>
      </trkpt>
      <trkpt lat="43.00511" lon="0.90622">
        <ele>411.2</ele>
        <time>2021-10-14T11:09:49.000Z</time>
      </trkpt>
      <trkpt lat="43.00507" lon="0.90624">
        <ele>411.5</ele>
        <time>2021-10-14T11:09:50.000Z</time>
      </trkpt>
      <trkpt lat="43.00505" lon="0.90624">
        <ele>411.7</ele>
        <time>2021-10-14T11:09:51.000Z</time>
      </trkpt>
      <trkpt lat="43.00501" lon="0.90624">
        <ele>411.9</ele>
        <time>2021-10-14T11:09:52.000Z</time>
      </trkpt>
      <trkpt lat="43.00497" lon="0.90623">
        <ele>412.1</ele>
        <time>2021-10-14T11:09:54.000Z</time>
      </trkpt>
      <trkpt lat="43.00494" lon="0.90622">
        <ele>412.3</ele>
        <time>2021-10-14T11:09:55.000Z</time>
      </trkpt>
      <trkpt lat="43.00489" lon="0.90621">
        <ele>412.6</ele>
        <time>2021-10-14T11:09:56.000Z</time>
      </trkpt>
      <trkpt lat="43.00485" lon="0.9062">
        <ele>412.7</ele>
        <time>2021-10-14T11:09:58.000Z</time>
      </trkpt>
      <trkpt lat="43.0048" lon="0.90619">
        <ele>412.9</ele>
        <time>2021-10-14T11:09:59.000Z</time>
      </trkpt>
      <trkpt lat="43.00475" lon="0.90618">
        <ele>413</ele>
        <time>2021-10-14T11:10:01.000Z</time>
      </trkpt>
      <trkpt lat="43.00471" lon="0.90617">
        <ele>413.1</ele>
        <time>2021-10-14T11:10:02.000Z</time>
      </trkpt>
      <trkpt lat="43.00466" lon="0.90617">
        <ele>413.2</ele>
        <time>2021-10-14T11:10:04.000Z</time>
      </trkpt>
      <trkpt lat="43.00462" lon="0.90618">
        <ele>413.3</ele>
        <time>2021-10-14T11:10:05.000Z</time>
      </trkpt>
      <trkpt lat="43.00459" lon="0.90618">
        <ele>413.4</ele>
        <time>2021-10-14T11:10:06.000Z</time>
      </trkpt>
      <trkpt lat="43.00454" lon="0.90619">
        <ele>413.4</ele>
        <time>2021-10-14T11:10:08.000Z</time>
      </trkpt>
      <trkpt lat="43.0045" lon="0.90619">
        <ele>413.5</ele>
        <time>2021-10-14T11:10:09.000Z</time>
      </trkpt>
      <trkpt lat="43.00447" lon="0.9062">
        <ele>413.6</ele>
        <time>2021-10-14T11:10:10.000Z</time>
      </trkpt>
      <trkpt lat="43.00441" lon="0.9062">
        <ele>413.7</ele>
        <time>2021-10-14T11:10:12.000Z</time>
      </trkpt>
      <trkpt lat="43.00437" lon="0.90621">
        <ele>413.7</ele>
        <time>2021-10-14T11:10:13.000Z</time>
      </trkpt>
      <trkpt lat="43.00434" lon="0.90622">
        <ele>413.8</ele>
        <time>2021-10-14T11:10:14.000Z</time>
      </trkpt>
      <trkpt lat="43.00427" lon="0.90623">
        <ele>413.9</ele>
        <time>2021-10-14T11:10:16.000Z</time>
      </trkpt>
      <trkpt lat="43.00422" lon="0.90623">
        <ele>414</ele>
        <time>2021-10-14T11:10:17.000Z</time>
      </trkpt>
      <trkpt lat="43.00417" lon="0.90623">
        <ele>414.2</ele>
        <time>2021-10-14T11:10:19.000Z</time>
      </trkpt>
      <trkpt lat="43.00413" lon="0.90624">
        <ele>414.2</ele>
        <time>2021-10-14T11:10:20.000Z</time>
      </trkpt>
      <trkpt lat="43.00409" lon="0.90624">
        <ele>414.3</ele>
        <time>2021-10-14T11:10:21.000Z</time>
      </trkpt>
      <trkpt lat="43.00402" lon="0.90624">
        <ele>414.3</ele>
        <time>2021-10-14T11:10:23.000Z</time>
      </trkpt>
      <trkpt lat="43.00398" lon="0.90625">
        <ele>414.2</ele>
        <time>2021-10-14T11:10:24.000Z</time>
      </trkpt>
      <trkpt lat="43.00393" lon="0.90626">
        <ele>414.1</ele>
        <time>2021-10-14T11:10:26.000Z</time>
      </trkpt>
      <trkpt lat="43.00386" lon="0.90628">
        <ele>413.8</ele>
        <time>2021-10-14T11:10:28.000Z</time>
      </trkpt>
      <trkpt lat="43.00382" lon="0.90632">
        <ele>413.6</ele>
        <time>2021-10-14T11:10:29.000Z</time>
      </trkpt>
      <trkpt lat="43.00375" lon="0.90639">
        <ele>413</ele>
        <time>2021-10-14T11:10:31.000Z</time>
      </trkpt>
      <trkpt lat="43.00374" lon="0.90645">
        <ele>412.7</ele>
        <time>2021-10-14T11:10:32.000Z</time>
      </trkpt>
      <trkpt lat="43.00371" lon="0.9065">
        <ele>412.5</ele>
        <time>2021-10-14T11:10:33.000Z</time>
      </trkpt>
      <trkpt lat="43.00364" lon="0.9066">
        <ele>412</ele>
        <time>2021-10-14T11:10:35.000Z</time>
      </trkpt>
      <trkpt lat="43.0036" lon="0.90664">
        <ele>411.7</ele>
        <time>2021-10-14T11:10:36.000Z</time>
      </trkpt>
      <trkpt lat="43.00351" lon="0.90674">
        <ele>411.1</ele>
        <time>2021-10-14T11:10:38.000Z</time>
      </trkpt>
      <trkpt lat="43.00339" lon="0.90677">
        <ele>410.1</ele>
        <time>2021-10-14T11:10:40.000Z</time>
      </trkpt>
      <trkpt lat="43.00326" lon="0.90669">
        <ele>408.8</ele>
        <time>2021-10-14T11:10:42.000Z</time>
      </trkpt>
      <trkpt lat="43.00314" lon="0.9066">
        <ele>407.5</ele>
        <time>2021-10-14T11:10:44.000Z</time>
      </trkpt>
      <trkpt lat="43.003" lon="0.90647">
        <ele>406.1</ele>
        <time>2021-10-14T11:10:46.000Z</time>
      </trkpt>
      <trkpt lat="43.00292" lon="0.90643">
        <ele>405.4</ele>
        <time>2021-10-14T11:10:47.000Z</time>
      </trkpt>
      <trkpt lat="43.00275" lon="0.90632">
        <ele>403.9</ele>
        <time>2021-10-14T11:10:49.000Z</time>
      </trkpt>
      <trkpt lat="43.00266" lon="0.9063">
        <ele>403.2</ele>
        <time>2021-10-14T11:10:50.000Z</time>
      </trkpt>
      <trkpt lat="43.00246" lon="0.9063">
        <ele>402.4</ele>
        <time>2021-10-14T11:10:52.000Z</time>
      </trkpt>
      <trkpt lat="43.00238" lon="0.90633">
        <ele>402.3</ele>
        <time>2021-10-14T11:10:53.000Z</time>
      </trkpt>
      <trkpt lat="43.0023" lon="0.90638">
        <ele>402.3</ele>
        <time>2021-10-14T11:10:54.000Z</time>
      </trkpt>
      <trkpt lat="43.00215" lon="0.90647">
        <ele>402.3</ele>
        <time>2021-10-14T11:10:56.000Z</time>
      </trkpt>
      <trkpt lat="43.00208" lon="0.90651">
        <ele>402.4</ele>
        <time>2021-10-14T11:10:57.000Z</time>
      </trkpt>
      <trkpt lat="43.00194" lon="0.90659">
        <ele>402.5</ele>
        <time>2021-10-14T11:10:59.000Z</time>
      </trkpt>
      <trkpt lat="43.00183" lon="0.90664">
        <ele>402.6</ele>
        <time>2021-10-14T11:11:01.000Z</time>
      </trkpt>
      <trkpt lat="43.00174" lon="0.9067">
        <ele>402.7</ele>
        <time>2021-10-14T11:11:03.000Z</time>
      </trkpt>
      <trkpt lat="43.00169" lon="0.90672">
        <ele>402.8</ele>
        <time>2021-10-14T11:11:04.000Z</time>
      </trkpt>
      <trkpt lat="43.00165" lon="0.90675">
        <ele>402.9</ele>
        <time>2021-10-14T11:11:05.000Z</time>
      </trkpt>
      <trkpt lat="43.00162" lon="0.90678">
        <ele>402.9</ele>
        <time>2021-10-14T11:11:06.000Z</time>
      </trkpt>
      <trkpt lat="43.00155" lon="0.90684">
        <ele>403.1</ele>
        <time>2021-10-14T11:11:08.000Z</time>
      </trkpt>
      <trkpt lat="43.00148" lon="0.90691">
        <ele>403.2</ele>
        <time>2021-10-14T11:11:10.000Z</time>
      </trkpt>
      <trkpt lat="43.00143" lon="0.90695">
        <ele>403.3</ele>
        <time>2021-10-14T11:11:11.000Z</time>
      </trkpt>
      <trkpt lat="43.00133" lon="0.90701">
        <ele>403.5</ele>
        <time>2021-10-14T11:11:13.000Z</time>
      </trkpt>
      <trkpt lat="43.00125" lon="0.90704">
        <ele>403.8</ele>
        <time>2021-10-14T11:11:15.000Z</time>
      </trkpt>
      <trkpt lat="43.00118" lon="0.9071">
        <ele>404</ele>
        <time>2021-10-14T11:11:16.000Z</time>
      </trkpt>
      <trkpt lat="43.00112" lon="0.90716">
        <ele>404.2</ele>
        <time>2021-10-14T11:11:18.000Z</time>
      </trkpt>
      <trkpt lat="43.00103" lon="0.90722">
        <ele>404.4</ele>
        <time>2021-10-14T11:11:20.000Z</time>
      </trkpt>
      <trkpt lat="43.001" lon="0.90729">
        <ele>404.5</ele>
        <time>2021-10-14T11:11:22.000Z</time>
      </trkpt>
      <trkpt lat="43.00096" lon="0.90732">
        <ele>404.6</ele>
        <time>2021-10-14T11:11:23.000Z</time>
      </trkpt>
      <trkpt lat="43.00091" lon="0.90735">
        <ele>404.7</ele>
        <time>2021-10-14T11:11:25.000Z</time>
      </trkpt>
      <trkpt lat="43.00084" lon="0.90735">
        <ele>404.8</ele>
        <time>2021-10-14T11:11:26.000Z</time>
      </trkpt>
      <trkpt lat="43.00079" lon="0.90733">
        <ele>404.8</ele>
        <time>2021-10-14T11:11:27.000Z</time>
      </trkpt>
      <trkpt lat="43.00072" lon="0.90733">
        <ele>404.9</ele>
        <time>2021-10-14T11:11:29.000Z</time>
      </trkpt>
      <trkpt lat="43.00067" lon="0.90734">
        <ele>404.9</ele>
        <time>2021-10-14T11:11:31.000Z</time>
      </trkpt>
      <trkpt lat="43.00058" lon="0.90731">
        <ele>405</ele>
        <time>2021-10-14T11:11:32.000Z</time>
      </trkpt>
      <trkpt lat="43.00047" lon="0.9073">
        <ele>405.1</ele>
        <time>2021-10-14T11:11:34.000Z</time>
      </trkpt>
      <trkpt lat="43.0004" lon="0.90733">
        <ele>405.2</ele>
        <time>2021-10-14T11:11:36.000Z</time>
      </trkpt>
      <trkpt lat="43.00035" lon="0.90738">
        <ele>405.3</ele>
        <time>2021-10-14T11:11:38.000Z</time>
      </trkpt>
      <trkpt lat="43.00031" lon="0.90739">
        <ele>405.3</ele>
        <time>2021-10-14T11:11:39.000Z</time>
      </trkpt>
      <trkpt lat="43.00027" lon="0.90742">
        <ele>405.4</ele>
        <time>2021-10-14T11:11:40.000Z</time>
      </trkpt>
      <trkpt lat="43.00022" lon="0.90745">
        <ele>405.5</ele>
        <time>2021-10-14T11:11:41.000Z</time>
      </trkpt>
      <trkpt lat="43.00017" lon="0.9075">
        <ele>405.6</ele>
        <time>2021-10-14T11:11:43.000Z</time>
      </trkpt>
      <trkpt lat="43.00011" lon="0.90752">
        <ele>405.7</ele>
        <time>2021-10-14T11:11:45.000Z</time>
      </trkpt>
      <trkpt lat="43.00006" lon="0.90756">
        <ele>405.8</ele>
        <time>2021-10-14T11:11:46.000Z</time>
      </trkpt>
      <trkpt lat="43.00003" lon="0.90757">
        <ele>405.9</ele>
        <time>2021-10-14T11:11:47.000Z</time>
      </trkpt>
      <trkpt lat="43" lon="0.9076">
        <ele>405.9</ele>
        <time>2021-10-14T11:11:48.000Z</time>
      </trkpt>
      <trkpt lat="42.99992" lon="0.90768">
        <ele>406.1</ele>
        <time>2021-10-14T11:11:50.000Z</time>
      </trkpt>
      <trkpt lat="42.99985" lon="0.90775">
        <ele>406.4</ele>
        <time>2021-10-14T11:11:52.000Z</time>
      </trkpt>
      <trkpt lat="42.99984" lon="0.90776">
        <ele>406.4</ele>
        <time>2021-10-14T11:11:53.000Z</time>
      </trkpt>
      <trkpt lat="42.99975" lon="0.9078">
        <ele>406.6</ele>
        <time>2021-10-14T11:11:55.000Z</time>
      </trkpt>
      <trkpt lat="42.99969" lon="0.90784">
        <ele>406.7</ele>
        <time>2021-10-14T11:11:56.000Z</time>
      </trkpt>
      <trkpt lat="42.99965" lon="0.90788">
        <ele>406.8</ele>
        <time>2021-10-14T11:11:57.000Z</time>
      </trkpt>
      <trkpt lat="42.99964" lon="0.9079">
        <ele>406.9</ele>
        <time>2021-10-14T11:11:58.000Z</time>
      </trkpt>
      <trkpt lat="42.99958" lon="0.90794">
        <ele>407</ele>
        <time>2021-10-14T11:12:00.000Z</time>
      </trkpt>
      <trkpt lat="42.9995" lon="0.90799">
        <ele>407.3</ele>
        <time>2021-10-14T11:12:01.000Z</time>
      </trkpt>
      <trkpt lat="42.99945" lon="0.90802">
        <ele>407.4</ele>
        <time>2021-10-14T11:12:02.000Z</time>
      </trkpt>
      <trkpt lat="42.99937" lon="0.90802">
        <ele>407.5</ele>
        <time>2021-10-14T11:12:04.000Z</time>
      </trkpt>
      <trkpt lat="42.99932" lon="0.90803">
        <ele>407.5</ele>
        <time>2021-10-14T11:12:05.000Z</time>
      </trkpt>
      <trkpt lat="42.99928" lon="0.90802">
        <ele>407.5</ele>
        <time>2021-10-14T11:12:06.000Z</time>
      </trkpt>
      <trkpt lat="42.99918" lon="0.908">
        <ele>407.7</ele>
        <time>2021-10-14T11:12:08.000Z</time>
      </trkpt>
      <trkpt lat="42.99913" lon="0.908">
        <ele>407.8</ele>
        <time>2021-10-14T11:12:09.000Z</time>
      </trkpt>
      <trkpt lat="42.99911" lon="0.90799">
        <ele>407.9</ele>
        <time>2021-10-14T11:12:10.000Z</time>
      </trkpt>
      <trkpt lat="42.99906" lon="0.90799">
        <ele>408</ele>
        <time>2021-10-14T11:12:11.000Z</time>
      </trkpt>
      <trkpt lat="42.99896" lon="0.908">
        <ele>408.2</ele>
        <time>2021-10-14T11:12:13.000Z</time>
      </trkpt>
      <trkpt lat="42.99888" lon="0.90799">
        <ele>408.3</ele>
        <time>2021-10-14T11:12:15.000Z</time>
      </trkpt>
      <trkpt lat="42.99883" lon="0.90799">
        <ele>408.4</ele>
        <time>2021-10-14T11:12:16.000Z</time>
      </trkpt>
      <trkpt lat="42.99874" lon="0.908">
        <ele>408.6</ele>
        <time>2021-10-14T11:12:18.000Z</time>
      </trkpt>
      <trkpt lat="42.99869" lon="0.90803">
        <ele>408.7</ele>
        <time>2021-10-14T11:12:20.000Z</time>
      </trkpt>
      <trkpt lat="42.99863" lon="0.90803">
        <ele>408.8</ele>
        <time>2021-10-14T11:12:21.000Z</time>
      </trkpt>
      <trkpt lat="42.9986" lon="0.90802">
        <ele>408.9</ele>
        <time>2021-10-14T11:12:22.000Z</time>
      </trkpt>
      <trkpt lat="42.9985" lon="0.90801">
        <ele>409.1</ele>
        <time>2021-10-14T11:12:24.000Z</time>
      </trkpt>
      <trkpt lat="42.99847" lon="0.90797">
        <ele>409.1</ele>
        <time>2021-10-14T11:12:25.000Z</time>
      </trkpt>
      <trkpt lat="42.99841" lon="0.90798">
        <ele>409.3</ele>
        <time>2021-10-14T11:12:27.000Z</time>
      </trkpt>
      <trkpt lat="42.99835" lon="0.90799">
        <ele>409.3</ele>
        <time>2021-10-14T11:12:28.000Z</time>
      </trkpt>
      <trkpt lat="42.99829" lon="0.90801">
        <ele>409.4</ele>
        <time>2021-10-14T11:12:30.000Z</time>
      </trkpt>
      <trkpt lat="42.99824" lon="0.90803">
        <ele>409.4</ele>
        <time>2021-10-14T11:12:31.000Z</time>
      </trkpt>
      <trkpt lat="42.9982" lon="0.90803">
        <ele>409.5</ele>
        <time>2021-10-14T11:12:32.000Z</time>
      </trkpt>
      <trkpt lat="42.99815" lon="0.90804">
        <ele>409.5</ele>
        <time>2021-10-14T11:12:34.000Z</time>
      </trkpt>
      <trkpt lat="42.99811" lon="0.90807">
        <ele>409.6</ele>
        <time>2021-10-14T11:12:35.000Z</time>
      </trkpt>
      <trkpt lat="42.99805" lon="0.9081">
        <ele>409.7</ele>
        <time>2021-10-14T11:12:37.000Z</time>
      </trkpt>
      <trkpt lat="42.99801" lon="0.90813">
        <ele>409.7</ele>
        <time>2021-10-14T11:12:38.000Z</time>
      </trkpt>
      <trkpt lat="42.99797" lon="0.90816">
        <ele>409.8</ele>
        <time>2021-10-14T11:12:39.000Z</time>
      </trkpt>
      <trkpt lat="42.99791" lon="0.90821">
        <ele>409.9</ele>
        <time>2021-10-14T11:12:41.000Z</time>
      </trkpt>
      <trkpt lat="42.99787" lon="0.90827">
        <ele>410.1</ele>
        <time>2021-10-14T11:12:42.000Z</time>
      </trkpt>
      <trkpt lat="42.99781" lon="0.90834">
        <ele>410.2</ele>
        <time>2021-10-14T11:12:44.000Z</time>
      </trkpt>
      <trkpt lat="42.99777" lon="0.90838">
        <ele>410.4</ele>
        <time>2021-10-14T11:12:45.000Z</time>
      </trkpt>
      <trkpt lat="42.99774" lon="0.90841">
        <ele>410.5</ele>
        <time>2021-10-14T11:12:46.000Z</time>
      </trkpt>
      <trkpt lat="42.99767" lon="0.90852">
        <ele>410.7</ele>
        <time>2021-10-14T11:12:48.000Z</time>
      </trkpt>
      <trkpt lat="42.99764" lon="0.90855">
        <ele>410.8</ele>
        <time>2021-10-14T11:12:49.000Z</time>
      </trkpt>
      <trkpt lat="42.99758" lon="0.90861">
        <ele>410.9</ele>
        <time>2021-10-14T11:12:51.000Z</time>
      </trkpt>
      <trkpt lat="42.99755" lon="0.90862">
        <ele>411</ele>
        <time>2021-10-14T11:12:52.000Z</time>
      </trkpt>
      <trkpt lat="42.99751" lon="0.90866">
        <ele>411.1</ele>
        <time>2021-10-14T11:12:54.000Z</time>
      </trkpt>
      <trkpt lat="42.99746" lon="0.90873">
        <ele>411.3</ele>
        <time>2021-10-14T11:12:56.000Z</time>
      </trkpt>
      <trkpt lat="42.99742" lon="0.9088">
        <ele>411.4</ele>
        <time>2021-10-14T11:12:57.000Z</time>
      </trkpt>
      <trkpt lat="42.99738" lon="0.90886">
        <ele>411.6</ele>
        <time>2021-10-14T11:12:59.000Z</time>
      </trkpt>
      <trkpt lat="42.99735" lon="0.90891">
        <ele>411.7</ele>
        <time>2021-10-14T11:13:00.000Z</time>
      </trkpt>
      <trkpt lat="42.99733" lon="0.90894">
        <ele>411.7</ele>
        <time>2021-10-14T11:13:01.000Z</time>
      </trkpt>
      <trkpt lat="42.99728" lon="0.90898">
        <ele>411.8</ele>
        <time>2021-10-14T11:13:03.000Z</time>
      </trkpt>
      <trkpt lat="42.99724" lon="0.90899">
        <ele>411.9</ele>
        <time>2021-10-14T11:13:04.000Z</time>
      </trkpt>
      <trkpt lat="42.99721" lon="0.909">
        <ele>411.7</ele>
        <time>2021-10-14T11:13:05.000Z</time>
      </trkpt>
      <trkpt lat="42.99718" lon="0.909">
        <ele>411.6</ele>
        <time>2021-10-14T11:13:06.000Z</time>
      </trkpt>
      <trkpt lat="42.9971" lon="0.90898">
        <ele>411.3</ele>
        <time>2021-10-14T11:13:08.000Z</time>
      </trkpt>
      <trkpt lat="42.99706" lon="0.90896">
        <ele>411.1</ele>
        <time>2021-10-14T11:13:09.000Z</time>
      </trkpt>
      <trkpt lat="42.99698" lon="0.90881">
        <ele>410.7</ele>
        <time>2021-10-14T11:13:10.000Z</time>
      </trkpt>
      <trkpt lat="42.9969" lon="0.90874">
        <ele>410.4</ele>
        <time>2021-10-14T11:13:12.000Z</time>
      </trkpt>
      <trkpt lat="42.99686" lon="0.9087">
        <ele>410.3</ele>
        <time>2021-10-14T11:13:13.000Z</time>
      </trkpt>
      <trkpt lat="42.99675" lon="0.90865">
        <ele>410</ele>
        <time>2021-10-14T11:13:15.000Z</time>
      </trkpt>
      <trkpt lat="42.99669" lon="0.90863">
        <ele>410</ele>
        <time>2021-10-14T11:13:16.000Z</time>
      </trkpt>
      <trkpt lat="42.9966" lon="0.90858">
        <ele>409.9</ele>
        <time>2021-10-14T11:13:18.000Z</time>
      </trkpt>
      <trkpt lat="42.9965" lon="0.90853">
        <ele>409.8</ele>
        <time>2021-10-14T11:13:20.000Z</time>
      </trkpt>
      <trkpt lat="42.99645" lon="0.90851">
        <ele>409.8</ele>
        <time>2021-10-14T11:13:21.000Z</time>
      </trkpt>
      <trkpt lat="42.9964" lon="0.90849">
        <ele>409.8</ele>
        <time>2021-10-14T11:13:22.000Z</time>
      </trkpt>
      <trkpt lat="42.99631" lon="0.90844">
        <ele>409.8</ele>
        <time>2021-10-14T11:13:24.000Z</time>
      </trkpt>
      <trkpt lat="42.99622" lon="0.9084">
        <ele>409.8</ele>
        <time>2021-10-14T11:13:26.000Z</time>
      </trkpt>
      <trkpt lat="42.99616" lon="0.90839">
        <ele>409.8</ele>
        <time>2021-10-14T11:13:27.000Z</time>
      </trkpt>
      <trkpt lat="42.99607" lon="0.9084">
        <ele>409.8</ele>
        <time>2021-10-14T11:13:29.000Z</time>
      </trkpt>
      <trkpt lat="42.996" lon="0.9084">
        <ele>409.8</ele>
        <time>2021-10-14T11:13:31.000Z</time>
      </trkpt>
      <trkpt lat="42.99595" lon="0.9084">
        <ele>409.9</ele>
        <time>2021-10-14T11:13:33.000Z</time>
      </trkpt>
      <trkpt lat="42.9959" lon="0.90837">
        <ele>409.9</ele>
        <time>2021-10-14T11:13:35.000Z</time>
      </trkpt>
      <trkpt lat="42.9959" lon="0.90832">
        <ele>409.9</ele>
        <time>2021-10-14T11:13:36.000Z</time>
      </trkpt>
      <trkpt lat="42.9959" lon="0.90829">
        <ele>409.9</ele>
        <time>2021-10-14T11:13:37.000Z</time>
      </trkpt>
      <trkpt lat="42.99591" lon="0.90817">
        <ele>409.8</ele>
        <time>2021-10-14T11:13:39.000Z</time>
      </trkpt>
    </trkseg>
  </trk>
</gpx>